<?xml version="1.0" encoding="UTF-8" standalone="no" ?>
<gpx xmlns="http://www.topografix.com/GPX/1/1" xmlns:xsi="http://www.w3.org/2001/XMLSchema-instance" xsi:schemaLocation="http://www.topografix.com/GPX/1/1 http://www.topografix.com/GPX/1/1/gpx.xsd" version="1.1" creator="VisuGPX - https://www.visugpx.com">
  <metadata>
    <name>Reco Conore - St Pardoux (Montimbert) </name>
    <desc><![CDATA[Reconnaissance circuit pour rejoindre St Pardoux ]]></desc>
  </metadata>
  <trk>
    <name><![CDATA[27-MAI-18 13:14:46]]></name>
    <trkseg>
      <trkpt lat="45.9766" lon="1.15562">
        <ele>340.44</ele>
        <time>2018-05-27T06:56:28Z</time>
      </trkpt>
      <trkpt lat="45.97661" lon="1.15563">
        <ele>341.41</ele>
        <time>2018-05-27T06:56:30Z</time>
      </trkpt>
      <trkpt lat="45.97682" lon="1.15589">
        <ele>340.92</ele>
        <time>2018-05-27T06:57:01Z</time>
      </trkpt>
      <trkpt lat="45.97683" lon="1.15589">
        <ele>341.41</ele>
        <time>2018-05-27T06:57:38Z</time>
      </trkpt>
      <trkpt lat="45.97682" lon="1.1559">
        <ele>341.41</ele>
        <time>2018-05-27T06:58:05Z</time>
      </trkpt>
      <trkpt lat="45.97682" lon="1.15588">
        <ele>341.41</ele>
        <time>2018-05-27T06:58:34Z</time>
      </trkpt>
      <trkpt lat="45.97683" lon="1.15588">
        <ele>341.89</ele>
        <time>2018-05-27T06:59:04Z</time>
      </trkpt>
      <trkpt lat="45.97683" lon="1.15589">
        <ele>341.89</ele>
        <time>2018-05-27T06:59:37Z</time>
      </trkpt>
      <trkpt lat="45.97685" lon="1.15587">
        <ele>341.89</ele>
        <time>2018-05-27T06:59:58Z</time>
      </trkpt>
      <trkpt lat="45.97686" lon="1.15587">
        <ele>341.89</ele>
        <time>2018-05-27T07:00:26Z</time>
      </trkpt>
      <trkpt lat="45.97685" lon="1.15585">
        <ele>342.37</ele>
        <time>2018-05-27T07:00:29Z</time>
      </trkpt>
      <trkpt lat="45.97686" lon="1.15577">
        <ele>342.37</ele>
        <time>2018-05-27T07:00:33Z</time>
      </trkpt>
      <trkpt lat="45.97681" lon="1.15528">
        <ele>340.44</ele>
        <time>2018-05-27T07:00:46Z</time>
      </trkpt>
      <trkpt lat="45.97679" lon="1.15517">
        <ele>339.48</ele>
        <time>2018-05-27T07:00:48Z</time>
      </trkpt>
      <trkpt lat="45.97678" lon="1.15512">
        <ele>339.96</ele>
        <time>2018-05-27T07:00:49Z</time>
      </trkpt>
      <trkpt lat="45.97677" lon="1.15506">
        <ele>339.48</ele>
        <time>2018-05-27T07:00:50Z</time>
      </trkpt>
      <trkpt lat="45.97664" lon="1.15449">
        <ele>338.52</ele>
        <time>2018-05-27T07:01:00Z</time>
      </trkpt>
      <trkpt lat="45.97654" lon="1.15424">
        <ele>338.04</ele>
        <time>2018-05-27T07:01:05Z</time>
      </trkpt>
      <trkpt lat="45.97655" lon="1.15419">
        <ele>337.56</ele>
        <time>2018-05-27T07:01:06Z</time>
      </trkpt>
      <trkpt lat="45.97657" lon="1.15414">
        <ele>337.56</ele>
        <time>2018-05-27T07:01:07Z</time>
      </trkpt>
      <trkpt lat="45.97659" lon="1.1541">
        <ele>336.12</ele>
        <time>2018-05-27T07:01:08Z</time>
      </trkpt>
      <trkpt lat="45.97662" lon="1.15407">
        <ele>336.12</ele>
        <time>2018-05-27T07:01:09Z</time>
      </trkpt>
      <trkpt lat="45.97665" lon="1.15402">
        <ele>335.64</ele>
        <time>2018-05-27T07:01:10Z</time>
      </trkpt>
      <trkpt lat="45.97669" lon="1.15398">
        <ele>334.68</ele>
        <time>2018-05-27T07:01:11Z</time>
      </trkpt>
      <trkpt lat="45.97673" lon="1.15394">
        <ele>334.2</ele>
        <time>2018-05-27T07:01:12Z</time>
      </trkpt>
      <trkpt lat="45.97687" lon="1.15376">
        <ele>332.27</ele>
        <time>2018-05-27T07:01:16Z</time>
      </trkpt>
      <trkpt lat="45.97691" lon="1.15373">
        <ele>331.79</ele>
        <time>2018-05-27T07:01:17Z</time>
      </trkpt>
      <trkpt lat="45.977" lon="1.15367">
        <ele>330.83</ele>
        <time>2018-05-27T07:01:19Z</time>
      </trkpt>
      <trkpt lat="45.97705" lon="1.15363">
        <ele>330.35</ele>
        <time>2018-05-27T07:01:20Z</time>
      </trkpt>
      <trkpt lat="45.97709" lon="1.1536">
        <ele>329.87</ele>
        <time>2018-05-27T07:01:21Z</time>
      </trkpt>
      <trkpt lat="45.97718" lon="1.15355">
        <ele>328.43</ele>
        <time>2018-05-27T07:01:23Z</time>
      </trkpt>
      <trkpt lat="45.97741" lon="1.15354">
        <ele>326.5</ele>
        <time>2018-05-27T07:01:31Z</time>
      </trkpt>
      <trkpt lat="45.97765" lon="1.15368">
        <ele>324.1</ele>
        <time>2018-05-27T07:01:38Z</time>
      </trkpt>
      <trkpt lat="45.97784" lon="1.15388">
        <ele>320.74</ele>
        <time>2018-05-27T07:01:44Z</time>
      </trkpt>
      <trkpt lat="45.9782" lon="1.15423">
        <ele>317.37</ele>
        <time>2018-05-27T07:01:56Z</time>
      </trkpt>
      <trkpt lat="45.97831" lon="1.15426">
        <ele>315.93</ele>
        <time>2018-05-27T07:01:59Z</time>
      </trkpt>
      <trkpt lat="45.97844" lon="1.15428">
        <ele>314.01</ele>
        <time>2018-05-27T07:02:02Z</time>
      </trkpt>
      <trkpt lat="45.97865" lon="1.15432">
        <ele>310.16</ele>
        <time>2018-05-27T07:02:07Z</time>
      </trkpt>
      <trkpt lat="45.97882" lon="1.15434">
        <ele>307.28</ele>
        <time>2018-05-27T07:02:11Z</time>
      </trkpt>
      <trkpt lat="45.97887" lon="1.15434">
        <ele>306.32</ele>
        <time>2018-05-27T07:02:12Z</time>
      </trkpt>
      <trkpt lat="45.97891" lon="1.15436">
        <ele>305.84</ele>
        <time>2018-05-27T07:02:13Z</time>
      </trkpt>
      <trkpt lat="45.97906" lon="1.15442">
        <ele>303.43</ele>
        <time>2018-05-27T07:02:16Z</time>
      </trkpt>
      <trkpt lat="45.97919" lon="1.15449">
        <ele>300.55</ele>
        <time>2018-05-27T07:02:19Z</time>
      </trkpt>
      <trkpt lat="45.97924" lon="1.15451">
        <ele>299.11</ele>
        <time>2018-05-27T07:02:20Z</time>
      </trkpt>
      <trkpt lat="45.97929" lon="1.15453">
        <ele>298.63</ele>
        <time>2018-05-27T07:02:21Z</time>
      </trkpt>
      <trkpt lat="45.97947" lon="1.15464">
        <ele>296.22</ele>
        <time>2018-05-27T07:02:25Z</time>
      </trkpt>
      <trkpt lat="45.97963" lon="1.15479">
        <ele>292.86</ele>
        <time>2018-05-27T07:02:30Z</time>
      </trkpt>
      <trkpt lat="45.97966" lon="1.15481">
        <ele>292.38</ele>
        <time>2018-05-27T07:02:31Z</time>
      </trkpt>
      <trkpt lat="45.97969" lon="1.15483">
        <ele>291.42</ele>
        <time>2018-05-27T07:02:32Z</time>
      </trkpt>
      <trkpt lat="45.97972" lon="1.15484">
        <ele>291.42</ele>
        <time>2018-05-27T07:02:33Z</time>
      </trkpt>
      <trkpt lat="45.97975" lon="1.15484">
        <ele>291.42</ele>
        <time>2018-05-27T07:02:34Z</time>
      </trkpt>
      <trkpt lat="45.97979" lon="1.15485">
        <ele>291.42</ele>
        <time>2018-05-27T07:02:35Z</time>
      </trkpt>
      <trkpt lat="45.97982" lon="1.15485">
        <ele>291.42</ele>
        <time>2018-05-27T07:02:36Z</time>
      </trkpt>
      <trkpt lat="45.98013" lon="1.15481">
        <ele>289.49</ele>
        <time>2018-05-27T07:02:46Z</time>
      </trkpt>
      <trkpt lat="45.98057" lon="1.15471">
        <ele>288.53</ele>
        <time>2018-05-27T07:02:58Z</time>
      </trkpt>
      <trkpt lat="45.9811" lon="1.15461">
        <ele>288.05</ele>
        <time>2018-05-27T07:03:13Z</time>
      </trkpt>
      <trkpt lat="45.98152" lon="1.15466">
        <ele>286.61</ele>
        <time>2018-05-27T07:03:25Z</time>
      </trkpt>
      <trkpt lat="45.98191" lon="1.15476">
        <ele>285.65</ele>
        <time>2018-05-27T07:03:36Z</time>
      </trkpt>
      <trkpt lat="45.982" lon="1.15479">
        <ele>284.69</ele>
        <time>2018-05-27T07:03:38Z</time>
      </trkpt>
      <trkpt lat="45.98215" lon="1.1548">
        <ele>283.73</ele>
        <time>2018-05-27T07:03:41Z</time>
      </trkpt>
      <trkpt lat="45.98227" lon="1.15479">
        <ele>282.77</ele>
        <time>2018-05-27T07:03:44Z</time>
      </trkpt>
      <trkpt lat="45.98238" lon="1.15476">
        <ele>281.32</ele>
        <time>2018-05-27T07:03:47Z</time>
      </trkpt>
      <trkpt lat="45.98259" lon="1.15467">
        <ele>278.92</ele>
        <time>2018-05-27T07:03:53Z</time>
      </trkpt>
      <trkpt lat="45.98272" lon="1.1546">
        <ele>277.48</ele>
        <time>2018-05-27T07:03:57Z</time>
      </trkpt>
      <trkpt lat="45.98293" lon="1.15472">
        <ele>275.07</ele>
        <time>2018-05-27T07:04:05Z</time>
      </trkpt>
      <trkpt lat="45.98324" lon="1.15501">
        <ele>275.07</ele>
        <time>2018-05-27T07:04:18Z</time>
      </trkpt>
      <trkpt lat="45.98345" lon="1.1552">
        <ele>273.15</ele>
        <time>2018-05-27T07:04:30Z</time>
      </trkpt>
      <trkpt lat="45.98356" lon="1.15528">
        <ele>271.71</ele>
        <time>2018-05-27T07:04:39Z</time>
      </trkpt>
      <trkpt lat="45.98366" lon="1.15544">
        <ele>270.75</ele>
        <time>2018-05-27T07:04:46Z</time>
      </trkpt>
      <trkpt lat="45.98377" lon="1.15554">
        <ele>269.79</ele>
        <time>2018-05-27T07:04:51Z</time>
      </trkpt>
      <trkpt lat="45.98401" lon="1.15553">
        <ele>269.31</ele>
        <time>2018-05-27T07:05:03Z</time>
      </trkpt>
      <trkpt lat="45.98436" lon="1.15548">
        <ele>268.35</ele>
        <time>2018-05-27T07:05:15Z</time>
      </trkpt>
      <trkpt lat="45.98455" lon="1.15539">
        <ele>268.35</ele>
        <time>2018-05-27T07:05:22Z</time>
      </trkpt>
      <trkpt lat="45.98481" lon="1.15504">
        <ele>271.71</ele>
        <time>2018-05-27T07:05:35Z</time>
      </trkpt>
      <trkpt lat="45.98488" lon="1.15493">
        <ele>272.67</ele>
        <time>2018-05-27T07:05:39Z</time>
      </trkpt>
      <trkpt lat="45.98501" lon="1.15485">
        <ele>273.63</ele>
        <time>2018-05-27T07:05:45Z</time>
      </trkpt>
      <trkpt lat="45.9851" lon="1.15483">
        <ele>274.59</ele>
        <time>2018-05-27T07:05:49Z</time>
      </trkpt>
      <trkpt lat="45.98521" lon="1.15485">
        <ele>276.52</ele>
        <time>2018-05-27T07:05:55Z</time>
      </trkpt>
      <trkpt lat="45.98526" lon="1.15487">
        <ele>276.52</ele>
        <time>2018-05-27T07:05:58Z</time>
      </trkpt>
      <trkpt lat="45.98547" lon="1.15489">
        <ele>280.84</ele>
        <time>2018-05-27T07:06:10Z</time>
      </trkpt>
      <trkpt lat="45.98548" lon="1.15488">
        <ele>280.36</ele>
        <time>2018-05-27T07:06:11Z</time>
      </trkpt>
      <trkpt lat="45.98578" lon="1.15474">
        <ele>283.73</ele>
        <time>2018-05-27T07:06:25Z</time>
      </trkpt>
      <trkpt lat="45.98611" lon="1.15459">
        <ele>285.17</ele>
        <time>2018-05-27T07:06:41Z</time>
      </trkpt>
      <trkpt lat="45.98636" lon="1.15438">
        <ele>286.13</ele>
        <time>2018-05-27T07:06:54Z</time>
      </trkpt>
      <trkpt lat="45.98659" lon="1.15416">
        <ele>286.61</ele>
        <time>2018-05-27T07:07:05Z</time>
      </trkpt>
      <trkpt lat="45.98674" lon="1.15404">
        <ele>287.57</ele>
        <time>2018-05-27T07:07:12Z</time>
      </trkpt>
      <trkpt lat="45.9868" lon="1.15404">
        <ele>287.57</ele>
        <time>2018-05-27T07:07:21Z</time>
      </trkpt>
      <trkpt lat="45.98681" lon="1.15407">
        <ele>288.05</ele>
        <time>2018-05-27T07:07:35Z</time>
      </trkpt>
      <trkpt lat="45.9868" lon="1.1541">
        <ele>288.05</ele>
        <time>2018-05-27T07:08:00Z</time>
      </trkpt>
      <trkpt lat="45.98681" lon="1.1541">
        <ele>288.53</ele>
        <time>2018-05-27T07:08:23Z</time>
      </trkpt>
      <trkpt lat="45.98683" lon="1.1542">
        <ele>288.53</ele>
        <time>2018-05-27T07:08:27Z</time>
      </trkpt>
      <trkpt lat="45.98692" lon="1.15474">
        <ele>289.97</ele>
        <time>2018-05-27T07:08:41Z</time>
      </trkpt>
      <trkpt lat="45.98685" lon="1.15518">
        <ele>292.86</ele>
        <time>2018-05-27T07:08:53Z</time>
      </trkpt>
      <trkpt lat="45.98686" lon="1.15531">
        <ele>293.34</ele>
        <time>2018-05-27T07:09:04Z</time>
      </trkpt>
      <trkpt lat="45.98687" lon="1.15536">
        <ele>292.38</ele>
        <time>2018-05-27T07:09:06Z</time>
      </trkpt>
      <trkpt lat="45.98699" lon="1.15544">
        <ele>292.38</ele>
        <time>2018-05-27T07:09:10Z</time>
      </trkpt>
      <trkpt lat="45.98746" lon="1.15557">
        <ele>291.9</ele>
        <time>2018-05-27T07:09:23Z</time>
      </trkpt>
      <trkpt lat="45.98747" lon="1.15559">
        <ele>291.9</ele>
        <time>2018-05-27T07:09:24Z</time>
      </trkpt>
      <trkpt lat="45.98745" lon="1.15573">
        <ele>291.9</ele>
        <time>2018-05-27T07:09:29Z</time>
      </trkpt>
      <trkpt lat="45.98741" lon="1.15582">
        <ele>292.38</ele>
        <time>2018-05-27T07:09:32Z</time>
      </trkpt>
      <trkpt lat="45.98735" lon="1.15597">
        <ele>293.82</ele>
        <time>2018-05-27T07:09:41Z</time>
      </trkpt>
      <trkpt lat="45.98737" lon="1.15607">
        <ele>294.78</ele>
        <time>2018-05-27T07:09:52Z</time>
      </trkpt>
      <trkpt lat="45.98738" lon="1.15609">
        <ele>294.78</ele>
        <time>2018-05-27T07:10:05Z</time>
      </trkpt>
      <trkpt lat="45.98739" lon="1.15611">
        <ele>294.3</ele>
        <time>2018-05-27T07:10:07Z</time>
      </trkpt>
      <trkpt lat="45.98743" lon="1.15612">
        <ele>294.78</ele>
        <time>2018-05-27T07:10:10Z</time>
      </trkpt>
      <trkpt lat="45.98749" lon="1.15619">
        <ele>296.7</ele>
        <time>2018-05-27T07:10:14Z</time>
      </trkpt>
      <trkpt lat="45.98775" lon="1.15639">
        <ele>296.7</ele>
        <time>2018-05-27T07:10:26Z</time>
      </trkpt>
      <trkpt lat="45.98815" lon="1.15656">
        <ele>298.15</ele>
        <time>2018-05-27T07:10:40Z</time>
      </trkpt>
      <trkpt lat="45.98857" lon="1.15672">
        <ele>299.11</ele>
        <time>2018-05-27T07:10:56Z</time>
      </trkpt>
      <trkpt lat="45.98878" lon="1.15684">
        <ele>300.55</ele>
        <time>2018-05-27T07:11:07Z</time>
      </trkpt>
      <trkpt lat="45.98896" lon="1.15693">
        <ele>301.99</ele>
        <time>2018-05-27T07:11:18Z</time>
      </trkpt>
      <trkpt lat="45.98913" lon="1.15705">
        <ele>303.43</ele>
        <time>2018-05-27T07:11:27Z</time>
      </trkpt>
      <trkpt lat="45.98935" lon="1.1571">
        <ele>304.88</ele>
        <time>2018-05-27T07:11:38Z</time>
      </trkpt>
      <trkpt lat="45.98957" lon="1.15721">
        <ele>307.28</ele>
        <time>2018-05-27T07:11:47Z</time>
      </trkpt>
      <trkpt lat="45.98976" lon="1.1573">
        <ele>309.68</ele>
        <time>2018-05-27T07:11:58Z</time>
      </trkpt>
      <trkpt lat="45.98978" lon="1.15731">
        <ele>310.16</ele>
        <time>2018-05-27T07:12:00Z</time>
      </trkpt>
      <trkpt lat="45.99001" lon="1.15742">
        <ele>312.09</ele>
        <time>2018-05-27T07:12:12Z</time>
      </trkpt>
      <trkpt lat="45.99006" lon="1.15743">
        <ele>313.05</ele>
        <time>2018-05-27T07:12:16Z</time>
      </trkpt>
      <trkpt lat="45.99027" lon="1.15758">
        <ele>314.97</ele>
        <time>2018-05-27T07:12:29Z</time>
      </trkpt>
      <trkpt lat="45.99028" lon="1.15759">
        <ele>314.97</ele>
        <time>2018-05-27T07:12:30Z</time>
      </trkpt>
      <trkpt lat="45.99045" lon="1.15775">
        <ele>315.93</ele>
        <time>2018-05-27T07:12:38Z</time>
      </trkpt>
      <trkpt lat="45.99074" lon="1.15798">
        <ele>316.89</ele>
        <time>2018-05-27T07:12:51Z</time>
      </trkpt>
      <trkpt lat="45.99097" lon="1.15822">
        <ele>319.78</ele>
        <time>2018-05-27T07:13:04Z</time>
      </trkpt>
      <trkpt lat="45.99113" lon="1.15849">
        <ele>322.18</ele>
        <time>2018-05-27T07:13:17Z</time>
      </trkpt>
      <trkpt lat="45.99127" lon="1.15865">
        <ele>324.1</ele>
        <time>2018-05-27T07:13:27Z</time>
      </trkpt>
      <trkpt lat="45.9913" lon="1.15868">
        <ele>324.1</ele>
        <time>2018-05-27T07:13:29Z</time>
      </trkpt>
      <trkpt lat="45.99152" lon="1.15879">
        <ele>325.54</ele>
        <time>2018-05-27T07:13:42Z</time>
      </trkpt>
      <trkpt lat="45.99168" lon="1.15888">
        <ele>326.5</ele>
        <time>2018-05-27T07:13:53Z</time>
      </trkpt>
      <trkpt lat="45.99184" lon="1.15901">
        <ele>327.47</ele>
        <time>2018-05-27T07:14:05Z</time>
      </trkpt>
      <trkpt lat="45.99202" lon="1.15917">
        <ele>328.91</ele>
        <time>2018-05-27T07:14:17Z</time>
      </trkpt>
      <trkpt lat="45.99205" lon="1.15921">
        <ele>329.39</ele>
        <time>2018-05-27T07:14:19Z</time>
      </trkpt>
      <trkpt lat="45.99201" lon="1.15953">
        <ele>330.35</ele>
        <time>2018-05-27T07:14:33Z</time>
      </trkpt>
      <trkpt lat="45.99198" lon="1.15962">
        <ele>330.83</ele>
        <time>2018-05-27T07:14:39Z</time>
      </trkpt>
      <trkpt lat="45.99185" lon="1.15978">
        <ele>330.83</ele>
        <time>2018-05-27T07:14:48Z</time>
      </trkpt>
      <trkpt lat="45.99184" lon="1.1599">
        <ele>330.83</ele>
        <time>2018-05-27T07:14:53Z</time>
      </trkpt>
      <trkpt lat="45.99202" lon="1.16007">
        <ele>332.75</ele>
        <time>2018-05-27T07:15:08Z</time>
      </trkpt>
      <trkpt lat="45.99217" lon="1.16015">
        <ele>332.75</ele>
        <time>2018-05-27T07:15:17Z</time>
      </trkpt>
      <trkpt lat="45.9924" lon="1.16025">
        <ele>332.75</ele>
        <time>2018-05-27T07:15:29Z</time>
      </trkpt>
      <trkpt lat="45.99284" lon="1.16039">
        <ele>333.23</ele>
        <time>2018-05-27T07:15:46Z</time>
      </trkpt>
      <trkpt lat="45.99331" lon="1.1605">
        <ele>332.75</ele>
        <time>2018-05-27T07:16:01Z</time>
      </trkpt>
      <trkpt lat="45.99374" lon="1.16072">
        <ele>333.23</ele>
        <time>2018-05-27T07:16:14Z</time>
      </trkpt>
      <trkpt lat="45.99418" lon="1.16084">
        <ele>335.64</ele>
        <time>2018-05-27T07:16:29Z</time>
      </trkpt>
      <trkpt lat="45.99433" lon="1.16088">
        <ele>336.6</ele>
        <time>2018-05-27T07:16:40Z</time>
      </trkpt>
      <trkpt lat="45.99445" lon="1.16087">
        <ele>336.6</ele>
        <time>2018-05-27T07:16:47Z</time>
      </trkpt>
      <trkpt lat="45.99472" lon="1.16085">
        <ele>338.04</ele>
        <time>2018-05-27T07:16:58Z</time>
      </trkpt>
      <trkpt lat="45.99496" lon="1.16069">
        <ele>336.12</ele>
        <time>2018-05-27T07:17:08Z</time>
      </trkpt>
      <trkpt lat="45.99518" lon="1.1605">
        <ele>333.71</ele>
        <time>2018-05-27T07:17:15Z</time>
      </trkpt>
      <trkpt lat="45.99526" lon="1.16043">
        <ele>332.27</ele>
        <time>2018-05-27T07:17:17Z</time>
      </trkpt>
      <trkpt lat="45.9953" lon="1.16039">
        <ele>331.79</ele>
        <time>2018-05-27T07:17:18Z</time>
      </trkpt>
      <trkpt lat="45.99534" lon="1.16036">
        <ele>331.31</ele>
        <time>2018-05-27T07:17:19Z</time>
      </trkpt>
      <trkpt lat="45.99537" lon="1.16033">
        <ele>330.35</ele>
        <time>2018-05-27T07:17:20Z</time>
      </trkpt>
      <trkpt lat="45.9954" lon="1.16029">
        <ele>330.35</ele>
        <time>2018-05-27T07:17:21Z</time>
      </trkpt>
      <trkpt lat="45.99544" lon="1.16026">
        <ele>329.87</ele>
        <time>2018-05-27T07:17:22Z</time>
      </trkpt>
      <trkpt lat="45.99552" lon="1.16022">
        <ele>329.39</ele>
        <time>2018-05-27T07:17:24Z</time>
      </trkpt>
      <trkpt lat="45.99557" lon="1.16022">
        <ele>328.91</ele>
        <time>2018-05-27T07:17:25Z</time>
      </trkpt>
      <trkpt lat="45.99582" lon="1.16033">
        <ele>326.99</ele>
        <time>2018-05-27T07:17:33Z</time>
      </trkpt>
      <trkpt lat="45.99611" lon="1.16043">
        <ele>326.02</ele>
        <time>2018-05-27T07:17:43Z</time>
      </trkpt>
      <trkpt lat="45.99616" lon="1.16044">
        <ele>325.54</ele>
        <time>2018-05-27T07:17:46Z</time>
      </trkpt>
      <trkpt lat="45.99618" lon="1.16043">
        <ele>325.54</ele>
        <time>2018-05-27T07:17:47Z</time>
      </trkpt>
      <trkpt lat="45.99637" lon="1.1604">
        <ele>324.58</ele>
        <time>2018-05-27T07:17:55Z</time>
      </trkpt>
      <trkpt lat="45.99643" lon="1.1604">
        <ele>323.62</ele>
        <time>2018-05-27T07:17:58Z</time>
      </trkpt>
      <trkpt lat="45.99685" lon="1.16027">
        <ele>321.7</ele>
        <time>2018-05-27T07:18:10Z</time>
      </trkpt>
      <trkpt lat="45.99723" lon="1.16017">
        <ele>320.74</ele>
        <time>2018-05-27T07:18:20Z</time>
      </trkpt>
      <trkpt lat="45.99753" lon="1.16007">
        <ele>320.74</ele>
        <time>2018-05-27T07:18:29Z</time>
      </trkpt>
      <trkpt lat="45.99793" lon="1.15986">
        <ele>318.33</ele>
        <time>2018-05-27T07:18:40Z</time>
      </trkpt>
      <trkpt lat="45.99817" lon="1.15981">
        <ele>317.37</ele>
        <time>2018-05-27T07:18:50Z</time>
      </trkpt>
      <trkpt lat="45.99853" lon="1.15983">
        <ele>314.01</ele>
        <time>2018-05-27T07:19:03Z</time>
      </trkpt>
      <trkpt lat="45.99888" lon="1.15991">
        <ele>311.12</ele>
        <time>2018-05-27T07:19:12Z</time>
      </trkpt>
      <trkpt lat="45.99893" lon="1.15992">
        <ele>311.12</ele>
        <time>2018-05-27T07:19:13Z</time>
      </trkpt>
      <trkpt lat="45.99897" lon="1.15994">
        <ele>310.64</ele>
        <time>2018-05-27T07:19:14Z</time>
      </trkpt>
      <trkpt lat="45.99901" lon="1.15995">
        <ele>310.16</ele>
        <time>2018-05-27T07:19:15Z</time>
      </trkpt>
      <trkpt lat="45.99905" lon="1.15997">
        <ele>310.16</ele>
        <time>2018-05-27T07:19:16Z</time>
      </trkpt>
      <trkpt lat="45.99908" lon="1.15998">
        <ele>309.68</ele>
        <time>2018-05-27T07:19:17Z</time>
      </trkpt>
      <trkpt lat="45.99915" lon="1.16">
        <ele>308.72</ele>
        <time>2018-05-27T07:19:19Z</time>
      </trkpt>
      <trkpt lat="45.99923" lon="1.16002">
        <ele>307.28</ele>
        <time>2018-05-27T07:19:21Z</time>
      </trkpt>
      <trkpt lat="45.99932" lon="1.16005">
        <ele>306.32</ele>
        <time>2018-05-27T07:19:23Z</time>
      </trkpt>
      <trkpt lat="45.99941" lon="1.16007">
        <ele>304.88</ele>
        <time>2018-05-27T07:19:25Z</time>
      </trkpt>
      <trkpt lat="45.99946" lon="1.1601">
        <ele>304.39</ele>
        <time>2018-05-27T07:19:26Z</time>
      </trkpt>
      <trkpt lat="45.99949" lon="1.16013">
        <ele>304.39</ele>
        <time>2018-05-27T07:19:27Z</time>
      </trkpt>
      <trkpt lat="45.99958" lon="1.1602">
        <ele>303.43</ele>
        <time>2018-05-27T07:19:30Z</time>
      </trkpt>
      <trkpt lat="45.99978" lon="1.16039">
        <ele>300.55</ele>
        <time>2018-05-27T07:19:37Z</time>
      </trkpt>
      <trkpt lat="45.99997" lon="1.16053">
        <ele>296.7</ele>
        <time>2018-05-27T07:19:44Z</time>
      </trkpt>
      <trkpt lat="46.00021" lon="1.16062">
        <ele>295.74</ele>
        <time>2018-05-27T07:19:51Z</time>
      </trkpt>
      <trkpt lat="46.00024" lon="1.16064">
        <ele>295.26</ele>
        <time>2018-05-27T07:19:52Z</time>
      </trkpt>
      <trkpt lat="46.00026" lon="1.16066">
        <ele>294.78</ele>
        <time>2018-05-27T07:19:53Z</time>
      </trkpt>
      <trkpt lat="46.00027" lon="1.16069">
        <ele>293.82</ele>
        <time>2018-05-27T07:19:54Z</time>
      </trkpt>
      <trkpt lat="46.0003" lon="1.16072">
        <ele>293.34</ele>
        <time>2018-05-27T07:19:55Z</time>
      </trkpt>
      <trkpt lat="46.00032" lon="1.16075">
        <ele>293.34</ele>
        <time>2018-05-27T07:19:56Z</time>
      </trkpt>
      <trkpt lat="46.00032" lon="1.16079">
        <ele>292.38</ele>
        <time>2018-05-27T07:19:57Z</time>
      </trkpt>
      <trkpt lat="46.00032" lon="1.16085">
        <ele>292.38</ele>
        <time>2018-05-27T07:19:58Z</time>
      </trkpt>
      <trkpt lat="46.00032" lon="1.16091">
        <ele>291.9</ele>
        <time>2018-05-27T07:19:59Z</time>
      </trkpt>
      <trkpt lat="46.00034" lon="1.16136">
        <ele>289.97</ele>
        <time>2018-05-27T07:20:07Z</time>
      </trkpt>
      <trkpt lat="46.00036" lon="1.16153">
        <ele>289.49</ele>
        <time>2018-05-27T07:20:10Z</time>
      </trkpt>
      <trkpt lat="46.00041" lon="1.16187">
        <ele>287.09</ele>
        <time>2018-05-27T07:20:16Z</time>
      </trkpt>
      <trkpt lat="46.00034" lon="1.16234">
        <ele>285.17</ele>
        <time>2018-05-27T07:20:25Z</time>
      </trkpt>
      <trkpt lat="46.00032" lon="1.16246">
        <ele>285.17</ele>
        <time>2018-05-27T07:20:28Z</time>
      </trkpt>
      <trkpt lat="46.00039" lon="1.16296">
        <ele>286.13</ele>
        <time>2018-05-27T07:20:39Z</time>
      </trkpt>
      <trkpt lat="46.00063" lon="1.16357">
        <ele>288.05</ele>
        <time>2018-05-27T07:20:50Z</time>
      </trkpt>
      <trkpt lat="46.00083" lon="1.16388">
        <ele>286.61</ele>
        <time>2018-05-27T07:21:01Z</time>
      </trkpt>
      <trkpt lat="46.00087" lon="1.16394">
        <ele>286.13</ele>
        <time>2018-05-27T07:21:16Z</time>
      </trkpt>
      <trkpt lat="46.00087" lon="1.16393">
        <ele>286.13</ele>
        <time>2018-05-27T07:21:31Z</time>
      </trkpt>
      <trkpt lat="46.00088" lon="1.16392">
        <ele>286.13</ele>
        <time>2018-05-27T07:22:01Z</time>
      </trkpt>
      <trkpt lat="46.00088" lon="1.16395">
        <ele>286.61</ele>
        <time>2018-05-27T07:22:17Z</time>
      </trkpt>
      <trkpt lat="46.00085" lon="1.16399">
        <ele>286.13</ele>
        <time>2018-05-27T07:22:35Z</time>
      </trkpt>
      <trkpt lat="46.00084" lon="1.16405">
        <ele>287.57</ele>
        <time>2018-05-27T07:22:46Z</time>
      </trkpt>
      <trkpt lat="46.00084" lon="1.16405">
        <ele>287.09</ele>
        <time>2018-05-27T07:22:48Z</time>
      </trkpt>
      <trkpt lat="46.00086" lon="1.16408">
        <ele>286.61</ele>
        <time>2018-05-27T07:22:52Z</time>
      </trkpt>
      <trkpt lat="46.0009" lon="1.16411">
        <ele>286.13</ele>
        <time>2018-05-27T07:23:02Z</time>
      </trkpt>
      <trkpt lat="46.00095" lon="1.16416">
        <ele>286.13</ele>
        <time>2018-05-27T07:23:10Z</time>
      </trkpt>
      <trkpt lat="46.00098" lon="1.16423">
        <ele>285.17</ele>
        <time>2018-05-27T07:23:16Z</time>
      </trkpt>
      <trkpt lat="46.00107" lon="1.1643">
        <ele>286.13</ele>
        <time>2018-05-27T07:23:25Z</time>
      </trkpt>
      <trkpt lat="46.00108" lon="1.1643">
        <ele>285.65</ele>
        <time>2018-05-27T07:23:39Z</time>
      </trkpt>
      <trkpt lat="46.00109" lon="1.16431">
        <ele>286.13</ele>
        <time>2018-05-27T07:23:59Z</time>
      </trkpt>
      <trkpt lat="46.0011" lon="1.16432">
        <ele>286.13</ele>
        <time>2018-05-27T07:24:31Z</time>
      </trkpt>
      <trkpt lat="46.00111" lon="1.16432">
        <ele>286.61</ele>
        <time>2018-05-27T07:24:53Z</time>
      </trkpt>
      <trkpt lat="46.00111" lon="1.16429">
        <ele>286.13</ele>
        <time>2018-05-27T07:25:23Z</time>
      </trkpt>
      <trkpt lat="46.00111" lon="1.1643">
        <ele>286.61</ele>
        <time>2018-05-27T07:25:43Z</time>
      </trkpt>
      <trkpt lat="46.0011" lon="1.16431">
        <ele>286.61</ele>
        <time>2018-05-27T07:25:47Z</time>
      </trkpt>
      <trkpt lat="46.00103" lon="1.16438">
        <ele>284.69</ele>
        <time>2018-05-27T07:25:55Z</time>
      </trkpt>
      <trkpt lat="46.00086" lon="1.16439">
        <ele>284.69</ele>
        <time>2018-05-27T07:26:05Z</time>
      </trkpt>
      <trkpt lat="46.00064" lon="1.16429">
        <ele>285.17</ele>
        <time>2018-05-27T07:26:14Z</time>
      </trkpt>
      <trkpt lat="46.00021" lon="1.16438">
        <ele>287.09</ele>
        <time>2018-05-27T07:26:29Z</time>
      </trkpt>
      <trkpt lat="45.99992" lon="1.16444">
        <ele>287.57</ele>
        <time>2018-05-27T07:26:41Z</time>
      </trkpt>
      <trkpt lat="45.99968" lon="1.1645">
        <ele>288.05</ele>
        <time>2018-05-27T07:26:50Z</time>
      </trkpt>
      <trkpt lat="45.99946" lon="1.16454">
        <ele>288.05</ele>
        <time>2018-05-27T07:26:58Z</time>
      </trkpt>
      <trkpt lat="45.99916" lon="1.1647">
        <ele>289.49</ele>
        <time>2018-05-27T07:27:08Z</time>
      </trkpt>
      <trkpt lat="45.99884" lon="1.16477">
        <ele>290.46</ele>
        <time>2018-05-27T07:27:19Z</time>
      </trkpt>
      <trkpt lat="45.99852" lon="1.1648">
        <ele>291.42</ele>
        <time>2018-05-27T07:27:29Z</time>
      </trkpt>
      <trkpt lat="45.99819" lon="1.16501">
        <ele>291.42</ele>
        <time>2018-05-27T07:27:41Z</time>
      </trkpt>
      <trkpt lat="45.99793" lon="1.16527">
        <ele>290.94</ele>
        <time>2018-05-27T07:27:51Z</time>
      </trkpt>
      <trkpt lat="45.99775" lon="1.16567">
        <ele>289.49</ele>
        <time>2018-05-27T07:28:01Z</time>
      </trkpt>
      <trkpt lat="45.99744" lon="1.16585">
        <ele>287.57</ele>
        <time>2018-05-27T07:28:10Z</time>
      </trkpt>
      <trkpt lat="45.99738" lon="1.16598">
        <ele>288.05</ele>
        <time>2018-05-27T07:28:14Z</time>
      </trkpt>
      <trkpt lat="45.99729" lon="1.16613">
        <ele>288.53</ele>
        <time>2018-05-27T07:28:21Z</time>
      </trkpt>
      <trkpt lat="45.99727" lon="1.16619">
        <ele>289.01</ele>
        <time>2018-05-27T07:28:23Z</time>
      </trkpt>
      <trkpt lat="45.99729" lon="1.16628">
        <ele>289.49</ele>
        <time>2018-05-27T07:28:33Z</time>
      </trkpt>
      <trkpt lat="45.9973" lon="1.16634">
        <ele>289.49</ele>
        <time>2018-05-27T07:28:49Z</time>
      </trkpt>
      <trkpt lat="45.99734" lon="1.16646">
        <ele>287.57</ele>
        <time>2018-05-27T07:28:55Z</time>
      </trkpt>
      <trkpt lat="45.99739" lon="1.16667">
        <ele>285.65</ele>
        <time>2018-05-27T07:29:01Z</time>
      </trkpt>
      <trkpt lat="45.99755" lon="1.16694">
        <ele>286.13</ele>
        <time>2018-05-27T07:29:09Z</time>
      </trkpt>
      <trkpt lat="45.99759" lon="1.16702">
        <ele>286.61</ele>
        <time>2018-05-27T07:29:12Z</time>
      </trkpt>
      <trkpt lat="45.99764" lon="1.16719">
        <ele>288.53</ele>
        <time>2018-05-27T07:29:21Z</time>
      </trkpt>
      <trkpt lat="45.99769" lon="1.16743">
        <ele>291.42</ele>
        <time>2018-05-27T07:29:31Z</time>
      </trkpt>
      <trkpt lat="45.99776" lon="1.16763">
        <ele>293.34</ele>
        <time>2018-05-27T07:29:39Z</time>
      </trkpt>
      <trkpt lat="45.99801" lon="1.16792">
        <ele>293.82</ele>
        <time>2018-05-27T07:29:52Z</time>
      </trkpt>
      <trkpt lat="45.99834" lon="1.16817">
        <ele>295.26</ele>
        <time>2018-05-27T07:30:06Z</time>
      </trkpt>
      <trkpt lat="45.99847" lon="1.16828">
        <ele>297.18</ele>
        <time>2018-05-27T07:30:14Z</time>
      </trkpt>
      <trkpt lat="45.99848" lon="1.16831">
        <ele>298.15</ele>
        <time>2018-05-27T07:30:17Z</time>
      </trkpt>
      <trkpt lat="45.99858" lon="1.16841">
        <ele>298.63</ele>
        <time>2018-05-27T07:30:23Z</time>
      </trkpt>
      <trkpt lat="45.9987" lon="1.16847">
        <ele>300.55</ele>
        <time>2018-05-27T07:30:31Z</time>
      </trkpt>
      <trkpt lat="45.99889" lon="1.16862">
        <ele>303.43</ele>
        <time>2018-05-27T07:30:43Z</time>
      </trkpt>
      <trkpt lat="45.99909" lon="1.16879">
        <ele>306.8</ele>
        <time>2018-05-27T07:30:53Z</time>
      </trkpt>
      <trkpt lat="45.99911" lon="1.1688">
        <ele>306.8</ele>
        <time>2018-05-27T07:30:54Z</time>
      </trkpt>
      <trkpt lat="45.99926" lon="1.16886">
        <ele>308.72</ele>
        <time>2018-05-27T07:31:07Z</time>
      </trkpt>
      <trkpt lat="45.99928" lon="1.16888">
        <ele>308.24</ele>
        <time>2018-05-27T07:31:30Z</time>
      </trkpt>
      <trkpt lat="45.99933" lon="1.16892">
        <ele>308.72</ele>
        <time>2018-05-27T07:31:51Z</time>
      </trkpt>
      <trkpt lat="45.99934" lon="1.16892">
        <ele>309.2</ele>
        <time>2018-05-27T07:32:19Z</time>
      </trkpt>
      <trkpt lat="45.99937" lon="1.16895">
        <ele>308.72</ele>
        <time>2018-05-27T07:32:54Z</time>
      </trkpt>
      <trkpt lat="45.99938" lon="1.16895">
        <ele>308.72</ele>
        <time>2018-05-27T07:33:20Z</time>
      </trkpt>
      <trkpt lat="45.99938" lon="1.16895">
        <ele>310.16</ele>
        <time>2018-05-27T07:33:49Z</time>
      </trkpt>
      <trkpt lat="45.99938" lon="1.16895">
        <ele>309.2</ele>
        <time>2018-05-27T07:34:15Z</time>
      </trkpt>
      <trkpt lat="45.99938" lon="1.16896">
        <ele>313.05</ele>
        <time>2018-05-27T07:34:33Z</time>
      </trkpt>
      <trkpt lat="45.99938" lon="1.16896">
        <ele>312.09</ele>
        <time>2018-05-27T07:34:34Z</time>
      </trkpt>
      <trkpt lat="45.99938" lon="1.16896">
        <ele>309.2</ele>
        <time>2018-05-27T07:34:35Z</time>
      </trkpt>
      <trkpt lat="45.99938" lon="1.16896">
        <ele>310.16</ele>
        <time>2018-05-27T07:34:36Z</time>
      </trkpt>
      <trkpt lat="45.99939" lon="1.16897">
        <ele>309.2</ele>
        <time>2018-05-27T07:35:04Z</time>
      </trkpt>
      <trkpt lat="45.99938" lon="1.16897">
        <ele>309.68</ele>
        <time>2018-05-27T07:35:26Z</time>
      </trkpt>
      <trkpt lat="45.99937" lon="1.16898">
        <ele>309.68</ele>
        <time>2018-05-27T07:35:28Z</time>
      </trkpt>
      <trkpt lat="45.9994" lon="1.16918">
        <ele>312.09</ele>
        <time>2018-05-27T07:35:36Z</time>
      </trkpt>
      <trkpt lat="45.9994" lon="1.16933">
        <ele>313.53</ele>
        <time>2018-05-27T07:35:42Z</time>
      </trkpt>
      <trkpt lat="45.9994" lon="1.16953">
        <ele>315.45</ele>
        <time>2018-05-27T07:35:50Z</time>
      </trkpt>
      <trkpt lat="45.99933" lon="1.16979">
        <ele>318.33</ele>
        <time>2018-05-27T07:36:02Z</time>
      </trkpt>
      <trkpt lat="45.99926" lon="1.16984">
        <ele>319.3</ele>
        <time>2018-05-27T07:36:06Z</time>
      </trkpt>
      <trkpt lat="45.9992" lon="1.17011">
        <ele>320.26</ele>
        <time>2018-05-27T07:36:16Z</time>
      </trkpt>
      <trkpt lat="45.9991" lon="1.17036">
        <ele>320.74</ele>
        <time>2018-05-27T07:36:25Z</time>
      </trkpt>
      <trkpt lat="45.99903" lon="1.17057">
        <ele>322.18</ele>
        <time>2018-05-27T07:36:32Z</time>
      </trkpt>
      <trkpt lat="45.99897" lon="1.17071">
        <ele>322.18</ele>
        <time>2018-05-27T07:36:37Z</time>
      </trkpt>
      <trkpt lat="45.99895" lon="1.17077">
        <ele>322.66</ele>
        <time>2018-05-27T07:36:39Z</time>
      </trkpt>
      <trkpt lat="45.99866" lon="1.17107">
        <ele>323.14</ele>
        <time>2018-05-27T07:36:52Z</time>
      </trkpt>
      <trkpt lat="45.99847" lon="1.17138">
        <ele>324.58</ele>
        <time>2018-05-27T07:37:03Z</time>
      </trkpt>
      <trkpt lat="45.99841" lon="1.17145">
        <ele>325.06</ele>
        <time>2018-05-27T07:37:06Z</time>
      </trkpt>
      <trkpt lat="45.99834" lon="1.17154">
        <ele>326.02</ele>
        <time>2018-05-27T07:37:12Z</time>
      </trkpt>
      <trkpt lat="45.99827" lon="1.17161">
        <ele>326.5</ele>
        <time>2018-05-27T07:37:16Z</time>
      </trkpt>
      <trkpt lat="45.99808" lon="1.17181">
        <ele>327.47</ele>
        <time>2018-05-27T07:37:27Z</time>
      </trkpt>
      <trkpt lat="45.99787" lon="1.17202">
        <ele>329.39</ele>
        <time>2018-05-27T07:37:37Z</time>
      </trkpt>
      <trkpt lat="45.99779" lon="1.17212">
        <ele>329.39</ele>
        <time>2018-05-27T07:37:41Z</time>
      </trkpt>
      <trkpt lat="45.99763" lon="1.17239">
        <ele>331.79</ele>
        <time>2018-05-27T07:37:50Z</time>
      </trkpt>
      <trkpt lat="45.99759" lon="1.17255">
        <ele>332.27</ele>
        <time>2018-05-27T07:37:55Z</time>
      </trkpt>
      <trkpt lat="45.99759" lon="1.17261">
        <ele>333.23</ele>
        <time>2018-05-27T07:37:57Z</time>
      </trkpt>
      <trkpt lat="45.99756" lon="1.1728">
        <ele>334.2</ele>
        <time>2018-05-27T07:38:03Z</time>
      </trkpt>
      <trkpt lat="45.99749" lon="1.17296">
        <ele>334.2</ele>
        <time>2018-05-27T07:38:08Z</time>
      </trkpt>
      <trkpt lat="45.99749" lon="1.17307">
        <ele>334.68</ele>
        <time>2018-05-27T07:38:12Z</time>
      </trkpt>
      <trkpt lat="45.99757" lon="1.17321">
        <ele>336.6</ele>
        <time>2018-05-27T07:38:20Z</time>
      </trkpt>
      <trkpt lat="45.99761" lon="1.17326">
        <ele>337.08</ele>
        <time>2018-05-27T07:38:23Z</time>
      </trkpt>
      <trkpt lat="45.99771" lon="1.17341">
        <ele>339</ele>
        <time>2018-05-27T07:38:31Z</time>
      </trkpt>
      <trkpt lat="45.99781" lon="1.17365">
        <ele>339</ele>
        <time>2018-05-27T07:38:42Z</time>
      </trkpt>
      <trkpt lat="45.99786" lon="1.17375">
        <ele>339.48</ele>
        <time>2018-05-27T07:38:45Z</time>
      </trkpt>
      <trkpt lat="45.99788" lon="1.17386">
        <ele>339.48</ele>
        <time>2018-05-27T07:38:49Z</time>
      </trkpt>
      <trkpt lat="45.99791" lon="1.17395">
        <ele>340.44</ele>
        <time>2018-05-27T07:38:52Z</time>
      </trkpt>
      <trkpt lat="45.99791" lon="1.17427">
        <ele>339.96</ele>
        <time>2018-05-27T07:39:03Z</time>
      </trkpt>
      <trkpt lat="45.99795" lon="1.17452">
        <ele>340.92</ele>
        <time>2018-05-27T07:39:11Z</time>
      </trkpt>
      <trkpt lat="45.99807" lon="1.17477">
        <ele>340.92</ele>
        <time>2018-05-27T07:39:17Z</time>
      </trkpt>
      <trkpt lat="45.99829" lon="1.17546">
        <ele>342.37</ele>
        <time>2018-05-27T07:39:32Z</time>
      </trkpt>
      <trkpt lat="45.99826" lon="1.17579">
        <ele>343.81</ele>
        <time>2018-05-27T07:39:39Z</time>
      </trkpt>
      <trkpt lat="45.99829" lon="1.17592">
        <ele>344.77</ele>
        <time>2018-05-27T07:39:44Z</time>
      </trkpt>
      <trkpt lat="45.99828" lon="1.17618">
        <ele>345.73</ele>
        <time>2018-05-27T07:39:57Z</time>
      </trkpt>
      <trkpt lat="45.99829" lon="1.17625">
        <ele>345.25</ele>
        <time>2018-05-27T07:40:31Z</time>
      </trkpt>
      <trkpt lat="45.99829" lon="1.17625">
        <ele>349.1</ele>
        <time>2018-05-27T07:40:39Z</time>
      </trkpt>
      <trkpt lat="45.99829" lon="1.17625">
        <ele>345.25</ele>
        <time>2018-05-27T07:40:40Z</time>
      </trkpt>
      <trkpt lat="45.99829" lon="1.17625">
        <ele>344.29</ele>
        <time>2018-05-27T07:40:55Z</time>
      </trkpt>
      <trkpt lat="45.99829" lon="1.17625">
        <ele>347.17</ele>
        <time>2018-05-27T07:40:56Z</time>
      </trkpt>
      <trkpt lat="45.99829" lon="1.17625">
        <ele>345.25</ele>
        <time>2018-05-27T07:41:13Z</time>
      </trkpt>
      <trkpt lat="45.99827" lon="1.17629">
        <ele>345.73</ele>
        <time>2018-05-27T07:41:18Z</time>
      </trkpt>
      <trkpt lat="45.99813" lon="1.17655">
        <ele>343.81</ele>
        <time>2018-05-27T07:41:24Z</time>
      </trkpt>
      <trkpt lat="45.99809" lon="1.17667">
        <ele>342.85</ele>
        <time>2018-05-27T07:41:26Z</time>
      </trkpt>
      <trkpt lat="45.99791" lon="1.17723">
        <ele>345.73</ele>
        <time>2018-05-27T07:41:39Z</time>
      </trkpt>
      <trkpt lat="45.9978" lon="1.17755">
        <ele>347.17</ele>
        <time>2018-05-27T07:41:49Z</time>
      </trkpt>
      <trkpt lat="45.99779" lon="1.17759">
        <ele>347.17</ele>
        <time>2018-05-27T07:41:51Z</time>
      </trkpt>
      <trkpt lat="45.99783" lon="1.17766">
        <ele>346.69</ele>
        <time>2018-05-27T07:42:02Z</time>
      </trkpt>
      <trkpt lat="45.99784" lon="1.17768">
        <ele>347.17</ele>
        <time>2018-05-27T07:42:03Z</time>
      </trkpt>
      <trkpt lat="45.99807" lon="1.17784">
        <ele>345.25</ele>
        <time>2018-05-27T07:42:12Z</time>
      </trkpt>
      <trkpt lat="45.99811" lon="1.17786">
        <ele>345.25</ele>
        <time>2018-05-27T07:42:13Z</time>
      </trkpt>
      <trkpt lat="45.99861" lon="1.17815">
        <ele>341.89</ele>
        <time>2018-05-27T07:42:25Z</time>
      </trkpt>
      <trkpt lat="45.999" lon="1.1783">
        <ele>340.44</ele>
        <time>2018-05-27T07:42:35Z</time>
      </trkpt>
      <trkpt lat="45.99908" lon="1.17833">
        <ele>339</ele>
        <time>2018-05-27T07:42:37Z</time>
      </trkpt>
      <trkpt lat="45.99913" lon="1.17836">
        <ele>338.52</ele>
        <time>2018-05-27T07:42:38Z</time>
      </trkpt>
      <trkpt lat="45.99918" lon="1.17839">
        <ele>338.04</ele>
        <time>2018-05-27T07:42:39Z</time>
      </trkpt>
      <trkpt lat="45.99962" lon="1.17864">
        <ele>336.12</ele>
        <time>2018-05-27T07:42:51Z</time>
      </trkpt>
      <trkpt lat="45.99964" lon="1.17864">
        <ele>342.37</ele>
        <time>2018-05-27T07:43:00Z</time>
      </trkpt>
      <trkpt lat="45.99964" lon="1.17864">
        <ele>336.12</ele>
        <time>2018-05-27T07:43:01Z</time>
      </trkpt>
      <trkpt lat="45.99965" lon="1.17865">
        <ele>339.48</ele>
        <time>2018-05-27T07:43:10Z</time>
      </trkpt>
      <trkpt lat="45.99966" lon="1.17865">
        <ele>336.6</ele>
        <time>2018-05-27T07:43:12Z</time>
      </trkpt>
      <trkpt lat="45.99966" lon="1.17865">
        <ele>336.12</ele>
        <time>2018-05-27T07:43:13Z</time>
      </trkpt>
      <trkpt lat="45.99965" lon="1.17864">
        <ele>336.6</ele>
        <time>2018-05-27T07:43:27Z</time>
      </trkpt>
      <trkpt lat="45.99962" lon="1.17882">
        <ele>337.56</ele>
        <time>2018-05-27T07:43:34Z</time>
      </trkpt>
      <trkpt lat="45.99951" lon="1.17928">
        <ele>339.96</ele>
        <time>2018-05-27T07:43:49Z</time>
      </trkpt>
      <trkpt lat="45.99947" lon="1.17942">
        <ele>339.96</ele>
        <time>2018-05-27T07:43:54Z</time>
      </trkpt>
      <trkpt lat="45.9995" lon="1.17979">
        <ele>340.92</ele>
        <time>2018-05-27T07:44:05Z</time>
      </trkpt>
      <trkpt lat="45.99946" lon="1.17994">
        <ele>341.89</ele>
        <time>2018-05-27T07:44:11Z</time>
      </trkpt>
      <trkpt lat="45.99941" lon="1.18032">
        <ele>341.41</ele>
        <time>2018-05-27T07:44:22Z</time>
      </trkpt>
      <trkpt lat="45.99944" lon="1.18095">
        <ele>340.92</ele>
        <time>2018-05-27T07:44:36Z</time>
      </trkpt>
      <trkpt lat="45.9997" lon="1.18116">
        <ele>340.92</ele>
        <time>2018-05-27T07:44:45Z</time>
      </trkpt>
      <trkpt lat="45.99996" lon="1.18139">
        <ele>342.85</ele>
        <time>2018-05-27T07:44:55Z</time>
      </trkpt>
      <trkpt lat="46.00014" lon="1.1816">
        <ele>344.77</ele>
        <time>2018-05-27T07:45:05Z</time>
      </trkpt>
      <trkpt lat="46.00041" lon="1.18181">
        <ele>347.65</ele>
        <time>2018-05-27T07:45:17Z</time>
      </trkpt>
      <trkpt lat="46.00071" lon="1.18205">
        <ele>350.06</ele>
        <time>2018-05-27T07:45:28Z</time>
      </trkpt>
      <trkpt lat="46.00095" lon="1.18231">
        <ele>351.5</ele>
        <time>2018-05-27T07:45:37Z</time>
      </trkpt>
      <trkpt lat="46.00098" lon="1.18236">
        <ele>351.5</ele>
        <time>2018-05-27T07:45:39Z</time>
      </trkpt>
      <trkpt lat="46.001" lon="1.1824">
        <ele>344.77</ele>
        <time>2018-05-27T07:45:48Z</time>
      </trkpt>
      <trkpt lat="46.001" lon="1.1824">
        <ele>352.94</ele>
        <time>2018-05-27T07:45:49Z</time>
      </trkpt>
      <trkpt lat="46.00101" lon="1.1824">
        <ele>351.5</ele>
        <time>2018-05-27T07:46:07Z</time>
      </trkpt>
      <trkpt lat="46.00123" lon="1.18252">
        <ele>350.54</ele>
        <time>2018-05-27T07:46:17Z</time>
      </trkpt>
      <trkpt lat="46.00127" lon="1.18253">
        <ele>350.54</ele>
        <time>2018-05-27T07:46:18Z</time>
      </trkpt>
      <trkpt lat="46.00136" lon="1.18255">
        <ele>349.58</ele>
        <time>2018-05-27T07:46:20Z</time>
      </trkpt>
      <trkpt lat="46.0014" lon="1.18256">
        <ele>349.58</ele>
        <time>2018-05-27T07:46:21Z</time>
      </trkpt>
      <trkpt lat="46.00197" lon="1.18282">
        <ele>345.25</ele>
        <time>2018-05-27T07:46:32Z</time>
      </trkpt>
      <trkpt lat="46.00258" lon="1.18307">
        <ele>341.89</ele>
        <time>2018-05-27T07:46:43Z</time>
      </trkpt>
      <trkpt lat="46.00263" lon="1.18309">
        <ele>341.41</ele>
        <time>2018-05-27T07:46:44Z</time>
      </trkpt>
      <trkpt lat="46.00325" lon="1.18332">
        <ele>339</ele>
        <time>2018-05-27T07:46:56Z</time>
      </trkpt>
      <trkpt lat="46.00329" lon="1.18337">
        <ele>339.48</ele>
        <time>2018-05-27T07:46:59Z</time>
      </trkpt>
      <trkpt lat="46.0033" lon="1.18339">
        <ele>339.96</ele>
        <time>2018-05-27T07:47:08Z</time>
      </trkpt>
      <trkpt lat="46.00331" lon="1.1834">
        <ele>339.96</ele>
        <time>2018-05-27T07:47:33Z</time>
      </trkpt>
      <trkpt lat="46.00331" lon="1.1834">
        <ele>339.96</ele>
        <time>2018-05-27T07:47:49Z</time>
      </trkpt>
      <trkpt lat="46.00331" lon="1.18341">
        <ele>339.48</ele>
        <time>2018-05-27T07:47:58Z</time>
      </trkpt>
      <trkpt lat="46.00335" lon="1.18338">
        <ele>339</ele>
        <time>2018-05-27T07:48:00Z</time>
      </trkpt>
      <trkpt lat="46.00337" lon="1.18337">
        <ele>339</ele>
        <time>2018-05-27T07:48:01Z</time>
      </trkpt>
      <trkpt lat="46.00381" lon="1.18331">
        <ele>337.56</ele>
        <time>2018-05-27T07:48:13Z</time>
      </trkpt>
      <trkpt lat="46.00397" lon="1.18325">
        <ele>338.04</ele>
        <time>2018-05-27T07:48:18Z</time>
      </trkpt>
      <trkpt lat="46.00398" lon="1.18326">
        <ele>338.04</ele>
        <time>2018-05-27T07:48:19Z</time>
      </trkpt>
      <trkpt lat="46.00399" lon="1.18327">
        <ele>338.52</ele>
        <time>2018-05-27T07:48:20Z</time>
      </trkpt>
      <trkpt lat="46.00399" lon="1.18329">
        <ele>338.04</ele>
        <time>2018-05-27T07:48:21Z</time>
      </trkpt>
      <trkpt lat="46.00398" lon="1.18331">
        <ele>338.52</ele>
        <time>2018-05-27T07:48:22Z</time>
      </trkpt>
      <trkpt lat="46.00391" lon="1.18345">
        <ele>338.52</ele>
        <time>2018-05-27T07:48:28Z</time>
      </trkpt>
      <trkpt lat="46.0039" lon="1.18347">
        <ele>339</ele>
        <time>2018-05-27T07:48:29Z</time>
      </trkpt>
      <trkpt lat="46.00388" lon="1.1835">
        <ele>339</ele>
        <time>2018-05-27T07:48:30Z</time>
      </trkpt>
      <trkpt lat="46.00386" lon="1.18352">
        <ele>339.48</ele>
        <time>2018-05-27T07:48:31Z</time>
      </trkpt>
      <trkpt lat="46.00384" lon="1.18353">
        <ele>339.48</ele>
        <time>2018-05-27T07:48:32Z</time>
      </trkpt>
      <trkpt lat="46.00369" lon="1.18379">
        <ele>341.41</ele>
        <time>2018-05-27T07:48:41Z</time>
      </trkpt>
      <trkpt lat="46.00365" lon="1.18384">
        <ele>341.89</ele>
        <time>2018-05-27T07:48:43Z</time>
      </trkpt>
      <trkpt lat="46.00347" lon="1.1842">
        <ele>342.85</ele>
        <time>2018-05-27T07:48:54Z</time>
      </trkpt>
      <trkpt lat="46.00324" lon="1.18459">
        <ele>344.29</ele>
        <time>2018-05-27T07:49:06Z</time>
      </trkpt>
      <trkpt lat="46.00319" lon="1.18477">
        <ele>344.29</ele>
        <time>2018-05-27T07:49:11Z</time>
      </trkpt>
      <trkpt lat="46.00318" lon="1.18481">
        <ele>344.77</ele>
        <time>2018-05-27T07:49:12Z</time>
      </trkpt>
      <trkpt lat="46.00315" lon="1.18498">
        <ele>346.69</ele>
        <time>2018-05-27T07:49:18Z</time>
      </trkpt>
      <trkpt lat="46.00317" lon="1.18502">
        <ele>346.69</ele>
        <time>2018-05-27T07:49:20Z</time>
      </trkpt>
      <trkpt lat="46.00318" lon="1.18505">
        <ele>346.69</ele>
        <time>2018-05-27T07:49:21Z</time>
      </trkpt>
      <trkpt lat="46.0032" lon="1.18507">
        <ele>346.21</ele>
        <time>2018-05-27T07:49:22Z</time>
      </trkpt>
      <trkpt lat="46.00323" lon="1.18509">
        <ele>347.17</ele>
        <time>2018-05-27T07:49:23Z</time>
      </trkpt>
      <trkpt lat="46.00325" lon="1.1851">
        <ele>346.69</ele>
        <time>2018-05-27T07:49:24Z</time>
      </trkpt>
      <trkpt lat="46.00327" lon="1.18511">
        <ele>346.69</ele>
        <time>2018-05-27T07:49:25Z</time>
      </trkpt>
      <trkpt lat="46.00338" lon="1.18521">
        <ele>346.69</ele>
        <time>2018-05-27T07:49:29Z</time>
      </trkpt>
      <trkpt lat="46.0034" lon="1.18524">
        <ele>347.17</ele>
        <time>2018-05-27T07:49:30Z</time>
      </trkpt>
      <trkpt lat="46.00341" lon="1.18528">
        <ele>346.69</ele>
        <time>2018-05-27T07:49:31Z</time>
      </trkpt>
      <trkpt lat="46.00343" lon="1.18531">
        <ele>346.69</ele>
        <time>2018-05-27T07:49:32Z</time>
      </trkpt>
      <trkpt lat="46.00345" lon="1.18533">
        <ele>346.69</ele>
        <time>2018-05-27T07:49:33Z</time>
      </trkpt>
      <trkpt lat="46.00346" lon="1.18535">
        <ele>346.69</ele>
        <time>2018-05-27T07:49:34Z</time>
      </trkpt>
      <trkpt lat="46.00386" lon="1.18557">
        <ele>347.17</ele>
        <time>2018-05-27T07:49:43Z</time>
      </trkpt>
      <trkpt lat="46.00415" lon="1.1858">
        <ele>350.06</ele>
        <time>2018-05-27T07:49:55Z</time>
      </trkpt>
      <trkpt lat="46.00427" lon="1.18593">
        <ele>351.02</ele>
        <time>2018-05-27T07:50:00Z</time>
      </trkpt>
      <trkpt lat="46.00429" lon="1.18594">
        <ele>351.02</ele>
        <time>2018-05-27T07:50:01Z</time>
      </trkpt>
      <trkpt lat="46.00459" lon="1.18605">
        <ele>351.98</ele>
        <time>2018-05-27T07:50:13Z</time>
      </trkpt>
      <trkpt lat="46.00476" lon="1.18615">
        <ele>353.42</ele>
        <time>2018-05-27T07:50:21Z</time>
      </trkpt>
      <trkpt lat="46.00487" lon="1.1862">
        <ele>355.34</ele>
        <time>2018-05-27T07:50:26Z</time>
      </trkpt>
      <trkpt lat="46.00495" lon="1.18625">
        <ele>356.31</ele>
        <time>2018-05-27T07:50:30Z</time>
      </trkpt>
      <trkpt lat="46.00501" lon="1.1863">
        <ele>357.27</ele>
        <time>2018-05-27T07:50:33Z</time>
      </trkpt>
      <trkpt lat="46.00512" lon="1.18637">
        <ele>358.71</ele>
        <time>2018-05-27T07:50:38Z</time>
      </trkpt>
      <trkpt lat="46.00514" lon="1.18639">
        <ele>359.19</ele>
        <time>2018-05-27T07:50:39Z</time>
      </trkpt>
      <trkpt lat="46.00516" lon="1.18639">
        <ele>359.67</ele>
        <time>2018-05-27T07:50:40Z</time>
      </trkpt>
      <trkpt lat="46.00518" lon="1.18639">
        <ele>359.67</ele>
        <time>2018-05-27T07:50:41Z</time>
      </trkpt>
      <trkpt lat="46.00521" lon="1.1864">
        <ele>359.67</ele>
        <time>2018-05-27T07:50:42Z</time>
      </trkpt>
      <trkpt lat="46.00523" lon="1.18641">
        <ele>359.19</ele>
        <time>2018-05-27T07:50:43Z</time>
      </trkpt>
      <trkpt lat="46.00526" lon="1.18642">
        <ele>359.67</ele>
        <time>2018-05-27T07:50:44Z</time>
      </trkpt>
      <trkpt lat="46.00528" lon="1.18643">
        <ele>360.15</ele>
        <time>2018-05-27T07:50:45Z</time>
      </trkpt>
      <trkpt lat="46.0053" lon="1.18644">
        <ele>359.19</ele>
        <time>2018-05-27T07:50:46Z</time>
      </trkpt>
      <trkpt lat="46.00535" lon="1.18643">
        <ele>360.15</ele>
        <time>2018-05-27T07:50:49Z</time>
      </trkpt>
      <trkpt lat="46.00538" lon="1.18643">
        <ele>359.67</ele>
        <time>2018-05-27T07:50:50Z</time>
      </trkpt>
      <trkpt lat="46.0054" lon="1.18642">
        <ele>359.67</ele>
        <time>2018-05-27T07:50:51Z</time>
      </trkpt>
      <trkpt lat="46.00542" lon="1.18643">
        <ele>359.67</ele>
        <time>2018-05-27T07:50:52Z</time>
      </trkpt>
      <trkpt lat="46.00545" lon="1.18643">
        <ele>359.19</ele>
        <time>2018-05-27T07:50:53Z</time>
      </trkpt>
      <trkpt lat="46.00548" lon="1.18643">
        <ele>359.19</ele>
        <time>2018-05-27T07:50:54Z</time>
      </trkpt>
      <trkpt lat="46.00584" lon="1.18638">
        <ele>358.23</ele>
        <time>2018-05-27T07:51:04Z</time>
      </trkpt>
      <trkpt lat="46.00618" lon="1.1863">
        <ele>356.79</ele>
        <time>2018-05-27T07:51:13Z</time>
      </trkpt>
      <trkpt lat="46.00638" lon="1.18634">
        <ele>357.27</ele>
        <time>2018-05-27T07:51:20Z</time>
      </trkpt>
      <trkpt lat="46.0064" lon="1.18635">
        <ele>357.75</ele>
        <time>2018-05-27T07:51:21Z</time>
      </trkpt>
      <trkpt lat="46.00642" lon="1.18635">
        <ele>357.75</ele>
        <time>2018-05-27T07:51:22Z</time>
      </trkpt>
      <trkpt lat="46.00644" lon="1.18637">
        <ele>358.23</ele>
        <time>2018-05-27T07:51:23Z</time>
      </trkpt>
      <trkpt lat="46.00646" lon="1.18638">
        <ele>358.23</ele>
        <time>2018-05-27T07:51:24Z</time>
      </trkpt>
      <trkpt lat="46.00648" lon="1.1864">
        <ele>358.71</ele>
        <time>2018-05-27T07:51:25Z</time>
      </trkpt>
      <trkpt lat="46.0065" lon="1.1864">
        <ele>359.19</ele>
        <time>2018-05-27T07:51:26Z</time>
      </trkpt>
      <trkpt lat="46.00653" lon="1.18641">
        <ele>359.19</ele>
        <time>2018-05-27T07:51:27Z</time>
      </trkpt>
      <trkpt lat="46.00666" lon="1.18651">
        <ele>361.59</ele>
        <time>2018-05-27T07:51:34Z</time>
      </trkpt>
      <trkpt lat="46.00669" lon="1.18651">
        <ele>361.59</ele>
        <time>2018-05-27T07:51:35Z</time>
      </trkpt>
      <trkpt lat="46.00671" lon="1.18652">
        <ele>361.59</ele>
        <time>2018-05-27T07:51:36Z</time>
      </trkpt>
      <trkpt lat="46.00684" lon="1.18656">
        <ele>364.96</ele>
        <time>2018-05-27T07:51:46Z</time>
      </trkpt>
      <trkpt lat="46.00685" lon="1.18657">
        <ele>364.96</ele>
        <time>2018-05-27T07:51:47Z</time>
      </trkpt>
      <trkpt lat="46.00687" lon="1.18658">
        <ele>364.96</ele>
        <time>2018-05-27T07:51:48Z</time>
      </trkpt>
      <trkpt lat="46.0069" lon="1.1866">
        <ele>364.96</ele>
        <time>2018-05-27T07:51:49Z</time>
      </trkpt>
      <trkpt lat="46.00697" lon="1.18665">
        <ele>365.92</ele>
        <time>2018-05-27T07:51:52Z</time>
      </trkpt>
      <trkpt lat="46.00699" lon="1.18667">
        <ele>365.44</ele>
        <time>2018-05-27T07:51:53Z</time>
      </trkpt>
      <trkpt lat="46.00702" lon="1.18669">
        <ele>366.4</ele>
        <time>2018-05-27T07:51:55Z</time>
      </trkpt>
      <trkpt lat="46.00704" lon="1.1867">
        <ele>366.4</ele>
        <time>2018-05-27T07:51:56Z</time>
      </trkpt>
      <trkpt lat="46.00726" lon="1.18688">
        <ele>368.32</ele>
        <time>2018-05-27T07:52:07Z</time>
      </trkpt>
      <trkpt lat="46.00731" lon="1.18694">
        <ele>368.8</ele>
        <time>2018-05-27T07:52:10Z</time>
      </trkpt>
      <trkpt lat="46.00734" lon="1.18695">
        <ele>368.8</ele>
        <time>2018-05-27T07:52:11Z</time>
      </trkpt>
      <trkpt lat="46.00736" lon="1.18697">
        <ele>369.28</ele>
        <time>2018-05-27T07:52:12Z</time>
      </trkpt>
      <trkpt lat="46.00747" lon="1.18701">
        <ele>370.24</ele>
        <time>2018-05-27T07:52:18Z</time>
      </trkpt>
      <trkpt lat="46.0075" lon="1.18702">
        <ele>370.73</ele>
        <time>2018-05-27T07:52:19Z</time>
      </trkpt>
      <trkpt lat="46.00753" lon="1.18704">
        <ele>371.21</ele>
        <time>2018-05-27T07:52:20Z</time>
      </trkpt>
      <trkpt lat="46.00755" lon="1.18705">
        <ele>371.21</ele>
        <time>2018-05-27T07:52:21Z</time>
      </trkpt>
      <trkpt lat="46.00758" lon="1.18707">
        <ele>371.21</ele>
        <time>2018-05-27T07:52:22Z</time>
      </trkpt>
      <trkpt lat="46.0078" lon="1.18715">
        <ele>374.09</ele>
        <time>2018-05-27T07:52:33Z</time>
      </trkpt>
      <trkpt lat="46.00781" lon="1.18715">
        <ele>375.05</ele>
        <time>2018-05-27T07:52:34Z</time>
      </trkpt>
      <trkpt lat="46.00783" lon="1.18714">
        <ele>374.57</ele>
        <time>2018-05-27T07:52:35Z</time>
      </trkpt>
      <trkpt lat="46.00785" lon="1.18714">
        <ele>375.05</ele>
        <time>2018-05-27T07:52:36Z</time>
      </trkpt>
      <trkpt lat="46.00787" lon="1.18713">
        <ele>375.05</ele>
        <time>2018-05-27T07:52:37Z</time>
      </trkpt>
      <trkpt lat="46.00789" lon="1.18713">
        <ele>375.05</ele>
        <time>2018-05-27T07:52:38Z</time>
      </trkpt>
      <trkpt lat="46.00791" lon="1.18712">
        <ele>375.53</ele>
        <time>2018-05-27T07:52:39Z</time>
      </trkpt>
      <trkpt lat="46.00794" lon="1.18711">
        <ele>375.53</ele>
        <time>2018-05-27T07:52:40Z</time>
      </trkpt>
      <trkpt lat="46.00796" lon="1.1871">
        <ele>375.53</ele>
        <time>2018-05-27T07:52:41Z</time>
      </trkpt>
      <trkpt lat="46.00822" lon="1.18698">
        <ele>376.01</ele>
        <time>2018-05-27T07:52:51Z</time>
      </trkpt>
      <trkpt lat="46.00854" lon="1.18702">
        <ele>378.42</ele>
        <time>2018-05-27T07:53:05Z</time>
      </trkpt>
      <trkpt lat="46.00867" lon="1.18707">
        <ele>379.86</ele>
        <time>2018-05-27T07:53:12Z</time>
      </trkpt>
      <trkpt lat="46.00868" lon="1.18709">
        <ele>380.34</ele>
        <time>2018-05-27T07:53:13Z</time>
      </trkpt>
      <trkpt lat="46.00869" lon="1.1871">
        <ele>380.34</ele>
        <time>2018-05-27T07:53:14Z</time>
      </trkpt>
      <trkpt lat="46.00869" lon="1.18712">
        <ele>380.34</ele>
        <time>2018-05-27T07:53:15Z</time>
      </trkpt>
      <trkpt lat="46.00869" lon="1.18715">
        <ele>380.34</ele>
        <time>2018-05-27T07:53:16Z</time>
      </trkpt>
      <trkpt lat="46.00869" lon="1.18716">
        <ele>380.34</ele>
        <time>2018-05-27T07:53:17Z</time>
      </trkpt>
      <trkpt lat="46.00869" lon="1.18718">
        <ele>380.82</ele>
        <time>2018-05-27T07:53:18Z</time>
      </trkpt>
      <trkpt lat="46.00869" lon="1.1872">
        <ele>380.82</ele>
        <time>2018-05-27T07:53:19Z</time>
      </trkpt>
      <trkpt lat="46.00869" lon="1.18723">
        <ele>380.82</ele>
        <time>2018-05-27T07:53:20Z</time>
      </trkpt>
      <trkpt lat="46.00869" lon="1.18725">
        <ele>380.82</ele>
        <time>2018-05-27T07:53:21Z</time>
      </trkpt>
      <trkpt lat="46.00869" lon="1.18728">
        <ele>380.82</ele>
        <time>2018-05-27T07:53:22Z</time>
      </trkpt>
      <trkpt lat="46.00869" lon="1.1873">
        <ele>381.78</ele>
        <time>2018-05-27T07:53:23Z</time>
      </trkpt>
      <trkpt lat="46.00869" lon="1.18733">
        <ele>381.3</ele>
        <time>2018-05-27T07:53:24Z</time>
      </trkpt>
      <trkpt lat="46.00869" lon="1.18736">
        <ele>381.78</ele>
        <time>2018-05-27T07:53:25Z</time>
      </trkpt>
      <trkpt lat="46.00866" lon="1.18765">
        <ele>383.22</ele>
        <time>2018-05-27T07:53:38Z</time>
      </trkpt>
      <trkpt lat="46.00859" lon="1.18796">
        <ele>385.15</ele>
        <time>2018-05-27T07:53:52Z</time>
      </trkpt>
      <trkpt lat="46.00858" lon="1.18811">
        <ele>386.11</ele>
        <time>2018-05-27T07:54:06Z</time>
      </trkpt>
      <trkpt lat="46.00858" lon="1.18811">
        <ele>390.43</ele>
        <time>2018-05-27T07:54:12Z</time>
      </trkpt>
      <trkpt lat="46.00858" lon="1.18811">
        <ele>385.15</ele>
        <time>2018-05-27T07:54:13Z</time>
      </trkpt>
      <trkpt lat="46.00858" lon="1.18811">
        <ele>390.43</ele>
        <time>2018-05-27T07:54:14Z</time>
      </trkpt>
      <trkpt lat="46.00858" lon="1.18811">
        <ele>385.63</ele>
        <time>2018-05-27T07:54:15Z</time>
      </trkpt>
      <trkpt lat="46.00858" lon="1.18811">
        <ele>388.51</ele>
        <time>2018-05-27T07:54:33Z</time>
      </trkpt>
      <trkpt lat="46.00859" lon="1.18811">
        <ele>385.63</ele>
        <time>2018-05-27T07:54:35Z</time>
      </trkpt>
      <trkpt lat="46.00859" lon="1.18811">
        <ele>389.95</ele>
        <time>2018-05-27T07:55:03Z</time>
      </trkpt>
      <trkpt lat="46.00859" lon="1.18811">
        <ele>386.11</ele>
        <time>2018-05-27T07:55:04Z</time>
      </trkpt>
      <trkpt lat="46.00857" lon="1.18813">
        <ele>385.63</ele>
        <time>2018-05-27T07:55:14Z</time>
      </trkpt>
      <trkpt lat="46.00858" lon="1.18812">
        <ele>386.11</ele>
        <time>2018-05-27T07:55:33Z</time>
      </trkpt>
      <trkpt lat="46.00855" lon="1.18834">
        <ele>387.07</ele>
        <time>2018-05-27T07:55:44Z</time>
      </trkpt>
      <trkpt lat="46.0085" lon="1.18871">
        <ele>388.99</ele>
        <time>2018-05-27T07:55:56Z</time>
      </trkpt>
      <trkpt lat="46.00844" lon="1.18916">
        <ele>391.87</ele>
        <time>2018-05-27T07:56:10Z</time>
      </trkpt>
      <trkpt lat="46.00838" lon="1.18968">
        <ele>393.32</ele>
        <time>2018-05-27T07:56:25Z</time>
      </trkpt>
      <trkpt lat="46.0083" lon="1.19022">
        <ele>394.76</ele>
        <time>2018-05-27T07:56:40Z</time>
      </trkpt>
      <trkpt lat="46.00817" lon="1.19079">
        <ele>395.72</ele>
        <time>2018-05-27T07:56:55Z</time>
      </trkpt>
      <trkpt lat="46.00802" lon="1.19116">
        <ele>397.64</ele>
        <time>2018-05-27T07:57:06Z</time>
      </trkpt>
      <trkpt lat="46.00801" lon="1.1912">
        <ele>397.64</ele>
        <time>2018-05-27T07:57:08Z</time>
      </trkpt>
      <trkpt lat="46.00803" lon="1.19127">
        <ele>397.16</ele>
        <time>2018-05-27T07:57:12Z</time>
      </trkpt>
      <trkpt lat="46.00835" lon="1.19155">
        <ele>394.76</ele>
        <time>2018-05-27T07:57:23Z</time>
      </trkpt>
      <trkpt lat="46.00865" lon="1.19173">
        <ele>394.76</ele>
        <time>2018-05-27T07:57:33Z</time>
      </trkpt>
      <trkpt lat="46.00875" lon="1.19177">
        <ele>394.28</ele>
        <time>2018-05-27T07:57:36Z</time>
      </trkpt>
      <trkpt lat="46.00909" lon="1.19197">
        <ele>393.32</ele>
        <time>2018-05-27T07:57:48Z</time>
      </trkpt>
      <trkpt lat="46.0092" lon="1.19204">
        <ele>392.84</ele>
        <time>2018-05-27T07:57:51Z</time>
      </trkpt>
      <trkpt lat="46.00946" lon="1.19225">
        <ele>392.36</ele>
        <time>2018-05-27T07:57:59Z</time>
      </trkpt>
      <trkpt lat="46.00991" lon="1.19253">
        <ele>391.39</ele>
        <time>2018-05-27T07:58:09Z</time>
      </trkpt>
      <trkpt lat="46.01027" lon="1.19277">
        <ele>389.95</ele>
        <time>2018-05-27T07:58:16Z</time>
      </trkpt>
      <trkpt lat="46.01032" lon="1.19281">
        <ele>389.95</ele>
        <time>2018-05-27T07:58:17Z</time>
      </trkpt>
      <trkpt lat="46.01065" lon="1.19301">
        <ele>389.47</ele>
        <time>2018-05-27T07:58:22Z</time>
      </trkpt>
      <trkpt lat="46.01071" lon="1.19305">
        <ele>388.99</ele>
        <time>2018-05-27T07:58:23Z</time>
      </trkpt>
      <trkpt lat="46.01083" lon="1.19312">
        <ele>388.03</ele>
        <time>2018-05-27T07:58:25Z</time>
      </trkpt>
      <trkpt lat="46.01096" lon="1.19319">
        <ele>387.55</ele>
        <time>2018-05-27T07:58:27Z</time>
      </trkpt>
      <trkpt lat="46.01101" lon="1.19322">
        <ele>387.07</ele>
        <time>2018-05-27T07:58:28Z</time>
      </trkpt>
      <trkpt lat="46.01111" lon="1.1933">
        <ele>387.07</ele>
        <time>2018-05-27T07:58:30Z</time>
      </trkpt>
      <trkpt lat="46.01141" lon="1.19351">
        <ele>385.63</ele>
        <time>2018-05-27T07:58:35Z</time>
      </trkpt>
      <trkpt lat="46.01148" lon="1.19354">
        <ele>385.15</ele>
        <time>2018-05-27T07:58:36Z</time>
      </trkpt>
      <trkpt lat="46.01155" lon="1.19357">
        <ele>383.22</ele>
        <time>2018-05-27T07:58:37Z</time>
      </trkpt>
      <trkpt lat="46.01162" lon="1.1936">
        <ele>382.74</ele>
        <time>2018-05-27T07:58:38Z</time>
      </trkpt>
      <trkpt lat="46.01169" lon="1.19365">
        <ele>382.74</ele>
        <time>2018-05-27T07:58:39Z</time>
      </trkpt>
      <trkpt lat="46.01196" lon="1.19381">
        <ele>381.3</ele>
        <time>2018-05-27T07:58:43Z</time>
      </trkpt>
      <trkpt lat="46.01202" lon="1.19384">
        <ele>380.82</ele>
        <time>2018-05-27T07:58:44Z</time>
      </trkpt>
      <trkpt lat="46.01208" lon="1.19389">
        <ele>380.34</ele>
        <time>2018-05-27T07:58:45Z</time>
      </trkpt>
      <trkpt lat="46.01214" lon="1.19394">
        <ele>379.38</ele>
        <time>2018-05-27T07:58:46Z</time>
      </trkpt>
      <trkpt lat="46.01219" lon="1.19398">
        <ele>378.9</ele>
        <time>2018-05-27T07:58:47Z</time>
      </trkpt>
      <trkpt lat="46.01224" lon="1.194">
        <ele>379.38</ele>
        <time>2018-05-27T07:58:48Z</time>
      </trkpt>
      <trkpt lat="46.01229" lon="1.19403">
        <ele>378.9</ele>
        <time>2018-05-27T07:58:49Z</time>
      </trkpt>
      <trkpt lat="46.01234" lon="1.19406">
        <ele>378.42</ele>
        <time>2018-05-27T07:58:50Z</time>
      </trkpt>
      <trkpt lat="46.01239" lon="1.19409">
        <ele>377.94</ele>
        <time>2018-05-27T07:58:51Z</time>
      </trkpt>
      <trkpt lat="46.01244" lon="1.19414">
        <ele>376.01</ele>
        <time>2018-05-27T07:58:52Z</time>
      </trkpt>
      <trkpt lat="46.01249" lon="1.19416">
        <ele>376.49</ele>
        <time>2018-05-27T07:58:53Z</time>
      </trkpt>
      <trkpt lat="46.01253" lon="1.19418">
        <ele>376.01</ele>
        <time>2018-05-27T07:58:54Z</time>
      </trkpt>
      <trkpt lat="46.01257" lon="1.1942">
        <ele>375.53</ele>
        <time>2018-05-27T07:58:55Z</time>
      </trkpt>
      <trkpt lat="46.01261" lon="1.19421">
        <ele>375.53</ele>
        <time>2018-05-27T07:58:56Z</time>
      </trkpt>
      <trkpt lat="46.01264" lon="1.19423">
        <ele>375.53</ele>
        <time>2018-05-27T07:58:57Z</time>
      </trkpt>
      <trkpt lat="46.01288" lon="1.19435">
        <ele>372.65</ele>
        <time>2018-05-27T07:59:06Z</time>
      </trkpt>
      <trkpt lat="46.01326" lon="1.19453">
        <ele>369.76</ele>
        <time>2018-05-27T07:59:15Z</time>
      </trkpt>
      <trkpt lat="46.0133" lon="1.19454">
        <ele>369.28</ele>
        <time>2018-05-27T07:59:16Z</time>
      </trkpt>
      <trkpt lat="46.0134" lon="1.19455">
        <ele>368.8</ele>
        <time>2018-05-27T07:59:18Z</time>
      </trkpt>
      <trkpt lat="46.01355" lon="1.1946">
        <ele>366.88</ele>
        <time>2018-05-27T07:59:25Z</time>
      </trkpt>
      <trkpt lat="46.01355" lon="1.19462">
        <ele>366.88</ele>
        <time>2018-05-27T07:59:26Z</time>
      </trkpt>
      <trkpt lat="46.01353" lon="1.19465">
        <ele>366.4</ele>
        <time>2018-05-27T07:59:27Z</time>
      </trkpt>
      <trkpt lat="46.01351" lon="1.19468">
        <ele>365.92</ele>
        <time>2018-05-27T07:59:28Z</time>
      </trkpt>
      <trkpt lat="46.0135" lon="1.19472">
        <ele>365.44</ele>
        <time>2018-05-27T07:59:29Z</time>
      </trkpt>
      <trkpt lat="46.01349" lon="1.19475">
        <ele>364.96</ele>
        <time>2018-05-27T07:59:30Z</time>
      </trkpt>
      <trkpt lat="46.01347" lon="1.19478">
        <ele>365.44</ele>
        <time>2018-05-27T07:59:31Z</time>
      </trkpt>
      <trkpt lat="46.01344" lon="1.19482">
        <ele>364.96</ele>
        <time>2018-05-27T07:59:32Z</time>
      </trkpt>
      <trkpt lat="46.01342" lon="1.19487">
        <ele>364.48</ele>
        <time>2018-05-27T07:59:33Z</time>
      </trkpt>
      <trkpt lat="46.01341" lon="1.19492">
        <ele>364.96</ele>
        <time>2018-05-27T07:59:34Z</time>
      </trkpt>
      <trkpt lat="46.01339" lon="1.19497">
        <ele>364.48</ele>
        <time>2018-05-27T07:59:35Z</time>
      </trkpt>
      <trkpt lat="46.01337" lon="1.19501">
        <ele>364</ele>
        <time>2018-05-27T07:59:36Z</time>
      </trkpt>
      <trkpt lat="46.01336" lon="1.19505">
        <ele>364.96</ele>
        <time>2018-05-27T07:59:37Z</time>
      </trkpt>
      <trkpt lat="46.01334" lon="1.19511">
        <ele>364.48</ele>
        <time>2018-05-27T07:59:38Z</time>
      </trkpt>
      <trkpt lat="46.01333" lon="1.19516">
        <ele>363.52</ele>
        <time>2018-05-27T07:59:39Z</time>
      </trkpt>
      <trkpt lat="46.01331" lon="1.1952">
        <ele>364.96</ele>
        <time>2018-05-27T07:59:40Z</time>
      </trkpt>
      <trkpt lat="46.01321" lon="1.19535">
        <ele>364.96</ele>
        <time>2018-05-27T07:59:45Z</time>
      </trkpt>
      <trkpt lat="46.01319" lon="1.19537">
        <ele>365.44</ele>
        <time>2018-05-27T07:59:46Z</time>
      </trkpt>
      <trkpt lat="46.01318" lon="1.19538">
        <ele>365.44</ele>
        <time>2018-05-27T07:59:47Z</time>
      </trkpt>
      <trkpt lat="46.01316" lon="1.1954">
        <ele>365.44</ele>
        <time>2018-05-27T07:59:48Z</time>
      </trkpt>
      <trkpt lat="46.01315" lon="1.19542">
        <ele>365.44</ele>
        <time>2018-05-27T07:59:49Z</time>
      </trkpt>
      <trkpt lat="46.01314" lon="1.19543">
        <ele>365.92</ele>
        <time>2018-05-27T07:59:50Z</time>
      </trkpt>
      <trkpt lat="46.01305" lon="1.1955">
        <ele>366.4</ele>
        <time>2018-05-27T07:59:56Z</time>
      </trkpt>
      <trkpt lat="46.01304" lon="1.19551">
        <ele>366.4</ele>
        <time>2018-05-27T07:59:57Z</time>
      </trkpt>
      <trkpt lat="46.01288" lon="1.19556">
        <ele>368.8</ele>
        <time>2018-05-27T08:00:06Z</time>
      </trkpt>
      <trkpt lat="46.01266" lon="1.19564">
        <ele>370.73</ele>
        <time>2018-05-27T08:00:17Z</time>
      </trkpt>
      <trkpt lat="46.0123" lon="1.19608">
        <ele>373.13</ele>
        <time>2018-05-27T08:00:32Z</time>
      </trkpt>
      <trkpt lat="46.0121" lon="1.19656">
        <ele>372.65</ele>
        <time>2018-05-27T08:00:45Z</time>
      </trkpt>
      <trkpt lat="46.01191" lon="1.1969">
        <ele>370.73</ele>
        <time>2018-05-27T08:00:57Z</time>
      </trkpt>
      <trkpt lat="46.01188" lon="1.19692">
        <ele>370.73</ele>
        <time>2018-05-27T08:01:09Z</time>
      </trkpt>
      <trkpt lat="46.01188" lon="1.19693">
        <ele>375.05</ele>
        <time>2018-05-27T08:01:15Z</time>
      </trkpt>
      <trkpt lat="46.01188" lon="1.19693">
        <ele>371.69</ele>
        <time>2018-05-27T08:01:16Z</time>
      </trkpt>
      <trkpt lat="46.01188" lon="1.19693">
        <ele>367.84</ele>
        <time>2018-05-27T08:01:18Z</time>
      </trkpt>
      <trkpt lat="46.01188" lon="1.19693">
        <ele>370.73</ele>
        <time>2018-05-27T08:01:19Z</time>
      </trkpt>
      <trkpt lat="46.01188" lon="1.19692">
        <ele>371.21</ele>
        <time>2018-05-27T08:01:43Z</time>
      </trkpt>
      <trkpt lat="46.01188" lon="1.19692">
        <ele>378.9</ele>
        <time>2018-05-27T08:01:49Z</time>
      </trkpt>
      <trkpt lat="46.01188" lon="1.19692">
        <ele>371.21</ele>
        <time>2018-05-27T08:01:50Z</time>
      </trkpt>
      <trkpt lat="46.01188" lon="1.19692">
        <ele>370.73</ele>
        <time>2018-05-27T08:02:13Z</time>
      </trkpt>
      <trkpt lat="46.01171" lon="1.19687">
        <ele>370.73</ele>
        <time>2018-05-27T08:02:23Z</time>
      </trkpt>
      <trkpt lat="46.01164" lon="1.19684">
        <ele>371.21</ele>
        <time>2018-05-27T08:02:27Z</time>
      </trkpt>
      <trkpt lat="46.01151" lon="1.19676">
        <ele>370.24</ele>
        <time>2018-05-27T08:02:35Z</time>
      </trkpt>
      <trkpt lat="46.01144" lon="1.19667">
        <ele>369.76</ele>
        <time>2018-05-27T08:02:40Z</time>
      </trkpt>
      <trkpt lat="46.01137" lon="1.19657">
        <ele>370.24</ele>
        <time>2018-05-27T08:02:45Z</time>
      </trkpt>
      <trkpt lat="46.0113" lon="1.19649">
        <ele>370.73</ele>
        <time>2018-05-27T08:02:56Z</time>
      </trkpt>
      <trkpt lat="46.0113" lon="1.19647">
        <ele>370.24</ele>
        <time>2018-05-27T08:03:01Z</time>
      </trkpt>
      <trkpt lat="46.01131" lon="1.19648">
        <ele>370.73</ele>
        <time>2018-05-27T08:03:03Z</time>
      </trkpt>
      <trkpt lat="46.01136" lon="1.1966">
        <ele>370.73</ele>
        <time>2018-05-27T08:03:08Z</time>
      </trkpt>
      <trkpt lat="46.01138" lon="1.19663">
        <ele>370.73</ele>
        <time>2018-05-27T08:03:10Z</time>
      </trkpt>
      <trkpt lat="46.01152" lon="1.19681">
        <ele>371.21</ele>
        <time>2018-05-27T08:03:18Z</time>
      </trkpt>
      <trkpt lat="46.01174" lon="1.19697">
        <ele>370.73</ele>
        <time>2018-05-27T08:03:29Z</time>
      </trkpt>
      <trkpt lat="46.01181" lon="1.19699">
        <ele>370.24</ele>
        <time>2018-05-27T08:03:43Z</time>
      </trkpt>
      <trkpt lat="46.01181" lon="1.19699">
        <ele>370.24</ele>
        <time>2018-05-27T08:03:45Z</time>
      </trkpt>
      <trkpt lat="46.01168" lon="1.19716">
        <ele>367.36</ele>
        <time>2018-05-27T08:03:54Z</time>
      </trkpt>
      <trkpt lat="46.01157" lon="1.19746">
        <ele>365.92</ele>
        <time>2018-05-27T08:04:03Z</time>
      </trkpt>
      <trkpt lat="46.01155" lon="1.19757">
        <ele>365.92</ele>
        <time>2018-05-27T08:04:12Z</time>
      </trkpt>
      <trkpt lat="46.01157" lon="1.19758">
        <ele>365.92</ele>
        <time>2018-05-27T08:04:20Z</time>
      </trkpt>
      <trkpt lat="46.0116" lon="1.19752">
        <ele>366.4</ele>
        <time>2018-05-27T08:04:24Z</time>
      </trkpt>
      <trkpt lat="46.0117" lon="1.19757">
        <ele>364.96</ele>
        <time>2018-05-27T08:04:38Z</time>
      </trkpt>
      <trkpt lat="46.0117" lon="1.19756">
        <ele>364.96</ele>
        <time>2018-05-27T08:04:41Z</time>
      </trkpt>
      <trkpt lat="46.01168" lon="1.19754">
        <ele>365.44</ele>
        <time>2018-05-27T08:04:45Z</time>
      </trkpt>
      <trkpt lat="46.01164" lon="1.19751">
        <ele>367.84</ele>
        <time>2018-05-27T08:04:58Z</time>
      </trkpt>
      <trkpt lat="46.01163" lon="1.19752">
        <ele>365.92</ele>
        <time>2018-05-27T08:05:11Z</time>
      </trkpt>
      <trkpt lat="46.01162" lon="1.1975">
        <ele>361.59</ele>
        <time>2018-05-27T08:05:26Z</time>
      </trkpt>
      <trkpt lat="46.01162" lon="1.1975">
        <ele>366.88</ele>
        <time>2018-05-27T08:05:27Z</time>
      </trkpt>
      <trkpt lat="46.01161" lon="1.19751">
        <ele>363.04</ele>
        <time>2018-05-27T08:05:37Z</time>
      </trkpt>
      <trkpt lat="46.01161" lon="1.19751">
        <ele>366.4</ele>
        <time>2018-05-27T08:05:38Z</time>
      </trkpt>
      <trkpt lat="46.01161" lon="1.19751">
        <ele>365.92</ele>
        <time>2018-05-27T08:05:49Z</time>
      </trkpt>
      <trkpt lat="46.01155" lon="1.19765">
        <ele>365.44</ele>
        <time>2018-05-27T08:05:59Z</time>
      </trkpt>
      <trkpt lat="46.01154" lon="1.19768">
        <ele>365.92</ele>
        <time>2018-05-27T08:06:16Z</time>
      </trkpt>
      <trkpt lat="46.01152" lon="1.19767">
        <ele>365.44</ele>
        <time>2018-05-27T08:06:35Z</time>
      </trkpt>
      <trkpt lat="46.01145" lon="1.19767">
        <ele>365.92</ele>
        <time>2018-05-27T08:06:41Z</time>
      </trkpt>
      <trkpt lat="46.01141" lon="1.19762">
        <ele>365.92</ele>
        <time>2018-05-27T08:06:54Z</time>
      </trkpt>
      <trkpt lat="46.0114" lon="1.19763">
        <ele>366.4</ele>
        <time>2018-05-27T08:07:18Z</time>
      </trkpt>
      <trkpt lat="46.01139" lon="1.19765">
        <ele>365.92</ele>
        <time>2018-05-27T08:07:39Z</time>
      </trkpt>
      <trkpt lat="46.0114" lon="1.19765">
        <ele>365.92</ele>
        <time>2018-05-27T08:07:40Z</time>
      </trkpt>
      <trkpt lat="46.01142" lon="1.19766">
        <ele>366.4</ele>
        <time>2018-05-27T08:07:44Z</time>
      </trkpt>
      <trkpt lat="46.01146" lon="1.19766">
        <ele>365.92</ele>
        <time>2018-05-27T08:07:56Z</time>
      </trkpt>
      <trkpt lat="46.01151" lon="1.1976">
        <ele>366.4</ele>
        <time>2018-05-27T08:08:02Z</time>
      </trkpt>
      <trkpt lat="46.01163" lon="1.19737">
        <ele>367.36</ele>
        <time>2018-05-27T08:08:11Z</time>
      </trkpt>
      <trkpt lat="46.01164" lon="1.19735">
        <ele>367.36</ele>
        <time>2018-05-27T08:08:12Z</time>
      </trkpt>
      <trkpt lat="46.01184" lon="1.19712">
        <ele>370.24</ele>
        <time>2018-05-27T08:08:26Z</time>
      </trkpt>
      <trkpt lat="46.01185" lon="1.1971">
        <ele>370.24</ele>
        <time>2018-05-27T08:08:32Z</time>
      </trkpt>
      <trkpt lat="46.01198" lon="1.19688">
        <ele>371.69</ele>
        <time>2018-05-27T08:08:41Z</time>
      </trkpt>
      <trkpt lat="46.01216" lon="1.19651">
        <ele>376.49</ele>
        <time>2018-05-27T08:08:53Z</time>
      </trkpt>
      <trkpt lat="46.01218" lon="1.19645">
        <ele>372.65</ele>
        <time>2018-05-27T08:08:55Z</time>
      </trkpt>
      <trkpt lat="46.01242" lon="1.19593">
        <ele>372.65</ele>
        <time>2018-05-27T08:09:09Z</time>
      </trkpt>
      <trkpt lat="46.01278" lon="1.19564">
        <ele>370.24</ele>
        <time>2018-05-27T08:09:22Z</time>
      </trkpt>
      <trkpt lat="46.01288" lon="1.19564">
        <ele>369.28</ele>
        <time>2018-05-27T08:09:25Z</time>
      </trkpt>
      <trkpt lat="46.01301" lon="1.19561">
        <ele>366.88</ele>
        <time>2018-05-27T08:09:29Z</time>
      </trkpt>
      <trkpt lat="46.0132" lon="1.19541">
        <ele>365.44</ele>
        <time>2018-05-27T08:09:37Z</time>
      </trkpt>
      <trkpt lat="46.01322" lon="1.1954">
        <ele>364.96</ele>
        <time>2018-05-27T08:09:52Z</time>
      </trkpt>
      <trkpt lat="46.01322" lon="1.1954">
        <ele>364.96</ele>
        <time>2018-05-27T08:09:53Z</time>
      </trkpt>
      <trkpt lat="46.01323" lon="1.19542">
        <ele>364.48</ele>
        <time>2018-05-27T08:09:54Z</time>
      </trkpt>
      <trkpt lat="46.01323" lon="1.19545">
        <ele>363.52</ele>
        <time>2018-05-27T08:09:55Z</time>
      </trkpt>
      <trkpt lat="46.01324" lon="1.19548">
        <ele>364</ele>
        <time>2018-05-27T08:09:56Z</time>
      </trkpt>
      <trkpt lat="46.01331" lon="1.19565">
        <ele>363.52</ele>
        <time>2018-05-27T08:10:01Z</time>
      </trkpt>
      <trkpt lat="46.01328" lon="1.19584">
        <ele>363.52</ele>
        <time>2018-05-27T08:10:06Z</time>
      </trkpt>
      <trkpt lat="46.01328" lon="1.19589">
        <ele>363.04</ele>
        <time>2018-05-27T08:10:07Z</time>
      </trkpt>
      <trkpt lat="46.01328" lon="1.19592">
        <ele>363.52</ele>
        <time>2018-05-27T08:10:08Z</time>
      </trkpt>
      <trkpt lat="46.01328" lon="1.19595">
        <ele>363.04</ele>
        <time>2018-05-27T08:10:09Z</time>
      </trkpt>
      <trkpt lat="46.01329" lon="1.19599">
        <ele>363.04</ele>
        <time>2018-05-27T08:10:10Z</time>
      </trkpt>
      <trkpt lat="46.0133" lon="1.19601">
        <ele>363.04</ele>
        <time>2018-05-27T08:10:11Z</time>
      </trkpt>
      <trkpt lat="46.01331" lon="1.19604">
        <ele>362.55</ele>
        <time>2018-05-27T08:10:12Z</time>
      </trkpt>
      <trkpt lat="46.01332" lon="1.19606">
        <ele>362.55</ele>
        <time>2018-05-27T08:10:13Z</time>
      </trkpt>
      <trkpt lat="46.01339" lon="1.19621">
        <ele>360.63</ele>
        <time>2018-05-27T08:10:19Z</time>
      </trkpt>
      <trkpt lat="46.01355" lon="1.19653">
        <ele>359.19</ele>
        <time>2018-05-27T08:10:29Z</time>
      </trkpt>
      <trkpt lat="46.01363" lon="1.19672">
        <ele>355.83</ele>
        <time>2018-05-27T08:10:39Z</time>
      </trkpt>
      <trkpt lat="46.01364" lon="1.19676">
        <ele>355.83</ele>
        <time>2018-05-27T08:10:40Z</time>
      </trkpt>
      <trkpt lat="46.01369" lon="1.19681">
        <ele>355.83</ele>
        <time>2018-05-27T08:10:50Z</time>
      </trkpt>
      <trkpt lat="46.01372" lon="1.19687">
        <ele>353.9</ele>
        <time>2018-05-27T08:11:05Z</time>
      </trkpt>
      <trkpt lat="46.01372" lon="1.19693">
        <ele>351.98</ele>
        <time>2018-05-27T08:11:18Z</time>
      </trkpt>
      <trkpt lat="46.01378" lon="1.19706">
        <ele>350.54</ele>
        <time>2018-05-27T08:11:28Z</time>
      </trkpt>
      <trkpt lat="46.01379" lon="1.19707">
        <ele>350.54</ele>
        <time>2018-05-27T08:11:29Z</time>
      </trkpt>
      <trkpt lat="46.0138" lon="1.19709">
        <ele>351.02</ele>
        <time>2018-05-27T08:11:44Z</time>
      </trkpt>
      <trkpt lat="46.01381" lon="1.1971">
        <ele>350.06</ele>
        <time>2018-05-27T08:11:56Z</time>
      </trkpt>
      <trkpt lat="46.01383" lon="1.19711">
        <ele>349.58</ele>
        <time>2018-05-27T08:12:21Z</time>
      </trkpt>
      <trkpt lat="46.01384" lon="1.19711">
        <ele>350.06</ele>
        <time>2018-05-27T08:12:50Z</time>
      </trkpt>
      <trkpt lat="46.01384" lon="1.19709">
        <ele>350.54</ele>
        <time>2018-05-27T08:13:22Z</time>
      </trkpt>
      <trkpt lat="46.01384" lon="1.1971">
        <ele>349.58</ele>
        <time>2018-05-27T08:13:36Z</time>
      </trkpt>
      <trkpt lat="46.01386" lon="1.19712">
        <ele>349.1</ele>
        <time>2018-05-27T08:13:38Z</time>
      </trkpt>
      <trkpt lat="46.01387" lon="1.19713">
        <ele>349.1</ele>
        <time>2018-05-27T08:13:39Z</time>
      </trkpt>
      <trkpt lat="46.01388" lon="1.19714">
        <ele>349.58</ele>
        <time>2018-05-27T08:13:40Z</time>
      </trkpt>
      <trkpt lat="46.01393" lon="1.19716">
        <ele>348.62</ele>
        <time>2018-05-27T08:13:43Z</time>
      </trkpt>
      <trkpt lat="46.01401" lon="1.19724">
        <ele>347.17</ele>
        <time>2018-05-27T08:13:46Z</time>
      </trkpt>
      <trkpt lat="46.01402" lon="1.19727">
        <ele>347.17</ele>
        <time>2018-05-27T08:13:47Z</time>
      </trkpt>
      <trkpt lat="46.01404" lon="1.1973">
        <ele>347.17</ele>
        <time>2018-05-27T08:13:48Z</time>
      </trkpt>
      <trkpt lat="46.01415" lon="1.19744">
        <ele>346.69</ele>
        <time>2018-05-27T08:13:52Z</time>
      </trkpt>
      <trkpt lat="46.01416" lon="1.19747">
        <ele>346.21</ele>
        <time>2018-05-27T08:13:53Z</time>
      </trkpt>
      <trkpt lat="46.01419" lon="1.1975">
        <ele>346.21</ele>
        <time>2018-05-27T08:13:54Z</time>
      </trkpt>
      <trkpt lat="46.01422" lon="1.19753">
        <ele>345.73</ele>
        <time>2018-05-27T08:13:55Z</time>
      </trkpt>
      <trkpt lat="46.01426" lon="1.19754">
        <ele>345.73</ele>
        <time>2018-05-27T08:13:56Z</time>
      </trkpt>
      <trkpt lat="46.0143" lon="1.19755">
        <ele>346.21</ele>
        <time>2018-05-27T08:13:57Z</time>
      </trkpt>
      <trkpt lat="46.0146" lon="1.19751">
        <ele>343.81</ele>
        <time>2018-05-27T08:14:06Z</time>
      </trkpt>
      <trkpt lat="46.01499" lon="1.19728">
        <ele>341.89</ele>
        <time>2018-05-27T08:14:15Z</time>
      </trkpt>
      <trkpt lat="46.01504" lon="1.19727">
        <ele>340.44</ele>
        <time>2018-05-27T08:14:16Z</time>
      </trkpt>
      <trkpt lat="46.01508" lon="1.19727">
        <ele>340.92</ele>
        <time>2018-05-27T08:14:17Z</time>
      </trkpt>
      <trkpt lat="46.01557" lon="1.19716">
        <ele>337.56</ele>
        <time>2018-05-27T08:14:28Z</time>
      </trkpt>
      <trkpt lat="46.0156" lon="1.19711">
        <ele>338.04</ele>
        <time>2018-05-27T08:14:29Z</time>
      </trkpt>
      <trkpt lat="46.01565" lon="1.197">
        <ele>337.08</ele>
        <time>2018-05-27T08:14:31Z</time>
      </trkpt>
      <trkpt lat="46.01574" lon="1.19658">
        <ele>333.71</ele>
        <time>2018-05-27T08:14:37Z</time>
      </trkpt>
      <trkpt lat="46.01575" lon="1.19655">
        <ele>333.71</ele>
        <time>2018-05-27T08:14:38Z</time>
      </trkpt>
      <trkpt lat="46.01573" lon="1.19609">
        <ele>330.83</ele>
        <time>2018-05-27T08:14:47Z</time>
      </trkpt>
      <trkpt lat="46.01571" lon="1.19601">
        <ele>330.83</ele>
        <time>2018-05-27T08:15:00Z</time>
      </trkpt>
      <trkpt lat="46.0157" lon="1.196">
        <ele>326.02</ele>
        <time>2018-05-27T08:15:15Z</time>
      </trkpt>
      <trkpt lat="46.0157" lon="1.19599">
        <ele>330.35</ele>
        <time>2018-05-27T08:15:18Z</time>
      </trkpt>
      <trkpt lat="46.0157" lon="1.19599">
        <ele>326.99</ele>
        <time>2018-05-27T08:15:21Z</time>
      </trkpt>
      <trkpt lat="46.0157" lon="1.19599">
        <ele>331.31</ele>
        <time>2018-05-27T08:15:22Z</time>
      </trkpt>
      <trkpt lat="46.0157" lon="1.19598">
        <ele>327.95</ele>
        <time>2018-05-27T08:15:46Z</time>
      </trkpt>
      <trkpt lat="46.0157" lon="1.19598">
        <ele>330.83</ele>
        <time>2018-05-27T08:15:47Z</time>
      </trkpt>
      <trkpt lat="46.0157" lon="1.19598">
        <ele>326.02</ele>
        <time>2018-05-27T08:15:49Z</time>
      </trkpt>
      <trkpt lat="46.0157" lon="1.19598">
        <ele>329.39</ele>
        <time>2018-05-27T08:15:50Z</time>
      </trkpt>
      <trkpt lat="46.0157" lon="1.19598">
        <ele>332.75</ele>
        <time>2018-05-27T08:15:52Z</time>
      </trkpt>
      <trkpt lat="46.0157" lon="1.19598">
        <ele>326.02</ele>
        <time>2018-05-27T08:15:53Z</time>
      </trkpt>
      <trkpt lat="46.0157" lon="1.19598">
        <ele>326.02</ele>
        <time>2018-05-27T08:15:54Z</time>
      </trkpt>
      <trkpt lat="46.0157" lon="1.19598">
        <ele>331.79</ele>
        <time>2018-05-27T08:15:55Z</time>
      </trkpt>
      <trkpt lat="46.0157" lon="1.19598">
        <ele>331.31</ele>
        <time>2018-05-27T08:15:56Z</time>
      </trkpt>
      <trkpt lat="46.0157" lon="1.19598">
        <ele>327.47</ele>
        <time>2018-05-27T08:15:58Z</time>
      </trkpt>
      <trkpt lat="46.0157" lon="1.19598">
        <ele>328.43</ele>
        <time>2018-05-27T08:15:59Z</time>
      </trkpt>
      <trkpt lat="46.0157" lon="1.19596">
        <ele>333.23</ele>
        <time>2018-05-27T08:16:24Z</time>
      </trkpt>
      <trkpt lat="46.0157" lon="1.19596">
        <ele>327.47</ele>
        <time>2018-05-27T08:16:25Z</time>
      </trkpt>
      <trkpt lat="46.0157" lon="1.19596">
        <ele>331.31</ele>
        <time>2018-05-27T08:16:26Z</time>
      </trkpt>
      <trkpt lat="46.0157" lon="1.19596">
        <ele>335.16</ele>
        <time>2018-05-27T08:16:37Z</time>
      </trkpt>
      <trkpt lat="46.0157" lon="1.19596">
        <ele>326.99</ele>
        <time>2018-05-27T08:16:38Z</time>
      </trkpt>
      <trkpt lat="46.0157" lon="1.19596">
        <ele>327.95</ele>
        <time>2018-05-27T08:16:39Z</time>
      </trkpt>
      <trkpt lat="46.0157" lon="1.19596">
        <ele>331.31</ele>
        <time>2018-05-27T08:16:42Z</time>
      </trkpt>
      <trkpt lat="46.01571" lon="1.19596">
        <ele>327.47</ele>
        <time>2018-05-27T08:16:47Z</time>
      </trkpt>
      <trkpt lat="46.01571" lon="1.19596">
        <ele>330.83</ele>
        <time>2018-05-27T08:16:49Z</time>
      </trkpt>
      <trkpt lat="46.01571" lon="1.19596">
        <ele>335.64</ele>
        <time>2018-05-27T08:16:54Z</time>
      </trkpt>
      <trkpt lat="46.01571" lon="1.19596">
        <ele>332.27</ele>
        <time>2018-05-27T08:16:55Z</time>
      </trkpt>
      <trkpt lat="46.01571" lon="1.19595">
        <ele>332.27</ele>
        <time>2018-05-27T08:17:02Z</time>
      </trkpt>
      <trkpt lat="46.01571" lon="1.19595">
        <ele>327.95</ele>
        <time>2018-05-27T08:17:04Z</time>
      </trkpt>
      <trkpt lat="46.0157" lon="1.19595">
        <ele>334.2</ele>
        <time>2018-05-27T08:17:05Z</time>
      </trkpt>
      <trkpt lat="46.0157" lon="1.19595">
        <ele>330.83</ele>
        <time>2018-05-27T08:17:06Z</time>
      </trkpt>
      <trkpt lat="46.01572" lon="1.19598">
        <ele>330.83</ele>
        <time>2018-05-27T08:17:19Z</time>
      </trkpt>
      <trkpt lat="46.01583" lon="1.19608">
        <ele>328.43</ele>
        <time>2018-05-27T08:17:31Z</time>
      </trkpt>
      <trkpt lat="46.01592" lon="1.19613">
        <ele>326.99</ele>
        <time>2018-05-27T08:17:40Z</time>
      </trkpt>
      <trkpt lat="46.01594" lon="1.19613">
        <ele>326.5</ele>
        <time>2018-05-27T08:17:41Z</time>
      </trkpt>
      <trkpt lat="46.01603" lon="1.1962">
        <ele>324.58</ele>
        <time>2018-05-27T08:17:49Z</time>
      </trkpt>
      <trkpt lat="46.01612" lon="1.19627">
        <ele>322.66</ele>
        <time>2018-05-27T08:17:54Z</time>
      </trkpt>
      <trkpt lat="46.01619" lon="1.19633">
        <ele>320.74</ele>
        <time>2018-05-27T08:17:58Z</time>
      </trkpt>
      <trkpt lat="46.01636" lon="1.19649">
        <ele>318.33</ele>
        <time>2018-05-27T08:18:06Z</time>
      </trkpt>
      <trkpt lat="46.0165" lon="1.19657">
        <ele>316.41</ele>
        <time>2018-05-27T08:18:11Z</time>
      </trkpt>
      <trkpt lat="46.01656" lon="1.19666">
        <ele>314.97</ele>
        <time>2018-05-27T08:18:15Z</time>
      </trkpt>
      <trkpt lat="46.01665" lon="1.19679">
        <ele>313.53</ele>
        <time>2018-05-27T08:18:20Z</time>
      </trkpt>
      <trkpt lat="46.01673" lon="1.19719">
        <ele>310.16</ele>
        <time>2018-05-27T08:18:30Z</time>
      </trkpt>
      <trkpt lat="46.01683" lon="1.19766">
        <ele>307.28</ele>
        <time>2018-05-27T08:18:39Z</time>
      </trkpt>
      <trkpt lat="46.01687" lon="1.19816">
        <ele>305.36</ele>
        <time>2018-05-27T08:18:49Z</time>
      </trkpt>
      <trkpt lat="46.0169" lon="1.19839">
        <ele>306.8</ele>
        <time>2018-05-27T08:18:57Z</time>
      </trkpt>
      <trkpt lat="46.0169" lon="1.19849">
        <ele>307.76</ele>
        <time>2018-05-27T08:19:02Z</time>
      </trkpt>
      <trkpt lat="46.01692" lon="1.19867">
        <ele>308.72</ele>
        <time>2018-05-27T08:19:11Z</time>
      </trkpt>
      <trkpt lat="46.01687" lon="1.19894">
        <ele>309.68</ele>
        <time>2018-05-27T08:19:20Z</time>
      </trkpt>
      <trkpt lat="46.01686" lon="1.19916">
        <ele>311.12</ele>
        <time>2018-05-27T08:19:29Z</time>
      </trkpt>
      <trkpt lat="46.01685" lon="1.19942">
        <ele>312.57</ele>
        <time>2018-05-27T08:19:40Z</time>
      </trkpt>
      <trkpt lat="46.01682" lon="1.19969">
        <ele>312.57</ele>
        <time>2018-05-27T08:19:50Z</time>
      </trkpt>
      <trkpt lat="46.01681" lon="1.19973">
        <ele>313.05</ele>
        <time>2018-05-27T08:19:59Z</time>
      </trkpt>
      <trkpt lat="46.01679" lon="1.19987">
        <ele>313.05</ele>
        <time>2018-05-27T08:20:09Z</time>
      </trkpt>
      <trkpt lat="46.01678" lon="1.19992">
        <ele>312.57</ele>
        <time>2018-05-27T08:20:24Z</time>
      </trkpt>
      <trkpt lat="46.01676" lon="1.19995">
        <ele>312.57</ele>
        <time>2018-05-27T08:20:45Z</time>
      </trkpt>
      <trkpt lat="46.01675" lon="1.19996">
        <ele>312.57</ele>
        <time>2018-05-27T08:20:51Z</time>
      </trkpt>
      <trkpt lat="46.0167" lon="1.19995">
        <ele>313.05</ele>
        <time>2018-05-27T08:21:11Z</time>
      </trkpt>
      <trkpt lat="46.01671" lon="1.19996">
        <ele>311.6</ele>
        <time>2018-05-27T08:21:21Z</time>
      </trkpt>
      <trkpt lat="46.01672" lon="1.19981">
        <ele>310.64</ele>
        <time>2018-05-27T08:21:32Z</time>
      </trkpt>
      <trkpt lat="46.01676" lon="1.19962">
        <ele>309.2</ele>
        <time>2018-05-27T08:21:42Z</time>
      </trkpt>
      <trkpt lat="46.01678" lon="1.19941">
        <ele>308.24</ele>
        <time>2018-05-27T08:21:47Z</time>
      </trkpt>
      <trkpt lat="46.01685" lon="1.19904">
        <ele>306.32</ele>
        <time>2018-05-27T08:21:57Z</time>
      </trkpt>
      <trkpt lat="46.01687" lon="1.19892">
        <ele>305.36</ele>
        <time>2018-05-27T08:22:00Z</time>
      </trkpt>
      <trkpt lat="46.01688" lon="1.19873">
        <ele>304.39</ele>
        <time>2018-05-27T08:22:05Z</time>
      </trkpt>
      <trkpt lat="46.01689" lon="1.19862">
        <ele>303.91</ele>
        <time>2018-05-27T08:22:17Z</time>
      </trkpt>
      <trkpt lat="46.0169" lon="1.19853">
        <ele>303.91</ele>
        <time>2018-05-27T08:22:26Z</time>
      </trkpt>
      <trkpt lat="46.01692" lon="1.19854">
        <ele>304.39</ele>
        <time>2018-05-27T08:22:33Z</time>
      </trkpt>
      <trkpt lat="46.01696" lon="1.1986">
        <ele>303.43</ele>
        <time>2018-05-27T08:22:37Z</time>
      </trkpt>
      <trkpt lat="46.01704" lon="1.19872">
        <ele>301.51</ele>
        <time>2018-05-27T08:22:47Z</time>
      </trkpt>
      <trkpt lat="46.01705" lon="1.19875">
        <ele>301.03</ele>
        <time>2018-05-27T08:22:49Z</time>
      </trkpt>
      <trkpt lat="46.01715" lon="1.19886">
        <ele>299.59</ele>
        <time>2018-05-27T08:22:59Z</time>
      </trkpt>
      <trkpt lat="46.01723" lon="1.19894">
        <ele>298.63</ele>
        <time>2018-05-27T08:23:13Z</time>
      </trkpt>
      <trkpt lat="46.0173" lon="1.19903">
        <ele>298.63</ele>
        <time>2018-05-27T08:23:18Z</time>
      </trkpt>
      <trkpt lat="46.01752" lon="1.19909">
        <ele>298.63</ele>
        <time>2018-05-27T08:23:30Z</time>
      </trkpt>
      <trkpt lat="46.01788" lon="1.19907">
        <ele>300.55</ele>
        <time>2018-05-27T08:23:42Z</time>
      </trkpt>
      <trkpt lat="46.01803" lon="1.19909">
        <ele>302.47</ele>
        <time>2018-05-27T08:23:50Z</time>
      </trkpt>
      <trkpt lat="46.0181" lon="1.19912">
        <ele>303.43</ele>
        <time>2018-05-27T08:23:54Z</time>
      </trkpt>
      <trkpt lat="46.01822" lon="1.19925">
        <ele>303.43</ele>
        <time>2018-05-27T08:24:05Z</time>
      </trkpt>
      <trkpt lat="46.01838" lon="1.19956">
        <ele>300.55</ele>
        <time>2018-05-27T08:24:14Z</time>
      </trkpt>
      <trkpt lat="46.01865" lon="1.19991">
        <ele>296.7</ele>
        <time>2018-05-27T08:24:24Z</time>
      </trkpt>
      <trkpt lat="46.01902" lon="1.20019">
        <ele>295.26</ele>
        <time>2018-05-27T08:24:34Z</time>
      </trkpt>
      <trkpt lat="46.01916" lon="1.20025">
        <ele>294.3</ele>
        <time>2018-05-27T08:24:38Z</time>
      </trkpt>
      <trkpt lat="46.01936" lon="1.20043">
        <ele>295.74</ele>
        <time>2018-05-27T08:24:45Z</time>
      </trkpt>
      <trkpt lat="46.01945" lon="1.20047">
        <ele>295.74</ele>
        <time>2018-05-27T08:24:57Z</time>
      </trkpt>
      <trkpt lat="46.01947" lon="1.20048">
        <ele>295.74</ele>
        <time>2018-05-27T08:25:18Z</time>
      </trkpt>
      <trkpt lat="46.01949" lon="1.20053">
        <ele>296.22</ele>
        <time>2018-05-27T08:25:23Z</time>
      </trkpt>
      <trkpt lat="46.01953" lon="1.20055">
        <ele>296.22</ele>
        <time>2018-05-27T08:25:26Z</time>
      </trkpt>
      <trkpt lat="46.01964" lon="1.20051">
        <ele>294.3</ele>
        <time>2018-05-27T08:25:32Z</time>
      </trkpt>
      <trkpt lat="46.01969" lon="1.20056">
        <ele>294.78</ele>
        <time>2018-05-27T08:25:37Z</time>
      </trkpt>
      <trkpt lat="46.01981" lon="1.20062">
        <ele>294.78</ele>
        <time>2018-05-27T08:25:45Z</time>
      </trkpt>
      <trkpt lat="46.01999" lon="1.20066">
        <ele>294.78</ele>
        <time>2018-05-27T08:25:53Z</time>
      </trkpt>
      <trkpt lat="46.0201" lon="1.20069">
        <ele>294.78</ele>
        <time>2018-05-27T08:25:57Z</time>
      </trkpt>
      <trkpt lat="46.02023" lon="1.20067">
        <ele>293.82</ele>
        <time>2018-05-27T08:26:02Z</time>
      </trkpt>
      <trkpt lat="46.02041" lon="1.20062">
        <ele>292.86</ele>
        <time>2018-05-27T08:26:11Z</time>
      </trkpt>
      <trkpt lat="46.02075" lon="1.20087">
        <ele>292.38</ele>
        <time>2018-05-27T08:26:25Z</time>
      </trkpt>
      <trkpt lat="46.02102" lon="1.20109">
        <ele>292.86</ele>
        <time>2018-05-27T08:26:36Z</time>
      </trkpt>
      <trkpt lat="46.02107" lon="1.20118">
        <ele>293.34</ele>
        <time>2018-05-27T08:26:41Z</time>
      </trkpt>
      <trkpt lat="46.02128" lon="1.20128">
        <ele>293.82</ele>
        <time>2018-05-27T08:26:50Z</time>
      </trkpt>
      <trkpt lat="46.02127" lon="1.20128">
        <ele>293.82</ele>
        <time>2018-05-27T08:27:07Z</time>
      </trkpt>
      <trkpt lat="46.02128" lon="1.20128">
        <ele>293.82</ele>
        <time>2018-05-27T08:27:32Z</time>
      </trkpt>
      <trkpt lat="46.02128" lon="1.20128">
        <ele>293.82</ele>
        <time>2018-05-27T08:27:57Z</time>
      </trkpt>
      <trkpt lat="46.02128" lon="1.20128">
        <ele>290.46</ele>
        <time>2018-05-27T08:28:06Z</time>
      </trkpt>
      <trkpt lat="46.02128" lon="1.20128">
        <ele>297.67</ele>
        <time>2018-05-27T08:28:07Z</time>
      </trkpt>
      <trkpt lat="46.02128" lon="1.20128">
        <ele>295.74</ele>
        <time>2018-05-27T08:28:08Z</time>
      </trkpt>
      <trkpt lat="46.02128" lon="1.20128">
        <ele>292.38</ele>
        <time>2018-05-27T08:28:10Z</time>
      </trkpt>
      <trkpt lat="46.02128" lon="1.20128">
        <ele>297.18</ele>
        <time>2018-05-27T08:28:12Z</time>
      </trkpt>
      <trkpt lat="46.02128" lon="1.20128">
        <ele>291.9</ele>
        <time>2018-05-27T08:28:13Z</time>
      </trkpt>
      <trkpt lat="46.02128" lon="1.20128">
        <ele>296.22</ele>
        <time>2018-05-27T08:28:14Z</time>
      </trkpt>
      <trkpt lat="46.02127" lon="1.20128">
        <ele>292.86</ele>
        <time>2018-05-27T08:28:30Z</time>
      </trkpt>
      <trkpt lat="46.02127" lon="1.20128">
        <ele>297.67</ele>
        <time>2018-05-27T08:28:33Z</time>
      </trkpt>
      <trkpt lat="46.02127" lon="1.20128">
        <ele>294.3</ele>
        <time>2018-05-27T08:28:34Z</time>
      </trkpt>
      <trkpt lat="46.02127" lon="1.20128">
        <ele>297.67</ele>
        <time>2018-05-27T08:28:45Z</time>
      </trkpt>
      <trkpt lat="46.02127" lon="1.20128">
        <ele>294.78</ele>
        <time>2018-05-27T08:28:49Z</time>
      </trkpt>
      <trkpt lat="46.02127" lon="1.20128">
        <ele>294.78</ele>
        <time>2018-05-27T08:29:16Z</time>
      </trkpt>
      <trkpt lat="46.02127" lon="1.20128">
        <ele>295.26</ele>
        <time>2018-05-27T08:29:40Z</time>
      </trkpt>
      <trkpt lat="46.02128" lon="1.20127">
        <ele>295.74</ele>
        <time>2018-05-27T08:30:07Z</time>
      </trkpt>
      <trkpt lat="46.02128" lon="1.20128">
        <ele>294.78</ele>
        <time>2018-05-27T08:30:25Z</time>
      </trkpt>
      <trkpt lat="46.02129" lon="1.2013">
        <ele>294.78</ele>
        <time>2018-05-27T08:30:28Z</time>
      </trkpt>
      <trkpt lat="46.02132" lon="1.20141">
        <ele>295.74</ele>
        <time>2018-05-27T08:30:32Z</time>
      </trkpt>
      <trkpt lat="46.02125" lon="1.20198">
        <ele>297.67</ele>
        <time>2018-05-27T08:30:46Z</time>
      </trkpt>
      <trkpt lat="46.02109" lon="1.20248">
        <ele>300.55</ele>
        <time>2018-05-27T08:30:59Z</time>
      </trkpt>
      <trkpt lat="46.02105" lon="1.20254">
        <ele>301.99</ele>
        <time>2018-05-27T08:31:01Z</time>
      </trkpt>
      <trkpt lat="46.0208" lon="1.20272">
        <ele>304.39</ele>
        <time>2018-05-27T08:31:12Z</time>
      </trkpt>
      <trkpt lat="46.02059" lon="1.20284">
        <ele>307.28</ele>
        <time>2018-05-27T08:31:22Z</time>
      </trkpt>
      <trkpt lat="46.0203" lon="1.203">
        <ele>309.2</ele>
        <time>2018-05-27T08:31:33Z</time>
      </trkpt>
      <trkpt lat="46.01993" lon="1.20323">
        <ele>310.16</ele>
        <time>2018-05-27T08:31:45Z</time>
      </trkpt>
      <trkpt lat="46.01946" lon="1.20362">
        <ele>309.68</ele>
        <time>2018-05-27T08:31:59Z</time>
      </trkpt>
      <trkpt lat="46.01943" lon="1.20365">
        <ele>310.16</ele>
        <time>2018-05-27T08:32:00Z</time>
      </trkpt>
      <trkpt lat="46.01939" lon="1.20369">
        <ele>310.16</ele>
        <time>2018-05-27T08:32:01Z</time>
      </trkpt>
      <trkpt lat="46.01935" lon="1.20372">
        <ele>309.68</ele>
        <time>2018-05-27T08:32:02Z</time>
      </trkpt>
      <trkpt lat="46.01928" lon="1.20379">
        <ele>309.68</ele>
        <time>2018-05-27T08:32:04Z</time>
      </trkpt>
      <trkpt lat="46.01921" lon="1.20388">
        <ele>309.2</ele>
        <time>2018-05-27T08:32:06Z</time>
      </trkpt>
      <trkpt lat="46.01918" lon="1.20392">
        <ele>310.16</ele>
        <time>2018-05-27T08:32:07Z</time>
      </trkpt>
      <trkpt lat="46.01914" lon="1.20397">
        <ele>309.2</ele>
        <time>2018-05-27T08:32:08Z</time>
      </trkpt>
      <trkpt lat="46.0191" lon="1.20402">
        <ele>310.16</ele>
        <time>2018-05-27T08:32:09Z</time>
      </trkpt>
      <trkpt lat="46.01907" lon="1.20406">
        <ele>309.68</ele>
        <time>2018-05-27T08:32:10Z</time>
      </trkpt>
      <trkpt lat="46.01903" lon="1.20411">
        <ele>309.68</ele>
        <time>2018-05-27T08:32:11Z</time>
      </trkpt>
      <trkpt lat="46.01896" lon="1.2042">
        <ele>310.16</ele>
        <time>2018-05-27T08:32:13Z</time>
      </trkpt>
      <trkpt lat="46.01884" lon="1.20439">
        <ele>310.16</ele>
        <time>2018-05-27T08:32:17Z</time>
      </trkpt>
      <trkpt lat="46.01853" lon="1.20526">
        <ele>310.16</ele>
        <time>2018-05-27T08:32:31Z</time>
      </trkpt>
      <trkpt lat="46.01849" lon="1.20576">
        <ele>310.64</ele>
        <time>2018-05-27T08:32:38Z</time>
      </trkpt>
      <trkpt lat="46.01849" lon="1.20583">
        <ele>310.64</ele>
        <time>2018-05-27T08:32:39Z</time>
      </trkpt>
      <trkpt lat="46.0185" lon="1.20602">
        <ele>310.64</ele>
        <time>2018-05-27T08:32:42Z</time>
      </trkpt>
      <trkpt lat="46.01851" lon="1.20657">
        <ele>309.68</ele>
        <time>2018-05-27T08:32:51Z</time>
      </trkpt>
      <trkpt lat="46.01851" lon="1.20669">
        <ele>308.72</ele>
        <time>2018-05-27T08:32:53Z</time>
      </trkpt>
      <trkpt lat="46.0185" lon="1.20675">
        <ele>308.72</ele>
        <time>2018-05-27T08:32:54Z</time>
      </trkpt>
      <trkpt lat="46.01849" lon="1.2068">
        <ele>308.24</ele>
        <time>2018-05-27T08:32:55Z</time>
      </trkpt>
      <trkpt lat="46.01849" lon="1.20687">
        <ele>313.05</ele>
        <time>2018-05-27T08:33:03Z</time>
      </trkpt>
      <trkpt lat="46.01849" lon="1.20687">
        <ele>301.99</ele>
        <time>2018-05-27T08:33:04Z</time>
      </trkpt>
      <trkpt lat="46.01849" lon="1.20687">
        <ele>308.72</ele>
        <time>2018-05-27T08:33:05Z</time>
      </trkpt>
      <trkpt lat="46.01848" lon="1.20688">
        <ele>308.24</ele>
        <time>2018-05-27T08:33:08Z</time>
      </trkpt>
      <trkpt lat="46.0185" lon="1.20699">
        <ele>307.76</ele>
        <time>2018-05-27T08:33:13Z</time>
      </trkpt>
      <trkpt lat="46.0185" lon="1.20704">
        <ele>307.28</ele>
        <time>2018-05-27T08:33:14Z</time>
      </trkpt>
      <trkpt lat="46.0185" lon="1.20708">
        <ele>307.28</ele>
        <time>2018-05-27T08:33:15Z</time>
      </trkpt>
      <trkpt lat="46.01851" lon="1.20712">
        <ele>307.76</ele>
        <time>2018-05-27T08:33:16Z</time>
      </trkpt>
      <trkpt lat="46.01852" lon="1.20717">
        <ele>306.8</ele>
        <time>2018-05-27T08:33:17Z</time>
      </trkpt>
      <trkpt lat="46.01862" lon="1.20743">
        <ele>306.32</ele>
        <time>2018-05-27T08:33:22Z</time>
      </trkpt>
      <trkpt lat="46.019" lon="1.208">
        <ele>305.36</ele>
        <time>2018-05-27T08:33:35Z</time>
      </trkpt>
      <trkpt lat="46.01902" lon="1.20801">
        <ele>301.51</ele>
        <time>2018-05-27T08:33:42Z</time>
      </trkpt>
      <trkpt lat="46.01902" lon="1.20801">
        <ele>305.36</ele>
        <time>2018-05-27T08:33:43Z</time>
      </trkpt>
      <trkpt lat="46.01904" lon="1.20802">
        <ele>305.36</ele>
        <time>2018-05-27T08:34:03Z</time>
      </trkpt>
      <trkpt lat="46.01905" lon="1.20801">
        <ele>305.36</ele>
        <time>2018-05-27T08:34:04Z</time>
      </trkpt>
      <trkpt lat="46.01905" lon="1.208">
        <ele>305.36</ele>
        <time>2018-05-27T08:34:05Z</time>
      </trkpt>
      <trkpt lat="46.01903" lon="1.20798">
        <ele>305.36</ele>
        <time>2018-05-27T08:34:06Z</time>
      </trkpt>
      <trkpt lat="46.01901" lon="1.20797">
        <ele>305.36</ele>
        <time>2018-05-27T08:34:07Z</time>
      </trkpt>
      <trkpt lat="46.01899" lon="1.20795">
        <ele>304.88</ele>
        <time>2018-05-27T08:34:08Z</time>
      </trkpt>
      <trkpt lat="46.01892" lon="1.20786">
        <ele>304.39</ele>
        <time>2018-05-27T08:34:12Z</time>
      </trkpt>
      <trkpt lat="46.01889" lon="1.20786">
        <ele>304.88</ele>
        <time>2018-05-27T08:34:13Z</time>
      </trkpt>
      <trkpt lat="46.01887" lon="1.20786">
        <ele>304.88</ele>
        <time>2018-05-27T08:34:14Z</time>
      </trkpt>
      <trkpt lat="46.01881" lon="1.20792">
        <ele>304.39</ele>
        <time>2018-05-27T08:34:17Z</time>
      </trkpt>
      <trkpt lat="46.01858" lon="1.20823">
        <ele>307.76</ele>
        <time>2018-05-27T08:34:30Z</time>
      </trkpt>
      <trkpt lat="46.01857" lon="1.20825">
        <ele>307.28</ele>
        <time>2018-05-27T08:34:31Z</time>
      </trkpt>
      <trkpt lat="46.01857" lon="1.20859">
        <ele>310.64</ele>
        <time>2018-05-27T08:34:43Z</time>
      </trkpt>
      <trkpt lat="46.01865" lon="1.20895">
        <ele>312.09</ele>
        <time>2018-05-27T08:34:53Z</time>
      </trkpt>
      <trkpt lat="46.01863" lon="1.20929">
        <ele>314.01</ele>
        <time>2018-05-27T08:35:01Z</time>
      </trkpt>
      <trkpt lat="46.01863" lon="1.20946">
        <ele>314.97</ele>
        <time>2018-05-27T08:35:11Z</time>
      </trkpt>
      <trkpt lat="46.01864" lon="1.2095">
        <ele>314.97</ele>
        <time>2018-05-27T08:35:28Z</time>
      </trkpt>
      <trkpt lat="46.01865" lon="1.2095">
        <ele>314.49</ele>
        <time>2018-05-27T08:35:30Z</time>
      </trkpt>
      <trkpt lat="46.01876" lon="1.20972">
        <ele>314.01</ele>
        <time>2018-05-27T08:35:38Z</time>
      </trkpt>
      <trkpt lat="46.01897" lon="1.21026">
        <ele>313.05</ele>
        <time>2018-05-27T08:35:51Z</time>
      </trkpt>
      <trkpt lat="46.0191" lon="1.21045">
        <ele>311.6</ele>
        <time>2018-05-27T08:35:56Z</time>
      </trkpt>
      <trkpt lat="46.01912" lon="1.2105">
        <ele>311.6</ele>
        <time>2018-05-27T08:35:57Z</time>
      </trkpt>
      <trkpt lat="46.01909" lon="1.21082">
        <ele>312.57</ele>
        <time>2018-05-27T08:36:05Z</time>
      </trkpt>
      <trkpt lat="46.01907" lon="1.21104">
        <ele>313.05</ele>
        <time>2018-05-27T08:36:10Z</time>
      </trkpt>
      <trkpt lat="46.01905" lon="1.2111">
        <ele>312.57</ele>
        <time>2018-05-27T08:36:11Z</time>
      </trkpt>
      <trkpt lat="46.01904" lon="1.21155">
        <ele>312.09</ele>
        <time>2018-05-27T08:36:21Z</time>
      </trkpt>
      <trkpt lat="46.01899" lon="1.21178">
        <ele>311.12</ele>
        <time>2018-05-27T08:36:27Z</time>
      </trkpt>
      <trkpt lat="46.01899" lon="1.21182">
        <ele>311.12</ele>
        <time>2018-05-27T08:36:28Z</time>
      </trkpt>
      <trkpt lat="46.01899" lon="1.21185">
        <ele>311.12</ele>
        <time>2018-05-27T08:36:29Z</time>
      </trkpt>
      <trkpt lat="46.01899" lon="1.21188">
        <ele>311.12</ele>
        <time>2018-05-27T08:36:30Z</time>
      </trkpt>
      <trkpt lat="46.01899" lon="1.21191">
        <ele>311.12</ele>
        <time>2018-05-27T08:36:31Z</time>
      </trkpt>
      <trkpt lat="46.01898" lon="1.21194">
        <ele>310.64</ele>
        <time>2018-05-27T08:36:32Z</time>
      </trkpt>
      <trkpt lat="46.01897" lon="1.21198">
        <ele>311.12</ele>
        <time>2018-05-27T08:36:33Z</time>
      </trkpt>
      <trkpt lat="46.01896" lon="1.21202">
        <ele>311.6</ele>
        <time>2018-05-27T08:36:34Z</time>
      </trkpt>
      <trkpt lat="46.01895" lon="1.21205">
        <ele>311.6</ele>
        <time>2018-05-27T08:36:35Z</time>
      </trkpt>
      <trkpt lat="46.01895" lon="1.2121">
        <ele>311.6</ele>
        <time>2018-05-27T08:36:37Z</time>
      </trkpt>
      <trkpt lat="46.01895" lon="1.21213">
        <ele>311.6</ele>
        <time>2018-05-27T08:36:38Z</time>
      </trkpt>
      <trkpt lat="46.01895" lon="1.21217">
        <ele>312.09</ele>
        <time>2018-05-27T08:36:39Z</time>
      </trkpt>
      <trkpt lat="46.01895" lon="1.21221">
        <ele>311.6</ele>
        <time>2018-05-27T08:36:40Z</time>
      </trkpt>
      <trkpt lat="46.01894" lon="1.21227">
        <ele>312.57</ele>
        <time>2018-05-27T08:36:41Z</time>
      </trkpt>
      <trkpt lat="46.01893" lon="1.21231">
        <ele>312.57</ele>
        <time>2018-05-27T08:36:42Z</time>
      </trkpt>
      <trkpt lat="46.01893" lon="1.21235">
        <ele>313.05</ele>
        <time>2018-05-27T08:36:43Z</time>
      </trkpt>
      <trkpt lat="46.01895" lon="1.21245">
        <ele>314.01</ele>
        <time>2018-05-27T08:36:46Z</time>
      </trkpt>
      <trkpt lat="46.01895" lon="1.21251">
        <ele>314.01</ele>
        <time>2018-05-27T08:36:47Z</time>
      </trkpt>
      <trkpt lat="46.01895" lon="1.21256">
        <ele>314.01</ele>
        <time>2018-05-27T08:36:48Z</time>
      </trkpt>
      <trkpt lat="46.01895" lon="1.2126">
        <ele>314.01</ele>
        <time>2018-05-27T08:36:49Z</time>
      </trkpt>
      <trkpt lat="46.01896" lon="1.21265">
        <ele>314.01</ele>
        <time>2018-05-27T08:36:50Z</time>
      </trkpt>
      <trkpt lat="46.01898" lon="1.21269">
        <ele>314.49</ele>
        <time>2018-05-27T08:36:51Z</time>
      </trkpt>
      <trkpt lat="46.01913" lon="1.21297">
        <ele>314.97</ele>
        <time>2018-05-27T08:36:59Z</time>
      </trkpt>
      <trkpt lat="46.0192" lon="1.21305">
        <ele>314.49</ele>
        <time>2018-05-27T08:37:02Z</time>
      </trkpt>
      <trkpt lat="46.01927" lon="1.21313">
        <ele>314.97</ele>
        <time>2018-05-27T08:37:04Z</time>
      </trkpt>
      <trkpt lat="46.01931" lon="1.21317">
        <ele>314.01</ele>
        <time>2018-05-27T08:37:05Z</time>
      </trkpt>
      <trkpt lat="46.01956" lon="1.21344">
        <ele>314.97</ele>
        <time>2018-05-27T08:37:13Z</time>
      </trkpt>
      <trkpt lat="46.01973" lon="1.21364">
        <ele>315.93</ele>
        <time>2018-05-27T08:37:21Z</time>
      </trkpt>
      <trkpt lat="46.01999" lon="1.21386">
        <ele>315.45</ele>
        <time>2018-05-27T08:37:30Z</time>
      </trkpt>
      <trkpt lat="46.02009" lon="1.21392">
        <ele>315.45</ele>
        <time>2018-05-27T08:37:34Z</time>
      </trkpt>
      <trkpt lat="46.02012" lon="1.21395">
        <ele>315.45</ele>
        <time>2018-05-27T08:37:35Z</time>
      </trkpt>
      <trkpt lat="46.02026" lon="1.21404">
        <ele>315.45</ele>
        <time>2018-05-27T08:37:39Z</time>
      </trkpt>
      <trkpt lat="46.0205" lon="1.21433">
        <ele>318.33</ele>
        <time>2018-05-27T08:37:49Z</time>
      </trkpt>
      <trkpt lat="46.02057" lon="1.2146">
        <ele>321.7</ele>
        <time>2018-05-27T08:37:59Z</time>
      </trkpt>
      <trkpt lat="46.02051" lon="1.21466">
        <ele>322.66</ele>
        <time>2018-05-27T08:38:02Z</time>
      </trkpt>
      <trkpt lat="46.02049" lon="1.21467">
        <ele>322.66</ele>
        <time>2018-05-27T08:38:03Z</time>
      </trkpt>
      <trkpt lat="46.02037" lon="1.21482">
        <ele>325.54</ele>
        <time>2018-05-27T08:38:13Z</time>
      </trkpt>
      <trkpt lat="46.02036" lon="1.21484">
        <ele>325.54</ele>
        <time>2018-05-27T08:38:14Z</time>
      </trkpt>
      <trkpt lat="46.02035" lon="1.21486">
        <ele>326.5</ele>
        <time>2018-05-27T08:38:15Z</time>
      </trkpt>
      <trkpt lat="46.02034" lon="1.21488">
        <ele>326.99</ele>
        <time>2018-05-27T08:38:16Z</time>
      </trkpt>
      <trkpt lat="46.02033" lon="1.21489">
        <ele>326.5</ele>
        <time>2018-05-27T08:38:17Z</time>
      </trkpt>
      <trkpt lat="46.02032" lon="1.2149">
        <ele>327.47</ele>
        <time>2018-05-27T08:38:18Z</time>
      </trkpt>
      <trkpt lat="46.0203" lon="1.21492">
        <ele>327.47</ele>
        <time>2018-05-27T08:38:19Z</time>
      </trkpt>
      <trkpt lat="46.02029" lon="1.21493">
        <ele>327.47</ele>
        <time>2018-05-27T08:38:20Z</time>
      </trkpt>
      <trkpt lat="46.02028" lon="1.21495">
        <ele>328.43</ele>
        <time>2018-05-27T08:38:21Z</time>
      </trkpt>
      <trkpt lat="46.02027" lon="1.21497">
        <ele>328.43</ele>
        <time>2018-05-27T08:38:22Z</time>
      </trkpt>
      <trkpt lat="46.0201" lon="1.21512">
        <ele>330.83</ele>
        <time>2018-05-27T08:38:34Z</time>
      </trkpt>
      <trkpt lat="46.01999" lon="1.21519">
        <ele>333.23</ele>
        <time>2018-05-27T08:38:42Z</time>
      </trkpt>
      <trkpt lat="46.01997" lon="1.2152">
        <ele>333.23</ele>
        <time>2018-05-27T08:38:43Z</time>
      </trkpt>
      <trkpt lat="46.01996" lon="1.21521">
        <ele>333.23</ele>
        <time>2018-05-27T08:38:44Z</time>
      </trkpt>
      <trkpt lat="46.01995" lon="1.21522">
        <ele>333.71</ele>
        <time>2018-05-27T08:38:45Z</time>
      </trkpt>
      <trkpt lat="46.01993" lon="1.21523">
        <ele>334.2</ele>
        <time>2018-05-27T08:38:46Z</time>
      </trkpt>
      <trkpt lat="46.01971" lon="1.21527">
        <ele>336.12</ele>
        <time>2018-05-27T08:39:00Z</time>
      </trkpt>
      <trkpt lat="46.01947" lon="1.21536">
        <ele>337.08</ele>
        <time>2018-05-27T08:39:14Z</time>
      </trkpt>
      <trkpt lat="46.01919" lon="1.21539">
        <ele>338.04</ele>
        <time>2018-05-27T08:39:28Z</time>
      </trkpt>
      <trkpt lat="46.01914" lon="1.21539">
        <ele>338.52</ele>
        <time>2018-05-27T08:39:31Z</time>
      </trkpt>
      <trkpt lat="46.01911" lon="1.21539">
        <ele>338.52</ele>
        <time>2018-05-27T08:39:32Z</time>
      </trkpt>
      <trkpt lat="46.01909" lon="1.2154">
        <ele>338.52</ele>
        <time>2018-05-27T08:39:33Z</time>
      </trkpt>
      <trkpt lat="46.01907" lon="1.2154">
        <ele>338.52</ele>
        <time>2018-05-27T08:39:34Z</time>
      </trkpt>
      <trkpt lat="46.01906" lon="1.2154">
        <ele>338.52</ele>
        <time>2018-05-27T08:39:35Z</time>
      </trkpt>
      <trkpt lat="46.01904" lon="1.21541">
        <ele>338.52</ele>
        <time>2018-05-27T08:39:36Z</time>
      </trkpt>
      <trkpt lat="46.01902" lon="1.21541">
        <ele>338.52</ele>
        <time>2018-05-27T08:39:37Z</time>
      </trkpt>
      <trkpt lat="46.01901" lon="1.2154">
        <ele>338.52</ele>
        <time>2018-05-27T08:39:38Z</time>
      </trkpt>
      <trkpt lat="46.01899" lon="1.21539">
        <ele>338.52</ele>
        <time>2018-05-27T08:39:39Z</time>
      </trkpt>
      <trkpt lat="46.01898" lon="1.2154">
        <ele>339</ele>
        <time>2018-05-27T08:39:40Z</time>
      </trkpt>
      <trkpt lat="46.01895" lon="1.2154">
        <ele>339</ele>
        <time>2018-05-27T08:39:41Z</time>
      </trkpt>
      <trkpt lat="46.01893" lon="1.2154">
        <ele>339</ele>
        <time>2018-05-27T08:39:42Z</time>
      </trkpt>
      <trkpt lat="46.01864" lon="1.21541">
        <ele>339</ele>
        <time>2018-05-27T08:39:55Z</time>
      </trkpt>
      <trkpt lat="46.01837" lon="1.21547">
        <ele>339.96</ele>
        <time>2018-05-27T08:40:07Z</time>
      </trkpt>
      <trkpt lat="46.01834" lon="1.21547">
        <ele>339.96</ele>
        <time>2018-05-27T08:40:08Z</time>
      </trkpt>
      <trkpt lat="46.01832" lon="1.21546">
        <ele>339.96</ele>
        <time>2018-05-27T08:40:09Z</time>
      </trkpt>
      <trkpt lat="46.01831" lon="1.21546">
        <ele>339.96</ele>
        <time>2018-05-27T08:40:10Z</time>
      </trkpt>
      <trkpt lat="46.01828" lon="1.21546">
        <ele>339.96</ele>
        <time>2018-05-27T08:40:11Z</time>
      </trkpt>
      <trkpt lat="46.01826" lon="1.21545">
        <ele>340.44</ele>
        <time>2018-05-27T08:40:12Z</time>
      </trkpt>
      <trkpt lat="46.01824" lon="1.21545">
        <ele>340.44</ele>
        <time>2018-05-27T08:40:13Z</time>
      </trkpt>
      <trkpt lat="46.01821" lon="1.21544">
        <ele>340.92</ele>
        <time>2018-05-27T08:40:14Z</time>
      </trkpt>
      <trkpt lat="46.01819" lon="1.21544">
        <ele>340.92</ele>
        <time>2018-05-27T08:40:15Z</time>
      </trkpt>
      <trkpt lat="46.01817" lon="1.21542">
        <ele>341.41</ele>
        <time>2018-05-27T08:40:16Z</time>
      </trkpt>
      <trkpt lat="46.01815" lon="1.2154">
        <ele>340.92</ele>
        <time>2018-05-27T08:40:17Z</time>
      </trkpt>
      <trkpt lat="46.01813" lon="1.21539">
        <ele>340.92</ele>
        <time>2018-05-27T08:40:18Z</time>
      </trkpt>
      <trkpt lat="46.01812" lon="1.21537">
        <ele>341.89</ele>
        <time>2018-05-27T08:40:19Z</time>
      </trkpt>
      <trkpt lat="46.0181" lon="1.21535">
        <ele>341.41</ele>
        <time>2018-05-27T08:40:20Z</time>
      </trkpt>
      <trkpt lat="46.01808" lon="1.21533">
        <ele>341.89</ele>
        <time>2018-05-27T08:40:21Z</time>
      </trkpt>
      <trkpt lat="46.01806" lon="1.21532">
        <ele>342.37</ele>
        <time>2018-05-27T08:40:22Z</time>
      </trkpt>
      <trkpt lat="46.01804" lon="1.21531">
        <ele>341.89</ele>
        <time>2018-05-27T08:40:23Z</time>
      </trkpt>
      <trkpt lat="46.01802" lon="1.21529">
        <ele>342.85</ele>
        <time>2018-05-27T08:40:24Z</time>
      </trkpt>
      <trkpt lat="46.01789" lon="1.21521">
        <ele>343.81</ele>
        <time>2018-05-27T08:40:30Z</time>
      </trkpt>
      <trkpt lat="46.01763" lon="1.21503">
        <ele>346.21</ele>
        <time>2018-05-27T08:40:44Z</time>
      </trkpt>
      <trkpt lat="46.01747" lon="1.21499">
        <ele>348.62</ele>
        <time>2018-05-27T08:40:52Z</time>
      </trkpt>
      <trkpt lat="46.01745" lon="1.21499">
        <ele>348.62</ele>
        <time>2018-05-27T08:40:53Z</time>
      </trkpt>
      <trkpt lat="46.01743" lon="1.21498">
        <ele>348.62</ele>
        <time>2018-05-27T08:40:54Z</time>
      </trkpt>
      <trkpt lat="46.01742" lon="1.21498">
        <ele>349.1</ele>
        <time>2018-05-27T08:40:55Z</time>
      </trkpt>
      <trkpt lat="46.01714" lon="1.21506">
        <ele>351.5</ele>
        <time>2018-05-27T08:41:06Z</time>
      </trkpt>
      <trkpt lat="46.0168" lon="1.21507">
        <ele>353.42</ele>
        <time>2018-05-27T08:41:20Z</time>
      </trkpt>
      <trkpt lat="46.01655" lon="1.21505">
        <ele>354.38</ele>
        <time>2018-05-27T08:41:31Z</time>
      </trkpt>
      <trkpt lat="46.01633" lon="1.21501">
        <ele>355.34</ele>
        <time>2018-05-27T08:41:40Z</time>
      </trkpt>
      <trkpt lat="46.01631" lon="1.21501">
        <ele>354.86</ele>
        <time>2018-05-27T08:41:41Z</time>
      </trkpt>
      <trkpt lat="46.01629" lon="1.215">
        <ele>355.83</ele>
        <time>2018-05-27T08:41:42Z</time>
      </trkpt>
      <trkpt lat="46.01627" lon="1.21499">
        <ele>355.34</ele>
        <time>2018-05-27T08:41:43Z</time>
      </trkpt>
      <trkpt lat="46.01625" lon="1.21498">
        <ele>355.34</ele>
        <time>2018-05-27T08:41:44Z</time>
      </trkpt>
      <trkpt lat="46.0161" lon="1.21482">
        <ele>354.86</ele>
        <time>2018-05-27T08:41:53Z</time>
      </trkpt>
      <trkpt lat="46.01608" lon="1.21482">
        <ele>355.34</ele>
        <time>2018-05-27T08:41:54Z</time>
      </trkpt>
      <trkpt lat="46.01607" lon="1.21481">
        <ele>355.34</ele>
        <time>2018-05-27T08:41:55Z</time>
      </trkpt>
      <trkpt lat="46.01605" lon="1.21481">
        <ele>355.34</ele>
        <time>2018-05-27T08:41:56Z</time>
      </trkpt>
      <trkpt lat="46.01604" lon="1.2148">
        <ele>354.86</ele>
        <time>2018-05-27T08:41:57Z</time>
      </trkpt>
      <trkpt lat="46.01603" lon="1.21479">
        <ele>354.86</ele>
        <time>2018-05-27T08:41:58Z</time>
      </trkpt>
      <trkpt lat="46.01601" lon="1.21479">
        <ele>354.86</ele>
        <time>2018-05-27T08:41:59Z</time>
      </trkpt>
      <trkpt lat="46.01571" lon="1.2148">
        <ele>355.83</ele>
        <time>2018-05-27T08:42:11Z</time>
      </trkpt>
      <trkpt lat="46.01544" lon="1.2148">
        <ele>355.83</ele>
        <time>2018-05-27T08:42:22Z</time>
      </trkpt>
      <trkpt lat="46.01511" lon="1.21481">
        <ele>353.9</ele>
        <time>2018-05-27T08:42:34Z</time>
      </trkpt>
      <trkpt lat="46.0148" lon="1.21521">
        <ele>353.42</ele>
        <time>2018-05-27T08:42:46Z</time>
      </trkpt>
      <trkpt lat="46.01465" lon="1.21541">
        <ele>353.42</ele>
        <time>2018-05-27T08:42:51Z</time>
      </trkpt>
      <trkpt lat="46.01463" lon="1.21546">
        <ele>353.9</ele>
        <time>2018-05-27T08:42:52Z</time>
      </trkpt>
      <trkpt lat="46.0146" lon="1.21551">
        <ele>353.42</ele>
        <time>2018-05-27T08:42:53Z</time>
      </trkpt>
      <trkpt lat="46.01457" lon="1.21555">
        <ele>353.9</ele>
        <time>2018-05-27T08:42:54Z</time>
      </trkpt>
      <trkpt lat="46.01455" lon="1.21559">
        <ele>354.38</ele>
        <time>2018-05-27T08:42:55Z</time>
      </trkpt>
      <trkpt lat="46.01452" lon="1.21563">
        <ele>353.9</ele>
        <time>2018-05-27T08:42:56Z</time>
      </trkpt>
      <trkpt lat="46.0145" lon="1.21566">
        <ele>353.42</ele>
        <time>2018-05-27T08:42:57Z</time>
      </trkpt>
      <trkpt lat="46.01433" lon="1.216">
        <ele>351.98</ele>
        <time>2018-05-27T08:43:07Z</time>
      </trkpt>
      <trkpt lat="46.01416" lon="1.21633">
        <ele>351.98</ele>
        <time>2018-05-27T08:43:15Z</time>
      </trkpt>
      <trkpt lat="46.01415" lon="1.21634">
        <ele>351.98</ele>
        <time>2018-05-27T08:43:16Z</time>
      </trkpt>
      <trkpt lat="46.01413" lon="1.21634">
        <ele>351.98</ele>
        <time>2018-05-27T08:43:17Z</time>
      </trkpt>
      <trkpt lat="46.0141" lon="1.21634">
        <ele>351.98</ele>
        <time>2018-05-27T08:43:18Z</time>
      </trkpt>
      <trkpt lat="46.01407" lon="1.21634">
        <ele>351.98</ele>
        <time>2018-05-27T08:43:19Z</time>
      </trkpt>
      <trkpt lat="46.01361" lon="1.2166">
        <ele>353.42</ele>
        <time>2018-05-27T08:43:30Z</time>
      </trkpt>
      <trkpt lat="46.01361" lon="1.21698">
        <ele>352.94</ele>
        <time>2018-05-27T08:43:37Z</time>
      </trkpt>
      <trkpt lat="46.01361" lon="1.21704">
        <ele>353.42</ele>
        <time>2018-05-27T08:43:38Z</time>
      </trkpt>
      <trkpt lat="46.01362" lon="1.2171">
        <ele>352.94</ele>
        <time>2018-05-27T08:43:39Z</time>
      </trkpt>
      <trkpt lat="46.01363" lon="1.21715">
        <ele>352.94</ele>
        <time>2018-05-27T08:43:40Z</time>
      </trkpt>
      <trkpt lat="46.01363" lon="1.21721">
        <ele>353.42</ele>
        <time>2018-05-27T08:43:41Z</time>
      </trkpt>
      <trkpt lat="46.01363" lon="1.21744">
        <ele>353.42</ele>
        <time>2018-05-27T08:43:44Z</time>
      </trkpt>
      <trkpt lat="46.01364" lon="1.2175">
        <ele>353.42</ele>
        <time>2018-05-27T08:43:45Z</time>
      </trkpt>
      <trkpt lat="46.01365" lon="1.21757">
        <ele>353.42</ele>
        <time>2018-05-27T08:43:46Z</time>
      </trkpt>
      <trkpt lat="46.01365" lon="1.21763">
        <ele>352.94</ele>
        <time>2018-05-27T08:43:47Z</time>
      </trkpt>
      <trkpt lat="46.01365" lon="1.21769">
        <ele>353.42</ele>
        <time>2018-05-27T08:43:48Z</time>
      </trkpt>
      <trkpt lat="46.01365" lon="1.21775">
        <ele>353.42</ele>
        <time>2018-05-27T08:43:49Z</time>
      </trkpt>
      <trkpt lat="46.01366" lon="1.21805">
        <ele>353.9</ele>
        <time>2018-05-27T08:43:54Z</time>
      </trkpt>
      <trkpt lat="46.01365" lon="1.21811">
        <ele>353.9</ele>
        <time>2018-05-27T08:43:55Z</time>
      </trkpt>
      <trkpt lat="46.01365" lon="1.21817">
        <ele>354.38</ele>
        <time>2018-05-27T08:43:56Z</time>
      </trkpt>
      <trkpt lat="46.01364" lon="1.21823">
        <ele>354.38</ele>
        <time>2018-05-27T08:43:57Z</time>
      </trkpt>
      <trkpt lat="46.01363" lon="1.21829">
        <ele>354.38</ele>
        <time>2018-05-27T08:43:58Z</time>
      </trkpt>
      <trkpt lat="46.01362" lon="1.21834">
        <ele>354.38</ele>
        <time>2018-05-27T08:43:59Z</time>
      </trkpt>
      <trkpt lat="46.0136" lon="1.21839">
        <ele>354.38</ele>
        <time>2018-05-27T08:44:00Z</time>
      </trkpt>
      <trkpt lat="46.01359" lon="1.21844">
        <ele>354.86</ele>
        <time>2018-05-27T08:44:01Z</time>
      </trkpt>
      <trkpt lat="46.01357" lon="1.21849">
        <ele>354.86</ele>
        <time>2018-05-27T08:44:02Z</time>
      </trkpt>
      <trkpt lat="46.01356" lon="1.21853">
        <ele>354.86</ele>
        <time>2018-05-27T08:44:03Z</time>
      </trkpt>
      <trkpt lat="46.01354" lon="1.21857">
        <ele>355.34</ele>
        <time>2018-05-27T08:44:04Z</time>
      </trkpt>
      <trkpt lat="46.01352" lon="1.2186">
        <ele>355.34</ele>
        <time>2018-05-27T08:44:05Z</time>
      </trkpt>
      <trkpt lat="46.01349" lon="1.21864">
        <ele>355.34</ele>
        <time>2018-05-27T08:44:06Z</time>
      </trkpt>
      <trkpt lat="46.01327" lon="1.21887">
        <ele>357.27</ele>
        <time>2018-05-27T08:44:15Z</time>
      </trkpt>
      <trkpt lat="46.01299" lon="1.21916">
        <ele>358.23</ele>
        <time>2018-05-27T08:44:27Z</time>
      </trkpt>
      <trkpt lat="46.01288" lon="1.21937">
        <ele>356.79</ele>
        <time>2018-05-27T08:44:33Z</time>
      </trkpt>
      <trkpt lat="46.01286" lon="1.21942">
        <ele>355.83</ele>
        <time>2018-05-27T08:44:34Z</time>
      </trkpt>
      <trkpt lat="46.01284" lon="1.21946">
        <ele>355.83</ele>
        <time>2018-05-27T08:44:35Z</time>
      </trkpt>
      <trkpt lat="46.0128" lon="1.21956">
        <ele>354.86</ele>
        <time>2018-05-27T08:44:37Z</time>
      </trkpt>
      <trkpt lat="46.01277" lon="1.21962">
        <ele>354.38</ele>
        <time>2018-05-27T08:44:38Z</time>
      </trkpt>
      <trkpt lat="46.01268" lon="1.21983">
        <ele>353.42</ele>
        <time>2018-05-27T08:44:41Z</time>
      </trkpt>
      <trkpt lat="46.01254" lon="1.21999">
        <ele>351.02</ele>
        <time>2018-05-27T08:44:45Z</time>
      </trkpt>
      <trkpt lat="46.0125" lon="1.22002">
        <ele>350.54</ele>
        <time>2018-05-27T08:44:46Z</time>
      </trkpt>
      <trkpt lat="46.01245" lon="1.22005">
        <ele>349.58</ele>
        <time>2018-05-27T08:44:47Z</time>
      </trkpt>
      <trkpt lat="46.0124" lon="1.22006">
        <ele>349.1</ele>
        <time>2018-05-27T08:44:48Z</time>
      </trkpt>
      <trkpt lat="46.01236" lon="1.22008">
        <ele>348.13</ele>
        <time>2018-05-27T08:44:49Z</time>
      </trkpt>
      <trkpt lat="46.01231" lon="1.2201">
        <ele>347.65</ele>
        <time>2018-05-27T08:44:50Z</time>
      </trkpt>
      <trkpt lat="46.0122" lon="1.22015">
        <ele>346.21</ele>
        <time>2018-05-27T08:44:52Z</time>
      </trkpt>
      <trkpt lat="46.01217" lon="1.22018">
        <ele>346.21</ele>
        <time>2018-05-27T08:44:53Z</time>
      </trkpt>
      <trkpt lat="46.01199" lon="1.22033">
        <ele>343.81</ele>
        <time>2018-05-27T08:45:01Z</time>
      </trkpt>
      <trkpt lat="46.01195" lon="1.22037">
        <ele>342.85</ele>
        <time>2018-05-27T08:45:02Z</time>
      </trkpt>
      <trkpt lat="46.0119" lon="1.22041">
        <ele>342.37</ele>
        <time>2018-05-27T08:45:03Z</time>
      </trkpt>
      <trkpt lat="46.01185" lon="1.22045">
        <ele>341.89</ele>
        <time>2018-05-27T08:45:04Z</time>
      </trkpt>
      <trkpt lat="46.0118" lon="1.22048">
        <ele>340.92</ele>
        <time>2018-05-27T08:45:05Z</time>
      </trkpt>
      <trkpt lat="46.01176" lon="1.2205">
        <ele>340.92</ele>
        <time>2018-05-27T08:45:06Z</time>
      </trkpt>
      <trkpt lat="46.01173" lon="1.22051">
        <ele>339.96</ele>
        <time>2018-05-27T08:45:07Z</time>
      </trkpt>
      <trkpt lat="46.0117" lon="1.22052">
        <ele>339.96</ele>
        <time>2018-05-27T08:45:08Z</time>
      </trkpt>
      <trkpt lat="46.01167" lon="1.22052">
        <ele>339.48</ele>
        <time>2018-05-27T08:45:09Z</time>
      </trkpt>
      <trkpt lat="46.01156" lon="1.2205">
        <ele>338.04</ele>
        <time>2018-05-27T08:45:12Z</time>
      </trkpt>
      <trkpt lat="46.01153" lon="1.22051">
        <ele>337.56</ele>
        <time>2018-05-27T08:45:13Z</time>
      </trkpt>
      <trkpt lat="46.01151" lon="1.22053">
        <ele>337.08</ele>
        <time>2018-05-27T08:45:14Z</time>
      </trkpt>
      <trkpt lat="46.01149" lon="1.22055">
        <ele>337.08</ele>
        <time>2018-05-27T08:45:15Z</time>
      </trkpt>
      <trkpt lat="46.01149" lon="1.22058">
        <ele>336.6</ele>
        <time>2018-05-27T08:45:16Z</time>
      </trkpt>
      <trkpt lat="46.01149" lon="1.22061">
        <ele>336.6</ele>
        <time>2018-05-27T08:45:17Z</time>
      </trkpt>
      <trkpt lat="46.01149" lon="1.22064">
        <ele>336.12</ele>
        <time>2018-05-27T08:45:18Z</time>
      </trkpt>
      <trkpt lat="46.01149" lon="1.22069">
        <ele>335.64</ele>
        <time>2018-05-27T08:45:19Z</time>
      </trkpt>
      <trkpt lat="46.0115" lon="1.22073">
        <ele>335.64</ele>
        <time>2018-05-27T08:45:20Z</time>
      </trkpt>
      <trkpt lat="46.01149" lon="1.22098">
        <ele>335.16</ele>
        <time>2018-05-27T08:45:25Z</time>
      </trkpt>
      <trkpt lat="46.01148" lon="1.22103">
        <ele>334.68</ele>
        <time>2018-05-27T08:45:26Z</time>
      </trkpt>
      <trkpt lat="46.01148" lon="1.22107">
        <ele>334.68</ele>
        <time>2018-05-27T08:45:27Z</time>
      </trkpt>
      <trkpt lat="46.01148" lon="1.22111">
        <ele>333.71</ele>
        <time>2018-05-27T08:45:28Z</time>
      </trkpt>
      <trkpt lat="46.01148" lon="1.22114">
        <ele>334.2</ele>
        <time>2018-05-27T08:45:29Z</time>
      </trkpt>
      <trkpt lat="46.01149" lon="1.22117">
        <ele>333.71</ele>
        <time>2018-05-27T08:45:30Z</time>
      </trkpt>
      <trkpt lat="46.01149" lon="1.22119">
        <ele>333.71</ele>
        <time>2018-05-27T08:45:31Z</time>
      </trkpt>
      <trkpt lat="46.01149" lon="1.22121">
        <ele>333.71</ele>
        <time>2018-05-27T08:45:32Z</time>
      </trkpt>
      <trkpt lat="46.0115" lon="1.22123">
        <ele>333.71</ele>
        <time>2018-05-27T08:45:33Z</time>
      </trkpt>
      <trkpt lat="46.01149" lon="1.22126">
        <ele>337.08</ele>
        <time>2018-05-27T08:45:42Z</time>
      </trkpt>
      <trkpt lat="46.01149" lon="1.22126">
        <ele>326.99</ele>
        <time>2018-05-27T08:45:43Z</time>
      </trkpt>
      <trkpt lat="46.01149" lon="1.22126">
        <ele>334.2</ele>
        <time>2018-05-27T08:45:44Z</time>
      </trkpt>
      <trkpt lat="46.01149" lon="1.22126">
        <ele>329.39</ele>
        <time>2018-05-27T08:45:45Z</time>
      </trkpt>
      <trkpt lat="46.01149" lon="1.22126">
        <ele>334.68</ele>
        <time>2018-05-27T08:45:46Z</time>
      </trkpt>
      <trkpt lat="46.01149" lon="1.22127">
        <ele>328.43</ele>
        <time>2018-05-27T08:45:48Z</time>
      </trkpt>
      <trkpt lat="46.01149" lon="1.22127">
        <ele>334.2</ele>
        <time>2018-05-27T08:45:49Z</time>
      </trkpt>
      <trkpt lat="46.01149" lon="1.22127">
        <ele>329.39</ele>
        <time>2018-05-27T08:45:55Z</time>
      </trkpt>
      <trkpt lat="46.01149" lon="1.22127">
        <ele>333.71</ele>
        <time>2018-05-27T08:45:56Z</time>
      </trkpt>
      <trkpt lat="46.01149" lon="1.22127">
        <ele>339</ele>
        <time>2018-05-27T08:45:57Z</time>
      </trkpt>
      <trkpt lat="46.01149" lon="1.22127">
        <ele>333.71</ele>
        <time>2018-05-27T08:45:58Z</time>
      </trkpt>
      <trkpt lat="46.01149" lon="1.22127">
        <ele>338.04</ele>
        <time>2018-05-27T08:45:59Z</time>
      </trkpt>
      <trkpt lat="46.01149" lon="1.22127">
        <ele>333.71</ele>
        <time>2018-05-27T08:46:00Z</time>
      </trkpt>
      <trkpt lat="46.01151" lon="1.22126">
        <ele>333.71</ele>
        <time>2018-05-27T08:46:24Z</time>
      </trkpt>
      <trkpt lat="46.01152" lon="1.22127">
        <ele>333.23</ele>
        <time>2018-05-27T08:46:39Z</time>
      </trkpt>
      <trkpt lat="46.01152" lon="1.22129">
        <ele>332.75</ele>
        <time>2018-05-27T08:46:40Z</time>
      </trkpt>
      <trkpt lat="46.01152" lon="1.22131">
        <ele>333.23</ele>
        <time>2018-05-27T08:46:41Z</time>
      </trkpt>
      <trkpt lat="46.01153" lon="1.22134">
        <ele>333.23</ele>
        <time>2018-05-27T08:46:42Z</time>
      </trkpt>
      <trkpt lat="46.01153" lon="1.22138">
        <ele>333.23</ele>
        <time>2018-05-27T08:46:43Z</time>
      </trkpt>
      <trkpt lat="46.01152" lon="1.22141">
        <ele>332.75</ele>
        <time>2018-05-27T08:46:44Z</time>
      </trkpt>
      <trkpt lat="46.01152" lon="1.22144">
        <ele>333.23</ele>
        <time>2018-05-27T08:46:45Z</time>
      </trkpt>
      <trkpt lat="46.01152" lon="1.22148">
        <ele>332.75</ele>
        <time>2018-05-27T08:46:58Z</time>
      </trkpt>
      <trkpt lat="46.01152" lon="1.22148">
        <ele>332.75</ele>
        <time>2018-05-27T08:47:23Z</time>
      </trkpt>
      <trkpt lat="46.01151" lon="1.22148">
        <ele>332.27</ele>
        <time>2018-05-27T08:47:42Z</time>
      </trkpt>
      <trkpt lat="46.0115" lon="1.22149">
        <ele>332.27</ele>
        <time>2018-05-27T08:47:58Z</time>
      </trkpt>
      <trkpt lat="46.01149" lon="1.22152">
        <ele>332.27</ele>
        <time>2018-05-27T08:47:59Z</time>
      </trkpt>
      <trkpt lat="46.01148" lon="1.22155">
        <ele>332.75</ele>
        <time>2018-05-27T08:48:00Z</time>
      </trkpt>
      <trkpt lat="46.01147" lon="1.22158">
        <ele>331.79</ele>
        <time>2018-05-27T08:48:01Z</time>
      </trkpt>
      <trkpt lat="46.01144" lon="1.22163">
        <ele>331.79</ele>
        <time>2018-05-27T08:48:02Z</time>
      </trkpt>
      <trkpt lat="46.01142" lon="1.22168">
        <ele>331.79</ele>
        <time>2018-05-27T08:48:03Z</time>
      </trkpt>
      <trkpt lat="46.01113" lon="1.22224">
        <ele>333.23</ele>
        <time>2018-05-27T08:48:16Z</time>
      </trkpt>
      <trkpt lat="46.01106" lon="1.2223">
        <ele>332.27</ele>
        <time>2018-05-27T08:48:18Z</time>
      </trkpt>
      <trkpt lat="46.01096" lon="1.22239">
        <ele>333.23</ele>
        <time>2018-05-27T08:48:21Z</time>
      </trkpt>
      <trkpt lat="46.01092" lon="1.22241">
        <ele>333.23</ele>
        <time>2018-05-27T08:48:22Z</time>
      </trkpt>
      <trkpt lat="46.01087" lon="1.22243">
        <ele>333.71</ele>
        <time>2018-05-27T08:48:23Z</time>
      </trkpt>
      <trkpt lat="46.01083" lon="1.22245">
        <ele>333.71</ele>
        <time>2018-05-27T08:48:24Z</time>
      </trkpt>
      <trkpt lat="46.01078" lon="1.22246">
        <ele>333.23</ele>
        <time>2018-05-27T08:48:25Z</time>
      </trkpt>
      <trkpt lat="46.01074" lon="1.22247">
        <ele>333.71</ele>
        <time>2018-05-27T08:48:26Z</time>
      </trkpt>
      <trkpt lat="46.01069" lon="1.22249">
        <ele>334.2</ele>
        <time>2018-05-27T08:48:27Z</time>
      </trkpt>
      <trkpt lat="46.01065" lon="1.22251">
        <ele>333.71</ele>
        <time>2018-05-27T08:48:28Z</time>
      </trkpt>
      <trkpt lat="46.01062" lon="1.22254">
        <ele>334.2</ele>
        <time>2018-05-27T08:48:29Z</time>
      </trkpt>
      <trkpt lat="46.01059" lon="1.22258">
        <ele>334.2</ele>
        <time>2018-05-27T08:48:30Z</time>
      </trkpt>
      <trkpt lat="46.01057" lon="1.22262">
        <ele>334.68</ele>
        <time>2018-05-27T08:48:31Z</time>
      </trkpt>
      <trkpt lat="46.01055" lon="1.22268">
        <ele>334.2</ele>
        <time>2018-05-27T08:48:32Z</time>
      </trkpt>
      <trkpt lat="46.01053" lon="1.22273">
        <ele>334.68</ele>
        <time>2018-05-27T08:48:33Z</time>
      </trkpt>
      <trkpt lat="46.01052" lon="1.2228">
        <ele>334.68</ele>
        <time>2018-05-27T08:48:34Z</time>
      </trkpt>
      <trkpt lat="46.0105" lon="1.22287">
        <ele>334.68</ele>
        <time>2018-05-27T08:48:35Z</time>
      </trkpt>
      <trkpt lat="46.01036" lon="1.22329">
        <ele>334.68</ele>
        <time>2018-05-27T08:48:42Z</time>
      </trkpt>
      <trkpt lat="46.01035" lon="1.22335">
        <ele>334.68</ele>
        <time>2018-05-27T08:48:43Z</time>
      </trkpt>
      <trkpt lat="46.01033" lon="1.22354">
        <ele>334.68</ele>
        <time>2018-05-27T08:48:46Z</time>
      </trkpt>
      <trkpt lat="46.01035" lon="1.22369">
        <ele>334.2</ele>
        <time>2018-05-27T08:48:48Z</time>
      </trkpt>
      <trkpt lat="46.01039" lon="1.22391">
        <ele>334.2</ele>
        <time>2018-05-27T08:48:51Z</time>
      </trkpt>
      <trkpt lat="46.01042" lon="1.22398">
        <ele>333.71</ele>
        <time>2018-05-27T08:48:52Z</time>
      </trkpt>
      <trkpt lat="46.01044" lon="1.22404">
        <ele>333.71</ele>
        <time>2018-05-27T08:48:53Z</time>
      </trkpt>
      <trkpt lat="46.01052" lon="1.22421">
        <ele>333.23</ele>
        <time>2018-05-27T08:48:56Z</time>
      </trkpt>
      <trkpt lat="46.01091" lon="1.22457">
        <ele>334.2</ele>
        <time>2018-05-27T08:49:09Z</time>
      </trkpt>
      <trkpt lat="46.01093" lon="1.22459">
        <ele>333.71</ele>
        <time>2018-05-27T08:49:10Z</time>
      </trkpt>
      <trkpt lat="46.01096" lon="1.2246">
        <ele>333.71</ele>
        <time>2018-05-27T08:49:11Z</time>
      </trkpt>
      <trkpt lat="46.01098" lon="1.22461">
        <ele>333.71</ele>
        <time>2018-05-27T08:49:12Z</time>
      </trkpt>
      <trkpt lat="46.01101" lon="1.22462">
        <ele>333.71</ele>
        <time>2018-05-27T08:49:13Z</time>
      </trkpt>
      <trkpt lat="46.01139" lon="1.22487">
        <ele>332.27</ele>
        <time>2018-05-27T08:49:26Z</time>
      </trkpt>
      <trkpt lat="46.01159" lon="1.2251">
        <ele>331.31</ele>
        <time>2018-05-27T08:49:35Z</time>
      </trkpt>
      <trkpt lat="46.01159" lon="1.22525">
        <ele>331.31</ele>
        <time>2018-05-27T08:49:41Z</time>
      </trkpt>
      <trkpt lat="46.0116" lon="1.22527">
        <ele>331.31</ele>
        <time>2018-05-27T08:49:42Z</time>
      </trkpt>
      <trkpt lat="46.01162" lon="1.22529">
        <ele>331.31</ele>
        <time>2018-05-27T08:49:43Z</time>
      </trkpt>
      <trkpt lat="46.01164" lon="1.22531">
        <ele>331.31</ele>
        <time>2018-05-27T08:49:44Z</time>
      </trkpt>
      <trkpt lat="46.01165" lon="1.22532">
        <ele>331.31</ele>
        <time>2018-05-27T08:49:45Z</time>
      </trkpt>
      <trkpt lat="46.01166" lon="1.22535">
        <ele>331.79</ele>
        <time>2018-05-27T08:49:46Z</time>
      </trkpt>
      <trkpt lat="46.01174" lon="1.22547">
        <ele>331.79</ele>
        <time>2018-05-27T08:49:53Z</time>
      </trkpt>
      <trkpt lat="46.01175" lon="1.22549">
        <ele>332.27</ele>
        <time>2018-05-27T08:49:54Z</time>
      </trkpt>
      <trkpt lat="46.01178" lon="1.22552">
        <ele>332.27</ele>
        <time>2018-05-27T08:49:56Z</time>
      </trkpt>
      <trkpt lat="46.01181" lon="1.22552">
        <ele>331.79</ele>
        <time>2018-05-27T08:49:57Z</time>
      </trkpt>
      <trkpt lat="46.01184" lon="1.22552">
        <ele>331.79</ele>
        <time>2018-05-27T08:49:58Z</time>
      </trkpt>
      <trkpt lat="46.01187" lon="1.22551">
        <ele>331.79</ele>
        <time>2018-05-27T08:49:59Z</time>
      </trkpt>
      <trkpt lat="46.01192" lon="1.22548">
        <ele>332.27</ele>
        <time>2018-05-27T08:50:00Z</time>
      </trkpt>
      <trkpt lat="46.01195" lon="1.22545">
        <ele>332.27</ele>
        <time>2018-05-27T08:50:01Z</time>
      </trkpt>
      <trkpt lat="46.01225" lon="1.22519">
        <ele>331.31</ele>
        <time>2018-05-27T08:50:15Z</time>
      </trkpt>
      <trkpt lat="46.01228" lon="1.22515">
        <ele>331.79</ele>
        <time>2018-05-27T08:50:26Z</time>
      </trkpt>
      <trkpt lat="46.01234" lon="1.22513">
        <ele>331.79</ele>
        <time>2018-05-27T08:50:37Z</time>
      </trkpt>
      <trkpt lat="46.01237" lon="1.22515">
        <ele>331.79</ele>
        <time>2018-05-27T08:50:54Z</time>
      </trkpt>
      <trkpt lat="46.01238" lon="1.22516">
        <ele>331.31</ele>
        <time>2018-05-27T08:50:55Z</time>
      </trkpt>
      <trkpt lat="46.01239" lon="1.22524">
        <ele>331.31</ele>
        <time>2018-05-27T08:51:02Z</time>
      </trkpt>
      <trkpt lat="46.01237" lon="1.22531">
        <ele>332.27</ele>
        <time>2018-05-27T08:51:17Z</time>
      </trkpt>
      <trkpt lat="46.01239" lon="1.2253">
        <ele>331.79</ele>
        <time>2018-05-27T08:51:52Z</time>
      </trkpt>
      <trkpt lat="46.01238" lon="1.2253">
        <ele>332.75</ele>
        <time>2018-05-27T08:52:26Z</time>
      </trkpt>
      <trkpt lat="46.01241" lon="1.22534">
        <ele>332.27</ele>
        <time>2018-05-27T08:52:43Z</time>
      </trkpt>
      <trkpt lat="46.01245" lon="1.22537">
        <ele>332.75</ele>
        <time>2018-05-27T08:53:00Z</time>
      </trkpt>
      <trkpt lat="46.0125" lon="1.22564">
        <ele>333.23</ele>
        <time>2018-05-27T08:53:09Z</time>
      </trkpt>
      <trkpt lat="46.01253" lon="1.22586">
        <ele>332.27</ele>
        <time>2018-05-27T08:53:14Z</time>
      </trkpt>
      <trkpt lat="46.01253" lon="1.2259">
        <ele>332.27</ele>
        <time>2018-05-27T08:53:15Z</time>
      </trkpt>
      <trkpt lat="46.01252" lon="1.22595">
        <ele>332.75</ele>
        <time>2018-05-27T08:53:16Z</time>
      </trkpt>
      <trkpt lat="46.01253" lon="1.22598">
        <ele>332.75</ele>
        <time>2018-05-27T08:53:17Z</time>
      </trkpt>
      <trkpt lat="46.01253" lon="1.22602">
        <ele>332.75</ele>
        <time>2018-05-27T08:53:18Z</time>
      </trkpt>
      <trkpt lat="46.01253" lon="1.22606">
        <ele>332.75</ele>
        <time>2018-05-27T08:53:19Z</time>
      </trkpt>
      <trkpt lat="46.01254" lon="1.22641">
        <ele>333.23</ele>
        <time>2018-05-27T08:53:29Z</time>
      </trkpt>
      <trkpt lat="46.01255" lon="1.22652">
        <ele>332.75</ele>
        <time>2018-05-27T08:53:32Z</time>
      </trkpt>
      <trkpt lat="46.01257" lon="1.22659">
        <ele>332.27</ele>
        <time>2018-05-27T08:53:36Z</time>
      </trkpt>
      <trkpt lat="46.01258" lon="1.22662">
        <ele>332.75</ele>
        <time>2018-05-27T08:53:39Z</time>
      </trkpt>
      <trkpt lat="46.01259" lon="1.22665">
        <ele>333.23</ele>
        <time>2018-05-27T08:53:41Z</time>
      </trkpt>
      <trkpt lat="46.01259" lon="1.22668">
        <ele>332.75</ele>
        <time>2018-05-27T08:53:42Z</time>
      </trkpt>
      <trkpt lat="46.01258" lon="1.2267">
        <ele>332.27</ele>
        <time>2018-05-27T08:53:43Z</time>
      </trkpt>
      <trkpt lat="46.01258" lon="1.22673">
        <ele>333.23</ele>
        <time>2018-05-27T08:53:44Z</time>
      </trkpt>
      <trkpt lat="46.0126" lon="1.22676">
        <ele>333.23</ele>
        <time>2018-05-27T08:53:45Z</time>
      </trkpt>
      <trkpt lat="46.01262" lon="1.22678">
        <ele>333.23</ele>
        <time>2018-05-27T08:53:46Z</time>
      </trkpt>
      <trkpt lat="46.01267" lon="1.22686">
        <ele>334.68</ele>
        <time>2018-05-27T08:53:49Z</time>
      </trkpt>
      <trkpt lat="46.01267" lon="1.2269">
        <ele>334.68</ele>
        <time>2018-05-27T08:53:50Z</time>
      </trkpt>
      <trkpt lat="46.01267" lon="1.22693">
        <ele>334.68</ele>
        <time>2018-05-27T08:53:51Z</time>
      </trkpt>
      <trkpt lat="46.01267" lon="1.22696">
        <ele>335.16</ele>
        <time>2018-05-27T08:53:52Z</time>
      </trkpt>
      <trkpt lat="46.01267" lon="1.227">
        <ele>334.68</ele>
        <time>2018-05-27T08:53:53Z</time>
      </trkpt>
      <trkpt lat="46.01267" lon="1.22703">
        <ele>335.16</ele>
        <time>2018-05-27T08:53:54Z</time>
      </trkpt>
      <trkpt lat="46.01267" lon="1.22706">
        <ele>334.68</ele>
        <time>2018-05-27T08:53:55Z</time>
      </trkpt>
      <trkpt lat="46.01268" lon="1.22711">
        <ele>334.2</ele>
        <time>2018-05-27T08:53:56Z</time>
      </trkpt>
      <trkpt lat="46.01269" lon="1.22714">
        <ele>334.68</ele>
        <time>2018-05-27T08:53:57Z</time>
      </trkpt>
      <trkpt lat="46.0127" lon="1.22716">
        <ele>334.2</ele>
        <time>2018-05-27T08:53:58Z</time>
      </trkpt>
      <trkpt lat="46.01271" lon="1.2272">
        <ele>333.71</ele>
        <time>2018-05-27T08:53:59Z</time>
      </trkpt>
      <trkpt lat="46.01276" lon="1.22732">
        <ele>332.75</ele>
        <time>2018-05-27T08:54:03Z</time>
      </trkpt>
      <trkpt lat="46.01278" lon="1.22734">
        <ele>333.71</ele>
        <time>2018-05-27T08:54:04Z</time>
      </trkpt>
      <trkpt lat="46.01279" lon="1.22735">
        <ele>333.23</ele>
        <time>2018-05-27T08:54:05Z</time>
      </trkpt>
      <trkpt lat="46.0128" lon="1.22738">
        <ele>333.23</ele>
        <time>2018-05-27T08:54:06Z</time>
      </trkpt>
      <trkpt lat="46.01281" lon="1.22742">
        <ele>333.23</ele>
        <time>2018-05-27T08:54:07Z</time>
      </trkpt>
      <trkpt lat="46.01282" lon="1.22745">
        <ele>333.71</ele>
        <time>2018-05-27T08:54:08Z</time>
      </trkpt>
      <trkpt lat="46.01291" lon="1.22767">
        <ele>333.23</ele>
        <time>2018-05-27T08:54:15Z</time>
      </trkpt>
      <trkpt lat="46.01291" lon="1.2277">
        <ele>332.75</ele>
        <time>2018-05-27T08:54:16Z</time>
      </trkpt>
      <trkpt lat="46.0129" lon="1.22788">
        <ele>333.71</ele>
        <time>2018-05-27T08:54:23Z</time>
      </trkpt>
      <trkpt lat="46.01281" lon="1.22828">
        <ele>336.12</ele>
        <time>2018-05-27T08:54:34Z</time>
      </trkpt>
      <trkpt lat="46.01279" lon="1.2284">
        <ele>336.6</ele>
        <time>2018-05-27T08:54:38Z</time>
      </trkpt>
      <trkpt lat="46.01274" lon="1.22852">
        <ele>336.12</ele>
        <time>2018-05-27T08:54:43Z</time>
      </trkpt>
      <trkpt lat="46.01265" lon="1.22888">
        <ele>336.12</ele>
        <time>2018-05-27T08:54:54Z</time>
      </trkpt>
      <trkpt lat="46.01265" lon="1.22926">
        <ele>338.52</ele>
        <time>2018-05-27T08:55:07Z</time>
      </trkpt>
      <trkpt lat="46.01262" lon="1.22934">
        <ele>339</ele>
        <time>2018-05-27T08:55:12Z</time>
      </trkpt>
      <trkpt lat="46.01261" lon="1.22941">
        <ele>339.48</ele>
        <time>2018-05-27T08:55:14Z</time>
      </trkpt>
      <trkpt lat="46.01265" lon="1.22962">
        <ele>342.37</ele>
        <time>2018-05-27T08:55:20Z</time>
      </trkpt>
      <trkpt lat="46.01266" lon="1.22974">
        <ele>337.08</ele>
        <time>2018-05-27T08:55:30Z</time>
      </trkpt>
      <trkpt lat="46.01267" lon="1.22973">
        <ele>342.85</ele>
        <time>2018-05-27T08:55:33Z</time>
      </trkpt>
      <trkpt lat="46.01266" lon="1.22973">
        <ele>342.37</ele>
        <time>2018-05-27T08:55:34Z</time>
      </trkpt>
      <trkpt lat="46.01266" lon="1.22974">
        <ele>342.37</ele>
        <time>2018-05-27T08:55:43Z</time>
      </trkpt>
      <trkpt lat="46.01262" lon="1.22977">
        <ele>342.37</ele>
        <time>2018-05-27T08:55:46Z</time>
      </trkpt>
      <trkpt lat="46.01255" lon="1.22983">
        <ele>342.85</ele>
        <time>2018-05-27T08:55:52Z</time>
      </trkpt>
      <trkpt lat="46.01242" lon="1.22993">
        <ele>343.81</ele>
        <time>2018-05-27T08:56:03Z</time>
      </trkpt>
      <trkpt lat="46.01228" lon="1.23001">
        <ele>344.77</ele>
        <time>2018-05-27T08:56:09Z</time>
      </trkpt>
      <trkpt lat="46.01221" lon="1.23">
        <ele>343.81</ele>
        <time>2018-05-27T08:56:12Z</time>
      </trkpt>
      <trkpt lat="46.01196" lon="1.23023">
        <ele>345.25</ele>
        <time>2018-05-27T08:56:22Z</time>
      </trkpt>
      <trkpt lat="46.0119" lon="1.23031">
        <ele>345.25</ele>
        <time>2018-05-27T08:56:27Z</time>
      </trkpt>
      <trkpt lat="46.01187" lon="1.23034">
        <ele>345.25</ele>
        <time>2018-05-27T08:56:29Z</time>
      </trkpt>
      <trkpt lat="46.01177" lon="1.23053">
        <ele>345.73</ele>
        <time>2018-05-27T08:56:37Z</time>
      </trkpt>
      <trkpt lat="46.01174" lon="1.23055">
        <ele>346.21</ele>
        <time>2018-05-27T08:56:38Z</time>
      </trkpt>
      <trkpt lat="46.01152" lon="1.23092">
        <ele>345.25</ele>
        <time>2018-05-27T08:56:48Z</time>
      </trkpt>
      <trkpt lat="46.01133" lon="1.23136">
        <ele>343.81</ele>
        <time>2018-05-27T08:56:58Z</time>
      </trkpt>
      <trkpt lat="46.01128" lon="1.23161">
        <ele>342.37</ele>
        <time>2018-05-27T08:57:02Z</time>
      </trkpt>
      <trkpt lat="46.01128" lon="1.23168">
        <ele>342.37</ele>
        <time>2018-05-27T08:57:03Z</time>
      </trkpt>
      <trkpt lat="46.01129" lon="1.23196">
        <ele>341.41</ele>
        <time>2018-05-27T08:57:07Z</time>
      </trkpt>
      <trkpt lat="46.01114" lon="1.23245">
        <ele>345.25</ele>
        <time>2018-05-27T08:57:17Z</time>
      </trkpt>
      <trkpt lat="46.01112" lon="1.23247">
        <ele>345.25</ele>
        <time>2018-05-27T08:57:18Z</time>
      </trkpt>
      <trkpt lat="46.0111" lon="1.23254">
        <ele>346.21</ele>
        <time>2018-05-27T08:57:28Z</time>
      </trkpt>
      <trkpt lat="46.01111" lon="1.23256">
        <ele>345.73</ele>
        <time>2018-05-27T08:57:29Z</time>
      </trkpt>
      <trkpt lat="46.01112" lon="1.23258">
        <ele>346.69</ele>
        <time>2018-05-27T08:57:30Z</time>
      </trkpt>
      <trkpt lat="46.01114" lon="1.23265">
        <ele>347.17</ele>
        <time>2018-05-27T08:57:35Z</time>
      </trkpt>
      <trkpt lat="46.01115" lon="1.23267">
        <ele>347.17</ele>
        <time>2018-05-27T08:57:36Z</time>
      </trkpt>
      <trkpt lat="46.01116" lon="1.23268">
        <ele>347.17</ele>
        <time>2018-05-27T08:57:37Z</time>
      </trkpt>
      <trkpt lat="46.01117" lon="1.2327">
        <ele>347.65</ele>
        <time>2018-05-27T08:57:38Z</time>
      </trkpt>
      <trkpt lat="46.01119" lon="1.23271">
        <ele>347.65</ele>
        <time>2018-05-27T08:57:39Z</time>
      </trkpt>
      <trkpt lat="46.0112" lon="1.23273">
        <ele>347.65</ele>
        <time>2018-05-27T08:57:40Z</time>
      </trkpt>
      <trkpt lat="46.01121" lon="1.23275">
        <ele>347.65</ele>
        <time>2018-05-27T08:57:41Z</time>
      </trkpt>
      <trkpt lat="46.01134" lon="1.2329">
        <ele>350.06</ele>
        <time>2018-05-27T08:57:50Z</time>
      </trkpt>
      <trkpt lat="46.01135" lon="1.23292">
        <ele>350.54</ele>
        <time>2018-05-27T08:57:51Z</time>
      </trkpt>
      <trkpt lat="46.01136" lon="1.23293">
        <ele>351.02</ele>
        <time>2018-05-27T08:57:52Z</time>
      </trkpt>
      <trkpt lat="46.01138" lon="1.23295">
        <ele>351.02</ele>
        <time>2018-05-27T08:57:53Z</time>
      </trkpt>
      <trkpt lat="46.01139" lon="1.23298">
        <ele>351.98</ele>
        <time>2018-05-27T08:57:54Z</time>
      </trkpt>
      <trkpt lat="46.0114" lon="1.233">
        <ele>351.98</ele>
        <time>2018-05-27T08:57:55Z</time>
      </trkpt>
      <trkpt lat="46.01142" lon="1.23302">
        <ele>352.46</ele>
        <time>2018-05-27T08:57:56Z</time>
      </trkpt>
      <trkpt lat="46.01143" lon="1.23305">
        <ele>352.46</ele>
        <time>2018-05-27T08:57:57Z</time>
      </trkpt>
      <trkpt lat="46.01144" lon="1.23307">
        <ele>352.94</ele>
        <time>2018-05-27T08:57:58Z</time>
      </trkpt>
      <trkpt lat="46.01145" lon="1.2331">
        <ele>353.42</ele>
        <time>2018-05-27T08:57:59Z</time>
      </trkpt>
      <trkpt lat="46.01146" lon="1.23313">
        <ele>354.38</ele>
        <time>2018-05-27T08:58:00Z</time>
      </trkpt>
      <trkpt lat="46.01149" lon="1.23325">
        <ele>355.34</ele>
        <time>2018-05-27T08:58:04Z</time>
      </trkpt>
      <trkpt lat="46.01153" lon="1.23336">
        <ele>357.27</ele>
        <time>2018-05-27T08:58:08Z</time>
      </trkpt>
      <trkpt lat="46.01152" lon="1.23367">
        <ele>360.63</ele>
        <time>2018-05-27T08:58:19Z</time>
      </trkpt>
      <trkpt lat="46.01149" lon="1.23391">
        <ele>363.04</ele>
        <time>2018-05-27T08:58:26Z</time>
      </trkpt>
      <trkpt lat="46.01142" lon="1.23417">
        <ele>365.44</ele>
        <time>2018-05-27T08:58:38Z</time>
      </trkpt>
      <trkpt lat="46.01142" lon="1.23418">
        <ele>365.44</ele>
        <time>2018-05-27T08:58:57Z</time>
      </trkpt>
      <trkpt lat="46.01142" lon="1.23418">
        <ele>364.96</ele>
        <time>2018-05-27T08:59:22Z</time>
      </trkpt>
      <trkpt lat="46.01142" lon="1.23421">
        <ele>364.96</ele>
        <time>2018-05-27T08:59:23Z</time>
      </trkpt>
      <trkpt lat="46.01139" lon="1.23452">
        <ele>367.84</ele>
        <time>2018-05-27T08:59:33Z</time>
      </trkpt>
      <trkpt lat="46.01155" lon="1.23497">
        <ele>371.21</ele>
        <time>2018-05-27T08:59:48Z</time>
      </trkpt>
      <trkpt lat="46.01187" lon="1.23515">
        <ele>374.09</ele>
        <time>2018-05-27T09:00:02Z</time>
      </trkpt>
      <trkpt lat="46.01222" lon="1.23537">
        <ele>376.01</ele>
        <time>2018-05-27T09:00:16Z</time>
      </trkpt>
      <trkpt lat="46.01245" lon="1.23554">
        <ele>376.49</ele>
        <time>2018-05-27T09:00:26Z</time>
      </trkpt>
      <trkpt lat="46.01255" lon="1.23564">
        <ele>375.53</ele>
        <time>2018-05-27T09:00:31Z</time>
      </trkpt>
      <trkpt lat="46.01256" lon="1.23566">
        <ele>376.01</ele>
        <time>2018-05-27T09:00:32Z</time>
      </trkpt>
      <trkpt lat="46.01259" lon="1.23568">
        <ele>376.01</ele>
        <time>2018-05-27T09:00:33Z</time>
      </trkpt>
      <trkpt lat="46.01262" lon="1.23569">
        <ele>376.01</ele>
        <time>2018-05-27T09:00:34Z</time>
      </trkpt>
      <trkpt lat="46.01265" lon="1.2357">
        <ele>376.01</ele>
        <time>2018-05-27T09:00:35Z</time>
      </trkpt>
      <trkpt lat="46.01267" lon="1.23572">
        <ele>376.01</ele>
        <time>2018-05-27T09:00:36Z</time>
      </trkpt>
      <trkpt lat="46.0127" lon="1.23573">
        <ele>376.01</ele>
        <time>2018-05-27T09:00:37Z</time>
      </trkpt>
      <trkpt lat="46.01273" lon="1.23574">
        <ele>376.01</ele>
        <time>2018-05-27T09:00:38Z</time>
      </trkpt>
      <trkpt lat="46.01275" lon="1.23576">
        <ele>376.01</ele>
        <time>2018-05-27T09:00:39Z</time>
      </trkpt>
      <trkpt lat="46.01278" lon="1.23577">
        <ele>376.49</ele>
        <time>2018-05-27T09:00:40Z</time>
      </trkpt>
      <trkpt lat="46.01281" lon="1.23578">
        <ele>376.01</ele>
        <time>2018-05-27T09:00:41Z</time>
      </trkpt>
      <trkpt lat="46.01283" lon="1.2358">
        <ele>376.49</ele>
        <time>2018-05-27T09:00:42Z</time>
      </trkpt>
      <trkpt lat="46.01286" lon="1.23582">
        <ele>375.53</ele>
        <time>2018-05-27T09:00:43Z</time>
      </trkpt>
      <trkpt lat="46.01288" lon="1.23583">
        <ele>376.49</ele>
        <time>2018-05-27T09:00:44Z</time>
      </trkpt>
      <trkpt lat="46.01291" lon="1.23585">
        <ele>376.49</ele>
        <time>2018-05-27T09:00:45Z</time>
      </trkpt>
      <trkpt lat="46.01294" lon="1.23587">
        <ele>376.49</ele>
        <time>2018-05-27T09:00:46Z</time>
      </trkpt>
      <trkpt lat="46.01296" lon="1.23588">
        <ele>376.49</ele>
        <time>2018-05-27T09:00:47Z</time>
      </trkpt>
      <trkpt lat="46.01299" lon="1.2359">
        <ele>376.97</ele>
        <time>2018-05-27T09:00:48Z</time>
      </trkpt>
      <trkpt lat="46.01322" lon="1.23633">
        <ele>375.53</ele>
        <time>2018-05-27T09:00:59Z</time>
      </trkpt>
      <trkpt lat="46.01332" lon="1.2366">
        <ele>375.05</ele>
        <time>2018-05-27T09:01:04Z</time>
      </trkpt>
      <trkpt lat="46.01362" lon="1.23751">
        <ele>373.13</ele>
        <time>2018-05-27T09:01:18Z</time>
      </trkpt>
      <trkpt lat="46.01365" lon="1.23774">
        <ele>372.65</ele>
        <time>2018-05-27T09:01:21Z</time>
      </trkpt>
      <trkpt lat="46.01365" lon="1.23782">
        <ele>372.17</ele>
        <time>2018-05-27T09:01:22Z</time>
      </trkpt>
      <trkpt lat="46.01365" lon="1.2379">
        <ele>372.17</ele>
        <time>2018-05-27T09:01:23Z</time>
      </trkpt>
      <trkpt lat="46.01367" lon="1.23797">
        <ele>372.17</ele>
        <time>2018-05-27T09:01:24Z</time>
      </trkpt>
      <trkpt lat="46.01369" lon="1.23805">
        <ele>371.69</ele>
        <time>2018-05-27T09:01:25Z</time>
      </trkpt>
      <trkpt lat="46.01371" lon="1.23813">
        <ele>371.21</ele>
        <time>2018-05-27T09:01:26Z</time>
      </trkpt>
      <trkpt lat="46.01374" lon="1.23821">
        <ele>371.21</ele>
        <time>2018-05-27T09:01:27Z</time>
      </trkpt>
      <trkpt lat="46.01378" lon="1.23829">
        <ele>371.21</ele>
        <time>2018-05-27T09:01:28Z</time>
      </trkpt>
      <trkpt lat="46.01421" lon="1.23889">
        <ele>371.21</ele>
        <time>2018-05-27T09:01:38Z</time>
      </trkpt>
      <trkpt lat="46.01443" lon="1.23917">
        <ele>370.73</ele>
        <time>2018-05-27T09:01:43Z</time>
      </trkpt>
      <trkpt lat="46.01447" lon="1.23922">
        <ele>370.24</ele>
        <time>2018-05-27T09:01:44Z</time>
      </trkpt>
      <trkpt lat="46.01452" lon="1.23927">
        <ele>370.73</ele>
        <time>2018-05-27T09:01:45Z</time>
      </trkpt>
      <trkpt lat="46.01466" lon="1.2394">
        <ele>370.73</ele>
        <time>2018-05-27T09:01:48Z</time>
      </trkpt>
      <trkpt lat="46.0147" lon="1.23944">
        <ele>371.21</ele>
        <time>2018-05-27T09:01:49Z</time>
      </trkpt>
      <trkpt lat="46.01475" lon="1.23947">
        <ele>371.21</ele>
        <time>2018-05-27T09:01:50Z</time>
      </trkpt>
      <trkpt lat="46.01484" lon="1.23955">
        <ele>371.69</ele>
        <time>2018-05-27T09:01:52Z</time>
      </trkpt>
      <trkpt lat="46.01543" lon="1.24018">
        <ele>374.57</ele>
        <time>2018-05-27T09:02:08Z</time>
      </trkpt>
      <trkpt lat="46.0155" lon="1.24032">
        <ele>374.09</ele>
        <time>2018-05-27T09:02:11Z</time>
      </trkpt>
      <trkpt lat="46.01552" lon="1.24038">
        <ele>373.61</ele>
        <time>2018-05-27T09:02:12Z</time>
      </trkpt>
      <trkpt lat="46.01554" lon="1.24045">
        <ele>374.09</ele>
        <time>2018-05-27T09:02:13Z</time>
      </trkpt>
      <trkpt lat="46.01572" lon="1.24085">
        <ele>372.65</ele>
        <time>2018-05-27T09:02:19Z</time>
      </trkpt>
      <trkpt lat="46.0158" lon="1.24108">
        <ele>372.17</ele>
        <time>2018-05-27T09:02:22Z</time>
      </trkpt>
      <trkpt lat="46.01596" lon="1.24142">
        <ele>371.21</ele>
        <time>2018-05-27T09:02:27Z</time>
      </trkpt>
      <trkpt lat="46.01611" lon="1.24195">
        <ele>372.65</ele>
        <time>2018-05-27T09:02:35Z</time>
      </trkpt>
      <trkpt lat="46.01622" lon="1.24254">
        <ele>372.65</ele>
        <time>2018-05-27T09:02:46Z</time>
      </trkpt>
      <trkpt lat="46.01623" lon="1.24259">
        <ele>373.13</ele>
        <time>2018-05-27T09:02:47Z</time>
      </trkpt>
      <trkpt lat="46.01625" lon="1.24262">
        <ele>373.13</ele>
        <time>2018-05-27T09:02:48Z</time>
      </trkpt>
      <trkpt lat="46.01631" lon="1.24283">
        <ele>372.65</ele>
        <time>2018-05-27T09:02:52Z</time>
      </trkpt>
      <trkpt lat="46.01633" lon="1.24288">
        <ele>373.13</ele>
        <time>2018-05-27T09:02:53Z</time>
      </trkpt>
      <trkpt lat="46.0164" lon="1.24309">
        <ele>372.65</ele>
        <time>2018-05-27T09:02:57Z</time>
      </trkpt>
      <trkpt lat="46.01641" lon="1.24315">
        <ele>373.13</ele>
        <time>2018-05-27T09:02:58Z</time>
      </trkpt>
      <trkpt lat="46.01643" lon="1.2432">
        <ele>373.13</ele>
        <time>2018-05-27T09:02:59Z</time>
      </trkpt>
      <trkpt lat="46.01645" lon="1.24324">
        <ele>372.65</ele>
        <time>2018-05-27T09:03:00Z</time>
      </trkpt>
      <trkpt lat="46.01647" lon="1.24328">
        <ele>372.65</ele>
        <time>2018-05-27T09:03:01Z</time>
      </trkpt>
      <trkpt lat="46.01648" lon="1.24332">
        <ele>373.13</ele>
        <time>2018-05-27T09:03:02Z</time>
      </trkpt>
      <trkpt lat="46.0165" lon="1.24338">
        <ele>373.13</ele>
        <time>2018-05-27T09:03:03Z</time>
      </trkpt>
      <trkpt lat="46.01668" lon="1.24403">
        <ele>374.57</ele>
        <time>2018-05-27T09:03:15Z</time>
      </trkpt>
      <trkpt lat="46.01674" lon="1.24448">
        <ele>375.05</ele>
        <time>2018-05-27T09:03:23Z</time>
      </trkpt>
      <trkpt lat="46.01674" lon="1.24455">
        <ele>375.05</ele>
        <time>2018-05-27T09:03:24Z</time>
      </trkpt>
      <trkpt lat="46.01674" lon="1.24461">
        <ele>375.05</ele>
        <time>2018-05-27T09:03:25Z</time>
      </trkpt>
      <trkpt lat="46.01673" lon="1.24468">
        <ele>375.05</ele>
        <time>2018-05-27T09:03:26Z</time>
      </trkpt>
      <trkpt lat="46.01672" lon="1.24475">
        <ele>375.05</ele>
        <time>2018-05-27T09:03:27Z</time>
      </trkpt>
      <trkpt lat="46.01666" lon="1.24506">
        <ele>375.05</ele>
        <time>2018-05-27T09:03:32Z</time>
      </trkpt>
      <trkpt lat="46.01665" lon="1.24513">
        <ele>375.53</ele>
        <time>2018-05-27T09:03:33Z</time>
      </trkpt>
      <trkpt lat="46.01663" lon="1.24519">
        <ele>376.01</ele>
        <time>2018-05-27T09:03:34Z</time>
      </trkpt>
      <trkpt lat="46.0165" lon="1.24567">
        <ele>376.97</ele>
        <time>2018-05-27T09:03:42Z</time>
      </trkpt>
      <trkpt lat="46.01634" lon="1.24634">
        <ele>378.42</ele>
        <time>2018-05-27T09:03:54Z</time>
      </trkpt>
      <trkpt lat="46.01633" lon="1.2464">
        <ele>378.42</ele>
        <time>2018-05-27T09:03:55Z</time>
      </trkpt>
      <trkpt lat="46.01631" lon="1.24645">
        <ele>378.9</ele>
        <time>2018-05-27T09:03:56Z</time>
      </trkpt>
      <trkpt lat="46.01629" lon="1.24651">
        <ele>378.9</ele>
        <time>2018-05-27T09:03:57Z</time>
      </trkpt>
      <trkpt lat="46.01627" lon="1.24655">
        <ele>379.38</ele>
        <time>2018-05-27T09:03:58Z</time>
      </trkpt>
      <trkpt lat="46.01626" lon="1.24659">
        <ele>379.38</ele>
        <time>2018-05-27T09:03:59Z</time>
      </trkpt>
      <trkpt lat="46.01619" lon="1.24672">
        <ele>379.86</ele>
        <time>2018-05-27T09:04:02Z</time>
      </trkpt>
      <trkpt lat="46.01616" lon="1.24676">
        <ele>379.38</ele>
        <time>2018-05-27T09:04:03Z</time>
      </trkpt>
      <trkpt lat="46.01589" lon="1.2471">
        <ele>380.82</ele>
        <time>2018-05-27T09:04:13Z</time>
      </trkpt>
      <trkpt lat="46.01563" lon="1.2475">
        <ele>382.74</ele>
        <time>2018-05-27T09:04:23Z</time>
      </trkpt>
      <trkpt lat="46.01543" lon="1.24803">
        <ele>385.63</ele>
        <time>2018-05-27T09:04:36Z</time>
      </trkpt>
      <trkpt lat="46.0154" lon="1.24806">
        <ele>384.66</ele>
        <time>2018-05-27T09:04:38Z</time>
      </trkpt>
      <trkpt lat="46.01537" lon="1.24806">
        <ele>385.15</ele>
        <time>2018-05-27T09:04:39Z</time>
      </trkpt>
      <trkpt lat="46.01536" lon="1.24808">
        <ele>384.66</ele>
        <time>2018-05-27T09:04:40Z</time>
      </trkpt>
      <trkpt lat="46.01515" lon="1.24851">
        <ele>386.11</ele>
        <time>2018-05-27T09:04:54Z</time>
      </trkpt>
      <trkpt lat="46.01507" lon="1.24889">
        <ele>383.7</ele>
        <time>2018-05-27T09:05:02Z</time>
      </trkpt>
      <trkpt lat="46.01506" lon="1.24896">
        <ele>383.22</ele>
        <time>2018-05-27T09:05:03Z</time>
      </trkpt>
      <trkpt lat="46.01499" lon="1.24918">
        <ele>382.26</ele>
        <time>2018-05-27T09:05:06Z</time>
      </trkpt>
      <trkpt lat="46.01496" lon="1.24925">
        <ele>381.3</ele>
        <time>2018-05-27T09:05:07Z</time>
      </trkpt>
      <trkpt lat="46.01492" lon="1.24931">
        <ele>381.3</ele>
        <time>2018-05-27T09:05:08Z</time>
      </trkpt>
      <trkpt lat="46.01487" lon="1.24936">
        <ele>380.34</ele>
        <time>2018-05-27T09:05:09Z</time>
      </trkpt>
      <trkpt lat="46.01482" lon="1.2494">
        <ele>380.34</ele>
        <time>2018-05-27T09:05:10Z</time>
      </trkpt>
      <trkpt lat="46.01477" lon="1.24944">
        <ele>379.86</ele>
        <time>2018-05-27T09:05:11Z</time>
      </trkpt>
      <trkpt lat="46.01472" lon="1.24948">
        <ele>378.9</ele>
        <time>2018-05-27T09:05:12Z</time>
      </trkpt>
      <trkpt lat="46.01466" lon="1.24951">
        <ele>378.9</ele>
        <time>2018-05-27T09:05:13Z</time>
      </trkpt>
      <trkpt lat="46.01383" lon="1.25007">
        <ele>377.94</ele>
        <time>2018-05-27T09:05:27Z</time>
      </trkpt>
      <trkpt lat="46.01334" lon="1.25047">
        <ele>380.82</ele>
        <time>2018-05-27T09:05:38Z</time>
      </trkpt>
      <trkpt lat="46.01329" lon="1.25051">
        <ele>381.3</ele>
        <time>2018-05-27T09:05:39Z</time>
      </trkpt>
      <trkpt lat="46.01325" lon="1.25055">
        <ele>380.82</ele>
        <time>2018-05-27T09:05:40Z</time>
      </trkpt>
      <trkpt lat="46.01265" lon="1.25119">
        <ele>380.82</ele>
        <time>2018-05-27T09:05:56Z</time>
      </trkpt>
      <trkpt lat="46.01232" lon="1.25147">
        <ele>378.42</ele>
        <time>2018-05-27T09:06:02Z</time>
      </trkpt>
      <trkpt lat="46.01171" lon="1.25182">
        <ele>375.05</ele>
        <time>2018-05-27T09:06:11Z</time>
      </trkpt>
      <trkpt lat="46.0109" lon="1.25213">
        <ele>373.61</ele>
        <time>2018-05-27T09:06:24Z</time>
      </trkpt>
      <trkpt lat="46.00995" lon="1.25228">
        <ele>370.24</ele>
        <time>2018-05-27T09:06:39Z</time>
      </trkpt>
      <trkpt lat="46.00956" lon="1.2523">
        <ele>367.36</ele>
        <time>2018-05-27T09:06:48Z</time>
      </trkpt>
      <trkpt lat="46.00934" lon="1.25242">
        <ele>364</ele>
        <time>2018-05-27T09:06:56Z</time>
      </trkpt>
      <trkpt lat="46.0093" lon="1.25245">
        <ele>363.52</ele>
        <time>2018-05-27T09:06:57Z</time>
      </trkpt>
      <trkpt lat="46.00926" lon="1.25248">
        <ele>363.04</ele>
        <time>2018-05-27T09:06:58Z</time>
      </trkpt>
      <trkpt lat="46.00922" lon="1.25251">
        <ele>362.07</ele>
        <time>2018-05-27T09:06:59Z</time>
      </trkpt>
      <trkpt lat="46.00918" lon="1.25255">
        <ele>361.11</ele>
        <time>2018-05-27T09:07:00Z</time>
      </trkpt>
      <trkpt lat="46.00913" lon="1.25258">
        <ele>360.63</ele>
        <time>2018-05-27T09:07:01Z</time>
      </trkpt>
      <trkpt lat="46.00905" lon="1.25263">
        <ele>359.19</ele>
        <time>2018-05-27T09:07:03Z</time>
      </trkpt>
      <trkpt lat="46.00896" lon="1.25267">
        <ele>358.23</ele>
        <time>2018-05-27T09:07:12Z</time>
      </trkpt>
      <trkpt lat="46.00895" lon="1.25268">
        <ele>358.23</ele>
        <time>2018-05-27T09:07:15Z</time>
      </trkpt>
      <trkpt lat="46.00893" lon="1.2527">
        <ele>357.75</ele>
        <time>2018-05-27T09:07:16Z</time>
      </trkpt>
      <trkpt lat="46.00889" lon="1.25272">
        <ele>357.27</ele>
        <time>2018-05-27T09:07:17Z</time>
      </trkpt>
      <trkpt lat="46.0086" lon="1.25291">
        <ele>355.34</ele>
        <time>2018-05-27T09:07:24Z</time>
      </trkpt>
      <trkpt lat="46.00857" lon="1.25296">
        <ele>354.86</ele>
        <time>2018-05-27T09:07:25Z</time>
      </trkpt>
      <trkpt lat="46.00854" lon="1.25301">
        <ele>354.86</ele>
        <time>2018-05-27T09:07:26Z</time>
      </trkpt>
      <trkpt lat="46.00851" lon="1.25307">
        <ele>354.86</ele>
        <time>2018-05-27T09:07:27Z</time>
      </trkpt>
      <trkpt lat="46.00849" lon="1.25313">
        <ele>354.38</ele>
        <time>2018-05-27T09:07:28Z</time>
      </trkpt>
      <trkpt lat="46.00833" lon="1.25362">
        <ele>353.9</ele>
        <time>2018-05-27T09:07:37Z</time>
      </trkpt>
      <trkpt lat="46.00804" lon="1.2541">
        <ele>352.46</ele>
        <time>2018-05-27T09:07:49Z</time>
      </trkpt>
      <trkpt lat="46.00787" lon="1.25421">
        <ele>349.58</ele>
        <time>2018-05-27T09:07:54Z</time>
      </trkpt>
      <trkpt lat="46.0078" lon="1.25427">
        <ele>348.13</ele>
        <time>2018-05-27T09:07:56Z</time>
      </trkpt>
      <trkpt lat="46.00767" lon="1.2546">
        <ele>343.81</ele>
        <time>2018-05-27T09:08:02Z</time>
      </trkpt>
      <trkpt lat="46.00767" lon="1.25467">
        <ele>343.81</ele>
        <time>2018-05-27T09:08:03Z</time>
      </trkpt>
      <trkpt lat="46.0077" lon="1.25485">
        <ele>343.33</ele>
        <time>2018-05-27T09:08:06Z</time>
      </trkpt>
      <trkpt lat="46.00774" lon="1.25504">
        <ele>342.85</ele>
        <time>2018-05-27T09:08:09Z</time>
      </trkpt>
      <trkpt lat="46.00779" lon="1.25523">
        <ele>342.37</ele>
        <time>2018-05-27T09:08:12Z</time>
      </trkpt>
      <trkpt lat="46.00772" lon="1.25543">
        <ele>342.37</ele>
        <time>2018-05-27T09:08:16Z</time>
      </trkpt>
      <trkpt lat="46.00744" lon="1.25579">
        <ele>343.33</ele>
        <time>2018-05-27T09:08:27Z</time>
      </trkpt>
      <trkpt lat="46.00725" lon="1.25612">
        <ele>346.69</ele>
        <time>2018-05-27T09:08:39Z</time>
      </trkpt>
      <trkpt lat="46.00707" lon="1.25614">
        <ele>348.62</ele>
        <time>2018-05-27T09:08:48Z</time>
      </trkpt>
      <trkpt lat="46.0069" lon="1.25622">
        <ele>351.02</ele>
        <time>2018-05-27T09:08:57Z</time>
      </trkpt>
      <trkpt lat="46.00696" lon="1.25648">
        <ele>353.42</ele>
        <time>2018-05-27T09:09:08Z</time>
      </trkpt>
      <trkpt lat="46.00697" lon="1.25655">
        <ele>354.38</ele>
        <time>2018-05-27T09:09:11Z</time>
      </trkpt>
      <trkpt lat="46.00701" lon="1.25666">
        <ele>355.34</ele>
        <time>2018-05-27T09:09:16Z</time>
      </trkpt>
      <trkpt lat="46.00705" lon="1.2569">
        <ele>356.31</ele>
        <time>2018-05-27T09:09:26Z</time>
      </trkpt>
      <trkpt lat="46.00701" lon="1.25699">
        <ele>357.27</ele>
        <time>2018-05-27T09:09:29Z</time>
      </trkpt>
      <trkpt lat="46.00687" lon="1.25736">
        <ele>358.71</ele>
        <time>2018-05-27T09:09:42Z</time>
      </trkpt>
      <trkpt lat="46.00672" lon="1.25776">
        <ele>359.67</ele>
        <time>2018-05-27T09:09:55Z</time>
      </trkpt>
      <trkpt lat="46.00657" lon="1.25815">
        <ele>362.07</ele>
        <time>2018-05-27T09:10:09Z</time>
      </trkpt>
      <trkpt lat="46.00642" lon="1.25833">
        <ele>364.48</ele>
        <time>2018-05-27T09:10:19Z</time>
      </trkpt>
      <trkpt lat="46.00632" lon="1.25843">
        <ele>365.92</ele>
        <time>2018-05-27T09:10:25Z</time>
      </trkpt>
      <trkpt lat="46.00629" lon="1.25854">
        <ele>366.88</ele>
        <time>2018-05-27T09:10:29Z</time>
      </trkpt>
      <trkpt lat="46.00643" lon="1.25874">
        <ele>368.8</ele>
        <time>2018-05-27T09:10:41Z</time>
      </trkpt>
      <trkpt lat="46.00672" lon="1.25893">
        <ele>370.24</ele>
        <time>2018-05-27T09:10:54Z</time>
      </trkpt>
      <trkpt lat="46.007" lon="1.25909">
        <ele>369.76</ele>
        <time>2018-05-27T09:11:06Z</time>
      </trkpt>
      <trkpt lat="46.00702" lon="1.25912">
        <ele>370.73</ele>
        <time>2018-05-27T09:11:07Z</time>
      </trkpt>
      <trkpt lat="46.00712" lon="1.2592">
        <ele>370.24</ele>
        <time>2018-05-27T09:11:18Z</time>
      </trkpt>
      <trkpt lat="46.00712" lon="1.25921">
        <ele>366.4</ele>
        <time>2018-05-27T09:11:31Z</time>
      </trkpt>
      <trkpt lat="46.00712" lon="1.25921">
        <ele>370.24</ele>
        <time>2018-05-27T09:11:32Z</time>
      </trkpt>
      <trkpt lat="46.00712" lon="1.25921">
        <ele>369.76</ele>
        <time>2018-05-27T09:11:33Z</time>
      </trkpt>
      <trkpt lat="46.00712" lon="1.25921">
        <ele>364.48</ele>
        <time>2018-05-27T09:11:43Z</time>
      </trkpt>
      <trkpt lat="46.00712" lon="1.25921">
        <ele>369.76</ele>
        <time>2018-05-27T09:11:44Z</time>
      </trkpt>
      <trkpt lat="46.00712" lon="1.25921">
        <ele>364</ele>
        <time>2018-05-27T09:11:45Z</time>
      </trkpt>
      <trkpt lat="46.00712" lon="1.25921">
        <ele>370.73</ele>
        <time>2018-05-27T09:11:46Z</time>
      </trkpt>
      <trkpt lat="46.00712" lon="1.25921">
        <ele>375.05</ele>
        <time>2018-05-27T09:11:48Z</time>
      </trkpt>
      <trkpt lat="46.00712" lon="1.25921">
        <ele>369.76</ele>
        <time>2018-05-27T09:11:49Z</time>
      </trkpt>
      <trkpt lat="46.00712" lon="1.25921">
        <ele>373.13</ele>
        <time>2018-05-27T09:11:50Z</time>
      </trkpt>
      <trkpt lat="46.00712" lon="1.25921">
        <ele>368.32</ele>
        <time>2018-05-27T09:11:51Z</time>
      </trkpt>
      <trkpt lat="46.00712" lon="1.25921">
        <ele>372.17</ele>
        <time>2018-05-27T09:11:55Z</time>
      </trkpt>
      <trkpt lat="46.00712" lon="1.25921">
        <ele>368.8</ele>
        <time>2018-05-27T09:11:56Z</time>
      </trkpt>
      <trkpt lat="46.00712" lon="1.25921">
        <ele>372.17</ele>
        <time>2018-05-27T09:12:05Z</time>
      </trkpt>
      <trkpt lat="46.00713" lon="1.2592">
        <ele>370.24</ele>
        <time>2018-05-27T09:12:32Z</time>
      </trkpt>
      <trkpt lat="46.00721" lon="1.25918">
        <ele>369.28</ele>
        <time>2018-05-27T09:12:37Z</time>
      </trkpt>
      <trkpt lat="46.00741" lon="1.25947">
        <ele>366.88</ele>
        <time>2018-05-27T09:12:49Z</time>
      </trkpt>
      <trkpt lat="46.00743" lon="1.25952">
        <ele>366.4</ele>
        <time>2018-05-27T09:12:50Z</time>
      </trkpt>
      <trkpt lat="46.00745" lon="1.25958">
        <ele>366.4</ele>
        <time>2018-05-27T09:12:51Z</time>
      </trkpt>
      <trkpt lat="46.00749" lon="1.25969">
        <ele>365.44</ele>
        <time>2018-05-27T09:12:53Z</time>
      </trkpt>
      <trkpt lat="46.00752" lon="1.25989">
        <ele>364.96</ele>
        <time>2018-05-27T09:12:58Z</time>
      </trkpt>
      <trkpt lat="46.00751" lon="1.25991">
        <ele>364.96</ele>
        <time>2018-05-27T09:12:59Z</time>
      </trkpt>
      <trkpt lat="46.0075" lon="1.25994">
        <ele>364.96</ele>
        <time>2018-05-27T09:13:00Z</time>
      </trkpt>
      <trkpt lat="46.00751" lon="1.25996">
        <ele>364.48</ele>
        <time>2018-05-27T09:13:01Z</time>
      </trkpt>
      <trkpt lat="46.00752" lon="1.25998">
        <ele>367.36</ele>
        <time>2018-05-27T09:13:13Z</time>
      </trkpt>
      <trkpt lat="46.00751" lon="1.25998">
        <ele>363.52</ele>
        <time>2018-05-27T09:13:16Z</time>
      </trkpt>
      <trkpt lat="46.00751" lon="1.25998">
        <ele>363.52</ele>
        <time>2018-05-27T09:13:17Z</time>
      </trkpt>
      <trkpt lat="46.00752" lon="1.25997">
        <ele>364.48</ele>
        <time>2018-05-27T09:13:34Z</time>
      </trkpt>
      <trkpt lat="46.00754" lon="1.25995">
        <ele>364.48</ele>
        <time>2018-05-27T09:13:35Z</time>
      </trkpt>
      <trkpt lat="46.00754" lon="1.25994">
        <ele>364.48</ele>
        <time>2018-05-27T09:13:36Z</time>
      </trkpt>
      <trkpt lat="46.00755" lon="1.25992">
        <ele>364.48</ele>
        <time>2018-05-27T09:13:37Z</time>
      </trkpt>
      <trkpt lat="46.00755" lon="1.25989">
        <ele>364.96</ele>
        <time>2018-05-27T09:13:38Z</time>
      </trkpt>
      <trkpt lat="46.00757" lon="1.25987">
        <ele>364.96</ele>
        <time>2018-05-27T09:13:39Z</time>
      </trkpt>
      <trkpt lat="46.00758" lon="1.25986">
        <ele>365.44</ele>
        <time>2018-05-27T09:13:41Z</time>
      </trkpt>
      <trkpt lat="46.00758" lon="1.25986">
        <ele>365.92</ele>
        <time>2018-05-27T09:13:42Z</time>
      </trkpt>
      <trkpt lat="46.00767" lon="1.25987">
        <ele>367.84</ele>
        <time>2018-05-27T09:13:49Z</time>
      </trkpt>
      <trkpt lat="46.00774" lon="1.25988">
        <ele>369.28</ele>
        <time>2018-05-27T09:13:53Z</time>
      </trkpt>
      <trkpt lat="46.00788" lon="1.25982">
        <ele>369.76</ele>
        <time>2018-05-27T09:14:01Z</time>
      </trkpt>
      <trkpt lat="46.00795" lon="1.25975">
        <ele>369.28</ele>
        <time>2018-05-27T09:14:05Z</time>
      </trkpt>
      <trkpt lat="46.00799" lon="1.25973">
        <ele>368.8</ele>
        <time>2018-05-27T09:14:16Z</time>
      </trkpt>
      <trkpt lat="46.00806" lon="1.25975">
        <ele>367.36</ele>
        <time>2018-05-27T09:14:21Z</time>
      </trkpt>
      <trkpt lat="46.00814" lon="1.25982">
        <ele>365.92</ele>
        <time>2018-05-27T09:14:25Z</time>
      </trkpt>
      <trkpt lat="46.00829" lon="1.25984">
        <ele>364.96</ele>
        <time>2018-05-27T09:14:29Z</time>
      </trkpt>
      <trkpt lat="46.00873" lon="1.25991">
        <ele>361.59</ele>
        <time>2018-05-27T09:14:39Z</time>
      </trkpt>
      <trkpt lat="46.00877" lon="1.25993">
        <ele>361.59</ele>
        <time>2018-05-27T09:14:40Z</time>
      </trkpt>
      <trkpt lat="46.00897" lon="1.25996">
        <ele>357.27</ele>
        <time>2018-05-27T09:14:45Z</time>
      </trkpt>
      <trkpt lat="46.00915" lon="1.26001">
        <ele>354.38</ele>
        <time>2018-05-27T09:14:49Z</time>
      </trkpt>
      <trkpt lat="46.00932" lon="1.2601">
        <ele>351.02</ele>
        <time>2018-05-27T09:14:53Z</time>
      </trkpt>
      <trkpt lat="46.00946" lon="1.26026">
        <ele>348.13</ele>
        <time>2018-05-27T09:14:57Z</time>
      </trkpt>
      <trkpt lat="46.00954" lon="1.26043">
        <ele>347.65</ele>
        <time>2018-05-27T09:15:00Z</time>
      </trkpt>
      <trkpt lat="46.00956" lon="1.26048">
        <ele>347.65</ele>
        <time>2018-05-27T09:15:01Z</time>
      </trkpt>
      <trkpt lat="46.00979" lon="1.26084">
        <ele>348.13</ele>
        <time>2018-05-27T09:15:11Z</time>
      </trkpt>
      <trkpt lat="46.0098" lon="1.26087">
        <ele>348.62</ele>
        <time>2018-05-27T09:15:12Z</time>
      </trkpt>
      <trkpt lat="46.0098" lon="1.2609">
        <ele>348.62</ele>
        <time>2018-05-27T09:15:13Z</time>
      </trkpt>
      <trkpt lat="46.0098" lon="1.26091">
        <ele>348.62</ele>
        <time>2018-05-27T09:15:14Z</time>
      </trkpt>
      <trkpt lat="46.00981" lon="1.26093">
        <ele>349.1</ele>
        <time>2018-05-27T09:15:15Z</time>
      </trkpt>
      <trkpt lat="46.00982" lon="1.26094">
        <ele>349.1</ele>
        <time>2018-05-27T09:15:16Z</time>
      </trkpt>
      <trkpt lat="46.00983" lon="1.26095">
        <ele>349.1</ele>
        <time>2018-05-27T09:15:17Z</time>
      </trkpt>
      <trkpt lat="46.00993" lon="1.26106">
        <ele>350.06</ele>
        <time>2018-05-27T09:15:23Z</time>
      </trkpt>
      <trkpt lat="46.0101" lon="1.26123">
        <ele>351.02</ele>
        <time>2018-05-27T09:15:32Z</time>
      </trkpt>
      <trkpt lat="46.01039" lon="1.26149">
        <ele>350.54</ele>
        <time>2018-05-27T09:15:42Z</time>
      </trkpt>
      <trkpt lat="46.01054" lon="1.2618">
        <ele>350.54</ele>
        <time>2018-05-27T09:15:50Z</time>
      </trkpt>
      <trkpt lat="46.01055" lon="1.26204">
        <ele>351.98</ele>
        <time>2018-05-27T09:15:56Z</time>
      </trkpt>
      <trkpt lat="46.01058" lon="1.26229">
        <ele>352.94</ele>
        <time>2018-05-27T09:16:03Z</time>
      </trkpt>
      <trkpt lat="46.01053" lon="1.26279">
        <ele>353.9</ele>
        <time>2018-05-27T09:16:15Z</time>
      </trkpt>
      <trkpt lat="46.01076" lon="1.2633">
        <ele>353.9</ele>
        <time>2018-05-27T09:16:27Z</time>
      </trkpt>
      <trkpt lat="46.01078" lon="1.26331">
        <ele>353.42</ele>
        <time>2018-05-27T09:16:28Z</time>
      </trkpt>
      <trkpt lat="46.01103" lon="1.26359">
        <ele>354.38</ele>
        <time>2018-05-27T09:16:39Z</time>
      </trkpt>
      <trkpt lat="46.01111" lon="1.26385">
        <ele>355.83</ele>
        <time>2018-05-27T09:16:49Z</time>
      </trkpt>
      <trkpt lat="46.01111" lon="1.26392">
        <ele>355.83</ele>
        <time>2018-05-27T09:17:03Z</time>
      </trkpt>
      <trkpt lat="46.01104" lon="1.26431">
        <ele>357.27</ele>
        <time>2018-05-27T09:17:13Z</time>
      </trkpt>
      <trkpt lat="46.01091" lon="1.26485">
        <ele>356.79</ele>
        <time>2018-05-27T09:17:24Z</time>
      </trkpt>
      <trkpt lat="46.01081" lon="1.26523">
        <ele>358.71</ele>
        <time>2018-05-27T09:17:33Z</time>
      </trkpt>
      <trkpt lat="46.01075" lon="1.26568">
        <ele>360.15</ele>
        <time>2018-05-27T09:17:44Z</time>
      </trkpt>
      <trkpt lat="46.01091" lon="1.26605">
        <ele>360.15</ele>
        <time>2018-05-27T09:17:53Z</time>
      </trkpt>
      <trkpt lat="46.01091" lon="1.26618">
        <ele>360.63</ele>
        <time>2018-05-27T09:17:56Z</time>
      </trkpt>
      <trkpt lat="46.01092" lon="1.26661">
        <ele>362.07</ele>
        <time>2018-05-27T09:18:06Z</time>
      </trkpt>
      <trkpt lat="46.01092" lon="1.26669">
        <ele>362.55</ele>
        <time>2018-05-27T09:18:08Z</time>
      </trkpt>
      <trkpt lat="46.01092" lon="1.26698">
        <ele>364.96</ele>
        <time>2018-05-27T09:18:17Z</time>
      </trkpt>
      <trkpt lat="46.01078" lon="1.26725">
        <ele>366.4</ele>
        <time>2018-05-27T09:18:27Z</time>
      </trkpt>
      <trkpt lat="46.0107" lon="1.26765">
        <ele>366.88</ele>
        <time>2018-05-27T09:18:38Z</time>
      </trkpt>
      <trkpt lat="46.01061" lon="1.26799">
        <ele>367.36</ele>
        <time>2018-05-27T09:18:49Z</time>
      </trkpt>
      <trkpt lat="46.0105" lon="1.26826">
        <ele>368.8</ele>
        <time>2018-05-27T09:19:00Z</time>
      </trkpt>
      <trkpt lat="46.0104" lon="1.26845">
        <ele>369.76</ele>
        <time>2018-05-27T09:19:11Z</time>
      </trkpt>
      <trkpt lat="46.01037" lon="1.26856">
        <ele>369.76</ele>
        <time>2018-05-27T09:19:31Z</time>
      </trkpt>
      <trkpt lat="46.01024" lon="1.26886">
        <ele>372.65</ele>
        <time>2018-05-27T09:19:43Z</time>
      </trkpt>
      <trkpt lat="46.01019" lon="1.26891">
        <ele>373.61</ele>
        <time>2018-05-27T09:19:46Z</time>
      </trkpt>
      <trkpt lat="46.01013" lon="1.26899">
        <ele>375.05</ele>
        <time>2018-05-27T09:19:50Z</time>
      </trkpt>
      <trkpt lat="46.00998" lon="1.26916">
        <ele>376.49</ele>
        <time>2018-05-27T09:19:59Z</time>
      </trkpt>
      <trkpt lat="46.00987" lon="1.26927">
        <ele>377.45</ele>
        <time>2018-05-27T09:20:05Z</time>
      </trkpt>
      <trkpt lat="46.0098" lon="1.26937">
        <ele>378.9</ele>
        <time>2018-05-27T09:20:10Z</time>
      </trkpt>
      <trkpt lat="46.00964" lon="1.26948">
        <ele>380.34</ele>
        <time>2018-05-27T09:20:20Z</time>
      </trkpt>
      <trkpt lat="46.00935" lon="1.26952">
        <ele>382.74</ele>
        <time>2018-05-27T09:20:32Z</time>
      </trkpt>
      <trkpt lat="46.00931" lon="1.26951">
        <ele>383.22</ele>
        <time>2018-05-27T09:20:34Z</time>
      </trkpt>
      <trkpt lat="46.00923" lon="1.26964">
        <ele>383.7</ele>
        <time>2018-05-27T09:20:44Z</time>
      </trkpt>
      <trkpt lat="46.0092" lon="1.26983">
        <ele>379.86</ele>
        <time>2018-05-27T09:20:55Z</time>
      </trkpt>
      <trkpt lat="46.00921" lon="1.26984">
        <ele>384.18</ele>
        <time>2018-05-27T09:20:56Z</time>
      </trkpt>
      <trkpt lat="46.0092" lon="1.26986">
        <ele>388.03</ele>
        <time>2018-05-27T09:20:57Z</time>
      </trkpt>
      <trkpt lat="46.0092" lon="1.26989">
        <ele>383.7</ele>
        <time>2018-05-27T09:20:58Z</time>
      </trkpt>
      <trkpt lat="46.0092" lon="1.27026">
        <ele>384.66</ele>
        <time>2018-05-27T09:21:11Z</time>
      </trkpt>
      <trkpt lat="46.00926" lon="1.27063">
        <ele>385.15</ele>
        <time>2018-05-27T09:21:25Z</time>
      </trkpt>
      <trkpt lat="46.0093" lon="1.27096">
        <ele>386.59</ele>
        <time>2018-05-27T09:21:38Z</time>
      </trkpt>
      <trkpt lat="46.00928" lon="1.27138">
        <ele>387.55</ele>
        <time>2018-05-27T09:21:51Z</time>
      </trkpt>
      <trkpt lat="46.00932" lon="1.27148">
        <ele>388.51</ele>
        <time>2018-05-27T09:21:56Z</time>
      </trkpt>
      <trkpt lat="46.00939" lon="1.27154">
        <ele>388.99</ele>
        <time>2018-05-27T09:22:08Z</time>
      </trkpt>
      <trkpt lat="46.00939" lon="1.27154">
        <ele>384.18</ele>
        <time>2018-05-27T09:22:09Z</time>
      </trkpt>
      <trkpt lat="46.00939" lon="1.27154">
        <ele>391.39</ele>
        <time>2018-05-27T09:22:10Z</time>
      </trkpt>
      <trkpt lat="46.00939" lon="1.27154">
        <ele>388.03</ele>
        <time>2018-05-27T09:22:13Z</time>
      </trkpt>
      <trkpt lat="46.00939" lon="1.27154">
        <ele>384.18</ele>
        <time>2018-05-27T09:22:14Z</time>
      </trkpt>
      <trkpt lat="46.00939" lon="1.27154">
        <ele>389.95</ele>
        <time>2018-05-27T09:22:15Z</time>
      </trkpt>
      <trkpt lat="46.00941" lon="1.27154">
        <ele>389.47</ele>
        <time>2018-05-27T09:22:44Z</time>
      </trkpt>
      <trkpt lat="46.00942" lon="1.27153">
        <ele>388.99</ele>
        <time>2018-05-27T09:23:04Z</time>
      </trkpt>
      <trkpt lat="46.00932" lon="1.27148">
        <ele>388.51</ele>
        <time>2018-05-27T09:23:10Z</time>
      </trkpt>
      <trkpt lat="46.00915" lon="1.27169">
        <ele>390.43</ele>
        <time>2018-05-27T09:23:19Z</time>
      </trkpt>
      <trkpt lat="46.00916" lon="1.27204">
        <ele>391.87</ele>
        <time>2018-05-27T09:23:30Z</time>
      </trkpt>
      <trkpt lat="46.00922" lon="1.27218">
        <ele>395.24</ele>
        <time>2018-05-27T09:23:35Z</time>
      </trkpt>
      <trkpt lat="46.00926" lon="1.27227">
        <ele>396.68</ele>
        <time>2018-05-27T09:23:38Z</time>
      </trkpt>
      <trkpt lat="46.00941" lon="1.27254">
        <ele>399.08</ele>
        <time>2018-05-27T09:23:49Z</time>
      </trkpt>
      <trkpt lat="46.00955" lon="1.27275">
        <ele>404.37</ele>
        <time>2018-05-27T09:23:59Z</time>
      </trkpt>
      <trkpt lat="46.00984" lon="1.27314">
        <ele>403.89</ele>
        <time>2018-05-27T09:24:12Z</time>
      </trkpt>
      <trkpt lat="46.01003" lon="1.27351">
        <ele>406.29</ele>
        <time>2018-05-27T09:24:25Z</time>
      </trkpt>
      <trkpt lat="46.01005" lon="1.27357">
        <ele>406.77</ele>
        <time>2018-05-27T09:24:27Z</time>
      </trkpt>
      <trkpt lat="46.01008" lon="1.2737">
        <ele>406.77</ele>
        <time>2018-05-27T09:24:31Z</time>
      </trkpt>
      <trkpt lat="46.01021" lon="1.27399">
        <ele>408.22</ele>
        <time>2018-05-27T09:24:39Z</time>
      </trkpt>
      <trkpt lat="46.01049" lon="1.27432">
        <ele>409.66</ele>
        <time>2018-05-27T09:24:53Z</time>
      </trkpt>
      <trkpt lat="46.01079" lon="1.27473">
        <ele>410.62</ele>
        <time>2018-05-27T09:25:08Z</time>
      </trkpt>
      <trkpt lat="46.01104" lon="1.27529">
        <ele>412.54</ele>
        <time>2018-05-27T09:25:23Z</time>
      </trkpt>
      <trkpt lat="46.01125" lon="1.27576">
        <ele>414.95</ele>
        <time>2018-05-27T09:25:37Z</time>
      </trkpt>
      <trkpt lat="46.01131" lon="1.276">
        <ele>414.47</ele>
        <time>2018-05-27T09:25:50Z</time>
      </trkpt>
      <trkpt lat="46.01132" lon="1.276">
        <ele>411.1</ele>
        <time>2018-05-27T09:26:01Z</time>
      </trkpt>
      <trkpt lat="46.01132" lon="1.276">
        <ele>415.91</ele>
        <time>2018-05-27T09:26:02Z</time>
      </trkpt>
      <trkpt lat="46.01132" lon="1.276">
        <ele>420.71</ele>
        <time>2018-05-27T09:26:10Z</time>
      </trkpt>
      <trkpt lat="46.01132" lon="1.276">
        <ele>414.95</ele>
        <time>2018-05-27T09:26:11Z</time>
      </trkpt>
      <trkpt lat="46.01131" lon="1.27601">
        <ele>410.62</ele>
        <time>2018-05-27T09:26:19Z</time>
      </trkpt>
      <trkpt lat="46.01131" lon="1.27601">
        <ele>414.95</ele>
        <time>2018-05-27T09:26:20Z</time>
      </trkpt>
      <trkpt lat="46.01131" lon="1.27601">
        <ele>414.95</ele>
        <time>2018-05-27T09:26:45Z</time>
      </trkpt>
      <trkpt lat="46.01134" lon="1.27599">
        <ele>414.47</ele>
        <time>2018-05-27T09:27:13Z</time>
      </trkpt>
      <trkpt lat="46.01132" lon="1.276">
        <ele>414.95</ele>
        <time>2018-05-27T09:27:41Z</time>
      </trkpt>
      <trkpt lat="46.01131" lon="1.27602">
        <ele>414.95</ele>
        <time>2018-05-27T09:28:08Z</time>
      </trkpt>
      <trkpt lat="46.01132" lon="1.27604">
        <ele>414.95</ele>
        <time>2018-05-27T09:28:38Z</time>
      </trkpt>
      <trkpt lat="46.01136" lon="1.27604">
        <ele>414.95</ele>
        <time>2018-05-27T09:29:13Z</time>
      </trkpt>
      <trkpt lat="46.01137" lon="1.27603">
        <ele>415.43</ele>
        <time>2018-05-27T09:29:41Z</time>
      </trkpt>
      <trkpt lat="46.01137" lon="1.27602">
        <ele>419.75</ele>
        <time>2018-05-27T09:29:53Z</time>
      </trkpt>
      <trkpt lat="46.01137" lon="1.27602">
        <ele>418.79</ele>
        <time>2018-05-27T09:29:54Z</time>
      </trkpt>
      <trkpt lat="46.01137" lon="1.27602">
        <ele>414.95</ele>
        <time>2018-05-27T09:29:55Z</time>
      </trkpt>
      <trkpt lat="46.01137" lon="1.27602">
        <ele>415.43</ele>
        <time>2018-05-27T09:29:56Z</time>
      </trkpt>
      <trkpt lat="46.01138" lon="1.27601">
        <ele>418.79</ele>
        <time>2018-05-27T09:30:06Z</time>
      </trkpt>
      <trkpt lat="46.01138" lon="1.27601">
        <ele>415.43</ele>
        <time>2018-05-27T09:30:07Z</time>
      </trkpt>
      <trkpt lat="46.01138" lon="1.276">
        <ele>411.58</ele>
        <time>2018-05-27T09:30:19Z</time>
      </trkpt>
      <trkpt lat="46.01138" lon="1.276">
        <ele>415.91</ele>
        <time>2018-05-27T09:30:20Z</time>
      </trkpt>
      <trkpt lat="46.01138" lon="1.27601">
        <ele>415.91</ele>
        <time>2018-05-27T09:30:40Z</time>
      </trkpt>
      <trkpt lat="46.01138" lon="1.27601">
        <ele>416.87</ele>
        <time>2018-05-27T09:30:44Z</time>
      </trkpt>
      <trkpt lat="46.01138" lon="1.27601">
        <ele>413.5</ele>
        <time>2018-05-27T09:30:45Z</time>
      </trkpt>
      <trkpt lat="46.01138" lon="1.27601">
        <ele>416.87</ele>
        <time>2018-05-27T09:30:47Z</time>
      </trkpt>
      <trkpt lat="46.01139" lon="1.276">
        <ele>415.91</ele>
        <time>2018-05-27T09:31:07Z</time>
      </trkpt>
      <trkpt lat="46.01139" lon="1.276">
        <ele>415.91</ele>
        <time>2018-05-27T09:31:37Z</time>
      </trkpt>
      <trkpt lat="46.01139" lon="1.27599">
        <ele>416.39</ele>
        <time>2018-05-27T09:32:08Z</time>
      </trkpt>
      <trkpt lat="46.01138" lon="1.276">
        <ele>419.75</ele>
        <time>2018-05-27T09:32:39Z</time>
      </trkpt>
      <trkpt lat="46.01138" lon="1.276">
        <ele>416.39</ele>
        <time>2018-05-27T09:32:40Z</time>
      </trkpt>
      <trkpt lat="46.01138" lon="1.27599">
        <ele>415.91</ele>
        <time>2018-05-27T09:33:07Z</time>
      </trkpt>
      <trkpt lat="46.01138" lon="1.27599">
        <ele>415.91</ele>
        <time>2018-05-27T09:33:31Z</time>
      </trkpt>
      <trkpt lat="46.01138" lon="1.27599">
        <ele>416.39</ele>
        <time>2018-05-27T09:34:00Z</time>
      </trkpt>
      <trkpt lat="46.01137" lon="1.27599">
        <ele>416.39</ele>
        <time>2018-05-27T09:34:34Z</time>
      </trkpt>
      <trkpt lat="46.01138" lon="1.27598">
        <ele>416.39</ele>
        <time>2018-05-27T09:35:08Z</time>
      </trkpt>
      <trkpt lat="46.01138" lon="1.27598">
        <ele>416.39</ele>
        <time>2018-05-27T09:35:41Z</time>
      </trkpt>
      <trkpt lat="46.01139" lon="1.27599">
        <ele>416.39</ele>
        <time>2018-05-27T09:36:18Z</time>
      </trkpt>
      <trkpt lat="46.01139" lon="1.27596">
        <ele>416.39</ele>
        <time>2018-05-27T09:36:49Z</time>
      </trkpt>
      <trkpt lat="46.01139" lon="1.27598">
        <ele>416.39</ele>
        <time>2018-05-27T09:37:25Z</time>
      </trkpt>
      <trkpt lat="46.01139" lon="1.27598">
        <ele>415.91</ele>
        <time>2018-05-27T09:37:51Z</time>
      </trkpt>
      <trkpt lat="46.01138" lon="1.27598">
        <ele>415.43</ele>
        <time>2018-05-27T09:38:16Z</time>
      </trkpt>
      <trkpt lat="46.01138" lon="1.27598">
        <ele>415.91</ele>
        <time>2018-05-27T09:38:51Z</time>
      </trkpt>
      <trkpt lat="46.01139" lon="1.27598">
        <ele>415.91</ele>
        <time>2018-05-27T09:39:07Z</time>
      </trkpt>
      <trkpt lat="46.01139" lon="1.27598">
        <ele>416.39</ele>
        <time>2018-05-27T09:39:09Z</time>
      </trkpt>
      <trkpt lat="46.01148" lon="1.27627">
        <ele>415.43</ele>
        <time>2018-05-27T09:39:22Z</time>
      </trkpt>
      <trkpt lat="46.01169" lon="1.2768">
        <ele>413.02</ele>
        <time>2018-05-27T09:39:34Z</time>
      </trkpt>
      <trkpt lat="46.01172" lon="1.27688">
        <ele>413.02</ele>
        <time>2018-05-27T09:39:42Z</time>
      </trkpt>
      <trkpt lat="46.01201" lon="1.2771">
        <ele>413.98</ele>
        <time>2018-05-27T09:39:54Z</time>
      </trkpt>
      <trkpt lat="46.01251" lon="1.2774">
        <ele>411.58</ele>
        <time>2018-05-27T09:40:08Z</time>
      </trkpt>
      <trkpt lat="46.01265" lon="1.2775">
        <ele>411.1</ele>
        <time>2018-05-27T09:40:11Z</time>
      </trkpt>
      <trkpt lat="46.01271" lon="1.27753">
        <ele>410.14</ele>
        <time>2018-05-27T09:40:12Z</time>
      </trkpt>
      <trkpt lat="46.01277" lon="1.27757">
        <ele>410.14</ele>
        <time>2018-05-27T09:40:13Z</time>
      </trkpt>
      <trkpt lat="46.01295" lon="1.27769">
        <ele>408.7</ele>
        <time>2018-05-27T09:40:16Z</time>
      </trkpt>
      <trkpt lat="46.0131" lon="1.27777">
        <ele>407.74</ele>
        <time>2018-05-27T09:40:18Z</time>
      </trkpt>
      <trkpt lat="46.01407" lon="1.27825">
        <ele>405.33</ele>
        <time>2018-05-27T09:40:31Z</time>
      </trkpt>
      <trkpt lat="46.01457" lon="1.27828">
        <ele>403.41</ele>
        <time>2018-05-27T09:40:38Z</time>
      </trkpt>
      <trkpt lat="46.01463" lon="1.27829">
        <ele>403.41</ele>
        <time>2018-05-27T09:40:39Z</time>
      </trkpt>
      <trkpt lat="46.01492" lon="1.2783">
        <ele>403.89</ele>
        <time>2018-05-27T09:40:46Z</time>
      </trkpt>
      <trkpt lat="46.01496" lon="1.27831">
        <ele>403.89</ele>
        <time>2018-05-27T09:40:47Z</time>
      </trkpt>
      <trkpt lat="46.01515" lon="1.27832">
        <ele>403.41</ele>
        <time>2018-05-27T09:40:51Z</time>
      </trkpt>
      <trkpt lat="46.0153" lon="1.27833">
        <ele>403.41</ele>
        <time>2018-05-27T09:40:54Z</time>
      </trkpt>
      <trkpt lat="46.01535" lon="1.27833">
        <ele>402.93</ele>
        <time>2018-05-27T09:40:55Z</time>
      </trkpt>
      <trkpt lat="46.0159" lon="1.2784">
        <ele>402.93</ele>
        <time>2018-05-27T09:41:06Z</time>
      </trkpt>
      <trkpt lat="46.01611" lon="1.27851">
        <ele>403.41</ele>
        <time>2018-05-27T09:41:10Z</time>
      </trkpt>
      <trkpt lat="46.01677" lon="1.27888">
        <ele>404.85</ele>
        <time>2018-05-27T09:41:23Z</time>
      </trkpt>
      <trkpt lat="46.01762" lon="1.27908">
        <ele>404.85</ele>
        <time>2018-05-27T09:41:37Z</time>
      </trkpt>
      <trkpt lat="46.01839" lon="1.27925">
        <ele>406.29</ele>
        <time>2018-05-27T09:41:51Z</time>
      </trkpt>
      <trkpt lat="46.01909" lon="1.27935">
        <ele>405.81</ele>
        <time>2018-05-27T09:42:03Z</time>
      </trkpt>
      <trkpt lat="46.01915" lon="1.27933">
        <ele>405.81</ele>
        <time>2018-05-27T09:42:04Z</time>
      </trkpt>
      <trkpt lat="46.0192" lon="1.27931">
        <ele>406.29</ele>
        <time>2018-05-27T09:42:05Z</time>
      </trkpt>
      <trkpt lat="46.01926" lon="1.27928">
        <ele>406.77</ele>
        <time>2018-05-27T09:42:06Z</time>
      </trkpt>
      <trkpt lat="46.01931" lon="1.27924">
        <ele>406.29</ele>
        <time>2018-05-27T09:42:07Z</time>
      </trkpt>
      <trkpt lat="46.01935" lon="1.2792">
        <ele>406.29</ele>
        <time>2018-05-27T09:42:08Z</time>
      </trkpt>
      <trkpt lat="46.01944" lon="1.27911">
        <ele>406.77</ele>
        <time>2018-05-27T09:42:10Z</time>
      </trkpt>
      <trkpt lat="46.01947" lon="1.27906">
        <ele>407.26</ele>
        <time>2018-05-27T09:42:11Z</time>
      </trkpt>
      <trkpt lat="46.01953" lon="1.27895">
        <ele>407.26</ele>
        <time>2018-05-27T09:42:13Z</time>
      </trkpt>
      <trkpt lat="46.01981" lon="1.27851">
        <ele>409.66</ele>
        <time>2018-05-27T09:42:25Z</time>
      </trkpt>
      <trkpt lat="46.01981" lon="1.27848">
        <ele>409.66</ele>
        <time>2018-05-27T09:42:35Z</time>
      </trkpt>
      <trkpt lat="46.01982" lon="1.27846">
        <ele>410.14</ele>
        <time>2018-05-27T09:42:49Z</time>
      </trkpt>
      <trkpt lat="46.01982" lon="1.27845">
        <ele>409.66</ele>
        <time>2018-05-27T09:43:02Z</time>
      </trkpt>
      <trkpt lat="46.01983" lon="1.27817">
        <ele>408.7</ele>
        <time>2018-05-27T09:43:12Z</time>
      </trkpt>
      <trkpt lat="46.01975" lon="1.27774">
        <ele>406.29</ele>
        <time>2018-05-27T09:43:20Z</time>
      </trkpt>
      <trkpt lat="46.01975" lon="1.27722">
        <ele>404.37</ele>
        <time>2018-05-27T09:43:26Z</time>
      </trkpt>
      <trkpt lat="46.01989" lon="1.27574">
        <ele>401.97</ele>
        <time>2018-05-27T09:43:41Z</time>
      </trkpt>
      <trkpt lat="46.01982" lon="1.27459">
        <ele>401.49</ele>
        <time>2018-05-27T09:43:54Z</time>
      </trkpt>
      <trkpt lat="46.01948" lon="1.2733">
        <ele>398.12</ele>
        <time>2018-05-27T09:44:09Z</time>
      </trkpt>
      <trkpt lat="46.01945" lon="1.27321">
        <ele>398.12</ele>
        <time>2018-05-27T09:44:10Z</time>
      </trkpt>
      <trkpt lat="46.01912" lon="1.27197">
        <ele>397.64</ele>
        <time>2018-05-27T09:44:23Z</time>
      </trkpt>
      <trkpt lat="46.01872" lon="1.27051">
        <ele>395.24</ele>
        <time>2018-05-27T09:44:39Z</time>
      </trkpt>
      <trkpt lat="46.01866" lon="1.27032">
        <ele>394.76</ele>
        <time>2018-05-27T09:44:41Z</time>
      </trkpt>
      <trkpt lat="46.0185" lon="1.26968">
        <ele>391.39</ele>
        <time>2018-05-27T09:44:47Z</time>
      </trkpt>
      <trkpt lat="46.01848" lon="1.26957">
        <ele>391.39</ele>
        <time>2018-05-27T09:44:48Z</time>
      </trkpt>
      <trkpt lat="46.01847" lon="1.26946">
        <ele>389.95</ele>
        <time>2018-05-27T09:44:49Z</time>
      </trkpt>
      <trkpt lat="46.01846" lon="1.26935">
        <ele>390.43</ele>
        <time>2018-05-27T09:44:50Z</time>
      </trkpt>
      <trkpt lat="46.01846" lon="1.26923">
        <ele>389.47</ele>
        <time>2018-05-27T09:44:51Z</time>
      </trkpt>
      <trkpt lat="46.01847" lon="1.26911">
        <ele>389.47</ele>
        <time>2018-05-27T09:44:52Z</time>
      </trkpt>
      <trkpt lat="46.01847" lon="1.26898">
        <ele>388.03</ele>
        <time>2018-05-27T09:44:53Z</time>
      </trkpt>
      <trkpt lat="46.01845" lon="1.26885">
        <ele>387.55</ele>
        <time>2018-05-27T09:44:54Z</time>
      </trkpt>
      <trkpt lat="46.01843" lon="1.26872">
        <ele>386.11</ele>
        <time>2018-05-27T09:44:55Z</time>
      </trkpt>
      <trkpt lat="46.01835" lon="1.26833">
        <ele>384.66</ele>
        <time>2018-05-27T09:44:58Z</time>
      </trkpt>
      <trkpt lat="46.01833" lon="1.26819">
        <ele>384.18</ele>
        <time>2018-05-27T09:44:59Z</time>
      </trkpt>
      <trkpt lat="46.01833" lon="1.26804">
        <ele>383.22</ele>
        <time>2018-05-27T09:45:00Z</time>
      </trkpt>
      <trkpt lat="46.01833" lon="1.2679">
        <ele>382.26</ele>
        <time>2018-05-27T09:45:01Z</time>
      </trkpt>
      <trkpt lat="46.01834" lon="1.2676">
        <ele>381.3</ele>
        <time>2018-05-27T09:45:03Z</time>
      </trkpt>
      <trkpt lat="46.01833" lon="1.26745">
        <ele>381.3</ele>
        <time>2018-05-27T09:45:04Z</time>
      </trkpt>
      <trkpt lat="46.0183" lon="1.26729">
        <ele>379.86</ele>
        <time>2018-05-27T09:45:05Z</time>
      </trkpt>
      <trkpt lat="46.01825" lon="1.26715">
        <ele>377.94</ele>
        <time>2018-05-27T09:45:06Z</time>
      </trkpt>
      <trkpt lat="46.01819" lon="1.26701">
        <ele>377.45</ele>
        <time>2018-05-27T09:45:07Z</time>
      </trkpt>
      <trkpt lat="46.01812" lon="1.26687">
        <ele>376.49</ele>
        <time>2018-05-27T09:45:08Z</time>
      </trkpt>
      <trkpt lat="46.01798" lon="1.2666">
        <ele>373.61</ele>
        <time>2018-05-27T09:45:10Z</time>
      </trkpt>
      <trkpt lat="46.0179" lon="1.26648">
        <ele>373.13</ele>
        <time>2018-05-27T09:45:11Z</time>
      </trkpt>
      <trkpt lat="46.01781" lon="1.26637">
        <ele>371.69</ele>
        <time>2018-05-27T09:45:12Z</time>
      </trkpt>
      <trkpt lat="46.01772" lon="1.26627">
        <ele>371.69</ele>
        <time>2018-05-27T09:45:13Z</time>
      </trkpt>
      <trkpt lat="46.01763" lon="1.26618">
        <ele>371.21</ele>
        <time>2018-05-27T09:45:14Z</time>
      </trkpt>
      <trkpt lat="46.01755" lon="1.26608">
        <ele>371.21</ele>
        <time>2018-05-27T09:45:15Z</time>
      </trkpt>
      <trkpt lat="46.0175" lon="1.26597">
        <ele>369.76</ele>
        <time>2018-05-27T09:45:16Z</time>
      </trkpt>
      <trkpt lat="46.01747" lon="1.26585">
        <ele>369.28</ele>
        <time>2018-05-27T09:45:17Z</time>
      </trkpt>
      <trkpt lat="46.01749" lon="1.26571">
        <ele>368.8</ele>
        <time>2018-05-27T09:45:18Z</time>
      </trkpt>
      <trkpt lat="46.01752" lon="1.26558">
        <ele>367.36</ele>
        <time>2018-05-27T09:45:19Z</time>
      </trkpt>
      <trkpt lat="46.01756" lon="1.26545">
        <ele>366.88</ele>
        <time>2018-05-27T09:45:20Z</time>
      </trkpt>
      <trkpt lat="46.01759" lon="1.26532">
        <ele>366.4</ele>
        <time>2018-05-27T09:45:21Z</time>
      </trkpt>
      <trkpt lat="46.01762" lon="1.26518">
        <ele>365.44</ele>
        <time>2018-05-27T09:45:22Z</time>
      </trkpt>
      <trkpt lat="46.01763" lon="1.26504">
        <ele>364.48</ele>
        <time>2018-05-27T09:45:23Z</time>
      </trkpt>
      <trkpt lat="46.01768" lon="1.26435">
        <ele>365.92</ele>
        <time>2018-05-27T09:45:28Z</time>
      </trkpt>
      <trkpt lat="46.0177" lon="1.26424">
        <ele>367.36</ele>
        <time>2018-05-27T09:45:29Z</time>
      </trkpt>
      <trkpt lat="46.01774" lon="1.26415">
        <ele>366.88</ele>
        <time>2018-05-27T09:45:30Z</time>
      </trkpt>
      <trkpt lat="46.01777" lon="1.26407">
        <ele>368.32</ele>
        <time>2018-05-27T09:45:31Z</time>
      </trkpt>
      <trkpt lat="46.01781" lon="1.26399">
        <ele>368.32</ele>
        <time>2018-05-27T09:45:32Z</time>
      </trkpt>
      <trkpt lat="46.01785" lon="1.26393">
        <ele>368.8</ele>
        <time>2018-05-27T09:45:33Z</time>
      </trkpt>
      <trkpt lat="46.01789" lon="1.26387">
        <ele>369.28</ele>
        <time>2018-05-27T09:45:34Z</time>
      </trkpt>
      <trkpt lat="46.01796" lon="1.26376">
        <ele>370.24</ele>
        <time>2018-05-27T09:45:36Z</time>
      </trkpt>
      <trkpt lat="46.01811" lon="1.26348">
        <ele>371.21</ele>
        <time>2018-05-27T09:45:41Z</time>
      </trkpt>
      <trkpt lat="46.01814" lon="1.26341">
        <ele>371.21</ele>
        <time>2018-05-27T09:45:42Z</time>
      </trkpt>
      <trkpt lat="46.01818" lon="1.26326">
        <ele>371.69</ele>
        <time>2018-05-27T09:45:44Z</time>
      </trkpt>
      <trkpt lat="46.01819" lon="1.26318">
        <ele>371.21</ele>
        <time>2018-05-27T09:45:45Z</time>
      </trkpt>
      <trkpt lat="46.0182" lon="1.2631">
        <ele>371.69</ele>
        <time>2018-05-27T09:45:46Z</time>
      </trkpt>
      <trkpt lat="46.01821" lon="1.26302">
        <ele>371.69</ele>
        <time>2018-05-27T09:45:47Z</time>
      </trkpt>
      <trkpt lat="46.01821" lon="1.26293">
        <ele>371.69</ele>
        <time>2018-05-27T09:45:48Z</time>
      </trkpt>
      <trkpt lat="46.01818" lon="1.26193">
        <ele>370.73</ele>
        <time>2018-05-27T09:45:59Z</time>
      </trkpt>
      <trkpt lat="46.01816" lon="1.26185">
        <ele>370.73</ele>
        <time>2018-05-27T09:46:00Z</time>
      </trkpt>
      <trkpt lat="46.01813" lon="1.26176">
        <ele>370.73</ele>
        <time>2018-05-27T09:46:01Z</time>
      </trkpt>
      <trkpt lat="46.01809" lon="1.26168">
        <ele>370.73</ele>
        <time>2018-05-27T09:46:02Z</time>
      </trkpt>
      <trkpt lat="46.01806" lon="1.2616">
        <ele>370.73</ele>
        <time>2018-05-27T09:46:03Z</time>
      </trkpt>
      <trkpt lat="46.01802" lon="1.26152">
        <ele>371.21</ele>
        <time>2018-05-27T09:46:04Z</time>
      </trkpt>
      <trkpt lat="46.01771" lon="1.26089">
        <ele>370.73</ele>
        <time>2018-05-27T09:46:12Z</time>
      </trkpt>
      <trkpt lat="46.01768" lon="1.2608">
        <ele>370.24</ele>
        <time>2018-05-27T09:46:13Z</time>
      </trkpt>
      <trkpt lat="46.01766" lon="1.26071">
        <ele>370.24</ele>
        <time>2018-05-27T09:46:14Z</time>
      </trkpt>
      <trkpt lat="46.01765" lon="1.26061">
        <ele>370.24</ele>
        <time>2018-05-27T09:46:15Z</time>
      </trkpt>
      <trkpt lat="46.01766" lon="1.26051">
        <ele>370.73</ele>
        <time>2018-05-27T09:46:16Z</time>
      </trkpt>
      <trkpt lat="46.01767" lon="1.26041">
        <ele>370.24</ele>
        <time>2018-05-27T09:46:17Z</time>
      </trkpt>
      <trkpt lat="46.01769" lon="1.26032">
        <ele>370.73</ele>
        <time>2018-05-27T09:46:18Z</time>
      </trkpt>
      <trkpt lat="46.01772" lon="1.26013">
        <ele>370.24</ele>
        <time>2018-05-27T09:46:20Z</time>
      </trkpt>
      <trkpt lat="46.01772" lon="1.26004">
        <ele>369.76</ele>
        <time>2018-05-27T09:46:21Z</time>
      </trkpt>
      <trkpt lat="46.0177" lon="1.25994">
        <ele>369.28</ele>
        <time>2018-05-27T09:46:22Z</time>
      </trkpt>
      <trkpt lat="46.01766" lon="1.25986">
        <ele>369.28</ele>
        <time>2018-05-27T09:46:23Z</time>
      </trkpt>
      <trkpt lat="46.01761" lon="1.2598">
        <ele>369.28</ele>
        <time>2018-05-27T09:46:24Z</time>
      </trkpt>
      <trkpt lat="46.01755" lon="1.25976">
        <ele>368.32</ele>
        <time>2018-05-27T09:46:25Z</time>
      </trkpt>
      <trkpt lat="46.01748" lon="1.25973">
        <ele>368.32</ele>
        <time>2018-05-27T09:46:26Z</time>
      </trkpt>
      <trkpt lat="46.01742" lon="1.2597">
        <ele>368.32</ele>
        <time>2018-05-27T09:46:27Z</time>
      </trkpt>
      <trkpt lat="46.01735" lon="1.25967">
        <ele>368.32</ele>
        <time>2018-05-27T09:46:28Z</time>
      </trkpt>
      <trkpt lat="46.01723" lon="1.25959">
        <ele>368.8</ele>
        <time>2018-05-27T09:46:30Z</time>
      </trkpt>
      <trkpt lat="46.01717" lon="1.25954">
        <ele>368.8</ele>
        <time>2018-05-27T09:46:31Z</time>
      </trkpt>
      <trkpt lat="46.01713" lon="1.25947">
        <ele>368.8</ele>
        <time>2018-05-27T09:46:32Z</time>
      </trkpt>
      <trkpt lat="46.01708" lon="1.2594">
        <ele>368.32</ele>
        <time>2018-05-27T09:46:33Z</time>
      </trkpt>
      <trkpt lat="46.01704" lon="1.25931">
        <ele>368.32</ele>
        <time>2018-05-27T09:46:34Z</time>
      </trkpt>
      <trkpt lat="46.01701" lon="1.25922">
        <ele>367.84</ele>
        <time>2018-05-27T09:46:35Z</time>
      </trkpt>
      <trkpt lat="46.01698" lon="1.25914">
        <ele>368.32</ele>
        <time>2018-05-27T09:46:36Z</time>
      </trkpt>
      <trkpt lat="46.01688" lon="1.25888">
        <ele>367.36</ele>
        <time>2018-05-27T09:46:39Z</time>
      </trkpt>
      <trkpt lat="46.01676" lon="1.25863">
        <ele>366.88</ele>
        <time>2018-05-27T09:46:42Z</time>
      </trkpt>
      <trkpt lat="46.01671" lon="1.25856">
        <ele>366.4</ele>
        <time>2018-05-27T09:46:43Z</time>
      </trkpt>
      <trkpt lat="46.01666" lon="1.2585">
        <ele>365.92</ele>
        <time>2018-05-27T09:46:44Z</time>
      </trkpt>
      <trkpt lat="46.0166" lon="1.25844">
        <ele>365.44</ele>
        <time>2018-05-27T09:46:45Z</time>
      </trkpt>
      <trkpt lat="46.01653" lon="1.2584">
        <ele>365.92</ele>
        <time>2018-05-27T09:46:46Z</time>
      </trkpt>
      <trkpt lat="46.01646" lon="1.25836">
        <ele>365.44</ele>
        <time>2018-05-27T09:46:47Z</time>
      </trkpt>
      <trkpt lat="46.0164" lon="1.25832">
        <ele>365.44</ele>
        <time>2018-05-27T09:46:48Z</time>
      </trkpt>
      <trkpt lat="46.01612" lon="1.25816">
        <ele>365.92</ele>
        <time>2018-05-27T09:46:52Z</time>
      </trkpt>
      <trkpt lat="46.01598" lon="1.25805">
        <ele>365.44</ele>
        <time>2018-05-27T09:46:54Z</time>
      </trkpt>
      <trkpt lat="46.01593" lon="1.25798">
        <ele>365.92</ele>
        <time>2018-05-27T09:46:55Z</time>
      </trkpt>
      <trkpt lat="46.01588" lon="1.25791">
        <ele>366.88</ele>
        <time>2018-05-27T09:46:56Z</time>
      </trkpt>
      <trkpt lat="46.0158" lon="1.25771">
        <ele>367.84</ele>
        <time>2018-05-27T09:46:59Z</time>
      </trkpt>
      <trkpt lat="46.01572" lon="1.25739">
        <ele>370.73</ele>
        <time>2018-05-27T09:47:03Z</time>
      </trkpt>
      <trkpt lat="46.01563" lon="1.25705">
        <ele>372.17</ele>
        <time>2018-05-27T09:47:08Z</time>
      </trkpt>
      <trkpt lat="46.0156" lon="1.25692">
        <ele>372.65</ele>
        <time>2018-05-27T09:47:10Z</time>
      </trkpt>
      <trkpt lat="46.01558" lon="1.25685">
        <ele>373.13</ele>
        <time>2018-05-27T09:47:11Z</time>
      </trkpt>
      <trkpt lat="46.01551" lon="1.25659">
        <ele>374.09</ele>
        <time>2018-05-27T09:47:15Z</time>
      </trkpt>
      <trkpt lat="46.01546" lon="1.25639">
        <ele>375.53</ele>
        <time>2018-05-27T09:47:18Z</time>
      </trkpt>
      <trkpt lat="46.01545" lon="1.25619">
        <ele>376.01</ele>
        <time>2018-05-27T09:47:21Z</time>
      </trkpt>
      <trkpt lat="46.01546" lon="1.25612">
        <ele>376.97</ele>
        <time>2018-05-27T09:47:22Z</time>
      </trkpt>
      <trkpt lat="46.01547" lon="1.25606">
        <ele>376.97</ele>
        <time>2018-05-27T09:47:23Z</time>
      </trkpt>
      <trkpt lat="46.01549" lon="1.256">
        <ele>377.94</ele>
        <time>2018-05-27T09:47:24Z</time>
      </trkpt>
      <trkpt lat="46.01551" lon="1.25594">
        <ele>378.9</ele>
        <time>2018-05-27T09:47:25Z</time>
      </trkpt>
      <trkpt lat="46.01553" lon="1.25589">
        <ele>378.42</ele>
        <time>2018-05-27T09:47:26Z</time>
      </trkpt>
      <trkpt lat="46.01556" lon="1.25584">
        <ele>378.42</ele>
        <time>2018-05-27T09:47:27Z</time>
      </trkpt>
      <trkpt lat="46.01562" lon="1.25575">
        <ele>379.86</ele>
        <time>2018-05-27T09:47:30Z</time>
      </trkpt>
      <trkpt lat="46.01592" lon="1.25564">
        <ele>383.22</ele>
        <time>2018-05-27T09:47:39Z</time>
      </trkpt>
      <trkpt lat="46.01614" lon="1.25561">
        <ele>385.63</ele>
        <time>2018-05-27T09:47:46Z</time>
      </trkpt>
      <trkpt lat="46.01647" lon="1.2556">
        <ele>387.55</ele>
        <time>2018-05-27T09:47:56Z</time>
      </trkpt>
      <trkpt lat="46.01689" lon="1.25575">
        <ele>390.91</ele>
        <time>2018-05-27T09:48:09Z</time>
      </trkpt>
      <trkpt lat="46.01726" lon="1.25604">
        <ele>393.32</ele>
        <time>2018-05-27T09:48:23Z</time>
      </trkpt>
      <trkpt lat="46.01754" lon="1.25625">
        <ele>394.76</ele>
        <time>2018-05-27T09:48:36Z</time>
      </trkpt>
      <trkpt lat="46.0176" lon="1.2563">
        <ele>395.24</ele>
        <time>2018-05-27T09:48:47Z</time>
      </trkpt>
      <trkpt lat="46.01765" lon="1.25631">
        <ele>395.24</ele>
        <time>2018-05-27T09:48:52Z</time>
      </trkpt>
      <trkpt lat="46.01767" lon="1.25632">
        <ele>394.76</ele>
        <time>2018-05-27T09:48:53Z</time>
      </trkpt>
      <trkpt lat="46.01802" lon="1.25644">
        <ele>393.8</ele>
        <time>2018-05-27T09:49:06Z</time>
      </trkpt>
      <trkpt lat="46.01856" lon="1.25651">
        <ele>393.8</ele>
        <time>2018-05-27T09:49:21Z</time>
      </trkpt>
      <trkpt lat="46.01888" lon="1.25618">
        <ele>394.28</ele>
        <time>2018-05-27T09:49:32Z</time>
      </trkpt>
      <trkpt lat="46.01902" lon="1.25597">
        <ele>394.76</ele>
        <time>2018-05-27T09:49:40Z</time>
      </trkpt>
      <trkpt lat="46.01902" lon="1.25594">
        <ele>394.76</ele>
        <time>2018-05-27T09:49:41Z</time>
      </trkpt>
      <trkpt lat="46.01913" lon="1.25548">
        <ele>392.84</ele>
        <time>2018-05-27T09:49:53Z</time>
      </trkpt>
      <trkpt lat="46.01915" lon="1.25521">
        <ele>392.36</ele>
        <time>2018-05-27T09:50:00Z</time>
      </trkpt>
      <trkpt lat="46.01914" lon="1.25517">
        <ele>392.84</ele>
        <time>2018-05-27T09:50:02Z</time>
      </trkpt>
      <trkpt lat="46.01913" lon="1.25516">
        <ele>392.84</ele>
        <time>2018-05-27T09:50:03Z</time>
      </trkpt>
      <trkpt lat="46.01911" lon="1.25514">
        <ele>392.84</ele>
        <time>2018-05-27T09:50:04Z</time>
      </trkpt>
      <trkpt lat="46.0191" lon="1.25512">
        <ele>392.36</ele>
        <time>2018-05-27T09:50:05Z</time>
      </trkpt>
      <trkpt lat="46.0191" lon="1.2551">
        <ele>392.84</ele>
        <time>2018-05-27T09:50:15Z</time>
      </trkpt>
      <trkpt lat="46.0191" lon="1.25511">
        <ele>388.99</ele>
        <time>2018-05-27T09:50:34Z</time>
      </trkpt>
      <trkpt lat="46.0191" lon="1.25511">
        <ele>391.39</ele>
        <time>2018-05-27T09:50:35Z</time>
      </trkpt>
      <trkpt lat="46.01911" lon="1.25511">
        <ele>391.87</ele>
        <time>2018-05-27T09:50:37Z</time>
      </trkpt>
      <trkpt lat="46.01911" lon="1.25511">
        <ele>392.84</ele>
        <time>2018-05-27T09:51:07Z</time>
      </trkpt>
      <trkpt lat="46.0191" lon="1.25511">
        <ele>396.2</ele>
        <time>2018-05-27T09:51:15Z</time>
      </trkpt>
      <trkpt lat="46.0191" lon="1.25511">
        <ele>392.36</ele>
        <time>2018-05-27T09:51:17Z</time>
      </trkpt>
      <trkpt lat="46.0191" lon="1.2551">
        <ele>399.08</ele>
        <time>2018-05-27T09:51:18Z</time>
      </trkpt>
      <trkpt lat="46.0191" lon="1.2551">
        <ele>392.84</ele>
        <time>2018-05-27T09:51:19Z</time>
      </trkpt>
      <trkpt lat="46.0191" lon="1.2551">
        <ele>392.36</ele>
        <time>2018-05-27T09:51:24Z</time>
      </trkpt>
      <trkpt lat="46.0191" lon="1.25504">
        <ele>392.84</ele>
        <time>2018-05-27T09:51:28Z</time>
      </trkpt>
      <trkpt lat="46.01907" lon="1.25455">
        <ele>393.32</ele>
        <time>2018-05-27T09:51:40Z</time>
      </trkpt>
      <trkpt lat="46.01914" lon="1.25388">
        <ele>395.72</ele>
        <time>2018-05-27T09:51:52Z</time>
      </trkpt>
      <trkpt lat="46.01926" lon="1.25329">
        <ele>397.64</ele>
        <time>2018-05-27T09:52:04Z</time>
      </trkpt>
      <trkpt lat="46.01915" lon="1.25294">
        <ele>398.12</ele>
        <time>2018-05-27T09:52:15Z</time>
      </trkpt>
      <trkpt lat="46.0189" lon="1.25257">
        <ele>397.16</ele>
        <time>2018-05-27T09:52:28Z</time>
      </trkpt>
      <trkpt lat="46.01863" lon="1.25197">
        <ele>396.2</ele>
        <time>2018-05-27T09:52:40Z</time>
      </trkpt>
      <trkpt lat="46.01861" lon="1.25191">
        <ele>396.2</ele>
        <time>2018-05-27T09:52:41Z</time>
      </trkpt>
      <trkpt lat="46.01841" lon="1.25133">
        <ele>393.8</ele>
        <time>2018-05-27T09:52:50Z</time>
      </trkpt>
      <trkpt lat="46.01839" lon="1.25126">
        <ele>393.8</ele>
        <time>2018-05-27T09:52:51Z</time>
      </trkpt>
      <trkpt lat="46.01834" lon="1.25113">
        <ele>393.32</ele>
        <time>2018-05-27T09:52:53Z</time>
      </trkpt>
      <trkpt lat="46.01832" lon="1.25106">
        <ele>393.32</ele>
        <time>2018-05-27T09:52:54Z</time>
      </trkpt>
      <trkpt lat="46.01829" lon="1.25102">
        <ele>392.84</ele>
        <time>2018-05-27T09:52:55Z</time>
      </trkpt>
      <trkpt lat="46.01827" lon="1.25098">
        <ele>393.32</ele>
        <time>2018-05-27T09:52:56Z</time>
      </trkpt>
      <trkpt lat="46.01825" lon="1.25094">
        <ele>392.84</ele>
        <time>2018-05-27T09:52:57Z</time>
      </trkpt>
      <trkpt lat="46.01797" lon="1.25052">
        <ele>391.39</ele>
        <time>2018-05-27T09:53:08Z</time>
      </trkpt>
      <trkpt lat="46.01769" lon="1.25016">
        <ele>390.43</ele>
        <time>2018-05-27T09:53:17Z</time>
      </trkpt>
      <trkpt lat="46.01765" lon="1.25011">
        <ele>389.95</ele>
        <time>2018-05-27T09:53:18Z</time>
      </trkpt>
      <trkpt lat="46.0174" lon="1.24976">
        <ele>388.51</ele>
        <time>2018-05-27T09:53:25Z</time>
      </trkpt>
      <trkpt lat="46.01736" lon="1.2497">
        <ele>388.99</ele>
        <time>2018-05-27T09:53:26Z</time>
      </trkpt>
      <trkpt lat="46.01733" lon="1.24965">
        <ele>388.51</ele>
        <time>2018-05-27T09:53:27Z</time>
      </trkpt>
      <trkpt lat="46.01717" lon="1.24932">
        <ele>388.03</ele>
        <time>2018-05-27T09:53:33Z</time>
      </trkpt>
      <trkpt lat="46.01704" lon="1.24913">
        <ele>388.51</ele>
        <time>2018-05-27T09:53:37Z</time>
      </trkpt>
      <trkpt lat="46.01699" lon="1.2491">
        <ele>388.99</ele>
        <time>2018-05-27T09:53:38Z</time>
      </trkpt>
      <trkpt lat="46.01695" lon="1.24908">
        <ele>388.99</ele>
        <time>2018-05-27T09:53:39Z</time>
      </trkpt>
      <trkpt lat="46.0169" lon="1.24907">
        <ele>388.99</ele>
        <time>2018-05-27T09:53:40Z</time>
      </trkpt>
      <trkpt lat="46.01686" lon="1.24905">
        <ele>388.99</ele>
        <time>2018-05-27T09:53:41Z</time>
      </trkpt>
      <trkpt lat="46.01681" lon="1.24904">
        <ele>388.99</ele>
        <time>2018-05-27T09:53:42Z</time>
      </trkpt>
      <trkpt lat="46.01676" lon="1.24904">
        <ele>389.47</ele>
        <time>2018-05-27T09:53:43Z</time>
      </trkpt>
      <trkpt lat="46.01671" lon="1.24905">
        <ele>389.47</ele>
        <time>2018-05-27T09:53:44Z</time>
      </trkpt>
      <trkpt lat="46.01626" lon="1.24906">
        <ele>388.03</ele>
        <time>2018-05-27T09:53:53Z</time>
      </trkpt>
      <trkpt lat="46.01622" lon="1.24904">
        <ele>387.55</ele>
        <time>2018-05-27T09:53:54Z</time>
      </trkpt>
      <trkpt lat="46.01617" lon="1.24902">
        <ele>387.55</ele>
        <time>2018-05-27T09:53:55Z</time>
      </trkpt>
      <trkpt lat="46.01613" lon="1.24899">
        <ele>388.03</ele>
        <time>2018-05-27T09:53:56Z</time>
      </trkpt>
      <trkpt lat="46.01608" lon="1.24896">
        <ele>388.03</ele>
        <time>2018-05-27T09:53:57Z</time>
      </trkpt>
      <trkpt lat="46.01604" lon="1.24892">
        <ele>388.03</ele>
        <time>2018-05-27T09:53:58Z</time>
      </trkpt>
      <trkpt lat="46.016" lon="1.24887">
        <ele>387.55</ele>
        <time>2018-05-27T09:53:59Z</time>
      </trkpt>
      <trkpt lat="46.01597" lon="1.24882">
        <ele>388.03</ele>
        <time>2018-05-27T09:54:00Z</time>
      </trkpt>
      <trkpt lat="46.01593" lon="1.24876">
        <ele>388.03</ele>
        <time>2018-05-27T09:54:01Z</time>
      </trkpt>
      <trkpt lat="46.01556" lon="1.24809">
        <ele>385.63</ele>
        <time>2018-05-27T09:54:14Z</time>
      </trkpt>
      <trkpt lat="46.01554" lon="1.24802">
        <ele>384.66</ele>
        <time>2018-05-27T09:54:17Z</time>
      </trkpt>
      <trkpt lat="46.0155" lon="1.24799">
        <ele>384.66</ele>
        <time>2018-05-27T09:54:28Z</time>
      </trkpt>
      <trkpt lat="46.01548" lon="1.24796">
        <ele>384.18</ele>
        <time>2018-05-27T09:54:34Z</time>
      </trkpt>
      <trkpt lat="46.01548" lon="1.24794">
        <ele>384.18</ele>
        <time>2018-05-27T09:54:35Z</time>
      </trkpt>
      <trkpt lat="46.01549" lon="1.24788">
        <ele>384.18</ele>
        <time>2018-05-27T09:54:53Z</time>
      </trkpt>
      <trkpt lat="46.01549" lon="1.24788">
        <ele>384.18</ele>
        <time>2018-05-27T09:54:54Z</time>
      </trkpt>
      <trkpt lat="46.0155" lon="1.24786">
        <ele>384.18</ele>
        <time>2018-05-27T09:54:55Z</time>
      </trkpt>
      <trkpt lat="46.0155" lon="1.24784">
        <ele>384.18</ele>
        <time>2018-05-27T09:54:56Z</time>
      </trkpt>
      <trkpt lat="46.01549" lon="1.24781">
        <ele>383.22</ele>
        <time>2018-05-27T09:54:57Z</time>
      </trkpt>
      <trkpt lat="46.01549" lon="1.24777">
        <ele>383.7</ele>
        <time>2018-05-27T09:54:58Z</time>
      </trkpt>
      <trkpt lat="46.0155" lon="1.24773">
        <ele>383.22</ele>
        <time>2018-05-27T09:54:59Z</time>
      </trkpt>
      <trkpt lat="46.01552" lon="1.24769">
        <ele>383.22</ele>
        <time>2018-05-27T09:55:00Z</time>
      </trkpt>
      <trkpt lat="46.01553" lon="1.24765">
        <ele>382.74</ele>
        <time>2018-05-27T09:55:01Z</time>
      </trkpt>
      <trkpt lat="46.01555" lon="1.2476">
        <ele>382.74</ele>
        <time>2018-05-27T09:55:02Z</time>
      </trkpt>
      <trkpt lat="46.01556" lon="1.24756">
        <ele>382.74</ele>
        <time>2018-05-27T09:55:03Z</time>
      </trkpt>
      <trkpt lat="46.01558" lon="1.24751">
        <ele>382.74</ele>
        <time>2018-05-27T09:55:04Z</time>
      </trkpt>
      <trkpt lat="46.01559" lon="1.24748">
        <ele>382.74</ele>
        <time>2018-05-27T09:55:05Z</time>
      </trkpt>
      <trkpt lat="46.01562" lon="1.24744">
        <ele>381.78</ele>
        <time>2018-05-27T09:55:06Z</time>
      </trkpt>
      <trkpt lat="46.01564" lon="1.2474">
        <ele>381.78</ele>
        <time>2018-05-27T09:55:07Z</time>
      </trkpt>
      <trkpt lat="46.01567" lon="1.24736">
        <ele>381.3</ele>
        <time>2018-05-27T09:55:08Z</time>
      </trkpt>
      <trkpt lat="46.01569" lon="1.24731">
        <ele>380.82</ele>
        <time>2018-05-27T09:55:09Z</time>
      </trkpt>
      <trkpt lat="46.01573" lon="1.24727">
        <ele>381.3</ele>
        <time>2018-05-27T09:55:10Z</time>
      </trkpt>
      <trkpt lat="46.01576" lon="1.24722">
        <ele>380.34</ele>
        <time>2018-05-27T09:55:11Z</time>
      </trkpt>
      <trkpt lat="46.0158" lon="1.24718">
        <ele>380.34</ele>
        <time>2018-05-27T09:55:12Z</time>
      </trkpt>
      <trkpt lat="46.01617" lon="1.24665">
        <ele>378.9</ele>
        <time>2018-05-27T09:55:23Z</time>
      </trkpt>
      <trkpt lat="46.0163" lon="1.24634">
        <ele>377.94</ele>
        <time>2018-05-27T09:55:29Z</time>
      </trkpt>
      <trkpt lat="46.01632" lon="1.24627">
        <ele>378.42</ele>
        <time>2018-05-27T09:55:30Z</time>
      </trkpt>
      <trkpt lat="46.01634" lon="1.2462">
        <ele>377.45</ele>
        <time>2018-05-27T09:55:31Z</time>
      </trkpt>
      <trkpt lat="46.01636" lon="1.24613">
        <ele>377.94</ele>
        <time>2018-05-27T09:55:32Z</time>
      </trkpt>
      <trkpt lat="46.01638" lon="1.24606">
        <ele>377.94</ele>
        <time>2018-05-27T09:55:33Z</time>
      </trkpt>
      <trkpt lat="46.0164" lon="1.24598">
        <ele>377.45</ele>
        <time>2018-05-27T09:55:34Z</time>
      </trkpt>
      <trkpt lat="46.01642" lon="1.24591">
        <ele>377.45</ele>
        <time>2018-05-27T09:55:35Z</time>
      </trkpt>
      <trkpt lat="46.01644" lon="1.24583">
        <ele>376.49</ele>
        <time>2018-05-27T09:55:36Z</time>
      </trkpt>
      <trkpt lat="46.0165" lon="1.2456">
        <ele>376.01</ele>
        <time>2018-05-27T09:55:39Z</time>
      </trkpt>
      <trkpt lat="46.01652" lon="1.24554">
        <ele>376.01</ele>
        <time>2018-05-27T09:55:40Z</time>
      </trkpt>
      <trkpt lat="46.01667" lon="1.24497">
        <ele>375.05</ele>
        <time>2018-05-27T09:55:50Z</time>
      </trkpt>
      <trkpt lat="46.01669" lon="1.24491">
        <ele>374.57</ele>
        <time>2018-05-27T09:55:51Z</time>
      </trkpt>
      <trkpt lat="46.01671" lon="1.24484">
        <ele>374.57</ele>
        <time>2018-05-27T09:55:52Z</time>
      </trkpt>
      <trkpt lat="46.01675" lon="1.2446">
        <ele>374.09</ele>
        <time>2018-05-27T09:55:56Z</time>
      </trkpt>
      <trkpt lat="46.01675" lon="1.24453">
        <ele>373.61</ele>
        <time>2018-05-27T09:55:57Z</time>
      </trkpt>
      <trkpt lat="46.01676" lon="1.2444">
        <ele>373.61</ele>
        <time>2018-05-27T09:55:59Z</time>
      </trkpt>
      <trkpt lat="46.01674" lon="1.24427">
        <ele>373.61</ele>
        <time>2018-05-27T09:56:01Z</time>
      </trkpt>
      <trkpt lat="46.01672" lon="1.24412">
        <ele>373.13</ele>
        <time>2018-05-27T09:56:03Z</time>
      </trkpt>
      <trkpt lat="46.0167" lon="1.24397">
        <ele>372.17</ele>
        <time>2018-05-27T09:56:05Z</time>
      </trkpt>
      <trkpt lat="46.01669" lon="1.24382">
        <ele>372.17</ele>
        <time>2018-05-27T09:56:07Z</time>
      </trkpt>
      <trkpt lat="46.01668" lon="1.24375">
        <ele>372.17</ele>
        <time>2018-05-27T09:56:08Z</time>
      </trkpt>
      <trkpt lat="46.01667" lon="1.24368">
        <ele>372.17</ele>
        <time>2018-05-27T09:56:09Z</time>
      </trkpt>
      <trkpt lat="46.01662" lon="1.24349">
        <ele>372.17</ele>
        <time>2018-05-27T09:56:12Z</time>
      </trkpt>
      <trkpt lat="46.01659" lon="1.24337">
        <ele>372.17</ele>
        <time>2018-05-27T09:56:14Z</time>
      </trkpt>
      <trkpt lat="46.01651" lon="1.2432">
        <ele>372.17</ele>
        <time>2018-05-27T09:56:17Z</time>
      </trkpt>
      <trkpt lat="46.01647" lon="1.24314">
        <ele>371.69</ele>
        <time>2018-05-27T09:56:18Z</time>
      </trkpt>
      <trkpt lat="46.01643" lon="1.24308">
        <ele>371.69</ele>
        <time>2018-05-27T09:56:19Z</time>
      </trkpt>
      <trkpt lat="46.01641" lon="1.24302">
        <ele>372.17</ele>
        <time>2018-05-27T09:56:20Z</time>
      </trkpt>
      <trkpt lat="46.01638" lon="1.24295">
        <ele>372.17</ele>
        <time>2018-05-27T09:56:21Z</time>
      </trkpt>
      <trkpt lat="46.01633" lon="1.2428">
        <ele>372.65</ele>
        <time>2018-05-27T09:56:23Z</time>
      </trkpt>
      <trkpt lat="46.01631" lon="1.24274">
        <ele>372.65</ele>
        <time>2018-05-27T09:56:24Z</time>
      </trkpt>
      <trkpt lat="46.01628" lon="1.24262">
        <ele>372.65</ele>
        <time>2018-05-27T09:56:26Z</time>
      </trkpt>
      <trkpt lat="46.01627" lon="1.24256">
        <ele>372.65</ele>
        <time>2018-05-27T09:56:27Z</time>
      </trkpt>
      <trkpt lat="46.0161" lon="1.24179">
        <ele>372.65</ele>
        <time>2018-05-27T09:56:39Z</time>
      </trkpt>
      <trkpt lat="46.01603" lon="1.24147">
        <ele>372.17</ele>
        <time>2018-05-27T09:56:43Z</time>
      </trkpt>
      <trkpt lat="46.01594" lon="1.24126">
        <ele>371.69</ele>
        <time>2018-05-27T09:56:46Z</time>
      </trkpt>
      <trkpt lat="46.01591" lon="1.24121">
        <ele>371.69</ele>
        <time>2018-05-27T09:56:47Z</time>
      </trkpt>
      <trkpt lat="46.0158" lon="1.24103">
        <ele>371.69</ele>
        <time>2018-05-27T09:56:50Z</time>
      </trkpt>
      <trkpt lat="46.01578" lon="1.24098">
        <ele>372.17</ele>
        <time>2018-05-27T09:56:51Z</time>
      </trkpt>
      <trkpt lat="46.01576" lon="1.24092">
        <ele>372.65</ele>
        <time>2018-05-27T09:56:52Z</time>
      </trkpt>
      <trkpt lat="46.01566" lon="1.24067">
        <ele>372.65</ele>
        <time>2018-05-27T09:56:56Z</time>
      </trkpt>
      <trkpt lat="46.01547" lon="1.24023">
        <ele>374.09</ele>
        <time>2018-05-27T09:57:04Z</time>
      </trkpt>
      <trkpt lat="46.01544" lon="1.24018">
        <ele>374.09</ele>
        <time>2018-05-27T09:57:05Z</time>
      </trkpt>
      <trkpt lat="46.0154" lon="1.24014">
        <ele>374.09</ele>
        <time>2018-05-27T09:57:06Z</time>
      </trkpt>
      <trkpt lat="46.01537" lon="1.2401">
        <ele>374.09</ele>
        <time>2018-05-27T09:57:07Z</time>
      </trkpt>
      <trkpt lat="46.01533" lon="1.24006">
        <ele>374.09</ele>
        <time>2018-05-27T09:57:08Z</time>
      </trkpt>
      <trkpt lat="46.01494" lon="1.23967">
        <ele>371.69</ele>
        <time>2018-05-27T09:57:17Z</time>
      </trkpt>
      <trkpt lat="46.01489" lon="1.23961">
        <ele>371.21</ele>
        <time>2018-05-27T09:57:18Z</time>
      </trkpt>
      <trkpt lat="46.01426" lon="1.23896">
        <ele>369.76</ele>
        <time>2018-05-27T09:57:31Z</time>
      </trkpt>
      <trkpt lat="46.01384" lon="1.23839">
        <ele>370.73</ele>
        <time>2018-05-27T09:57:45Z</time>
      </trkpt>
      <trkpt lat="46.01378" lon="1.23828">
        <ele>371.21</ele>
        <time>2018-05-27T09:57:47Z</time>
      </trkpt>
      <trkpt lat="46.01376" lon="1.23823">
        <ele>371.21</ele>
        <time>2018-05-27T09:57:48Z</time>
      </trkpt>
      <trkpt lat="46.01368" lon="1.23799">
        <ele>371.69</ele>
        <time>2018-05-27T09:57:52Z</time>
      </trkpt>
      <trkpt lat="46.01367" lon="1.23793">
        <ele>371.69</ele>
        <time>2018-05-27T09:57:53Z</time>
      </trkpt>
      <trkpt lat="46.01364" lon="1.23775">
        <ele>371.21</ele>
        <time>2018-05-27T09:57:56Z</time>
      </trkpt>
      <trkpt lat="46.01362" lon="1.23757">
        <ele>371.69</ele>
        <time>2018-05-27T09:57:59Z</time>
      </trkpt>
      <trkpt lat="46.0136" lon="1.23751">
        <ele>372.65</ele>
        <time>2018-05-27T09:58:00Z</time>
      </trkpt>
      <trkpt lat="46.01359" lon="1.23745">
        <ele>372.17</ele>
        <time>2018-05-27T09:58:01Z</time>
      </trkpt>
      <trkpt lat="46.01342" lon="1.23696">
        <ele>373.61</ele>
        <time>2018-05-27T09:58:10Z</time>
      </trkpt>
      <trkpt lat="46.01336" lon="1.23685">
        <ele>373.61</ele>
        <time>2018-05-27T09:58:12Z</time>
      </trkpt>
      <trkpt lat="46.0133" lon="1.23668">
        <ele>374.09</ele>
        <time>2018-05-27T09:58:15Z</time>
      </trkpt>
      <trkpt lat="46.01324" lon="1.23651">
        <ele>374.57</ele>
        <time>2018-05-27T09:58:18Z</time>
      </trkpt>
      <trkpt lat="46.01319" lon="1.23634">
        <ele>375.05</ele>
        <time>2018-05-27T09:58:21Z</time>
      </trkpt>
      <trkpt lat="46.01317" lon="1.23628">
        <ele>375.53</ele>
        <time>2018-05-27T09:58:22Z</time>
      </trkpt>
      <trkpt lat="46.01292" lon="1.23583">
        <ele>375.53</ele>
        <time>2018-05-27T09:58:33Z</time>
      </trkpt>
      <trkpt lat="46.01288" lon="1.23582">
        <ele>375.53</ele>
        <time>2018-05-27T09:58:34Z</time>
      </trkpt>
      <trkpt lat="46.0128" lon="1.23578">
        <ele>376.01</ele>
        <time>2018-05-27T09:58:36Z</time>
      </trkpt>
      <trkpt lat="46.01277" lon="1.23575">
        <ele>375.53</ele>
        <time>2018-05-27T09:58:37Z</time>
      </trkpt>
      <trkpt lat="46.01273" lon="1.23572">
        <ele>376.01</ele>
        <time>2018-05-27T09:58:38Z</time>
      </trkpt>
      <trkpt lat="46.01243" lon="1.23547">
        <ele>375.53</ele>
        <time>2018-05-27T09:58:47Z</time>
      </trkpt>
      <trkpt lat="46.01231" lon="1.2354">
        <ele>375.53</ele>
        <time>2018-05-27T09:58:50Z</time>
      </trkpt>
      <trkpt lat="46.01227" lon="1.23537">
        <ele>375.05</ele>
        <time>2018-05-27T09:58:51Z</time>
      </trkpt>
      <trkpt lat="46.01224" lon="1.23535">
        <ele>375.05</ele>
        <time>2018-05-27T09:58:52Z</time>
      </trkpt>
      <trkpt lat="46.0119" lon="1.23515">
        <ele>373.13</ele>
        <time>2018-05-27T09:59:01Z</time>
      </trkpt>
      <trkpt lat="46.01167" lon="1.235">
        <ele>370.73</ele>
        <time>2018-05-27T09:59:06Z</time>
      </trkpt>
      <trkpt lat="46.01163" lon="1.23496">
        <ele>370.24</ele>
        <time>2018-05-27T09:59:07Z</time>
      </trkpt>
      <trkpt lat="46.01159" lon="1.23492">
        <ele>370.24</ele>
        <time>2018-05-27T09:59:08Z</time>
      </trkpt>
      <trkpt lat="46.01155" lon="1.23486">
        <ele>369.76</ele>
        <time>2018-05-27T09:59:09Z</time>
      </trkpt>
      <trkpt lat="46.01151" lon="1.23479">
        <ele>368.32</ele>
        <time>2018-05-27T09:59:10Z</time>
      </trkpt>
      <trkpt lat="46.01148" lon="1.23473">
        <ele>367.84</ele>
        <time>2018-05-27T09:59:11Z</time>
      </trkpt>
      <trkpt lat="46.01146" lon="1.23465">
        <ele>367.84</ele>
        <time>2018-05-27T09:59:12Z</time>
      </trkpt>
      <trkpt lat="46.01144" lon="1.23447">
        <ele>366.88</ele>
        <time>2018-05-27T09:59:15Z</time>
      </trkpt>
      <trkpt lat="46.01145" lon="1.23442">
        <ele>366.88</ele>
        <time>2018-05-27T09:59:16Z</time>
      </trkpt>
      <trkpt lat="46.01146" lon="1.23437">
        <ele>365.92</ele>
        <time>2018-05-27T09:59:17Z</time>
      </trkpt>
      <trkpt lat="46.01147" lon="1.23433">
        <ele>364.96</ele>
        <time>2018-05-27T09:59:18Z</time>
      </trkpt>
      <trkpt lat="46.01147" lon="1.2343">
        <ele>365.44</ele>
        <time>2018-05-27T09:59:19Z</time>
      </trkpt>
      <trkpt lat="46.01147" lon="1.23407">
        <ele>364</ele>
        <time>2018-05-27T09:59:25Z</time>
      </trkpt>
      <trkpt lat="46.01147" lon="1.23402">
        <ele>363.52</ele>
        <time>2018-05-27T09:59:26Z</time>
      </trkpt>
      <trkpt lat="46.01151" lon="1.23378">
        <ele>362.07</ele>
        <time>2018-05-27T09:59:30Z</time>
      </trkpt>
      <trkpt lat="46.01155" lon="1.23354">
        <ele>358.71</ele>
        <time>2018-05-27T09:59:33Z</time>
      </trkpt>
      <trkpt lat="46.01156" lon="1.23327">
        <ele>356.31</ele>
        <time>2018-05-27T09:59:36Z</time>
      </trkpt>
      <trkpt lat="46.01155" lon="1.23319">
        <ele>355.34</ele>
        <time>2018-05-27T09:59:37Z</time>
      </trkpt>
      <trkpt lat="46.01153" lon="1.23312">
        <ele>354.38</ele>
        <time>2018-05-27T09:59:38Z</time>
      </trkpt>
      <trkpt lat="46.0115" lon="1.23305">
        <ele>353.42</ele>
        <time>2018-05-27T09:59:39Z</time>
      </trkpt>
      <trkpt lat="46.01147" lon="1.233">
        <ele>352.46</ele>
        <time>2018-05-27T09:59:40Z</time>
      </trkpt>
      <trkpt lat="46.01143" lon="1.23295">
        <ele>351.5</ele>
        <time>2018-05-27T09:59:41Z</time>
      </trkpt>
      <trkpt lat="46.01138" lon="1.23291">
        <ele>350.54</ele>
        <time>2018-05-27T09:59:42Z</time>
      </trkpt>
      <trkpt lat="46.01133" lon="1.23287">
        <ele>350.06</ele>
        <time>2018-05-27T09:59:43Z</time>
      </trkpt>
      <trkpt lat="46.01116" lon="1.23268">
        <ele>346.69</ele>
        <time>2018-05-27T09:59:47Z</time>
      </trkpt>
      <trkpt lat="46.01108" lon="1.23257">
        <ele>346.21</ele>
        <time>2018-05-27T09:59:50Z</time>
      </trkpt>
      <trkpt lat="46.01108" lon="1.23253">
        <ele>345.25</ele>
        <time>2018-05-27T09:59:51Z</time>
      </trkpt>
      <trkpt lat="46.0112" lon="1.23217">
        <ele>341.89</ele>
        <time>2018-05-27T09:59:58Z</time>
      </trkpt>
      <trkpt lat="46.01121" lon="1.2321">
        <ele>341.89</ele>
        <time>2018-05-27T09:59:59Z</time>
      </trkpt>
      <trkpt lat="46.01122" lon="1.23203">
        <ele>341.41</ele>
        <time>2018-05-27T10:00:00Z</time>
      </trkpt>
      <trkpt lat="46.01122" lon="1.23196">
        <ele>340.92</ele>
        <time>2018-05-27T10:00:01Z</time>
      </trkpt>
      <trkpt lat="46.01122" lon="1.23189">
        <ele>340.92</ele>
        <time>2018-05-27T10:00:02Z</time>
      </trkpt>
      <trkpt lat="46.01121" lon="1.23183">
        <ele>340.92</ele>
        <time>2018-05-27T10:00:03Z</time>
      </trkpt>
      <trkpt lat="46.01131" lon="1.23136">
        <ele>344.77</ele>
        <time>2018-05-27T10:00:13Z</time>
      </trkpt>
      <trkpt lat="46.01149" lon="1.23091">
        <ele>346.21</ele>
        <time>2018-05-27T10:00:25Z</time>
      </trkpt>
      <trkpt lat="46.01154" lon="1.2308">
        <ele>346.21</ele>
        <time>2018-05-27T10:00:28Z</time>
      </trkpt>
      <trkpt lat="46.01155" lon="1.23077">
        <ele>345.73</ele>
        <time>2018-05-27T10:00:29Z</time>
      </trkpt>
      <trkpt lat="46.01156" lon="1.23075">
        <ele>345.73</ele>
        <time>2018-05-27T10:00:30Z</time>
      </trkpt>
      <trkpt lat="46.01158" lon="1.23073">
        <ele>345.73</ele>
        <time>2018-05-27T10:00:31Z</time>
      </trkpt>
      <trkpt lat="46.01159" lon="1.2307">
        <ele>345.73</ele>
        <time>2018-05-27T10:00:32Z</time>
      </trkpt>
      <trkpt lat="46.01159" lon="1.23067">
        <ele>346.21</ele>
        <time>2018-05-27T10:00:33Z</time>
      </trkpt>
      <trkpt lat="46.0116" lon="1.23064">
        <ele>345.73</ele>
        <time>2018-05-27T10:00:34Z</time>
      </trkpt>
      <trkpt lat="46.01162" lon="1.2306">
        <ele>344.77</ele>
        <time>2018-05-27T10:00:35Z</time>
      </trkpt>
      <trkpt lat="46.01165" lon="1.23057">
        <ele>344.77</ele>
        <time>2018-05-27T10:00:36Z</time>
      </trkpt>
      <trkpt lat="46.01168" lon="1.23053">
        <ele>345.25</ele>
        <time>2018-05-27T10:00:37Z</time>
      </trkpt>
      <trkpt lat="46.0117" lon="1.2305">
        <ele>345.25</ele>
        <time>2018-05-27T10:00:38Z</time>
      </trkpt>
      <trkpt lat="46.01172" lon="1.23046">
        <ele>344.77</ele>
        <time>2018-05-27T10:00:39Z</time>
      </trkpt>
      <trkpt lat="46.01174" lon="1.23041">
        <ele>344.29</ele>
        <time>2018-05-27T10:00:40Z</time>
      </trkpt>
      <trkpt lat="46.01178" lon="1.23035">
        <ele>343.81</ele>
        <time>2018-05-27T10:00:41Z</time>
      </trkpt>
      <trkpt lat="46.01182" lon="1.23031">
        <ele>344.29</ele>
        <time>2018-05-27T10:00:42Z</time>
      </trkpt>
      <trkpt lat="46.01186" lon="1.23026">
        <ele>343.33</ele>
        <time>2018-05-27T10:00:43Z</time>
      </trkpt>
      <trkpt lat="46.0119" lon="1.23022">
        <ele>343.33</ele>
        <time>2018-05-27T10:00:44Z</time>
      </trkpt>
      <trkpt lat="46.01193" lon="1.2302">
        <ele>342.85</ele>
        <time>2018-05-27T10:00:45Z</time>
      </trkpt>
      <trkpt lat="46.01199" lon="1.23021">
        <ele>344.29</ele>
        <time>2018-05-27T10:00:48Z</time>
      </trkpt>
      <trkpt lat="46.01221" lon="1.23003">
        <ele>342.85</ele>
        <time>2018-05-27T10:00:58Z</time>
      </trkpt>
      <trkpt lat="46.01231" lon="1.22996">
        <ele>342.37</ele>
        <time>2018-05-27T10:01:01Z</time>
      </trkpt>
      <trkpt lat="46.01234" lon="1.22967">
        <ele>339.96</ele>
        <time>2018-05-27T10:01:09Z</time>
      </trkpt>
      <trkpt lat="46.0124" lon="1.22938">
        <ele>337.56</ele>
        <time>2018-05-27T10:01:16Z</time>
      </trkpt>
      <trkpt lat="46.01241" lon="1.22931">
        <ele>336.6</ele>
        <time>2018-05-27T10:01:17Z</time>
      </trkpt>
      <trkpt lat="46.01243" lon="1.22924">
        <ele>336.6</ele>
        <time>2018-05-27T10:01:18Z</time>
      </trkpt>
      <trkpt lat="46.01266" lon="1.22865">
        <ele>336.12</ele>
        <time>2018-05-27T10:01:28Z</time>
      </trkpt>
      <trkpt lat="46.01269" lon="1.22861">
        <ele>336.12</ele>
        <time>2018-05-27T10:01:29Z</time>
      </trkpt>
      <trkpt lat="46.01272" lon="1.22857">
        <ele>336.6</ele>
        <time>2018-05-27T10:01:30Z</time>
      </trkpt>
      <trkpt lat="46.01276" lon="1.22852">
        <ele>336.12</ele>
        <time>2018-05-27T10:01:31Z</time>
      </trkpt>
      <trkpt lat="46.01278" lon="1.22847">
        <ele>336.12</ele>
        <time>2018-05-27T10:01:32Z</time>
      </trkpt>
      <trkpt lat="46.01279" lon="1.22841">
        <ele>336.12</ele>
        <time>2018-05-27T10:01:33Z</time>
      </trkpt>
      <trkpt lat="46.01287" lon="1.22825">
        <ele>334.68</ele>
        <time>2018-05-27T10:01:36Z</time>
      </trkpt>
      <trkpt lat="46.0129" lon="1.2282">
        <ele>334.68</ele>
        <time>2018-05-27T10:01:37Z</time>
      </trkpt>
      <trkpt lat="46.01295" lon="1.22816">
        <ele>333.71</ele>
        <time>2018-05-27T10:01:38Z</time>
      </trkpt>
      <trkpt lat="46.01298" lon="1.22812">
        <ele>333.23</ele>
        <time>2018-05-27T10:01:39Z</time>
      </trkpt>
      <trkpt lat="46.0131" lon="1.22796">
        <ele>332.75</ele>
        <time>2018-05-27T10:01:44Z</time>
      </trkpt>
      <trkpt lat="46.01311" lon="1.22792">
        <ele>332.75</ele>
        <time>2018-05-27T10:01:45Z</time>
      </trkpt>
      <trkpt lat="46.01311" lon="1.22787">
        <ele>332.75</ele>
        <time>2018-05-27T10:01:46Z</time>
      </trkpt>
      <trkpt lat="46.01311" lon="1.22783">
        <ele>333.23</ele>
        <time>2018-05-27T10:01:47Z</time>
      </trkpt>
      <trkpt lat="46.01311" lon="1.22779">
        <ele>333.71</ele>
        <time>2018-05-27T10:01:48Z</time>
      </trkpt>
      <trkpt lat="46.01311" lon="1.22775">
        <ele>333.71</ele>
        <time>2018-05-27T10:01:49Z</time>
      </trkpt>
      <trkpt lat="46.01311" lon="1.22771">
        <ele>333.71</ele>
        <time>2018-05-27T10:01:50Z</time>
      </trkpt>
      <trkpt lat="46.0131" lon="1.22766">
        <ele>333.23</ele>
        <time>2018-05-27T10:01:51Z</time>
      </trkpt>
      <trkpt lat="46.01308" lon="1.22761">
        <ele>332.27</ele>
        <time>2018-05-27T10:01:52Z</time>
      </trkpt>
      <trkpt lat="46.01306" lon="1.22756">
        <ele>332.75</ele>
        <time>2018-05-27T10:01:53Z</time>
      </trkpt>
      <trkpt lat="46.01303" lon="1.22754">
        <ele>332.75</ele>
        <time>2018-05-27T10:01:54Z</time>
      </trkpt>
      <trkpt lat="46.013" lon="1.22753">
        <ele>332.75</ele>
        <time>2018-05-27T10:01:55Z</time>
      </trkpt>
      <trkpt lat="46.01297" lon="1.22751">
        <ele>332.75</ele>
        <time>2018-05-27T10:01:56Z</time>
      </trkpt>
      <trkpt lat="46.01285" lon="1.22716">
        <ele>334.2</ele>
        <time>2018-05-27T10:02:05Z</time>
      </trkpt>
      <trkpt lat="46.01284" lon="1.22712">
        <ele>334.2</ele>
        <time>2018-05-27T10:02:06Z</time>
      </trkpt>
      <trkpt lat="46.01282" lon="1.22709">
        <ele>333.71</ele>
        <time>2018-05-27T10:02:07Z</time>
      </trkpt>
      <trkpt lat="46.01279" lon="1.22706">
        <ele>333.23</ele>
        <time>2018-05-27T10:02:08Z</time>
      </trkpt>
      <trkpt lat="46.01277" lon="1.22702">
        <ele>332.27</ele>
        <time>2018-05-27T10:02:09Z</time>
      </trkpt>
      <trkpt lat="46.01275" lon="1.22698">
        <ele>332.27</ele>
        <time>2018-05-27T10:02:10Z</time>
      </trkpt>
      <trkpt lat="46.01274" lon="1.22693">
        <ele>332.75</ele>
        <time>2018-05-27T10:02:11Z</time>
      </trkpt>
      <trkpt lat="46.01273" lon="1.2269">
        <ele>332.75</ele>
        <time>2018-05-27T10:02:12Z</time>
      </trkpt>
      <trkpt lat="46.01266" lon="1.22646">
        <ele>332.75</ele>
        <time>2018-05-27T10:02:21Z</time>
      </trkpt>
      <trkpt lat="46.01262" lon="1.22594">
        <ele>332.75</ele>
        <time>2018-05-27T10:02:30Z</time>
      </trkpt>
      <trkpt lat="46.01259" lon="1.22567">
        <ele>333.23</ele>
        <time>2018-05-27T10:02:35Z</time>
      </trkpt>
      <trkpt lat="46.01238" lon="1.22525">
        <ele>332.27</ele>
        <time>2018-05-27T10:02:45Z</time>
      </trkpt>
      <trkpt lat="46.01235" lon="1.22518">
        <ele>332.75</ele>
        <time>2018-05-27T10:02:54Z</time>
      </trkpt>
      <trkpt lat="46.01227" lon="1.2252">
        <ele>333.23</ele>
        <time>2018-05-27T10:03:07Z</time>
      </trkpt>
      <trkpt lat="46.01226" lon="1.2252">
        <ele>333.23</ele>
        <time>2018-05-27T10:03:08Z</time>
      </trkpt>
      <trkpt lat="46.01219" lon="1.22523">
        <ele>333.23</ele>
        <time>2018-05-27T10:03:17Z</time>
      </trkpt>
      <trkpt lat="46.01217" lon="1.22526">
        <ele>332.75</ele>
        <time>2018-05-27T10:03:30Z</time>
      </trkpt>
      <trkpt lat="46.01201" lon="1.22541">
        <ele>332.75</ele>
        <time>2018-05-27T10:03:40Z</time>
      </trkpt>
      <trkpt lat="46.01191" lon="1.22542">
        <ele>332.27</ele>
        <time>2018-05-27T10:03:45Z</time>
      </trkpt>
      <trkpt lat="46.0119" lon="1.22541">
        <ele>332.75</ele>
        <time>2018-05-27T10:03:46Z</time>
      </trkpt>
      <trkpt lat="46.01183" lon="1.22535">
        <ele>332.27</ele>
        <time>2018-05-27T10:03:49Z</time>
      </trkpt>
      <trkpt lat="46.01164" lon="1.22511">
        <ele>331.31</ele>
        <time>2018-05-27T10:03:58Z</time>
      </trkpt>
      <trkpt lat="46.01135" lon="1.22482">
        <ele>333.71</ele>
        <time>2018-05-27T10:04:09Z</time>
      </trkpt>
      <trkpt lat="46.01122" lon="1.22472">
        <ele>334.2</ele>
        <time>2018-05-27T10:04:13Z</time>
      </trkpt>
      <trkpt lat="46.01118" lon="1.22469">
        <ele>334.2</ele>
        <time>2018-05-27T10:04:14Z</time>
      </trkpt>
      <trkpt lat="46.01089" lon="1.22453">
        <ele>334.68</ele>
        <time>2018-05-27T10:04:22Z</time>
      </trkpt>
      <trkpt lat="46.01086" lon="1.22451">
        <ele>334.68</ele>
        <time>2018-05-27T10:04:23Z</time>
      </trkpt>
      <trkpt lat="46.01051" lon="1.22418">
        <ele>335.16</ele>
        <time>2018-05-27T10:04:35Z</time>
      </trkpt>
      <trkpt lat="46.01038" lon="1.22391">
        <ele>335.64</ele>
        <time>2018-05-27T10:04:42Z</time>
      </trkpt>
      <trkpt lat="46.01038" lon="1.22387">
        <ele>335.64</ele>
        <time>2018-05-27T10:04:43Z</time>
      </trkpt>
      <trkpt lat="46.01033" lon="1.22372">
        <ele>335.64</ele>
        <time>2018-05-27T10:04:46Z</time>
      </trkpt>
      <trkpt lat="46.01032" lon="1.22366">
        <ele>335.64</ele>
        <time>2018-05-27T10:04:47Z</time>
      </trkpt>
      <trkpt lat="46.01036" lon="1.22308">
        <ele>336.12</ele>
        <time>2018-05-27T10:04:57Z</time>
      </trkpt>
      <trkpt lat="46.01038" lon="1.22301">
        <ele>336.12</ele>
        <time>2018-05-27T10:04:58Z</time>
      </trkpt>
      <trkpt lat="46.01039" lon="1.22295">
        <ele>335.64</ele>
        <time>2018-05-27T10:04:59Z</time>
      </trkpt>
      <trkpt lat="46.01042" lon="1.22288">
        <ele>336.12</ele>
        <time>2018-05-27T10:05:00Z</time>
      </trkpt>
      <trkpt lat="46.01043" lon="1.22282">
        <ele>336.12</ele>
        <time>2018-05-27T10:05:01Z</time>
      </trkpt>
      <trkpt lat="46.01078" lon="1.2225">
        <ele>334.68</ele>
        <time>2018-05-27T10:05:11Z</time>
      </trkpt>
      <trkpt lat="46.01083" lon="1.22249">
        <ele>335.16</ele>
        <time>2018-05-27T10:05:12Z</time>
      </trkpt>
      <trkpt lat="46.01088" lon="1.22246">
        <ele>334.68</ele>
        <time>2018-05-27T10:05:13Z</time>
      </trkpt>
      <trkpt lat="46.01093" lon="1.22243">
        <ele>334.68</ele>
        <time>2018-05-27T10:05:14Z</time>
      </trkpt>
      <trkpt lat="46.01103" lon="1.22236">
        <ele>334.2</ele>
        <time>2018-05-27T10:05:16Z</time>
      </trkpt>
      <trkpt lat="46.01107" lon="1.22231">
        <ele>334.2</ele>
        <time>2018-05-27T10:05:17Z</time>
      </trkpt>
      <trkpt lat="46.01111" lon="1.22226">
        <ele>334.2</ele>
        <time>2018-05-27T10:05:18Z</time>
      </trkpt>
      <trkpt lat="46.01119" lon="1.22215">
        <ele>333.71</ele>
        <time>2018-05-27T10:05:20Z</time>
      </trkpt>
      <trkpt lat="46.01155" lon="1.22144">
        <ele>334.2</ele>
        <time>2018-05-27T10:05:32Z</time>
      </trkpt>
      <trkpt lat="46.01155" lon="1.22138">
        <ele>333.71</ele>
        <time>2018-05-27T10:05:33Z</time>
      </trkpt>
      <trkpt lat="46.01155" lon="1.22133">
        <ele>334.2</ele>
        <time>2018-05-27T10:05:34Z</time>
      </trkpt>
      <trkpt lat="46.01155" lon="1.22128">
        <ele>334.68</ele>
        <time>2018-05-27T10:05:35Z</time>
      </trkpt>
      <trkpt lat="46.01155" lon="1.22122">
        <ele>334.68</ele>
        <time>2018-05-27T10:05:36Z</time>
      </trkpt>
      <trkpt lat="46.01154" lon="1.22108">
        <ele>336.12</ele>
        <time>2018-05-27T10:05:39Z</time>
      </trkpt>
      <trkpt lat="46.01147" lon="1.22061">
        <ele>338.52</ele>
        <time>2018-05-27T10:05:51Z</time>
      </trkpt>
      <trkpt lat="46.01147" lon="1.22059">
        <ele>339</ele>
        <time>2018-05-27T10:05:52Z</time>
      </trkpt>
      <trkpt lat="46.01148" lon="1.22057">
        <ele>339</ele>
        <time>2018-05-27T10:05:53Z</time>
      </trkpt>
      <trkpt lat="46.0115" lon="1.22056">
        <ele>339.48</ele>
        <time>2018-05-27T10:05:54Z</time>
      </trkpt>
      <trkpt lat="46.01152" lon="1.22055">
        <ele>339.48</ele>
        <time>2018-05-27T10:05:55Z</time>
      </trkpt>
      <trkpt lat="46.0117" lon="1.22058">
        <ele>342.37</ele>
        <time>2018-05-27T10:06:05Z</time>
      </trkpt>
      <trkpt lat="46.01172" lon="1.22058">
        <ele>342.37</ele>
        <time>2018-05-27T10:06:06Z</time>
      </trkpt>
      <trkpt lat="46.01173" lon="1.22057">
        <ele>342.37</ele>
        <time>2018-05-27T10:06:07Z</time>
      </trkpt>
      <trkpt lat="46.01175" lon="1.22056">
        <ele>343.33</ele>
        <time>2018-05-27T10:06:08Z</time>
      </trkpt>
      <trkpt lat="46.01177" lon="1.22054">
        <ele>343.33</ele>
        <time>2018-05-27T10:06:09Z</time>
      </trkpt>
      <trkpt lat="46.01178" lon="1.22053">
        <ele>343.33</ele>
        <time>2018-05-27T10:06:10Z</time>
      </trkpt>
      <trkpt lat="46.01193" lon="1.22041">
        <ele>347.17</ele>
        <time>2018-05-27T10:06:21Z</time>
      </trkpt>
      <trkpt lat="46.01196" lon="1.22039">
        <ele>346.69</ele>
        <time>2018-05-27T10:06:24Z</time>
      </trkpt>
      <trkpt lat="46.01197" lon="1.22038">
        <ele>347.17</ele>
        <time>2018-05-27T10:06:25Z</time>
      </trkpt>
      <trkpt lat="46.01213" lon="1.22022">
        <ele>349.1</ele>
        <time>2018-05-27T10:06:35Z</time>
      </trkpt>
      <trkpt lat="46.01215" lon="1.22021">
        <ele>349.58</ele>
        <time>2018-05-27T10:06:36Z</time>
      </trkpt>
      <trkpt lat="46.01216" lon="1.22019">
        <ele>349.58</ele>
        <time>2018-05-27T10:06:37Z</time>
      </trkpt>
      <trkpt lat="46.01234" lon="1.22009">
        <ele>351.02</ele>
        <time>2018-05-27T10:06:46Z</time>
      </trkpt>
      <trkpt lat="46.01235" lon="1.22008">
        <ele>351.5</ele>
        <time>2018-05-27T10:06:47Z</time>
      </trkpt>
      <trkpt lat="46.01242" lon="1.22">
        <ele>354.38</ele>
        <time>2018-05-27T10:06:56Z</time>
      </trkpt>
      <trkpt lat="46.01244" lon="1.21997">
        <ele>354.38</ele>
        <time>2018-05-27T10:06:59Z</time>
      </trkpt>
      <trkpt lat="46.01249" lon="1.21989">
        <ele>354.86</ele>
        <time>2018-05-27T10:07:04Z</time>
      </trkpt>
      <trkpt lat="46.0125" lon="1.21987">
        <ele>355.34</ele>
        <time>2018-05-27T10:07:05Z</time>
      </trkpt>
      <trkpt lat="46.01252" lon="1.21983">
        <ele>355.83</ele>
        <time>2018-05-27T10:07:07Z</time>
      </trkpt>
      <trkpt lat="46.01255" lon="1.21981">
        <ele>356.31</ele>
        <time>2018-05-27T10:07:08Z</time>
      </trkpt>
      <trkpt lat="46.01257" lon="1.21979">
        <ele>355.83</ele>
        <time>2018-05-27T10:07:09Z</time>
      </trkpt>
      <trkpt lat="46.01262" lon="1.21969">
        <ele>356.79</ele>
        <time>2018-05-27T10:07:13Z</time>
      </trkpt>
      <trkpt lat="46.01264" lon="1.21966">
        <ele>356.79</ele>
        <time>2018-05-27T10:07:14Z</time>
      </trkpt>
      <trkpt lat="46.01268" lon="1.2196">
        <ele>357.27</ele>
        <time>2018-05-27T10:07:16Z</time>
      </trkpt>
      <trkpt lat="46.01271" lon="1.21957">
        <ele>357.27</ele>
        <time>2018-05-27T10:07:17Z</time>
      </trkpt>
      <trkpt lat="46.01274" lon="1.21954">
        <ele>357.27</ele>
        <time>2018-05-27T10:07:18Z</time>
      </trkpt>
      <trkpt lat="46.01288" lon="1.21935">
        <ele>359.67</ele>
        <time>2018-05-27T10:07:26Z</time>
      </trkpt>
      <trkpt lat="46.01289" lon="1.21932">
        <ele>359.67</ele>
        <time>2018-05-27T10:07:27Z</time>
      </trkpt>
      <trkpt lat="46.0129" lon="1.2193">
        <ele>359.67</ele>
        <time>2018-05-27T10:07:28Z</time>
      </trkpt>
      <trkpt lat="46.01308" lon="1.21906">
        <ele>361.11</ele>
        <time>2018-05-27T10:07:41Z</time>
      </trkpt>
      <trkpt lat="46.01308" lon="1.21906">
        <ele>360.63</ele>
        <time>2018-05-27T10:08:12Z</time>
      </trkpt>
      <trkpt lat="46.01309" lon="1.21905">
        <ele>361.11</ele>
        <time>2018-05-27T10:08:18Z</time>
      </trkpt>
      <trkpt lat="46.01329" lon="1.21885">
        <ele>357.75</ele>
        <time>2018-05-27T10:08:28Z</time>
      </trkpt>
      <trkpt lat="46.01344" lon="1.21861">
        <ele>357.27</ele>
        <time>2018-05-27T10:08:34Z</time>
      </trkpt>
      <trkpt lat="46.01346" lon="1.21856">
        <ele>356.79</ele>
        <time>2018-05-27T10:08:35Z</time>
      </trkpt>
      <trkpt lat="46.01348" lon="1.21849">
        <ele>356.31</ele>
        <time>2018-05-27T10:08:36Z</time>
      </trkpt>
      <trkpt lat="46.01352" lon="1.21836">
        <ele>356.31</ele>
        <time>2018-05-27T10:08:38Z</time>
      </trkpt>
      <trkpt lat="46.01353" lon="1.21829">
        <ele>355.83</ele>
        <time>2018-05-27T10:08:39Z</time>
      </trkpt>
      <trkpt lat="46.01359" lon="1.21787">
        <ele>355.34</ele>
        <time>2018-05-27T10:08:45Z</time>
      </trkpt>
      <trkpt lat="46.0136" lon="1.21781">
        <ele>355.34</ele>
        <time>2018-05-27T10:08:46Z</time>
      </trkpt>
      <trkpt lat="46.0136" lon="1.21774">
        <ele>355.34</ele>
        <time>2018-05-27T10:08:47Z</time>
      </trkpt>
      <trkpt lat="46.01359" lon="1.21768">
        <ele>354.86</ele>
        <time>2018-05-27T10:08:48Z</time>
      </trkpt>
      <trkpt lat="46.01359" lon="1.21763">
        <ele>355.34</ele>
        <time>2018-05-27T10:08:49Z</time>
      </trkpt>
      <trkpt lat="46.01352" lon="1.21687">
        <ele>354.86</ele>
        <time>2018-05-27T10:09:01Z</time>
      </trkpt>
      <trkpt lat="46.01354" lon="1.21675">
        <ele>354.86</ele>
        <time>2018-05-27T10:09:03Z</time>
      </trkpt>
      <trkpt lat="46.01356" lon="1.21669">
        <ele>354.86</ele>
        <time>2018-05-27T10:09:04Z</time>
      </trkpt>
      <trkpt lat="46.01359" lon="1.21665">
        <ele>354.86</ele>
        <time>2018-05-27T10:09:05Z</time>
      </trkpt>
      <trkpt lat="46.01368" lon="1.21655">
        <ele>353.9</ele>
        <time>2018-05-27T10:09:08Z</time>
      </trkpt>
      <trkpt lat="46.01379" lon="1.21652">
        <ele>353.42</ele>
        <time>2018-05-27T10:09:10Z</time>
      </trkpt>
      <trkpt lat="46.01403" lon="1.21651">
        <ele>353.9</ele>
        <time>2018-05-27T10:09:15Z</time>
      </trkpt>
      <trkpt lat="46.01407" lon="1.21649">
        <ele>353.9</ele>
        <time>2018-05-27T10:09:16Z</time>
      </trkpt>
      <trkpt lat="46.01415" lon="1.2164">
        <ele>353.9</ele>
        <time>2018-05-27T10:09:19Z</time>
      </trkpt>
      <trkpt lat="46.01417" lon="1.21635">
        <ele>354.38</ele>
        <time>2018-05-27T10:09:20Z</time>
      </trkpt>
      <trkpt lat="46.0142" lon="1.21629">
        <ele>354.38</ele>
        <time>2018-05-27T10:09:21Z</time>
      </trkpt>
      <trkpt lat="46.01422" lon="1.21623">
        <ele>353.9</ele>
        <time>2018-05-27T10:09:22Z</time>
      </trkpt>
      <trkpt lat="46.01424" lon="1.21618">
        <ele>354.38</ele>
        <time>2018-05-27T10:09:23Z</time>
      </trkpt>
      <trkpt lat="46.01426" lon="1.21613">
        <ele>354.38</ele>
        <time>2018-05-27T10:09:24Z</time>
      </trkpt>
      <trkpt lat="46.01429" lon="1.21608">
        <ele>354.38</ele>
        <time>2018-05-27T10:09:25Z</time>
      </trkpt>
      <trkpt lat="46.01431" lon="1.21603">
        <ele>353.9</ele>
        <time>2018-05-27T10:09:26Z</time>
      </trkpt>
      <trkpt lat="46.01434" lon="1.21597">
        <ele>354.38</ele>
        <time>2018-05-27T10:09:27Z</time>
      </trkpt>
      <trkpt lat="46.01436" lon="1.21592">
        <ele>354.38</ele>
        <time>2018-05-27T10:09:28Z</time>
      </trkpt>
      <trkpt lat="46.01462" lon="1.21545">
        <ele>355.34</ele>
        <time>2018-05-27T10:09:39Z</time>
      </trkpt>
      <trkpt lat="46.01498" lon="1.21494">
        <ele>355.34</ele>
        <time>2018-05-27T10:09:51Z</time>
      </trkpt>
      <trkpt lat="46.01503" lon="1.21482">
        <ele>354.86</ele>
        <time>2018-05-27T10:09:53Z</time>
      </trkpt>
      <trkpt lat="46.01508" lon="1.21471">
        <ele>354.86</ele>
        <time>2018-05-27T10:09:55Z</time>
      </trkpt>
      <trkpt lat="46.01516" lon="1.21444">
        <ele>355.34</ele>
        <time>2018-05-27T10:10:01Z</time>
      </trkpt>
      <trkpt lat="46.01515" lon="1.21443">
        <ele>355.34</ele>
        <time>2018-05-27T10:10:02Z</time>
      </trkpt>
      <trkpt lat="46.01514" lon="1.21443">
        <ele>355.34</ele>
        <time>2018-05-27T10:10:03Z</time>
      </trkpt>
      <trkpt lat="46.01513" lon="1.21444">
        <ele>355.34</ele>
        <time>2018-05-27T10:10:04Z</time>
      </trkpt>
      <trkpt lat="46.01511" lon="1.21447">
        <ele>355.34</ele>
        <time>2018-05-27T10:10:05Z</time>
      </trkpt>
      <trkpt lat="46.01511" lon="1.21451">
        <ele>355.34</ele>
        <time>2018-05-27T10:10:06Z</time>
      </trkpt>
      <trkpt lat="46.01511" lon="1.21455">
        <ele>354.86</ele>
        <time>2018-05-27T10:10:07Z</time>
      </trkpt>
      <trkpt lat="46.01509" lon="1.21474">
        <ele>355.34</ele>
        <time>2018-05-27T10:10:11Z</time>
      </trkpt>
      <trkpt lat="46.01511" lon="1.21477">
        <ele>355.83</ele>
        <time>2018-05-27T10:10:12Z</time>
      </trkpt>
      <trkpt lat="46.01513" lon="1.21479">
        <ele>355.83</ele>
        <time>2018-05-27T10:10:13Z</time>
      </trkpt>
      <trkpt lat="46.01515" lon="1.2148">
        <ele>355.83</ele>
        <time>2018-05-27T10:10:14Z</time>
      </trkpt>
      <trkpt lat="46.01517" lon="1.21481">
        <ele>356.79</ele>
        <time>2018-05-27T10:10:15Z</time>
      </trkpt>
      <trkpt lat="46.0152" lon="1.21481">
        <ele>356.31</ele>
        <time>2018-05-27T10:10:16Z</time>
      </trkpt>
      <trkpt lat="46.01523" lon="1.21481">
        <ele>356.79</ele>
        <time>2018-05-27T10:10:17Z</time>
      </trkpt>
      <trkpt lat="46.01525" lon="1.21482">
        <ele>356.79</ele>
        <time>2018-05-27T10:10:18Z</time>
      </trkpt>
      <trkpt lat="46.01528" lon="1.21482">
        <ele>357.27</ele>
        <time>2018-05-27T10:10:19Z</time>
      </trkpt>
      <trkpt lat="46.01531" lon="1.21482">
        <ele>357.27</ele>
        <time>2018-05-27T10:10:20Z</time>
      </trkpt>
      <trkpt lat="46.01567" lon="1.21483">
        <ele>357.75</ele>
        <time>2018-05-27T10:10:32Z</time>
      </trkpt>
      <trkpt lat="46.0161" lon="1.21489">
        <ele>357.27</ele>
        <time>2018-05-27T10:10:44Z</time>
      </trkpt>
      <trkpt lat="46.01626" lon="1.21501">
        <ele>356.31</ele>
        <time>2018-05-27T10:10:49Z</time>
      </trkpt>
      <trkpt lat="46.01647" lon="1.21506">
        <ele>356.31</ele>
        <time>2018-05-27T10:10:53Z</time>
      </trkpt>
      <trkpt lat="46.01664" lon="1.21507">
        <ele>355.34</ele>
        <time>2018-05-27T10:10:57Z</time>
      </trkpt>
      <trkpt lat="46.01687" lon="1.21506">
        <ele>354.38</ele>
        <time>2018-05-27T10:11:01Z</time>
      </trkpt>
      <trkpt lat="46.01693" lon="1.21506">
        <ele>353.42</ele>
        <time>2018-05-27T10:11:02Z</time>
      </trkpt>
      <trkpt lat="46.01711" lon="1.21503">
        <ele>352.94</ele>
        <time>2018-05-27T10:11:05Z</time>
      </trkpt>
      <trkpt lat="46.01718" lon="1.21502">
        <ele>352.46</ele>
        <time>2018-05-27T10:11:06Z</time>
      </trkpt>
      <trkpt lat="46.01731" lon="1.215">
        <ele>350.54</ele>
        <time>2018-05-27T10:11:08Z</time>
      </trkpt>
      <trkpt lat="46.01738" lon="1.21501">
        <ele>350.06</ele>
        <time>2018-05-27T10:11:09Z</time>
      </trkpt>
      <trkpt lat="46.01744" lon="1.21502">
        <ele>349.58</ele>
        <time>2018-05-27T10:11:10Z</time>
      </trkpt>
      <trkpt lat="46.01751" lon="1.21502">
        <ele>349.1</ele>
        <time>2018-05-27T10:11:11Z</time>
      </trkpt>
      <trkpt lat="46.01757" lon="1.21504">
        <ele>349.58</ele>
        <time>2018-05-27T10:11:12Z</time>
      </trkpt>
      <trkpt lat="46.01763" lon="1.21507">
        <ele>348.62</ele>
        <time>2018-05-27T10:11:13Z</time>
      </trkpt>
      <trkpt lat="46.0177" lon="1.2151">
        <ele>347.65</ele>
        <time>2018-05-27T10:11:14Z</time>
      </trkpt>
      <trkpt lat="46.01776" lon="1.21515">
        <ele>348.62</ele>
        <time>2018-05-27T10:11:15Z</time>
      </trkpt>
      <trkpt lat="46.01799" lon="1.21533">
        <ele>345.25</ele>
        <time>2018-05-27T10:11:19Z</time>
      </trkpt>
      <trkpt lat="46.01806" lon="1.21537">
        <ele>345.73</ele>
        <time>2018-05-27T10:11:20Z</time>
      </trkpt>
      <trkpt lat="46.01811" lon="1.2154">
        <ele>343.81</ele>
        <time>2018-05-27T10:11:21Z</time>
      </trkpt>
      <trkpt lat="46.01816" lon="1.21543">
        <ele>342.37</ele>
        <time>2018-05-27T10:11:22Z</time>
      </trkpt>
      <trkpt lat="46.0182" lon="1.21545">
        <ele>342.85</ele>
        <time>2018-05-27T10:11:23Z</time>
      </trkpt>
      <trkpt lat="46.01825" lon="1.21546">
        <ele>342.85</ele>
        <time>2018-05-27T10:11:24Z</time>
      </trkpt>
      <trkpt lat="46.0183" lon="1.21547">
        <ele>342.85</ele>
        <time>2018-05-27T10:11:25Z</time>
      </trkpt>
      <trkpt lat="46.01842" lon="1.21546">
        <ele>340.92</ele>
        <time>2018-05-27T10:11:27Z</time>
      </trkpt>
      <trkpt lat="46.01873" lon="1.21539">
        <ele>340.92</ele>
        <time>2018-05-27T10:11:32Z</time>
      </trkpt>
      <trkpt lat="46.01878" lon="1.21539">
        <ele>340.92</ele>
        <time>2018-05-27T10:11:33Z</time>
      </trkpt>
      <trkpt lat="46.0189" lon="1.21539">
        <ele>340.92</ele>
        <time>2018-05-27T10:11:39Z</time>
      </trkpt>
      <trkpt lat="46.01892" lon="1.21538">
        <ele>340.44</ele>
        <time>2018-05-27T10:11:40Z</time>
      </trkpt>
      <trkpt lat="46.01893" lon="1.21538">
        <ele>347.65</ele>
        <time>2018-05-27T10:11:44Z</time>
      </trkpt>
      <trkpt lat="46.01893" lon="1.21538">
        <ele>340.44</ele>
        <time>2018-05-27T10:11:45Z</time>
      </trkpt>
      <trkpt lat="46.01894" lon="1.21538">
        <ele>340.92</ele>
        <time>2018-05-27T10:11:46Z</time>
      </trkpt>
      <trkpt lat="46.01894" lon="1.21538">
        <ele>336.12</ele>
        <time>2018-05-27T10:11:49Z</time>
      </trkpt>
      <trkpt lat="46.01894" lon="1.21538">
        <ele>348.13</ele>
        <time>2018-05-27T10:11:51Z</time>
      </trkpt>
      <trkpt lat="46.01894" lon="1.21538">
        <ele>339.96</ele>
        <time>2018-05-27T10:11:52Z</time>
      </trkpt>
      <trkpt lat="46.019" lon="1.21539">
        <ele>340.44</ele>
        <time>2018-05-27T10:11:59Z</time>
      </trkpt>
      <trkpt lat="46.01903" lon="1.2154">
        <ele>340.44</ele>
        <time>2018-05-27T10:12:00Z</time>
      </trkpt>
      <trkpt lat="46.01906" lon="1.2154">
        <ele>340.44</ele>
        <time>2018-05-27T10:12:01Z</time>
      </trkpt>
      <trkpt lat="46.01925" lon="1.2154">
        <ele>339.48</ele>
        <time>2018-05-27T10:12:05Z</time>
      </trkpt>
      <trkpt lat="46.01949" lon="1.21535">
        <ele>339</ele>
        <time>2018-05-27T10:12:09Z</time>
      </trkpt>
      <trkpt lat="46.0196" lon="1.21529">
        <ele>338.04</ele>
        <time>2018-05-27T10:12:11Z</time>
      </trkpt>
      <trkpt lat="46.01976" lon="1.21524">
        <ele>338.04</ele>
        <time>2018-05-27T10:12:14Z</time>
      </trkpt>
      <trkpt lat="46.01985" lon="1.21521">
        <ele>337.08</ele>
        <time>2018-05-27T10:12:16Z</time>
      </trkpt>
      <trkpt lat="46.01995" lon="1.21518">
        <ele>335.16</ele>
        <time>2018-05-27T10:12:18Z</time>
      </trkpt>
      <trkpt lat="46.02003" lon="1.21516">
        <ele>334.68</ele>
        <time>2018-05-27T10:12:20Z</time>
      </trkpt>
      <trkpt lat="46.02007" lon="1.21513">
        <ele>333.23</ele>
        <time>2018-05-27T10:12:21Z</time>
      </trkpt>
      <trkpt lat="46.02014" lon="1.21509">
        <ele>332.75</ele>
        <time>2018-05-27T10:12:23Z</time>
      </trkpt>
      <trkpt lat="46.02018" lon="1.21505">
        <ele>332.27</ele>
        <time>2018-05-27T10:12:25Z</time>
      </trkpt>
      <trkpt lat="46.02021" lon="1.21502">
        <ele>331.79</ele>
        <time>2018-05-27T10:12:32Z</time>
      </trkpt>
      <trkpt lat="46.02021" lon="1.21501">
        <ele>327.95</ele>
        <time>2018-05-27T10:12:38Z</time>
      </trkpt>
      <trkpt lat="46.02021" lon="1.21501">
        <ele>329.87</ele>
        <time>2018-05-27T10:12:39Z</time>
      </trkpt>
      <trkpt lat="46.02021" lon="1.21501">
        <ele>331.79</ele>
        <time>2018-05-27T10:12:41Z</time>
      </trkpt>
      <trkpt lat="46.02034" lon="1.21483">
        <ele>328.43</ele>
        <time>2018-05-27T10:12:50Z</time>
      </trkpt>
      <trkpt lat="46.02042" lon="1.21474">
        <ele>326.5</ele>
        <time>2018-05-27T10:12:54Z</time>
      </trkpt>
      <trkpt lat="46.02043" lon="1.21472">
        <ele>325.54</ele>
        <time>2018-05-27T10:12:55Z</time>
      </trkpt>
      <trkpt lat="46.02045" lon="1.21471">
        <ele>325.06</ele>
        <time>2018-05-27T10:12:56Z</time>
      </trkpt>
      <trkpt lat="46.02046" lon="1.2147">
        <ele>324.58</ele>
        <time>2018-05-27T10:12:57Z</time>
      </trkpt>
      <trkpt lat="46.02048" lon="1.21468">
        <ele>324.1</ele>
        <time>2018-05-27T10:12:58Z</time>
      </trkpt>
      <trkpt lat="46.0205" lon="1.21464">
        <ele>323.62</ele>
        <time>2018-05-27T10:12:59Z</time>
      </trkpt>
      <trkpt lat="46.02052" lon="1.21461">
        <ele>322.66</ele>
        <time>2018-05-27T10:13:00Z</time>
      </trkpt>
      <trkpt lat="46.02054" lon="1.21457">
        <ele>322.18</ele>
        <time>2018-05-27T10:13:01Z</time>
      </trkpt>
      <trkpt lat="46.02054" lon="1.21453">
        <ele>321.22</ele>
        <time>2018-05-27T10:13:02Z</time>
      </trkpt>
      <trkpt lat="46.02054" lon="1.21448">
        <ele>321.22</ele>
        <time>2018-05-27T10:13:03Z</time>
      </trkpt>
      <trkpt lat="46.02053" lon="1.21444">
        <ele>321.22</ele>
        <time>2018-05-27T10:13:04Z</time>
      </trkpt>
      <trkpt lat="46.02051" lon="1.21439">
        <ele>320.74</ele>
        <time>2018-05-27T10:13:05Z</time>
      </trkpt>
      <trkpt lat="46.02049" lon="1.21435">
        <ele>320.26</ele>
        <time>2018-05-27T10:13:06Z</time>
      </trkpt>
      <trkpt lat="46.02022" lon="1.21404">
        <ele>317.37</ele>
        <time>2018-05-27T10:13:15Z</time>
      </trkpt>
      <trkpt lat="46.02004" lon="1.21393">
        <ele>317.85</ele>
        <time>2018-05-27T10:13:20Z</time>
      </trkpt>
      <trkpt lat="46.01977" lon="1.21371">
        <ele>317.37</ele>
        <time>2018-05-27T10:13:28Z</time>
      </trkpt>
      <trkpt lat="46.01969" lon="1.21363">
        <ele>316.89</ele>
        <time>2018-05-27T10:13:30Z</time>
      </trkpt>
      <trkpt lat="46.01964" lon="1.2136">
        <ele>316.89</ele>
        <time>2018-05-27T10:13:31Z</time>
      </trkpt>
      <trkpt lat="46.0196" lon="1.21357">
        <ele>316.41</ele>
        <time>2018-05-27T10:13:32Z</time>
      </trkpt>
      <trkpt lat="46.01957" lon="1.21354">
        <ele>316.41</ele>
        <time>2018-05-27T10:13:33Z</time>
      </trkpt>
      <trkpt lat="46.01953" lon="1.2135">
        <ele>315.93</ele>
        <time>2018-05-27T10:13:34Z</time>
      </trkpt>
      <trkpt lat="46.0195" lon="1.21345">
        <ele>315.45</ele>
        <time>2018-05-27T10:13:35Z</time>
      </trkpt>
      <trkpt lat="46.0192" lon="1.2131">
        <ele>316.41</ele>
        <time>2018-05-27T10:13:42Z</time>
      </trkpt>
      <trkpt lat="46.01914" lon="1.21299">
        <ele>317.37</ele>
        <time>2018-05-27T10:13:44Z</time>
      </trkpt>
      <trkpt lat="46.01906" lon="1.21284">
        <ele>315.93</ele>
        <time>2018-05-27T10:13:46Z</time>
      </trkpt>
      <trkpt lat="46.01903" lon="1.21276">
        <ele>315.93</ele>
        <time>2018-05-27T10:13:47Z</time>
      </trkpt>
      <trkpt lat="46.01901" lon="1.21269">
        <ele>315.93</ele>
        <time>2018-05-27T10:13:48Z</time>
      </trkpt>
      <trkpt lat="46.01899" lon="1.21261">
        <ele>315.93</ele>
        <time>2018-05-27T10:13:49Z</time>
      </trkpt>
      <trkpt lat="46.01898" lon="1.21252">
        <ele>315.45</ele>
        <time>2018-05-27T10:13:50Z</time>
      </trkpt>
      <trkpt lat="46.01896" lon="1.21243">
        <ele>314.49</ele>
        <time>2018-05-27T10:13:51Z</time>
      </trkpt>
      <trkpt lat="46.01892" lon="1.21233">
        <ele>314.01</ele>
        <time>2018-05-27T10:13:53Z</time>
      </trkpt>
      <trkpt lat="46.01892" lon="1.21228">
        <ele>314.01</ele>
        <time>2018-05-27T10:13:54Z</time>
      </trkpt>
      <trkpt lat="46.01893" lon="1.21207">
        <ele>312.57</ele>
        <time>2018-05-27T10:13:58Z</time>
      </trkpt>
      <trkpt lat="46.01894" lon="1.21197">
        <ele>313.05</ele>
        <time>2018-05-27T10:14:00Z</time>
      </trkpt>
      <trkpt lat="46.01894" lon="1.21193">
        <ele>313.05</ele>
        <time>2018-05-27T10:14:01Z</time>
      </trkpt>
      <trkpt lat="46.01894" lon="1.21189">
        <ele>313.53</ele>
        <time>2018-05-27T10:14:02Z</time>
      </trkpt>
      <trkpt lat="46.01893" lon="1.21169">
        <ele>314.49</ele>
        <time>2018-05-27T10:14:06Z</time>
      </trkpt>
      <trkpt lat="46.01893" lon="1.21164">
        <ele>313.53</ele>
        <time>2018-05-27T10:14:07Z</time>
      </trkpt>
      <trkpt lat="46.01891" lon="1.2116">
        <ele>314.49</ele>
        <time>2018-05-27T10:14:08Z</time>
      </trkpt>
      <trkpt lat="46.0189" lon="1.21154">
        <ele>314.01</ele>
        <time>2018-05-27T10:14:09Z</time>
      </trkpt>
      <trkpt lat="46.0189" lon="1.21149">
        <ele>314.49</ele>
        <time>2018-05-27T10:14:10Z</time>
      </trkpt>
      <trkpt lat="46.0189" lon="1.21107">
        <ele>315.45</ele>
        <time>2018-05-27T10:14:20Z</time>
      </trkpt>
      <trkpt lat="46.01893" lon="1.21059">
        <ele>313.53</ele>
        <time>2018-05-27T10:14:29Z</time>
      </trkpt>
      <trkpt lat="46.01884" lon="1.21021">
        <ele>314.97</ele>
        <time>2018-05-27T10:14:37Z</time>
      </trkpt>
      <trkpt lat="46.0188" lon="1.20988">
        <ele>315.45</ele>
        <time>2018-05-27T10:14:42Z</time>
      </trkpt>
      <trkpt lat="46.01871" lon="1.20964">
        <ele>315.93</ele>
        <time>2018-05-27T10:14:46Z</time>
      </trkpt>
      <trkpt lat="46.01868" lon="1.2096">
        <ele>316.41</ele>
        <time>2018-05-27T10:14:47Z</time>
      </trkpt>
      <trkpt lat="46.01865" lon="1.20954">
        <ele>315.45</ele>
        <time>2018-05-27T10:14:48Z</time>
      </trkpt>
      <trkpt lat="46.01861" lon="1.20949">
        <ele>315.93</ele>
        <time>2018-05-27T10:14:49Z</time>
      </trkpt>
      <trkpt lat="46.01858" lon="1.20944">
        <ele>315.45</ele>
        <time>2018-05-27T10:14:50Z</time>
      </trkpt>
      <trkpt lat="46.01857" lon="1.20939">
        <ele>315.93</ele>
        <time>2018-05-27T10:14:51Z</time>
      </trkpt>
      <trkpt lat="46.01855" lon="1.20935">
        <ele>316.89</ele>
        <time>2018-05-27T10:14:52Z</time>
      </trkpt>
      <trkpt lat="46.01854" lon="1.20931">
        <ele>317.37</ele>
        <time>2018-05-27T10:14:53Z</time>
      </trkpt>
      <trkpt lat="46.01853" lon="1.20927">
        <ele>317.85</ele>
        <time>2018-05-27T10:14:54Z</time>
      </trkpt>
      <trkpt lat="46.01852" lon="1.20924">
        <ele>317.85</ele>
        <time>2018-05-27T10:14:55Z</time>
      </trkpt>
      <trkpt lat="46.01836" lon="1.20891">
        <ele>319.78</ele>
        <time>2018-05-27T10:15:04Z</time>
      </trkpt>
      <trkpt lat="46.01833" lon="1.20889">
        <ele>319.3</ele>
        <time>2018-05-27T10:15:05Z</time>
      </trkpt>
      <trkpt lat="46.0182" lon="1.20887">
        <ele>321.22</ele>
        <time>2018-05-27T10:15:09Z</time>
      </trkpt>
      <trkpt lat="46.01812" lon="1.2089">
        <ele>322.18</ele>
        <time>2018-05-27T10:15:13Z</time>
      </trkpt>
      <trkpt lat="46.01811" lon="1.20891">
        <ele>322.18</ele>
        <time>2018-05-27T10:15:14Z</time>
      </trkpt>
      <trkpt lat="46.01809" lon="1.20892">
        <ele>323.14</ele>
        <time>2018-05-27T10:15:15Z</time>
      </trkpt>
      <trkpt lat="46.01807" lon="1.20894">
        <ele>323.62</ele>
        <time>2018-05-27T10:15:16Z</time>
      </trkpt>
      <trkpt lat="46.01806" lon="1.20895">
        <ele>323.62</ele>
        <time>2018-05-27T10:15:17Z</time>
      </trkpt>
      <trkpt lat="46.01796" lon="1.20904">
        <ele>326.02</ele>
        <time>2018-05-27T10:15:26Z</time>
      </trkpt>
      <trkpt lat="46.01793" lon="1.20909">
        <ele>326.5</ele>
        <time>2018-05-27T10:15:30Z</time>
      </trkpt>
      <trkpt lat="46.01778" lon="1.20932">
        <ele>328.43</ele>
        <time>2018-05-27T10:15:41Z</time>
      </trkpt>
      <trkpt lat="46.01767" lon="1.20918">
        <ele>327.95</ele>
        <time>2018-05-27T10:15:48Z</time>
      </trkpt>
      <trkpt lat="46.01766" lon="1.20902">
        <ele>327.95</ele>
        <time>2018-05-27T10:15:52Z</time>
      </trkpt>
      <trkpt lat="46.01765" lon="1.20876">
        <ele>326.5</ele>
        <time>2018-05-27T10:16:01Z</time>
      </trkpt>
      <trkpt lat="46.01765" lon="1.20865">
        <ele>326.99</ele>
        <time>2018-05-27T10:16:05Z</time>
      </trkpt>
      <trkpt lat="46.01778" lon="1.20831">
        <ele>327.95</ele>
        <time>2018-05-27T10:16:14Z</time>
      </trkpt>
      <trkpt lat="46.01782" lon="1.20818">
        <ele>327.47</ele>
        <time>2018-05-27T10:16:18Z</time>
      </trkpt>
      <trkpt lat="46.01769" lon="1.20785">
        <ele>324.58</ele>
        <time>2018-05-27T10:16:26Z</time>
      </trkpt>
      <trkpt lat="46.01761" lon="1.20769">
        <ele>323.14</ele>
        <time>2018-05-27T10:16:31Z</time>
      </trkpt>
      <trkpt lat="46.01755" lon="1.20765">
        <ele>322.18</ele>
        <time>2018-05-27T10:16:33Z</time>
      </trkpt>
      <trkpt lat="46.01732" lon="1.20748">
        <ele>320.74</ele>
        <time>2018-05-27T10:16:43Z</time>
      </trkpt>
      <trkpt lat="46.01716" lon="1.20738">
        <ele>320.74</ele>
        <time>2018-05-27T10:16:54Z</time>
      </trkpt>
      <trkpt lat="46.01715" lon="1.2074">
        <ele>320.74</ele>
        <time>2018-05-27T10:17:08Z</time>
      </trkpt>
      <trkpt lat="46.01715" lon="1.20739">
        <ele>325.06</ele>
        <time>2018-05-27T10:17:14Z</time>
      </trkpt>
      <trkpt lat="46.01715" lon="1.20739">
        <ele>320.74</ele>
        <time>2018-05-27T10:17:15Z</time>
      </trkpt>
      <trkpt lat="46.01714" lon="1.20741">
        <ele>324.1</ele>
        <time>2018-05-27T10:17:33Z</time>
      </trkpt>
      <trkpt lat="46.01714" lon="1.20741">
        <ele>320.74</ele>
        <time>2018-05-27T10:17:34Z</time>
      </trkpt>
      <trkpt lat="46.01713" lon="1.20741">
        <ele>324.1</ele>
        <time>2018-05-27T10:17:38Z</time>
      </trkpt>
      <trkpt lat="46.01713" lon="1.20741">
        <ele>320.74</ele>
        <time>2018-05-27T10:17:39Z</time>
      </trkpt>
      <trkpt lat="46.01713" lon="1.20741">
        <ele>317.37</ele>
        <time>2018-05-27T10:17:42Z</time>
      </trkpt>
      <trkpt lat="46.01713" lon="1.20741">
        <ele>321.22</ele>
        <time>2018-05-27T10:17:43Z</time>
      </trkpt>
      <trkpt lat="46.01713" lon="1.20741">
        <ele>317.37</ele>
        <time>2018-05-27T10:17:45Z</time>
      </trkpt>
      <trkpt lat="46.01713" lon="1.20741">
        <ele>321.7</ele>
        <time>2018-05-27T10:17:46Z</time>
      </trkpt>
      <trkpt lat="46.01712" lon="1.20742">
        <ele>320.74</ele>
        <time>2018-05-27T10:17:53Z</time>
      </trkpt>
      <trkpt lat="46.01711" lon="1.20741">
        <ele>317.37</ele>
        <time>2018-05-27T10:18:09Z</time>
      </trkpt>
      <trkpt lat="46.01711" lon="1.20741">
        <ele>321.22</ele>
        <time>2018-05-27T10:18:11Z</time>
      </trkpt>
      <trkpt lat="46.0171" lon="1.20741">
        <ele>320.26</ele>
        <time>2018-05-27T10:18:12Z</time>
      </trkpt>
      <trkpt lat="46.0171" lon="1.20741">
        <ele>316.89</ele>
        <time>2018-05-27T10:18:13Z</time>
      </trkpt>
      <trkpt lat="46.0171" lon="1.20741">
        <ele>320.74</ele>
        <time>2018-05-27T10:18:14Z</time>
      </trkpt>
      <trkpt lat="46.0171" lon="1.20741">
        <ele>316.41</ele>
        <time>2018-05-27T10:18:17Z</time>
      </trkpt>
      <trkpt lat="46.0171" lon="1.2074">
        <ele>322.18</ele>
        <time>2018-05-27T10:18:18Z</time>
      </trkpt>
      <trkpt lat="46.0171" lon="1.2074">
        <ele>317.85</ele>
        <time>2018-05-27T10:18:25Z</time>
      </trkpt>
      <trkpt lat="46.0171" lon="1.2074">
        <ele>323.62</ele>
        <time>2018-05-27T10:18:27Z</time>
      </trkpt>
      <trkpt lat="46.0171" lon="1.2074">
        <ele>320.26</ele>
        <time>2018-05-27T10:18:28Z</time>
      </trkpt>
      <trkpt lat="46.0171" lon="1.20739">
        <ele>323.62</ele>
        <time>2018-05-27T10:18:31Z</time>
      </trkpt>
      <trkpt lat="46.0171" lon="1.20739">
        <ele>320.26</ele>
        <time>2018-05-27T10:18:32Z</time>
      </trkpt>
      <trkpt lat="46.0171" lon="1.20739">
        <ele>316.41</ele>
        <time>2018-05-27T10:18:34Z</time>
      </trkpt>
      <trkpt lat="46.0171" lon="1.20739">
        <ele>321.7</ele>
        <time>2018-05-27T10:18:35Z</time>
      </trkpt>
      <trkpt lat="46.01704" lon="1.20733">
        <ele>323.14</ele>
        <time>2018-05-27T10:18:53Z</time>
      </trkpt>
      <trkpt lat="46.017" lon="1.2073">
        <ele>320.26</ele>
        <time>2018-05-27T10:18:55Z</time>
      </trkpt>
      <trkpt lat="46.0169" lon="1.20722">
        <ele>319.78</ele>
        <time>2018-05-27T10:19:00Z</time>
      </trkpt>
      <trkpt lat="46.0167" lon="1.20696">
        <ele>319.78</ele>
        <time>2018-05-27T10:19:11Z</time>
      </trkpt>
      <trkpt lat="46.01656" lon="1.20675">
        <ele>320.26</ele>
        <time>2018-05-27T10:19:19Z</time>
      </trkpt>
      <trkpt lat="46.01647" lon="1.2066">
        <ele>320.26</ele>
        <time>2018-05-27T10:19:25Z</time>
      </trkpt>
      <trkpt lat="46.0163" lon="1.20631">
        <ele>323.14</ele>
        <time>2018-05-27T10:19:38Z</time>
      </trkpt>
      <trkpt lat="46.01623" lon="1.20626">
        <ele>324.58</ele>
        <time>2018-05-27T10:19:42Z</time>
      </trkpt>
      <trkpt lat="46.01614" lon="1.20624">
        <ele>325.54</ele>
        <time>2018-05-27T10:19:46Z</time>
      </trkpt>
      <trkpt lat="46.01582" lon="1.20622">
        <ele>326.02</ele>
        <time>2018-05-27T10:19:59Z</time>
      </trkpt>
      <trkpt lat="46.0155" lon="1.2063">
        <ele>326.02</ele>
        <time>2018-05-27T10:20:12Z</time>
      </trkpt>
      <trkpt lat="46.01547" lon="1.20631">
        <ele>326.02</ele>
        <time>2018-05-27T10:20:13Z</time>
      </trkpt>
      <trkpt lat="46.01517" lon="1.20641">
        <ele>326.02</ele>
        <time>2018-05-27T10:20:24Z</time>
      </trkpt>
      <trkpt lat="46.01475" lon="1.2066">
        <ele>326.5</ele>
        <time>2018-05-27T10:20:36Z</time>
      </trkpt>
      <trkpt lat="46.01445" lon="1.20674">
        <ele>326.99</ele>
        <time>2018-05-27T10:20:45Z</time>
      </trkpt>
      <trkpt lat="46.01414" lon="1.20694">
        <ele>328.43</ele>
        <time>2018-05-27T10:20:55Z</time>
      </trkpt>
      <trkpt lat="46.01383" lon="1.20717">
        <ele>330.35</ele>
        <time>2018-05-27T10:21:07Z</time>
      </trkpt>
      <trkpt lat="46.01369" lon="1.20748">
        <ele>333.71</ele>
        <time>2018-05-27T10:21:17Z</time>
      </trkpt>
      <trkpt lat="46.01363" lon="1.20753">
        <ele>333.71</ele>
        <time>2018-05-27T10:21:20Z</time>
      </trkpt>
      <trkpt lat="46.01351" lon="1.20748">
        <ele>333.23</ele>
        <time>2018-05-27T10:21:25Z</time>
      </trkpt>
      <trkpt lat="46.01341" lon="1.20739">
        <ele>333.23</ele>
        <time>2018-05-27T10:21:29Z</time>
      </trkpt>
      <trkpt lat="46.01335" lon="1.20708">
        <ele>332.27</ele>
        <time>2018-05-27T10:21:35Z</time>
      </trkpt>
      <trkpt lat="46.01309" lon="1.20674">
        <ele>335.16</ele>
        <time>2018-05-27T10:21:48Z</time>
      </trkpt>
      <trkpt lat="46.01303" lon="1.20665">
        <ele>334.2</ele>
        <time>2018-05-27T10:21:56Z</time>
      </trkpt>
      <trkpt lat="46.01299" lon="1.2066">
        <ele>333.71</ele>
        <time>2018-05-27T10:22:00Z</time>
      </trkpt>
      <trkpt lat="46.01268" lon="1.20641">
        <ele>331.31</ele>
        <time>2018-05-27T10:22:11Z</time>
      </trkpt>
      <trkpt lat="46.0125" lon="1.20631">
        <ele>329.39</ele>
        <time>2018-05-27T10:22:15Z</time>
      </trkpt>
      <trkpt lat="46.01245" lon="1.20627">
        <ele>328.91</ele>
        <time>2018-05-27T10:22:16Z</time>
      </trkpt>
      <trkpt lat="46.01242" lon="1.20621">
        <ele>328.91</ele>
        <time>2018-05-27T10:22:17Z</time>
      </trkpt>
      <trkpt lat="46.01239" lon="1.20614">
        <ele>327.95</ele>
        <time>2018-05-27T10:22:18Z</time>
      </trkpt>
      <trkpt lat="46.01238" lon="1.20606">
        <ele>327.95</ele>
        <time>2018-05-27T10:22:19Z</time>
      </trkpt>
      <trkpt lat="46.01238" lon="1.20598">
        <ele>327.95</ele>
        <time>2018-05-27T10:22:20Z</time>
      </trkpt>
      <trkpt lat="46.01238" lon="1.20591">
        <ele>327.95</ele>
        <time>2018-05-27T10:22:21Z</time>
      </trkpt>
      <trkpt lat="46.01238" lon="1.20583">
        <ele>327.95</ele>
        <time>2018-05-27T10:22:22Z</time>
      </trkpt>
      <trkpt lat="46.01244" lon="1.20505">
        <ele>329.87</ele>
        <time>2018-05-27T10:22:35Z</time>
      </trkpt>
      <trkpt lat="46.0123" lon="1.2044">
        <ele>332.75</ele>
        <time>2018-05-27T10:22:48Z</time>
      </trkpt>
      <trkpt lat="46.0122" lon="1.20399">
        <ele>335.64</ele>
        <time>2018-05-27T10:23:00Z</time>
      </trkpt>
      <trkpt lat="46.01203" lon="1.20351">
        <ele>334.68</ele>
        <time>2018-05-27T10:23:12Z</time>
      </trkpt>
      <trkpt lat="46.01195" lon="1.20324">
        <ele>334.2</ele>
        <time>2018-05-27T10:23:17Z</time>
      </trkpt>
      <trkpt lat="46.01193" lon="1.20318">
        <ele>334.2</ele>
        <time>2018-05-27T10:23:18Z</time>
      </trkpt>
      <trkpt lat="46.01162" lon="1.20208">
        <ele>332.27</ele>
        <time>2018-05-27T10:23:35Z</time>
      </trkpt>
      <trkpt lat="46.01161" lon="1.20201">
        <ele>332.27</ele>
        <time>2018-05-27T10:23:36Z</time>
      </trkpt>
      <trkpt lat="46.0116" lon="1.20195">
        <ele>332.27</ele>
        <time>2018-05-27T10:23:37Z</time>
      </trkpt>
      <trkpt lat="46.01159" lon="1.20188">
        <ele>332.75</ele>
        <time>2018-05-27T10:23:38Z</time>
      </trkpt>
      <trkpt lat="46.0116" lon="1.20181">
        <ele>332.27</ele>
        <time>2018-05-27T10:23:39Z</time>
      </trkpt>
      <trkpt lat="46.0116" lon="1.20174">
        <ele>332.27</ele>
        <time>2018-05-27T10:23:40Z</time>
      </trkpt>
      <trkpt lat="46.01161" lon="1.20167">
        <ele>332.27</ele>
        <time>2018-05-27T10:23:41Z</time>
      </trkpt>
      <trkpt lat="46.01162" lon="1.20161">
        <ele>332.75</ele>
        <time>2018-05-27T10:23:42Z</time>
      </trkpt>
      <trkpt lat="46.01167" lon="1.20141">
        <ele>333.23</ele>
        <time>2018-05-27T10:23:45Z</time>
      </trkpt>
      <trkpt lat="46.01174" lon="1.20077">
        <ele>336.6</ele>
        <time>2018-05-27T10:23:57Z</time>
      </trkpt>
      <trkpt lat="46.01178" lon="1.20021">
        <ele>339.48</ele>
        <time>2018-05-27T10:24:09Z</time>
      </trkpt>
      <trkpt lat="46.01188" lon="1.19967">
        <ele>341.89</ele>
        <time>2018-05-27T10:24:21Z</time>
      </trkpt>
      <trkpt lat="46.01192" lon="1.19957">
        <ele>341.89</ele>
        <time>2018-05-27T10:24:24Z</time>
      </trkpt>
      <trkpt lat="46.01192" lon="1.19954">
        <ele>341.89</ele>
        <time>2018-05-27T10:24:25Z</time>
      </trkpt>
      <trkpt lat="46.01192" lon="1.1995">
        <ele>341.89</ele>
        <time>2018-05-27T10:24:26Z</time>
      </trkpt>
      <trkpt lat="46.01193" lon="1.19947">
        <ele>341.89</ele>
        <time>2018-05-27T10:24:27Z</time>
      </trkpt>
      <trkpt lat="46.01193" lon="1.19944">
        <ele>342.37</ele>
        <time>2018-05-27T10:24:28Z</time>
      </trkpt>
      <trkpt lat="46.01195" lon="1.19941">
        <ele>342.37</ele>
        <time>2018-05-27T10:24:29Z</time>
      </trkpt>
      <trkpt lat="46.01202" lon="1.19904">
        <ele>344.77</ele>
        <time>2018-05-27T10:24:38Z</time>
      </trkpt>
      <trkpt lat="46.01202" lon="1.19901">
        <ele>344.29</ele>
        <time>2018-05-27T10:24:39Z</time>
      </trkpt>
      <trkpt lat="46.01203" lon="1.19898">
        <ele>344.77</ele>
        <time>2018-05-27T10:24:40Z</time>
      </trkpt>
      <trkpt lat="46.01203" lon="1.19895">
        <ele>344.77</ele>
        <time>2018-05-27T10:24:41Z</time>
      </trkpt>
      <trkpt lat="46.01204" lon="1.19893">
        <ele>345.25</ele>
        <time>2018-05-27T10:24:42Z</time>
      </trkpt>
      <trkpt lat="46.01204" lon="1.1989">
        <ele>345.25</ele>
        <time>2018-05-27T10:24:43Z</time>
      </trkpt>
      <trkpt lat="46.01205" lon="1.19887">
        <ele>345.25</ele>
        <time>2018-05-27T10:24:44Z</time>
      </trkpt>
      <trkpt lat="46.01206" lon="1.19885">
        <ele>345.25</ele>
        <time>2018-05-27T10:24:45Z</time>
      </trkpt>
      <trkpt lat="46.0122" lon="1.19842">
        <ele>346.69</ele>
        <time>2018-05-27T10:24:56Z</time>
      </trkpt>
      <trkpt lat="46.01252" lon="1.19796">
        <ele>347.17</ele>
        <time>2018-05-27T10:25:08Z</time>
      </trkpt>
      <trkpt lat="46.01285" lon="1.19771">
        <ele>348.13</ele>
        <time>2018-05-27T10:25:19Z</time>
      </trkpt>
      <trkpt lat="46.01289" lon="1.19769">
        <ele>348.62</ele>
        <time>2018-05-27T10:25:20Z</time>
      </trkpt>
      <trkpt lat="46.01293" lon="1.19766">
        <ele>348.13</ele>
        <time>2018-05-27T10:25:21Z</time>
      </trkpt>
      <trkpt lat="46.01332" lon="1.19744">
        <ele>350.06</ele>
        <time>2018-05-27T10:25:32Z</time>
      </trkpt>
      <trkpt lat="46.01345" lon="1.19736">
        <ele>351.02</ele>
        <time>2018-05-27T10:25:36Z</time>
      </trkpt>
      <trkpt lat="46.01352" lon="1.19731">
        <ele>351.02</ele>
        <time>2018-05-27T10:25:38Z</time>
      </trkpt>
      <trkpt lat="46.01354" lon="1.19729">
        <ele>351.02</ele>
        <time>2018-05-27T10:25:39Z</time>
      </trkpt>
      <trkpt lat="46.01355" lon="1.19726">
        <ele>351.5</ele>
        <time>2018-05-27T10:25:40Z</time>
      </trkpt>
      <trkpt lat="46.01356" lon="1.1972">
        <ele>351.5</ele>
        <time>2018-05-27T10:25:42Z</time>
      </trkpt>
      <trkpt lat="46.01356" lon="1.19717">
        <ele>351.5</ele>
        <time>2018-05-27T10:25:43Z</time>
      </trkpt>
      <trkpt lat="46.01363" lon="1.19705">
        <ele>353.42</ele>
        <time>2018-05-27T10:25:52Z</time>
      </trkpt>
      <trkpt lat="46.01365" lon="1.19696">
        <ele>355.83</ele>
        <time>2018-05-27T10:26:05Z</time>
      </trkpt>
      <trkpt lat="46.01365" lon="1.19688">
        <ele>357.27</ele>
        <time>2018-05-27T10:26:16Z</time>
      </trkpt>
      <trkpt lat="46.01361" lon="1.19672">
        <ele>359.19</ele>
        <time>2018-05-27T10:26:28Z</time>
      </trkpt>
      <trkpt lat="46.01361" lon="1.19669">
        <ele>359.19</ele>
        <time>2018-05-27T10:26:30Z</time>
      </trkpt>
      <trkpt lat="46.01361" lon="1.19667">
        <ele>359.19</ele>
        <time>2018-05-27T10:26:31Z</time>
      </trkpt>
      <trkpt lat="46.01361" lon="1.19665">
        <ele>359.67</ele>
        <time>2018-05-27T10:26:32Z</time>
      </trkpt>
      <trkpt lat="46.0136" lon="1.19663">
        <ele>359.67</ele>
        <time>2018-05-27T10:26:33Z</time>
      </trkpt>
      <trkpt lat="46.01358" lon="1.19654">
        <ele>360.15</ele>
        <time>2018-05-27T10:26:46Z</time>
      </trkpt>
      <trkpt lat="46.01356" lon="1.19655">
        <ele>360.15</ele>
        <time>2018-05-27T10:27:22Z</time>
      </trkpt>
      <trkpt lat="46.01356" lon="1.19654">
        <ele>360.15</ele>
        <time>2018-05-27T10:27:59Z</time>
      </trkpt>
      <trkpt lat="46.01355" lon="1.19648">
        <ele>360.63</ele>
        <time>2018-05-27T10:28:16Z</time>
      </trkpt>
      <trkpt lat="46.01355" lon="1.19645">
        <ele>360.15</ele>
        <time>2018-05-27T10:28:27Z</time>
      </trkpt>
      <trkpt lat="46.01354" lon="1.19643">
        <ele>360.63</ele>
        <time>2018-05-27T10:28:43Z</time>
      </trkpt>
      <trkpt lat="46.01353" lon="1.19642">
        <ele>360.15</ele>
        <time>2018-05-27T10:28:44Z</time>
      </trkpt>
      <trkpt lat="46.01351" lon="1.19641">
        <ele>360.63</ele>
        <time>2018-05-27T10:28:45Z</time>
      </trkpt>
      <trkpt lat="46.0135" lon="1.19639">
        <ele>360.63</ele>
        <time>2018-05-27T10:28:46Z</time>
      </trkpt>
      <trkpt lat="46.01349" lon="1.19637">
        <ele>361.11</ele>
        <time>2018-05-27T10:28:47Z</time>
      </trkpt>
      <trkpt lat="46.01342" lon="1.19626">
        <ele>362.07</ele>
        <time>2018-05-27T10:28:53Z</time>
      </trkpt>
      <trkpt lat="46.01341" lon="1.19624">
        <ele>362.55</ele>
        <time>2018-05-27T10:28:54Z</time>
      </trkpt>
      <trkpt lat="46.0134" lon="1.19622">
        <ele>362.55</ele>
        <time>2018-05-27T10:28:55Z</time>
      </trkpt>
      <trkpt lat="46.01338" lon="1.1962">
        <ele>362.55</ele>
        <time>2018-05-27T10:28:56Z</time>
      </trkpt>
      <trkpt lat="46.01337" lon="1.19618">
        <ele>363.04</ele>
        <time>2018-05-27T10:28:57Z</time>
      </trkpt>
      <trkpt lat="46.01336" lon="1.19615">
        <ele>363.04</ele>
        <time>2018-05-27T10:28:58Z</time>
      </trkpt>
      <trkpt lat="46.01335" lon="1.19613">
        <ele>363.04</ele>
        <time>2018-05-27T10:28:59Z</time>
      </trkpt>
      <trkpt lat="46.01331" lon="1.19592">
        <ele>363.04</ele>
        <time>2018-05-27T10:29:09Z</time>
      </trkpt>
      <trkpt lat="46.01334" lon="1.19578">
        <ele>363.04</ele>
        <time>2018-05-27T10:29:15Z</time>
      </trkpt>
      <trkpt lat="46.01334" lon="1.19574">
        <ele>363.52</ele>
        <time>2018-05-27T10:29:16Z</time>
      </trkpt>
      <trkpt lat="46.01334" lon="1.19571">
        <ele>363.52</ele>
        <time>2018-05-27T10:29:17Z</time>
      </trkpt>
      <trkpt lat="46.01333" lon="1.19568">
        <ele>364</ele>
        <time>2018-05-27T10:29:18Z</time>
      </trkpt>
      <trkpt lat="46.01332" lon="1.19564">
        <ele>363.52</ele>
        <time>2018-05-27T10:29:19Z</time>
      </trkpt>
      <trkpt lat="46.01331" lon="1.19561">
        <ele>364</ele>
        <time>2018-05-27T10:29:20Z</time>
      </trkpt>
      <trkpt lat="46.01331" lon="1.19557">
        <ele>364</ele>
        <time>2018-05-27T10:29:21Z</time>
      </trkpt>
      <trkpt lat="46.0133" lon="1.19555">
        <ele>364.48</ele>
        <time>2018-05-27T10:29:22Z</time>
      </trkpt>
      <trkpt lat="46.0133" lon="1.19552">
        <ele>364</ele>
        <time>2018-05-27T10:29:23Z</time>
      </trkpt>
      <trkpt lat="46.01329" lon="1.1955">
        <ele>364.48</ele>
        <time>2018-05-27T10:29:24Z</time>
      </trkpt>
      <trkpt lat="46.01328" lon="1.19547">
        <ele>364.48</ele>
        <time>2018-05-27T10:29:25Z</time>
      </trkpt>
      <trkpt lat="46.01328" lon="1.19545">
        <ele>364.96</ele>
        <time>2018-05-27T10:29:26Z</time>
      </trkpt>
      <trkpt lat="46.01328" lon="1.19542">
        <ele>364.96</ele>
        <time>2018-05-27T10:29:27Z</time>
      </trkpt>
      <trkpt lat="46.01329" lon="1.1954">
        <ele>364.96</ele>
        <time>2018-05-27T10:29:28Z</time>
      </trkpt>
      <trkpt lat="46.01329" lon="1.19537">
        <ele>364.96</ele>
        <time>2018-05-27T10:29:29Z</time>
      </trkpt>
      <trkpt lat="46.01332" lon="1.19519">
        <ele>365.44</ele>
        <time>2018-05-27T10:29:35Z</time>
      </trkpt>
      <trkpt lat="46.01334" lon="1.19517">
        <ele>365.44</ele>
        <time>2018-05-27T10:29:36Z</time>
      </trkpt>
      <trkpt lat="46.01335" lon="1.19514">
        <ele>365.44</ele>
        <time>2018-05-27T10:29:37Z</time>
      </trkpt>
      <trkpt lat="46.01349" lon="1.19482">
        <ele>365.92</ele>
        <time>2018-05-27T10:29:47Z</time>
      </trkpt>
      <trkpt lat="46.0135" lon="1.19479">
        <ele>366.4</ele>
        <time>2018-05-27T10:29:48Z</time>
      </trkpt>
      <trkpt lat="46.01354" lon="1.19465">
        <ele>367.36</ele>
        <time>2018-05-27T10:29:53Z</time>
      </trkpt>
      <trkpt lat="46.01353" lon="1.19463">
        <ele>367.36</ele>
        <time>2018-05-27T10:29:54Z</time>
      </trkpt>
      <trkpt lat="46.01352" lon="1.1946">
        <ele>367.84</ele>
        <time>2018-05-27T10:29:55Z</time>
      </trkpt>
      <trkpt lat="46.0135" lon="1.19459">
        <ele>367.36</ele>
        <time>2018-05-27T10:29:56Z</time>
      </trkpt>
      <trkpt lat="46.01348" lon="1.19458">
        <ele>367.84</ele>
        <time>2018-05-27T10:29:57Z</time>
      </trkpt>
      <trkpt lat="46.01346" lon="1.19458">
        <ele>367.84</ele>
        <time>2018-05-27T10:29:58Z</time>
      </trkpt>
      <trkpt lat="46.01325" lon="1.19451">
        <ele>369.76</ele>
        <time>2018-05-27T10:30:10Z</time>
      </trkpt>
      <trkpt lat="46.01298" lon="1.19439">
        <ele>372.17</ele>
        <time>2018-05-27T10:30:24Z</time>
      </trkpt>
      <trkpt lat="46.01272" lon="1.19424">
        <ele>375.53</ele>
        <time>2018-05-27T10:30:38Z</time>
      </trkpt>
      <trkpt lat="46.01271" lon="1.19423">
        <ele>375.05</ele>
        <time>2018-05-27T10:30:39Z</time>
      </trkpt>
      <trkpt lat="46.0127" lon="1.19422">
        <ele>375.53</ele>
        <time>2018-05-27T10:30:40Z</time>
      </trkpt>
      <trkpt lat="46.01269" lon="1.19421">
        <ele>375.53</ele>
        <time>2018-05-27T10:30:41Z</time>
      </trkpt>
      <trkpt lat="46.01267" lon="1.1942">
        <ele>375.53</ele>
        <time>2018-05-27T10:30:42Z</time>
      </trkpt>
      <trkpt lat="46.01263" lon="1.19416">
        <ele>375.53</ele>
        <time>2018-05-27T10:30:45Z</time>
      </trkpt>
      <trkpt lat="46.01261" lon="1.19415">
        <ele>375.53</ele>
        <time>2018-05-27T10:30:46Z</time>
      </trkpt>
      <trkpt lat="46.0126" lon="1.19414">
        <ele>376.01</ele>
        <time>2018-05-27T10:30:47Z</time>
      </trkpt>
      <trkpt lat="46.01259" lon="1.19413">
        <ele>376.01</ele>
        <time>2018-05-27T10:30:48Z</time>
      </trkpt>
      <trkpt lat="46.01258" lon="1.19413">
        <ele>376.49</ele>
        <time>2018-05-27T10:30:49Z</time>
      </trkpt>
      <trkpt lat="46.01257" lon="1.19412">
        <ele>376.49</ele>
        <time>2018-05-27T10:30:50Z</time>
      </trkpt>
      <trkpt lat="46.01253" lon="1.19409">
        <ele>376.97</ele>
        <time>2018-05-27T10:30:54Z</time>
      </trkpt>
      <trkpt lat="46.01244" lon="1.19403">
        <ele>377.45</ele>
        <time>2018-05-27T10:31:04Z</time>
      </trkpt>
      <trkpt lat="46.01229" lon="1.19395">
        <ele>379.38</ele>
        <time>2018-05-27T10:31:14Z</time>
      </trkpt>
      <trkpt lat="46.01225" lon="1.19392">
        <ele>379.38</ele>
        <time>2018-05-27T10:31:17Z</time>
      </trkpt>
      <trkpt lat="46.01221" lon="1.1939">
        <ele>379.38</ele>
        <time>2018-05-27T10:31:19Z</time>
      </trkpt>
      <trkpt lat="46.0122" lon="1.1939">
        <ele>379.86</ele>
        <time>2018-05-27T10:31:20Z</time>
      </trkpt>
      <trkpt lat="46.01218" lon="1.19389">
        <ele>379.86</ele>
        <time>2018-05-27T10:31:21Z</time>
      </trkpt>
      <trkpt lat="46.01217" lon="1.19388">
        <ele>379.86</ele>
        <time>2018-05-27T10:31:22Z</time>
      </trkpt>
      <trkpt lat="46.01203" lon="1.19377">
        <ele>381.78</ele>
        <time>2018-05-27T10:31:34Z</time>
      </trkpt>
      <trkpt lat="46.01185" lon="1.19368">
        <ele>383.22</ele>
        <time>2018-05-27T10:31:43Z</time>
      </trkpt>
      <trkpt lat="46.01162" lon="1.19352">
        <ele>384.18</ele>
        <time>2018-05-27T10:31:55Z</time>
      </trkpt>
      <trkpt lat="46.01158" lon="1.19351">
        <ele>385.15</ele>
        <time>2018-05-27T10:31:58Z</time>
      </trkpt>
      <trkpt lat="46.01156" lon="1.19351">
        <ele>384.66</ele>
        <time>2018-05-27T10:31:59Z</time>
      </trkpt>
      <trkpt lat="46.01147" lon="1.19344">
        <ele>384.66</ele>
        <time>2018-05-27T10:32:03Z</time>
      </trkpt>
      <trkpt lat="46.01145" lon="1.19343">
        <ele>385.15</ele>
        <time>2018-05-27T10:32:04Z</time>
      </trkpt>
      <trkpt lat="46.01124" lon="1.19332">
        <ele>386.11</ele>
        <time>2018-05-27T10:32:14Z</time>
      </trkpt>
      <trkpt lat="46.01122" lon="1.19331">
        <ele>386.59</ele>
        <time>2018-05-27T10:32:15Z</time>
      </trkpt>
      <trkpt lat="46.01091" lon="1.19309">
        <ele>388.51</ele>
        <time>2018-05-27T10:32:29Z</time>
      </trkpt>
      <trkpt lat="46.01063" lon="1.19293">
        <ele>389.47</ele>
        <time>2018-05-27T10:32:41Z</time>
      </trkpt>
      <trkpt lat="46.01034" lon="1.19274">
        <ele>390.43</ele>
        <time>2018-05-27T10:32:52Z</time>
      </trkpt>
      <trkpt lat="46.00997" lon="1.1925">
        <ele>391.39</ele>
        <time>2018-05-27T10:33:03Z</time>
      </trkpt>
      <trkpt lat="46.00976" lon="1.19236">
        <ele>391.87</ele>
        <time>2018-05-27T10:33:10Z</time>
      </trkpt>
      <trkpt lat="46.00974" lon="1.19234">
        <ele>391.87</ele>
        <time>2018-05-27T10:33:11Z</time>
      </trkpt>
      <trkpt lat="46.00971" lon="1.19232">
        <ele>392.36</ele>
        <time>2018-05-27T10:33:12Z</time>
      </trkpt>
      <trkpt lat="46.00928" lon="1.19207">
        <ele>391.87</ele>
        <time>2018-05-27T10:33:24Z</time>
      </trkpt>
      <trkpt lat="46.00901" lon="1.19191">
        <ele>392.84</ele>
        <time>2018-05-27T10:33:31Z</time>
      </trkpt>
      <trkpt lat="46.00871" lon="1.19174">
        <ele>393.8</ele>
        <time>2018-05-27T10:33:41Z</time>
      </trkpt>
      <trkpt lat="46.00833" lon="1.19149">
        <ele>394.28</ele>
        <time>2018-05-27T10:33:52Z</time>
      </trkpt>
      <trkpt lat="46.00803" lon="1.19119">
        <ele>396.2</ele>
        <time>2018-05-27T10:34:03Z</time>
      </trkpt>
      <trkpt lat="46.00801" lon="1.19117">
        <ele>396.2</ele>
        <time>2018-05-27T10:34:04Z</time>
      </trkpt>
      <trkpt lat="46.008" lon="1.19117">
        <ele>396.2</ele>
        <time>2018-05-27T10:34:05Z</time>
      </trkpt>
      <trkpt lat="46.008" lon="1.19118">
        <ele>396.68</ele>
        <time>2018-05-27T10:34:06Z</time>
      </trkpt>
      <trkpt lat="46.00797" lon="1.19122">
        <ele>396.2</ele>
        <time>2018-05-27T10:34:16Z</time>
      </trkpt>
      <trkpt lat="46.00798" lon="1.19122">
        <ele>391.87</ele>
        <time>2018-05-27T10:34:31Z</time>
      </trkpt>
      <trkpt lat="46.00798" lon="1.19122">
        <ele>397.16</ele>
        <time>2018-05-27T10:34:32Z</time>
      </trkpt>
      <trkpt lat="46.00799" lon="1.19122">
        <ele>391.87</ele>
        <time>2018-05-27T10:34:33Z</time>
      </trkpt>
      <trkpt lat="46.00799" lon="1.19123">
        <ele>396.68</ele>
        <time>2018-05-27T10:34:34Z</time>
      </trkpt>
      <trkpt lat="46.00799" lon="1.19122">
        <ele>396.68</ele>
        <time>2018-05-27T10:34:39Z</time>
      </trkpt>
      <trkpt lat="46.008" lon="1.19118">
        <ele>396.2</ele>
        <time>2018-05-27T10:34:51Z</time>
      </trkpt>
      <trkpt lat="46.00801" lon="1.19112">
        <ele>396.2</ele>
        <time>2018-05-27T10:35:01Z</time>
      </trkpt>
      <trkpt lat="46.00815" lon="1.19081">
        <ele>394.76</ele>
        <time>2018-05-27T10:35:11Z</time>
      </trkpt>
      <trkpt lat="46.00827" lon="1.19026">
        <ele>393.32</ele>
        <time>2018-05-27T10:35:22Z</time>
      </trkpt>
      <trkpt lat="46.00838" lon="1.18962">
        <ele>391.87</ele>
        <time>2018-05-27T10:35:32Z</time>
      </trkpt>
      <trkpt lat="46.00839" lon="1.18942">
        <ele>388.51</ele>
        <time>2018-05-27T10:35:35Z</time>
      </trkpt>
      <trkpt lat="46.00842" lon="1.18921">
        <ele>391.87</ele>
        <time>2018-05-27T10:35:38Z</time>
      </trkpt>
      <trkpt lat="46.00845" lon="1.18897">
        <ele>388.51</ele>
        <time>2018-05-27T10:35:41Z</time>
      </trkpt>
      <trkpt lat="46.00853" lon="1.18837">
        <ele>385.63</ele>
        <time>2018-05-27T10:35:48Z</time>
      </trkpt>
      <trkpt lat="46.00863" lon="1.18771">
        <ele>382.74</ele>
        <time>2018-05-27T10:35:55Z</time>
      </trkpt>
      <trkpt lat="46.00865" lon="1.18755">
        <ele>381.3</ele>
        <time>2018-05-27T10:35:57Z</time>
      </trkpt>
      <trkpt lat="46.00866" lon="1.18748">
        <ele>381.3</ele>
        <time>2018-05-27T10:35:58Z</time>
      </trkpt>
      <trkpt lat="46.00866" lon="1.18743">
        <ele>380.82</ele>
        <time>2018-05-27T10:35:59Z</time>
      </trkpt>
      <trkpt lat="46.00866" lon="1.18739">
        <ele>380.82</ele>
        <time>2018-05-27T10:36:00Z</time>
      </trkpt>
      <trkpt lat="46.00866" lon="1.18735">
        <ele>380.82</ele>
        <time>2018-05-27T10:36:01Z</time>
      </trkpt>
      <trkpt lat="46.00866" lon="1.18729">
        <ele>380.34</ele>
        <time>2018-05-27T10:36:02Z</time>
      </trkpt>
      <trkpt lat="46.00868" lon="1.18718">
        <ele>379.86</ele>
        <time>2018-05-27T10:36:04Z</time>
      </trkpt>
      <trkpt lat="46.00868" lon="1.18712">
        <ele>379.38</ele>
        <time>2018-05-27T10:36:05Z</time>
      </trkpt>
      <trkpt lat="46.00867" lon="1.18708">
        <ele>379.86</ele>
        <time>2018-05-27T10:36:06Z</time>
      </trkpt>
      <trkpt lat="46.00865" lon="1.18704">
        <ele>378.9</ele>
        <time>2018-05-27T10:36:07Z</time>
      </trkpt>
      <trkpt lat="46.00862" lon="1.18702">
        <ele>378.9</ele>
        <time>2018-05-27T10:36:08Z</time>
      </trkpt>
      <trkpt lat="46.00858" lon="1.187">
        <ele>377.94</ele>
        <time>2018-05-27T10:36:09Z</time>
      </trkpt>
      <trkpt lat="46.00854" lon="1.18698">
        <ele>377.94</ele>
        <time>2018-05-27T10:36:10Z</time>
      </trkpt>
      <trkpt lat="46.00849" lon="1.18697">
        <ele>377.45</ele>
        <time>2018-05-27T10:36:11Z</time>
      </trkpt>
      <trkpt lat="46.00837" lon="1.18694">
        <ele>376.49</ele>
        <time>2018-05-27T10:36:14Z</time>
      </trkpt>
      <trkpt lat="46.00832" lon="1.18695">
        <ele>376.01</ele>
        <time>2018-05-27T10:36:15Z</time>
      </trkpt>
      <trkpt lat="46.00823" lon="1.18697">
        <ele>376.01</ele>
        <time>2018-05-27T10:36:17Z</time>
      </trkpt>
      <trkpt lat="46.00818" lon="1.18699">
        <ele>375.53</ele>
        <time>2018-05-27T10:36:18Z</time>
      </trkpt>
      <trkpt lat="46.00814" lon="1.18703">
        <ele>375.05</ele>
        <time>2018-05-27T10:36:19Z</time>
      </trkpt>
      <trkpt lat="46.0081" lon="1.18707">
        <ele>375.05</ele>
        <time>2018-05-27T10:36:20Z</time>
      </trkpt>
      <trkpt lat="46.00807" lon="1.18709">
        <ele>374.57</ele>
        <time>2018-05-27T10:36:21Z</time>
      </trkpt>
      <trkpt lat="46.00789" lon="1.18717">
        <ele>375.53</ele>
        <time>2018-05-27T10:36:29Z</time>
      </trkpt>
      <trkpt lat="46.00787" lon="1.18717">
        <ele>373.61</ele>
        <time>2018-05-27T10:36:30Z</time>
      </trkpt>
      <trkpt lat="46.00774" lon="1.18717">
        <ele>370.73</ele>
        <time>2018-05-27T10:36:34Z</time>
      </trkpt>
      <trkpt lat="46.00753" lon="1.18708">
        <ele>368.8</ele>
        <time>2018-05-27T10:36:38Z</time>
      </trkpt>
      <trkpt lat="46.00748" lon="1.18704">
        <ele>367.84</ele>
        <time>2018-05-27T10:36:39Z</time>
      </trkpt>
      <trkpt lat="46.00735" lon="1.18696">
        <ele>366.4</ele>
        <time>2018-05-27T10:36:41Z</time>
      </trkpt>
      <trkpt lat="46.00716" lon="1.18681">
        <ele>364.48</ele>
        <time>2018-05-27T10:36:44Z</time>
      </trkpt>
      <trkpt lat="46.00696" lon="1.18667">
        <ele>361.59</ele>
        <time>2018-05-27T10:36:47Z</time>
      </trkpt>
      <trkpt lat="46.0069" lon="1.18662">
        <ele>361.11</ele>
        <time>2018-05-27T10:36:48Z</time>
      </trkpt>
      <trkpt lat="46.00677" lon="1.18652">
        <ele>359.19</ele>
        <time>2018-05-27T10:36:50Z</time>
      </trkpt>
      <trkpt lat="46.00655" lon="1.18635">
        <ele>355.83</ele>
        <time>2018-05-27T10:36:54Z</time>
      </trkpt>
      <trkpt lat="46.00649" lon="1.18634">
        <ele>355.83</ele>
        <time>2018-05-27T10:36:55Z</time>
      </trkpt>
      <trkpt lat="46.00637" lon="1.18638">
        <ele>357.27</ele>
        <time>2018-05-27T10:36:58Z</time>
      </trkpt>
      <trkpt lat="46.00582" lon="1.1865">
        <ele>358.71</ele>
        <time>2018-05-27T10:37:11Z</time>
      </trkpt>
      <trkpt lat="46.0054" lon="1.18646">
        <ele>358.23</ele>
        <time>2018-05-27T10:37:21Z</time>
      </trkpt>
      <trkpt lat="46.0053" lon="1.1864">
        <ele>356.79</ele>
        <time>2018-05-27T10:37:24Z</time>
      </trkpt>
      <trkpt lat="46.00524" lon="1.18635">
        <ele>354.86</ele>
        <time>2018-05-27T10:37:25Z</time>
      </trkpt>
      <trkpt lat="46.00511" lon="1.18626">
        <ele>352.94</ele>
        <time>2018-05-27T10:37:27Z</time>
      </trkpt>
      <trkpt lat="46.00503" lon="1.1862">
        <ele>351.98</ele>
        <time>2018-05-27T10:37:28Z</time>
      </trkpt>
      <trkpt lat="46.00495" lon="1.18614">
        <ele>351.98</ele>
        <time>2018-05-27T10:37:29Z</time>
      </trkpt>
      <trkpt lat="46.00485" lon="1.1861">
        <ele>351.98</ele>
        <time>2018-05-27T10:37:30Z</time>
      </trkpt>
      <trkpt lat="46.00477" lon="1.18607">
        <ele>352.46</ele>
        <time>2018-05-27T10:37:31Z</time>
      </trkpt>
      <trkpt lat="46.0047" lon="1.18605">
        <ele>351.98</ele>
        <time>2018-05-27T10:37:32Z</time>
      </trkpt>
      <trkpt lat="46.00456" lon="1.186">
        <ele>351.02</ele>
        <time>2018-05-27T10:37:34Z</time>
      </trkpt>
      <trkpt lat="46.00427" lon="1.18583">
        <ele>348.13</ele>
        <time>2018-05-27T10:37:38Z</time>
      </trkpt>
      <trkpt lat="46.0042" lon="1.18578">
        <ele>348.13</ele>
        <time>2018-05-27T10:37:39Z</time>
      </trkpt>
      <trkpt lat="46.00363" lon="1.18549">
        <ele>346.21</ele>
        <time>2018-05-27T10:37:47Z</time>
      </trkpt>
      <trkpt lat="46.00358" lon="1.18546">
        <ele>346.21</ele>
        <time>2018-05-27T10:37:48Z</time>
      </trkpt>
      <trkpt lat="46.00353" lon="1.18543">
        <ele>346.21</ele>
        <time>2018-05-27T10:37:49Z</time>
      </trkpt>
      <trkpt lat="46.0034" lon="1.18537">
        <ele>346.69</ele>
        <time>2018-05-27T10:37:52Z</time>
      </trkpt>
      <trkpt lat="46.00334" lon="1.18534">
        <ele>346.21</ele>
        <time>2018-05-27T10:37:53Z</time>
      </trkpt>
      <trkpt lat="46.0033" lon="1.18531">
        <ele>345.73</ele>
        <time>2018-05-27T10:37:54Z</time>
      </trkpt>
      <trkpt lat="46.00327" lon="1.18526">
        <ele>345.73</ele>
        <time>2018-05-27T10:37:55Z</time>
      </trkpt>
      <trkpt lat="46.00326" lon="1.18518">
        <ele>344.77</ele>
        <time>2018-05-27T10:37:56Z</time>
      </trkpt>
      <trkpt lat="46.00326" lon="1.1851">
        <ele>344.29</ele>
        <time>2018-05-27T10:37:57Z</time>
      </trkpt>
      <trkpt lat="46.00327" lon="1.18502">
        <ele>344.29</ele>
        <time>2018-05-27T10:37:58Z</time>
      </trkpt>
      <trkpt lat="46.00329" lon="1.18494">
        <ele>343.33</ele>
        <time>2018-05-27T10:37:59Z</time>
      </trkpt>
      <trkpt lat="46.00331" lon="1.18487">
        <ele>343.33</ele>
        <time>2018-05-27T10:38:00Z</time>
      </trkpt>
      <trkpt lat="46.00332" lon="1.18482">
        <ele>343.33</ele>
        <time>2018-05-27T10:38:01Z</time>
      </trkpt>
      <trkpt lat="46.00333" lon="1.18478">
        <ele>343.81</ele>
        <time>2018-05-27T10:38:02Z</time>
      </trkpt>
      <trkpt lat="46.00334" lon="1.18474">
        <ele>342.85</ele>
        <time>2018-05-27T10:38:03Z</time>
      </trkpt>
      <trkpt lat="46.00336" lon="1.18471">
        <ele>343.33</ele>
        <time>2018-05-27T10:38:04Z</time>
      </trkpt>
      <trkpt lat="46.00346" lon="1.18451">
        <ele>342.37</ele>
        <time>2018-05-27T10:38:08Z</time>
      </trkpt>
      <trkpt lat="46.00365" lon="1.18409">
        <ele>341.41</ele>
        <time>2018-05-27T10:38:15Z</time>
      </trkpt>
      <trkpt lat="46.00369" lon="1.18403">
        <ele>340.92</ele>
        <time>2018-05-27T10:38:16Z</time>
      </trkpt>
      <trkpt lat="46.00394" lon="1.18359">
        <ele>337.56</ele>
        <time>2018-05-27T10:38:22Z</time>
      </trkpt>
      <trkpt lat="46.00397" lon="1.18351">
        <ele>337.08</ele>
        <time>2018-05-27T10:38:23Z</time>
      </trkpt>
      <trkpt lat="46.00398" lon="1.18346">
        <ele>337.56</ele>
        <time>2018-05-27T10:38:24Z</time>
      </trkpt>
      <trkpt lat="46.00398" lon="1.18341">
        <ele>337.56</ele>
        <time>2018-05-27T10:38:25Z</time>
      </trkpt>
      <trkpt lat="46.00397" lon="1.18338">
        <ele>337.56</ele>
        <time>2018-05-27T10:38:26Z</time>
      </trkpt>
      <trkpt lat="46.00395" lon="1.18335">
        <ele>337.56</ele>
        <time>2018-05-27T10:38:27Z</time>
      </trkpt>
      <trkpt lat="46.00393" lon="1.18333">
        <ele>337.56</ele>
        <time>2018-05-27T10:38:28Z</time>
      </trkpt>
      <trkpt lat="46.00389" lon="1.1833">
        <ele>337.56</ele>
        <time>2018-05-27T10:38:29Z</time>
      </trkpt>
      <trkpt lat="46.00384" lon="1.18327">
        <ele>337.08</ele>
        <time>2018-05-27T10:38:30Z</time>
      </trkpt>
      <trkpt lat="46.0038" lon="1.18327">
        <ele>337.08</ele>
        <time>2018-05-27T10:38:31Z</time>
      </trkpt>
      <trkpt lat="46.00376" lon="1.18328">
        <ele>337.56</ele>
        <time>2018-05-27T10:38:32Z</time>
      </trkpt>
      <trkpt lat="46.00367" lon="1.18331">
        <ele>337.56</ele>
        <time>2018-05-27T10:38:34Z</time>
      </trkpt>
      <trkpt lat="46.00363" lon="1.18331">
        <ele>337.56</ele>
        <time>2018-05-27T10:38:35Z</time>
      </trkpt>
      <trkpt lat="46.00302" lon="1.18319">
        <ele>339.48</ele>
        <time>2018-05-27T10:38:50Z</time>
      </trkpt>
      <trkpt lat="46.00257" lon="1.18302">
        <ele>341.89</ele>
        <time>2018-05-27T10:39:03Z</time>
      </trkpt>
      <trkpt lat="46.00211" lon="1.18284">
        <ele>344.77</ele>
        <time>2018-05-27T10:39:15Z</time>
      </trkpt>
      <trkpt lat="46.00151" lon="1.18264">
        <ele>348.13</ele>
        <time>2018-05-27T10:39:30Z</time>
      </trkpt>
      <trkpt lat="46.00115" lon="1.18249">
        <ele>350.54</ele>
        <time>2018-05-27T10:39:41Z</time>
      </trkpt>
      <trkpt lat="46.00105" lon="1.18242">
        <ele>351.02</ele>
        <time>2018-05-27T10:39:51Z</time>
      </trkpt>
      <trkpt lat="46.00104" lon="1.18243">
        <ele>351.02</ele>
        <time>2018-05-27T10:40:11Z</time>
      </trkpt>
      <trkpt lat="46.00103" lon="1.18245">
        <ele>351.02</ele>
        <time>2018-05-27T10:40:34Z</time>
      </trkpt>
      <trkpt lat="46.00096" lon="1.1823">
        <ele>350.54</ele>
        <time>2018-05-27T10:40:39Z</time>
      </trkpt>
      <trkpt lat="46.00093" lon="1.18227">
        <ele>350.06</ele>
        <time>2018-05-27T10:40:40Z</time>
      </trkpt>
      <trkpt lat="46.0008" lon="1.18218">
        <ele>349.58</ele>
        <time>2018-05-27T10:40:43Z</time>
      </trkpt>
      <trkpt lat="46.00059" lon="1.18206">
        <ele>347.65</ele>
        <time>2018-05-27T10:40:47Z</time>
      </trkpt>
      <trkpt lat="46.00048" lon="1.18199">
        <ele>346.21</ele>
        <time>2018-05-27T10:40:49Z</time>
      </trkpt>
      <trkpt lat="46.00025" lon="1.18179">
        <ele>345.25</ele>
        <time>2018-05-27T10:40:57Z</time>
      </trkpt>
      <trkpt lat="46.00009" lon="1.18157">
        <ele>342.85</ele>
        <time>2018-05-27T10:41:08Z</time>
      </trkpt>
      <trkpt lat="46.00006" lon="1.18155">
        <ele>342.85</ele>
        <time>2018-05-27T10:41:10Z</time>
      </trkpt>
      <trkpt lat="46.00005" lon="1.18154">
        <ele>342.85</ele>
        <time>2018-05-27T10:41:11Z</time>
      </trkpt>
      <trkpt lat="46.00003" lon="1.18152">
        <ele>342.37</ele>
        <time>2018-05-27T10:41:12Z</time>
      </trkpt>
      <trkpt lat="46" lon="1.1815">
        <ele>341.89</ele>
        <time>2018-05-27T10:41:13Z</time>
      </trkpt>
      <trkpt lat="45.99998" lon="1.18148">
        <ele>341.89</ele>
        <time>2018-05-27T10:41:14Z</time>
      </trkpt>
      <trkpt lat="45.99996" lon="1.18147">
        <ele>341.89</ele>
        <time>2018-05-27T10:41:15Z</time>
      </trkpt>
      <trkpt lat="45.99974" lon="1.1813">
        <ele>340.44</ele>
        <time>2018-05-27T10:41:25Z</time>
      </trkpt>
      <trkpt lat="45.9994" lon="1.18089">
        <ele>339.96</ele>
        <time>2018-05-27T10:41:37Z</time>
      </trkpt>
      <trkpt lat="45.99946" lon="1.18031">
        <ele>340.44</ele>
        <time>2018-05-27T10:41:48Z</time>
      </trkpt>
      <trkpt lat="45.99947" lon="1.18027">
        <ele>340.92</ele>
        <time>2018-05-27T10:41:49Z</time>
      </trkpt>
      <trkpt lat="45.99949" lon="1.18019">
        <ele>340.92</ele>
        <time>2018-05-27T10:42:00Z</time>
      </trkpt>
      <trkpt lat="45.99951" lon="1.18017">
        <ele>340.92</ele>
        <time>2018-05-27T10:42:23Z</time>
      </trkpt>
      <trkpt lat="45.99956" lon="1.1798">
        <ele>339.48</ele>
        <time>2018-05-27T10:42:30Z</time>
      </trkpt>
      <trkpt lat="45.99956" lon="1.17973">
        <ele>339.48</ele>
        <time>2018-05-27T10:42:31Z</time>
      </trkpt>
      <trkpt lat="45.99957" lon="1.17966">
        <ele>339.48</ele>
        <time>2018-05-27T10:42:32Z</time>
      </trkpt>
      <trkpt lat="45.99958" lon="1.1796">
        <ele>339.48</ele>
        <time>2018-05-27T10:42:33Z</time>
      </trkpt>
      <trkpt lat="45.9996" lon="1.17952">
        <ele>338.52</ele>
        <time>2018-05-27T10:42:34Z</time>
      </trkpt>
      <trkpt lat="45.99962" lon="1.17934">
        <ele>338.52</ele>
        <time>2018-05-27T10:42:36Z</time>
      </trkpt>
      <trkpt lat="45.99963" lon="1.17924">
        <ele>337.56</ele>
        <time>2018-05-27T10:42:37Z</time>
      </trkpt>
      <trkpt lat="45.99964" lon="1.17914">
        <ele>336.6</ele>
        <time>2018-05-27T10:42:38Z</time>
      </trkpt>
      <trkpt lat="45.99965" lon="1.17904">
        <ele>336.12</ele>
        <time>2018-05-27T10:42:39Z</time>
      </trkpt>
      <trkpt lat="45.99965" lon="1.17896">
        <ele>336.12</ele>
        <time>2018-05-27T10:42:40Z</time>
      </trkpt>
      <trkpt lat="45.99965" lon="1.17888">
        <ele>336.12</ele>
        <time>2018-05-27T10:42:41Z</time>
      </trkpt>
      <trkpt lat="45.99964" lon="1.17877">
        <ele>336.12</ele>
        <time>2018-05-27T10:42:43Z</time>
      </trkpt>
      <trkpt lat="45.99963" lon="1.17873">
        <ele>335.64</ele>
        <time>2018-05-27T10:42:44Z</time>
      </trkpt>
      <trkpt lat="45.9996" lon="1.17869">
        <ele>336.12</ele>
        <time>2018-05-27T10:42:45Z</time>
      </trkpt>
      <trkpt lat="45.99958" lon="1.17865">
        <ele>336.12</ele>
        <time>2018-05-27T10:42:46Z</time>
      </trkpt>
      <trkpt lat="45.99955" lon="1.17863">
        <ele>335.64</ele>
        <time>2018-05-27T10:42:47Z</time>
      </trkpt>
      <trkpt lat="45.99951" lon="1.17861">
        <ele>335.64</ele>
        <time>2018-05-27T10:42:48Z</time>
      </trkpt>
      <trkpt lat="45.99947" lon="1.17861">
        <ele>336.12</ele>
        <time>2018-05-27T10:42:49Z</time>
      </trkpt>
      <trkpt lat="45.99943" lon="1.1786">
        <ele>336.12</ele>
        <time>2018-05-27T10:42:50Z</time>
      </trkpt>
      <trkpt lat="45.99938" lon="1.17859">
        <ele>336.6</ele>
        <time>2018-05-27T10:42:51Z</time>
      </trkpt>
      <trkpt lat="45.99933" lon="1.17857">
        <ele>337.08</ele>
        <time>2018-05-27T10:42:52Z</time>
      </trkpt>
      <trkpt lat="45.99928" lon="1.17854">
        <ele>337.08</ele>
        <time>2018-05-27T10:42:53Z</time>
      </trkpt>
      <trkpt lat="45.99923" lon="1.17851">
        <ele>337.56</ele>
        <time>2018-05-27T10:42:54Z</time>
      </trkpt>
      <trkpt lat="45.99879" lon="1.1783">
        <ele>340.44</ele>
        <time>2018-05-27T10:43:04Z</time>
      </trkpt>
      <trkpt lat="45.99847" lon="1.17809">
        <ele>342.37</ele>
        <time>2018-05-27T10:43:11Z</time>
      </trkpt>
      <trkpt lat="45.99842" lon="1.17805">
        <ele>342.37</ele>
        <time>2018-05-27T10:43:12Z</time>
      </trkpt>
      <trkpt lat="45.99815" lon="1.1779">
        <ele>344.29</ele>
        <time>2018-05-27T10:43:18Z</time>
      </trkpt>
      <trkpt lat="45.99811" lon="1.17788">
        <ele>344.29</ele>
        <time>2018-05-27T10:43:19Z</time>
      </trkpt>
      <trkpt lat="45.99794" lon="1.17778">
        <ele>345.25</ele>
        <time>2018-05-27T10:43:23Z</time>
      </trkpt>
      <trkpt lat="45.99786" lon="1.17769">
        <ele>346.69</ele>
        <time>2018-05-27T10:43:26Z</time>
      </trkpt>
      <trkpt lat="45.99785" lon="1.17764">
        <ele>346.21</ele>
        <time>2018-05-27T10:43:27Z</time>
      </trkpt>
      <trkpt lat="45.99786" lon="1.17758">
        <ele>345.73</ele>
        <time>2018-05-27T10:43:28Z</time>
      </trkpt>
      <trkpt lat="45.99805" lon="1.17692">
        <ele>341.89</ele>
        <time>2018-05-27T10:43:36Z</time>
      </trkpt>
      <trkpt lat="45.99819" lon="1.17647">
        <ele>341.89</ele>
        <time>2018-05-27T10:43:41Z</time>
      </trkpt>
      <trkpt lat="45.99826" lon="1.17629">
        <ele>343.81</ele>
        <time>2018-05-27T10:43:44Z</time>
      </trkpt>
      <trkpt lat="45.99828" lon="1.17616">
        <ele>343.81</ele>
        <time>2018-05-27T10:43:46Z</time>
      </trkpt>
      <trkpt lat="45.99841" lon="1.17571">
        <ele>344.29</ele>
        <time>2018-05-27T10:43:56Z</time>
      </trkpt>
      <trkpt lat="45.99839" lon="1.17572">
        <ele>344.29</ele>
        <time>2018-05-27T10:43:57Z</time>
      </trkpt>
      <trkpt lat="45.99838" lon="1.17573">
        <ele>343.81</ele>
        <time>2018-05-27T10:43:58Z</time>
      </trkpt>
      <trkpt lat="45.99837" lon="1.17576">
        <ele>343.81</ele>
        <time>2018-05-27T10:43:59Z</time>
      </trkpt>
      <trkpt lat="45.99837" lon="1.17579">
        <ele>343.81</ele>
        <time>2018-05-27T10:44:00Z</time>
      </trkpt>
      <trkpt lat="45.99836" lon="1.17582">
        <ele>343.81</ele>
        <time>2018-05-27T10:44:01Z</time>
      </trkpt>
      <trkpt lat="45.99835" lon="1.17586">
        <ele>343.81</ele>
        <time>2018-05-27T10:44:02Z</time>
      </trkpt>
      <trkpt lat="45.99834" lon="1.1759">
        <ele>343.81</ele>
        <time>2018-05-27T10:44:03Z</time>
      </trkpt>
      <trkpt lat="45.99833" lon="1.17594">
        <ele>343.81</ele>
        <time>2018-05-27T10:44:04Z</time>
      </trkpt>
      <trkpt lat="45.99832" lon="1.17597">
        <ele>343.81</ele>
        <time>2018-05-27T10:44:05Z</time>
      </trkpt>
      <trkpt lat="45.9983" lon="1.17599">
        <ele>343.81</ele>
        <time>2018-05-27T10:44:06Z</time>
      </trkpt>
      <trkpt lat="45.99828" lon="1.17597">
        <ele>343.33</ele>
        <time>2018-05-27T10:44:07Z</time>
      </trkpt>
      <trkpt lat="45.99827" lon="1.17593">
        <ele>342.85</ele>
        <time>2018-05-27T10:44:08Z</time>
      </trkpt>
      <trkpt lat="45.99827" lon="1.17588">
        <ele>342.85</ele>
        <time>2018-05-27T10:44:09Z</time>
      </trkpt>
      <trkpt lat="45.99828" lon="1.17583">
        <ele>342.37</ele>
        <time>2018-05-27T10:44:10Z</time>
      </trkpt>
      <trkpt lat="45.9983" lon="1.17577">
        <ele>341.89</ele>
        <time>2018-05-27T10:44:11Z</time>
      </trkpt>
      <trkpt lat="45.99832" lon="1.17564">
        <ele>341.41</ele>
        <time>2018-05-27T10:44:13Z</time>
      </trkpt>
      <trkpt lat="45.99832" lon="1.17557">
        <ele>340.92</ele>
        <time>2018-05-27T10:44:14Z</time>
      </trkpt>
      <trkpt lat="45.99832" lon="1.1755">
        <ele>340.92</ele>
        <time>2018-05-27T10:44:15Z</time>
      </trkpt>
      <trkpt lat="45.9983" lon="1.17536">
        <ele>340.44</ele>
        <time>2018-05-27T10:44:17Z</time>
      </trkpt>
      <trkpt lat="45.99828" lon="1.1753">
        <ele>340.44</ele>
        <time>2018-05-27T10:44:18Z</time>
      </trkpt>
      <trkpt lat="45.99821" lon="1.17504">
        <ele>339.96</ele>
        <time>2018-05-27T10:44:23Z</time>
      </trkpt>
      <trkpt lat="45.99818" lon="1.17498">
        <ele>339.48</ele>
        <time>2018-05-27T10:44:24Z</time>
      </trkpt>
      <trkpt lat="45.99816" lon="1.17493">
        <ele>339</ele>
        <time>2018-05-27T10:44:25Z</time>
      </trkpt>
      <trkpt lat="45.99809" lon="1.17477">
        <ele>338.52</ele>
        <time>2018-05-27T10:44:28Z</time>
      </trkpt>
      <trkpt lat="45.99804" lon="1.17461">
        <ele>338.52</ele>
        <time>2018-05-27T10:44:31Z</time>
      </trkpt>
      <trkpt lat="45.99805" lon="1.17435">
        <ele>338.04</ele>
        <time>2018-05-27T10:44:35Z</time>
      </trkpt>
      <trkpt lat="45.99796" lon="1.17405">
        <ele>338.04</ele>
        <time>2018-05-27T10:44:39Z</time>
      </trkpt>
      <trkpt lat="45.99794" lon="1.17398">
        <ele>338.52</ele>
        <time>2018-05-27T10:44:40Z</time>
      </trkpt>
      <trkpt lat="45.99791" lon="1.1739">
        <ele>338.04</ele>
        <time>2018-05-27T10:44:41Z</time>
      </trkpt>
      <trkpt lat="45.99786" lon="1.17375">
        <ele>338.04</ele>
        <time>2018-05-27T10:44:43Z</time>
      </trkpt>
      <trkpt lat="45.99784" lon="1.17369">
        <ele>338.04</ele>
        <time>2018-05-27T10:44:44Z</time>
      </trkpt>
      <trkpt lat="45.99776" lon="1.17356">
        <ele>337.08</ele>
        <time>2018-05-27T10:44:46Z</time>
      </trkpt>
      <trkpt lat="45.99753" lon="1.17317">
        <ele>333.71</ele>
        <time>2018-05-27T10:44:54Z</time>
      </trkpt>
      <trkpt lat="45.99752" lon="1.17312">
        <ele>333.23</ele>
        <time>2018-05-27T10:44:55Z</time>
      </trkpt>
      <trkpt lat="45.99752" lon="1.17307">
        <ele>333.23</ele>
        <time>2018-05-27T10:44:56Z</time>
      </trkpt>
      <trkpt lat="45.99753" lon="1.17301">
        <ele>332.75</ele>
        <time>2018-05-27T10:44:57Z</time>
      </trkpt>
      <trkpt lat="45.99754" lon="1.17296">
        <ele>332.75</ele>
        <time>2018-05-27T10:44:58Z</time>
      </trkpt>
      <trkpt lat="45.99756" lon="1.17293">
        <ele>332.75</ele>
        <time>2018-05-27T10:44:59Z</time>
      </trkpt>
      <trkpt lat="45.99757" lon="1.17291">
        <ele>333.23</ele>
        <time>2018-05-27T10:45:00Z</time>
      </trkpt>
      <trkpt lat="45.99757" lon="1.17282">
        <ele>333.23</ele>
        <time>2018-05-27T10:45:11Z</time>
      </trkpt>
      <trkpt lat="45.99758" lon="1.17276">
        <ele>332.75</ele>
        <time>2018-05-27T10:45:28Z</time>
      </trkpt>
      <trkpt lat="45.99759" lon="1.17267">
        <ele>331.31</ele>
        <time>2018-05-27T10:45:34Z</time>
      </trkpt>
      <trkpt lat="45.9976" lon="1.17264">
        <ele>331.31</ele>
        <time>2018-05-27T10:45:35Z</time>
      </trkpt>
      <trkpt lat="45.99761" lon="1.17262">
        <ele>331.31</ele>
        <time>2018-05-27T10:45:36Z</time>
      </trkpt>
      <trkpt lat="45.99782" lon="1.17235">
        <ele>328.43</ele>
        <time>2018-05-27T10:45:46Z</time>
      </trkpt>
      <trkpt lat="45.99803" lon="1.17208">
        <ele>326.02</ele>
        <time>2018-05-27T10:45:53Z</time>
      </trkpt>
      <trkpt lat="45.99807" lon="1.17204">
        <ele>326.02</ele>
        <time>2018-05-27T10:45:54Z</time>
      </trkpt>
      <trkpt lat="45.99811" lon="1.172">
        <ele>325.54</ele>
        <time>2018-05-27T10:45:55Z</time>
      </trkpt>
      <trkpt lat="45.99815" lon="1.17195">
        <ele>325.06</ele>
        <time>2018-05-27T10:45:56Z</time>
      </trkpt>
      <trkpt lat="45.99819" lon="1.17191">
        <ele>325.06</ele>
        <time>2018-05-27T10:45:57Z</time>
      </trkpt>
      <trkpt lat="45.99823" lon="1.17186">
        <ele>325.06</ele>
        <time>2018-05-27T10:45:58Z</time>
      </trkpt>
      <trkpt lat="45.99827" lon="1.17181">
        <ele>324.58</ele>
        <time>2018-05-27T10:45:59Z</time>
      </trkpt>
      <trkpt lat="45.99831" lon="1.17176">
        <ele>324.1</ele>
        <time>2018-05-27T10:46:00Z</time>
      </trkpt>
      <trkpt lat="45.9984" lon="1.17162">
        <ele>323.14</ele>
        <time>2018-05-27T10:46:02Z</time>
      </trkpt>
      <trkpt lat="45.99849" lon="1.17147">
        <ele>322.18</ele>
        <time>2018-05-27T10:46:04Z</time>
      </trkpt>
      <trkpt lat="45.99854" lon="1.17138">
        <ele>321.7</ele>
        <time>2018-05-27T10:46:05Z</time>
      </trkpt>
      <trkpt lat="45.99858" lon="1.17131">
        <ele>321.22</ele>
        <time>2018-05-27T10:46:06Z</time>
      </trkpt>
      <trkpt lat="45.99864" lon="1.17125">
        <ele>321.22</ele>
        <time>2018-05-27T10:46:07Z</time>
      </trkpt>
      <trkpt lat="45.9987" lon="1.17119">
        <ele>321.7</ele>
        <time>2018-05-27T10:46:08Z</time>
      </trkpt>
      <trkpt lat="45.99875" lon="1.17112">
        <ele>320.74</ele>
        <time>2018-05-27T10:46:09Z</time>
      </trkpt>
      <trkpt lat="45.9988" lon="1.17107">
        <ele>321.7</ele>
        <time>2018-05-27T10:46:10Z</time>
      </trkpt>
      <trkpt lat="45.99886" lon="1.17102">
        <ele>322.18</ele>
        <time>2018-05-27T10:46:11Z</time>
      </trkpt>
      <trkpt lat="45.9989" lon="1.17096">
        <ele>321.7</ele>
        <time>2018-05-27T10:46:12Z</time>
      </trkpt>
      <trkpt lat="45.99893" lon="1.17089">
        <ele>321.22</ele>
        <time>2018-05-27T10:46:13Z</time>
      </trkpt>
      <trkpt lat="45.99897" lon="1.17082">
        <ele>320.26</ele>
        <time>2018-05-27T10:46:14Z</time>
      </trkpt>
      <trkpt lat="45.99901" lon="1.17075">
        <ele>319.78</ele>
        <time>2018-05-27T10:46:15Z</time>
      </trkpt>
      <trkpt lat="45.99904" lon="1.17067">
        <ele>319.78</ele>
        <time>2018-05-27T10:46:16Z</time>
      </trkpt>
      <trkpt lat="45.99907" lon="1.1706">
        <ele>319.3</ele>
        <time>2018-05-27T10:46:17Z</time>
      </trkpt>
      <trkpt lat="45.99911" lon="1.17054">
        <ele>319.3</ele>
        <time>2018-05-27T10:46:18Z</time>
      </trkpt>
      <trkpt lat="45.99914" lon="1.17047">
        <ele>318.81</ele>
        <time>2018-05-27T10:46:19Z</time>
      </trkpt>
      <trkpt lat="45.99932" lon="1.17005">
        <ele>316.41</ele>
        <time>2018-05-27T10:46:25Z</time>
      </trkpt>
      <trkpt lat="45.99934" lon="1.16998">
        <ele>315.45</ele>
        <time>2018-05-27T10:46:26Z</time>
      </trkpt>
      <trkpt lat="45.99941" lon="1.16979">
        <ele>314.49</ele>
        <time>2018-05-27T10:46:29Z</time>
      </trkpt>
      <trkpt lat="45.99941" lon="1.16972">
        <ele>313.53</ele>
        <time>2018-05-27T10:46:30Z</time>
      </trkpt>
      <trkpt lat="45.99941" lon="1.16964">
        <ele>313.05</ele>
        <time>2018-05-27T10:46:31Z</time>
      </trkpt>
      <trkpt lat="45.9994" lon="1.16945">
        <ele>311.6</ele>
        <time>2018-05-27T10:46:33Z</time>
      </trkpt>
      <trkpt lat="45.99939" lon="1.16935">
        <ele>310.64</ele>
        <time>2018-05-27T10:46:34Z</time>
      </trkpt>
      <trkpt lat="45.99937" lon="1.16927">
        <ele>310.16</ele>
        <time>2018-05-27T10:46:35Z</time>
      </trkpt>
      <trkpt lat="45.99936" lon="1.16921">
        <ele>309.68</ele>
        <time>2018-05-27T10:46:36Z</time>
      </trkpt>
      <trkpt lat="45.99934" lon="1.16915">
        <ele>308.72</ele>
        <time>2018-05-27T10:46:37Z</time>
      </trkpt>
      <trkpt lat="45.99933" lon="1.16909">
        <ele>308.24</ele>
        <time>2018-05-27T10:46:38Z</time>
      </trkpt>
      <trkpt lat="45.99931" lon="1.16905">
        <ele>307.76</ele>
        <time>2018-05-27T10:46:39Z</time>
      </trkpt>
      <trkpt lat="45.99929" lon="1.16901">
        <ele>307.28</ele>
        <time>2018-05-27T10:46:40Z</time>
      </trkpt>
      <trkpt lat="45.99921" lon="1.16894">
        <ele>306.32</ele>
        <time>2018-05-27T10:46:43Z</time>
      </trkpt>
      <trkpt lat="45.99906" lon="1.16884">
        <ele>301.99</ele>
        <time>2018-05-27T10:46:48Z</time>
      </trkpt>
      <trkpt lat="45.99902" lon="1.16881">
        <ele>301.99</ele>
        <time>2018-05-27T10:46:49Z</time>
      </trkpt>
      <trkpt lat="45.99893" lon="1.16874">
        <ele>300.55</ele>
        <time>2018-05-27T10:46:51Z</time>
      </trkpt>
      <trkpt lat="45.99888" lon="1.16871">
        <ele>299.59</ele>
        <time>2018-05-27T10:46:52Z</time>
      </trkpt>
      <trkpt lat="45.99883" lon="1.16867">
        <ele>298.63</ele>
        <time>2018-05-27T10:46:53Z</time>
      </trkpt>
      <trkpt lat="45.99878" lon="1.16863">
        <ele>298.63</ele>
        <time>2018-05-27T10:46:54Z</time>
      </trkpt>
      <trkpt lat="45.99868" lon="1.16855">
        <ele>297.18</ele>
        <time>2018-05-27T10:46:56Z</time>
      </trkpt>
      <trkpt lat="45.99862" lon="1.16851">
        <ele>297.18</ele>
        <time>2018-05-27T10:46:57Z</time>
      </trkpt>
      <trkpt lat="45.99858" lon="1.16848">
        <ele>296.22</ele>
        <time>2018-05-27T10:46:58Z</time>
      </trkpt>
      <trkpt lat="45.99854" lon="1.16844">
        <ele>295.74</ele>
        <time>2018-05-27T10:46:59Z</time>
      </trkpt>
      <trkpt lat="45.99849" lon="1.1684">
        <ele>295.26</ele>
        <time>2018-05-27T10:47:00Z</time>
      </trkpt>
      <trkpt lat="45.99844" lon="1.16835">
        <ele>295.26</ele>
        <time>2018-05-27T10:47:01Z</time>
      </trkpt>
      <trkpt lat="45.99838" lon="1.1683">
        <ele>294.3</ele>
        <time>2018-05-27T10:47:02Z</time>
      </trkpt>
      <trkpt lat="45.99832" lon="1.16826">
        <ele>293.82</ele>
        <time>2018-05-27T10:47:03Z</time>
      </trkpt>
      <trkpt lat="45.99827" lon="1.16822">
        <ele>293.82</ele>
        <time>2018-05-27T10:47:04Z</time>
      </trkpt>
      <trkpt lat="45.99812" lon="1.1681">
        <ele>293.34</ele>
        <time>2018-05-27T10:47:07Z</time>
      </trkpt>
      <trkpt lat="45.99787" lon="1.16781">
        <ele>292.38</ele>
        <time>2018-05-27T10:47:14Z</time>
      </trkpt>
      <trkpt lat="45.99776" lon="1.16742">
        <ele>289.01</ele>
        <time>2018-05-27T10:47:19Z</time>
      </trkpt>
      <trkpt lat="45.99773" lon="1.16734">
        <ele>288.05</ele>
        <time>2018-05-27T10:47:20Z</time>
      </trkpt>
      <trkpt lat="45.99771" lon="1.16728">
        <ele>287.09</ele>
        <time>2018-05-27T10:47:21Z</time>
      </trkpt>
      <trkpt lat="45.99769" lon="1.16722">
        <ele>287.09</ele>
        <time>2018-05-27T10:47:22Z</time>
      </trkpt>
      <trkpt lat="45.99766" lon="1.16716">
        <ele>286.13</ele>
        <time>2018-05-27T10:47:23Z</time>
      </trkpt>
      <trkpt lat="45.99763" lon="1.16709">
        <ele>285.65</ele>
        <time>2018-05-27T10:47:24Z</time>
      </trkpt>
      <trkpt lat="45.9975" lon="1.16683">
        <ele>285.65</ele>
        <time>2018-05-27T10:47:28Z</time>
      </trkpt>
      <trkpt lat="45.99737" lon="1.16654">
        <ele>287.09</ele>
        <time>2018-05-27T10:47:33Z</time>
      </trkpt>
      <trkpt lat="45.99734" lon="1.16647">
        <ele>288.05</ele>
        <time>2018-05-27T10:47:35Z</time>
      </trkpt>
      <trkpt lat="45.99732" lon="1.16645">
        <ele>288.53</ele>
        <time>2018-05-27T10:47:36Z</time>
      </trkpt>
      <trkpt lat="45.99731" lon="1.16642">
        <ele>288.53</ele>
        <time>2018-05-27T10:47:37Z</time>
      </trkpt>
      <trkpt lat="45.99731" lon="1.16639">
        <ele>288.53</ele>
        <time>2018-05-27T10:47:38Z</time>
      </trkpt>
      <trkpt lat="45.99732" lon="1.16635">
        <ele>288.05</ele>
        <time>2018-05-27T10:47:39Z</time>
      </trkpt>
      <trkpt lat="45.99733" lon="1.16631">
        <ele>288.05</ele>
        <time>2018-05-27T10:47:40Z</time>
      </trkpt>
      <trkpt lat="45.99734" lon="1.16626">
        <ele>287.57</ele>
        <time>2018-05-27T10:47:41Z</time>
      </trkpt>
      <trkpt lat="45.99735" lon="1.16622">
        <ele>288.53</ele>
        <time>2018-05-27T10:47:42Z</time>
      </trkpt>
      <trkpt lat="45.99736" lon="1.16617">
        <ele>288.53</ele>
        <time>2018-05-27T10:47:43Z</time>
      </trkpt>
      <trkpt lat="45.99737" lon="1.16614">
        <ele>288.05</ele>
        <time>2018-05-27T10:47:44Z</time>
      </trkpt>
      <trkpt lat="45.99747" lon="1.16589">
        <ele>287.09</ele>
        <time>2018-05-27T10:47:51Z</time>
      </trkpt>
      <trkpt lat="45.99752" lon="1.16586">
        <ele>288.05</ele>
        <time>2018-05-27T10:47:53Z</time>
      </trkpt>
      <trkpt lat="45.99758" lon="1.16585">
        <ele>288.05</ele>
        <time>2018-05-27T10:47:55Z</time>
      </trkpt>
      <trkpt lat="45.9978" lon="1.16557">
        <ele>289.97</ele>
        <time>2018-05-27T10:48:05Z</time>
      </trkpt>
      <trkpt lat="45.99809" lon="1.16516">
        <ele>291.42</ele>
        <time>2018-05-27T10:48:17Z</time>
      </trkpt>
      <trkpt lat="45.99838" lon="1.16489">
        <ele>290.94</ele>
        <time>2018-05-27T10:48:26Z</time>
      </trkpt>
      <trkpt lat="45.99882" lon="1.1648">
        <ele>290.46</ele>
        <time>2018-05-27T10:48:38Z</time>
      </trkpt>
      <trkpt lat="45.99915" lon="1.16471">
        <ele>288.53</ele>
        <time>2018-05-27T10:48:47Z</time>
      </trkpt>
      <trkpt lat="45.99925" lon="1.16467">
        <ele>288.05</ele>
        <time>2018-05-27T10:48:49Z</time>
      </trkpt>
      <trkpt lat="45.99961" lon="1.16455">
        <ele>287.57</ele>
        <time>2018-05-27T10:48:57Z</time>
      </trkpt>
      <trkpt lat="45.9997" lon="1.16452">
        <ele>287.57</ele>
        <time>2018-05-27T10:48:59Z</time>
      </trkpt>
      <trkpt lat="46.0002" lon="1.16437">
        <ele>287.09</ele>
        <time>2018-05-27T10:49:11Z</time>
      </trkpt>
      <trkpt lat="46.00024" lon="1.16435">
        <ele>286.61</ele>
        <time>2018-05-27T10:49:12Z</time>
      </trkpt>
      <trkpt lat="46.00058" lon="1.16425">
        <ele>285.17</ele>
        <time>2018-05-27T10:49:19Z</time>
      </trkpt>
      <trkpt lat="46.00063" lon="1.16425">
        <ele>285.17</ele>
        <time>2018-05-27T10:49:20Z</time>
      </trkpt>
      <trkpt lat="46.00067" lon="1.16427">
        <ele>285.17</ele>
        <time>2018-05-27T10:49:21Z</time>
      </trkpt>
      <trkpt lat="46.00071" lon="1.1643">
        <ele>285.17</ele>
        <time>2018-05-27T10:49:22Z</time>
      </trkpt>
      <trkpt lat="46.00075" lon="1.16433">
        <ele>285.17</ele>
        <time>2018-05-27T10:49:23Z</time>
      </trkpt>
      <trkpt lat="46.00079" lon="1.16435">
        <ele>285.17</ele>
        <time>2018-05-27T10:49:24Z</time>
      </trkpt>
      <trkpt lat="46.00106" lon="1.16441">
        <ele>286.13</ele>
        <time>2018-05-27T10:49:34Z</time>
      </trkpt>
      <trkpt lat="46.00107" lon="1.1644">
        <ele>286.61</ele>
        <time>2018-05-27T10:49:35Z</time>
      </trkpt>
      <trkpt lat="46.00108" lon="1.16438">
        <ele>287.09</ele>
        <time>2018-05-27T10:49:36Z</time>
      </trkpt>
      <trkpt lat="46.00108" lon="1.16436">
        <ele>286.61</ele>
        <time>2018-05-27T10:49:37Z</time>
      </trkpt>
      <trkpt lat="46.00107" lon="1.16435">
        <ele>286.61</ele>
        <time>2018-05-27T10:49:38Z</time>
      </trkpt>
      <trkpt lat="46.00105" lon="1.16434">
        <ele>286.61</ele>
        <time>2018-05-27T10:49:39Z</time>
      </trkpt>
      <trkpt lat="46.00104" lon="1.16432">
        <ele>286.61</ele>
        <time>2018-05-27T10:49:40Z</time>
      </trkpt>
      <trkpt lat="46.00102" lon="1.16431">
        <ele>286.61</ele>
        <time>2018-05-27T10:49:41Z</time>
      </trkpt>
      <trkpt lat="46.00101" lon="1.1643">
        <ele>286.61</ele>
        <time>2018-05-27T10:49:42Z</time>
      </trkpt>
      <trkpt lat="46.001" lon="1.16429">
        <ele>286.61</ele>
        <time>2018-05-27T10:49:43Z</time>
      </trkpt>
      <trkpt lat="46.00099" lon="1.16427">
        <ele>286.61</ele>
        <time>2018-05-27T10:49:44Z</time>
      </trkpt>
      <trkpt lat="46.00098" lon="1.16425">
        <ele>287.09</ele>
        <time>2018-05-27T10:49:45Z</time>
      </trkpt>
      <trkpt lat="46.00094" lon="1.16417">
        <ele>287.57</ele>
        <time>2018-05-27T10:49:56Z</time>
      </trkpt>
      <trkpt lat="46.0009" lon="1.16415">
        <ele>288.05</ele>
        <time>2018-05-27T10:50:07Z</time>
      </trkpt>
      <trkpt lat="46.00085" lon="1.16404">
        <ele>288.05</ele>
        <time>2018-05-27T10:50:19Z</time>
      </trkpt>
      <trkpt lat="46.00086" lon="1.16401">
        <ele>288.53</ele>
        <time>2018-05-27T10:50:22Z</time>
      </trkpt>
      <trkpt lat="46.00086" lon="1.164">
        <ele>288.05</ele>
        <time>2018-05-27T10:50:23Z</time>
      </trkpt>
      <trkpt lat="46.00087" lon="1.16399">
        <ele>289.01</ele>
        <time>2018-05-27T10:50:27Z</time>
      </trkpt>
      <trkpt lat="46.00088" lon="1.16398">
        <ele>288.05</ele>
        <time>2018-05-27T10:50:28Z</time>
      </trkpt>
      <trkpt lat="46.00089" lon="1.16397">
        <ele>288.05</ele>
        <time>2018-05-27T10:50:30Z</time>
      </trkpt>
      <trkpt lat="46.00089" lon="1.16395">
        <ele>288.05</ele>
        <time>2018-05-27T10:50:39Z</time>
      </trkpt>
      <trkpt lat="46.00089" lon="1.16395">
        <ele>288.05</ele>
        <time>2018-05-27T10:50:54Z</time>
      </trkpt>
      <trkpt lat="46.00087" lon="1.16395">
        <ele>288.05</ele>
        <time>2018-05-27T10:51:09Z</time>
      </trkpt>
      <trkpt lat="46.00083" lon="1.16391">
        <ele>288.53</ele>
        <time>2018-05-27T10:51:18Z</time>
      </trkpt>
      <trkpt lat="46.00082" lon="1.16389">
        <ele>288.53</ele>
        <time>2018-05-27T10:51:19Z</time>
      </trkpt>
      <trkpt lat="46.00062" lon="1.16356">
        <ele>289.97</ele>
        <time>2018-05-27T10:51:35Z</time>
      </trkpt>
      <trkpt lat="46.00059" lon="1.16323">
        <ele>287.09</ele>
        <time>2018-05-27T10:51:41Z</time>
      </trkpt>
      <trkpt lat="46.00058" lon="1.16315">
        <ele>286.61</ele>
        <time>2018-05-27T10:51:42Z</time>
      </trkpt>
      <trkpt lat="46.00054" lon="1.1629">
        <ele>285.65</ele>
        <time>2018-05-27T10:51:45Z</time>
      </trkpt>
      <trkpt lat="46.00059" lon="1.16245">
        <ele>287.09</ele>
        <time>2018-05-27T10:51:53Z</time>
      </trkpt>
      <trkpt lat="46.00059" lon="1.16241">
        <ele>287.09</ele>
        <time>2018-05-27T10:51:54Z</time>
      </trkpt>
      <trkpt lat="46.00058" lon="1.16232">
        <ele>287.57</ele>
        <time>2018-05-27T10:51:56Z</time>
      </trkpt>
      <trkpt lat="46.00053" lon="1.16201">
        <ele>289.97</ele>
        <time>2018-05-27T10:52:03Z</time>
      </trkpt>
      <trkpt lat="46.00055" lon="1.16159">
        <ele>291.9</ele>
        <time>2018-05-27T10:52:15Z</time>
      </trkpt>
      <trkpt lat="46.00055" lon="1.16145">
        <ele>292.38</ele>
        <time>2018-05-27T10:52:19Z</time>
      </trkpt>
      <trkpt lat="46.00052" lon="1.16097">
        <ele>294.3</ele>
        <time>2018-05-27T10:52:31Z</time>
      </trkpt>
      <trkpt lat="46.00048" lon="1.16088">
        <ele>295.26</ele>
        <time>2018-05-27T10:52:34Z</time>
      </trkpt>
      <trkpt lat="46.0003" lon="1.16072">
        <ele>297.18</ele>
        <time>2018-05-27T10:52:45Z</time>
      </trkpt>
      <trkpt lat="46.00025" lon="1.16067">
        <ele>298.15</ele>
        <time>2018-05-27T10:52:48Z</time>
      </trkpt>
      <trkpt lat="46.00019" lon="1.16062">
        <ele>298.63</ele>
        <time>2018-05-27T10:52:51Z</time>
      </trkpt>
      <trkpt lat="46.00016" lon="1.16059">
        <ele>298.63</ele>
        <time>2018-05-27T10:52:53Z</time>
      </trkpt>
      <trkpt lat="45.99992" lon="1.1604">
        <ele>302.47</ele>
        <time>2018-05-27T10:53:06Z</time>
      </trkpt>
      <trkpt lat="45.99974" lon="1.16028">
        <ele>303.43</ele>
        <time>2018-05-27T10:53:16Z</time>
      </trkpt>
      <trkpt lat="45.99962" lon="1.16017">
        <ele>304.88</ele>
        <time>2018-05-27T10:53:22Z</time>
      </trkpt>
      <trkpt lat="45.99948" lon="1.16011">
        <ele>305.84</ele>
        <time>2018-05-27T10:53:29Z</time>
      </trkpt>
      <trkpt lat="45.99944" lon="1.16008">
        <ele>306.32</ele>
        <time>2018-05-27T10:53:32Z</time>
      </trkpt>
      <trkpt lat="45.99918" lon="1.16001">
        <ele>308.72</ele>
        <time>2018-05-27T10:53:45Z</time>
      </trkpt>
      <trkpt lat="45.99912" lon="1.15999">
        <ele>310.16</ele>
        <time>2018-05-27T10:53:48Z</time>
      </trkpt>
      <trkpt lat="45.99911" lon="1.15998">
        <ele>310.16</ele>
        <time>2018-05-27T10:53:49Z</time>
      </trkpt>
      <trkpt lat="45.9988" lon="1.15988">
        <ele>312.09</ele>
        <time>2018-05-27T10:54:04Z</time>
      </trkpt>
      <trkpt lat="45.99851" lon="1.15982">
        <ele>314.97</ele>
        <time>2018-05-27T10:54:19Z</time>
      </trkpt>
      <trkpt lat="45.99821" lon="1.15979">
        <ele>316.89</ele>
        <time>2018-05-27T10:54:34Z</time>
      </trkpt>
      <trkpt lat="45.99788" lon="1.15988">
        <ele>319.3</ele>
        <time>2018-05-27T10:54:50Z</time>
      </trkpt>
      <trkpt lat="45.99763" lon="1.16005">
        <ele>321.22</ele>
        <time>2018-05-27T10:55:03Z</time>
      </trkpt>
      <trkpt lat="45.99739" lon="1.16014">
        <ele>321.22</ele>
        <time>2018-05-27T10:55:15Z</time>
      </trkpt>
      <trkpt lat="45.99733" lon="1.16016">
        <ele>321.7</ele>
        <time>2018-05-27T10:55:26Z</time>
      </trkpt>
      <trkpt lat="45.99733" lon="1.16017">
        <ele>321.7</ele>
        <time>2018-05-27T10:55:48Z</time>
      </trkpt>
      <trkpt lat="45.99732" lon="1.16016">
        <ele>321.22</ele>
        <time>2018-05-27T10:56:19Z</time>
      </trkpt>
      <trkpt lat="45.99717" lon="1.16019">
        <ele>321.7</ele>
        <time>2018-05-27T10:56:37Z</time>
      </trkpt>
      <trkpt lat="45.99693" lon="1.1603">
        <ele>322.66</ele>
        <time>2018-05-27T10:56:48Z</time>
      </trkpt>
      <trkpt lat="45.99661" lon="1.16039">
        <ele>324.1</ele>
        <time>2018-05-27T10:57:01Z</time>
      </trkpt>
      <trkpt lat="45.99634" lon="1.16042">
        <ele>325.54</ele>
        <time>2018-05-27T10:57:12Z</time>
      </trkpt>
      <trkpt lat="45.99631" lon="1.16043">
        <ele>325.54</ele>
        <time>2018-05-27T10:57:13Z</time>
      </trkpt>
      <trkpt lat="45.99621" lon="1.16041">
        <ele>326.02</ele>
        <time>2018-05-27T10:57:17Z</time>
      </trkpt>
      <trkpt lat="45.99609" lon="1.16036">
        <ele>326.02</ele>
        <time>2018-05-27T10:57:22Z</time>
      </trkpt>
      <trkpt lat="45.99575" lon="1.16025">
        <ele>327.47</ele>
        <time>2018-05-27T10:57:35Z</time>
      </trkpt>
      <trkpt lat="45.99566" lon="1.16021">
        <ele>327.95</ele>
        <time>2018-05-27T10:57:39Z</time>
      </trkpt>
      <trkpt lat="45.99546" lon="1.16024">
        <ele>330.35</ele>
        <time>2018-05-27T10:57:51Z</time>
      </trkpt>
      <trkpt lat="45.99541" lon="1.16029">
        <ele>331.79</ele>
        <time>2018-05-27T10:57:54Z</time>
      </trkpt>
      <trkpt lat="45.99513" lon="1.16053">
        <ele>335.16</ele>
        <time>2018-05-27T10:58:09Z</time>
      </trkpt>
      <trkpt lat="45.99495" lon="1.1607">
        <ele>336.6</ele>
        <time>2018-05-27T10:58:20Z</time>
      </trkpt>
      <trkpt lat="45.99487" lon="1.16076">
        <ele>337.08</ele>
        <time>2018-05-27T10:58:24Z</time>
      </trkpt>
      <trkpt lat="45.99482" lon="1.16079">
        <ele>338.04</ele>
        <time>2018-05-27T10:58:28Z</time>
      </trkpt>
      <trkpt lat="45.99463" lon="1.16085">
        <ele>336.6</ele>
        <time>2018-05-27T10:58:43Z</time>
      </trkpt>
      <trkpt lat="45.99455" lon="1.16086">
        <ele>336.6</ele>
        <time>2018-05-27T10:58:56Z</time>
      </trkpt>
      <trkpt lat="45.99454" lon="1.16086">
        <ele>336.6</ele>
        <time>2018-05-27T10:59:22Z</time>
      </trkpt>
      <trkpt lat="45.99438" lon="1.16085">
        <ele>335.64</ele>
        <time>2018-05-27T10:59:34Z</time>
      </trkpt>
      <trkpt lat="45.99401" lon="1.16072">
        <ele>334.2</ele>
        <time>2018-05-27T10:59:46Z</time>
      </trkpt>
      <trkpt lat="45.99351" lon="1.16061">
        <ele>332.75</ele>
        <time>2018-05-27T10:59:58Z</time>
      </trkpt>
      <trkpt lat="45.99336" lon="1.16049">
        <ele>333.23</ele>
        <time>2018-05-27T11:00:02Z</time>
      </trkpt>
      <trkpt lat="45.99332" lon="1.16048">
        <ele>332.75</ele>
        <time>2018-05-27T11:00:03Z</time>
      </trkpt>
      <trkpt lat="45.99327" lon="1.16047">
        <ele>332.75</ele>
        <time>2018-05-27T11:00:04Z</time>
      </trkpt>
      <trkpt lat="45.9927" lon="1.16034">
        <ele>332.27</ele>
        <time>2018-05-27T11:00:19Z</time>
      </trkpt>
      <trkpt lat="45.99223" lon="1.16017">
        <ele>333.23</ele>
        <time>2018-05-27T11:00:32Z</time>
      </trkpt>
      <trkpt lat="45.99199" lon="1.16001">
        <ele>332.27</ele>
        <time>2018-05-27T11:00:41Z</time>
      </trkpt>
      <trkpt lat="45.99199" lon="1.15998">
        <ele>332.27</ele>
        <time>2018-05-27T11:00:42Z</time>
      </trkpt>
      <trkpt lat="45.99199" lon="1.15995">
        <ele>331.79</ele>
        <time>2018-05-27T11:00:43Z</time>
      </trkpt>
      <trkpt lat="45.992" lon="1.15991">
        <ele>332.27</ele>
        <time>2018-05-27T11:00:44Z</time>
      </trkpt>
      <trkpt lat="45.992" lon="1.15987">
        <ele>332.27</ele>
        <time>2018-05-27T11:00:45Z</time>
      </trkpt>
      <trkpt lat="45.992" lon="1.15984">
        <ele>331.79</ele>
        <time>2018-05-27T11:00:46Z</time>
      </trkpt>
      <trkpt lat="45.99199" lon="1.15979">
        <ele>332.27</ele>
        <time>2018-05-27T11:00:47Z</time>
      </trkpt>
      <trkpt lat="45.99199" lon="1.15975">
        <ele>331.79</ele>
        <time>2018-05-27T11:00:48Z</time>
      </trkpt>
      <trkpt lat="45.99199" lon="1.15971">
        <ele>331.79</ele>
        <time>2018-05-27T11:00:49Z</time>
      </trkpt>
      <trkpt lat="45.99199" lon="1.15968">
        <ele>330.83</ele>
        <time>2018-05-27T11:00:50Z</time>
      </trkpt>
      <trkpt lat="45.992" lon="1.15966">
        <ele>331.31</ele>
        <time>2018-05-27T11:00:51Z</time>
      </trkpt>
      <trkpt lat="45.992" lon="1.15964">
        <ele>331.79</ele>
        <time>2018-05-27T11:00:52Z</time>
      </trkpt>
      <trkpt lat="45.992" lon="1.15961">
        <ele>331.31</ele>
        <time>2018-05-27T11:00:53Z</time>
      </trkpt>
      <trkpt lat="45.992" lon="1.15958">
        <ele>331.79</ele>
        <time>2018-05-27T11:00:54Z</time>
      </trkpt>
      <trkpt lat="45.99201" lon="1.15955">
        <ele>331.31</ele>
        <time>2018-05-27T11:00:55Z</time>
      </trkpt>
      <trkpt lat="45.99201" lon="1.1595">
        <ele>330.83</ele>
        <time>2018-05-27T11:00:56Z</time>
      </trkpt>
      <trkpt lat="45.99202" lon="1.15946">
        <ele>330.83</ele>
        <time>2018-05-27T11:00:57Z</time>
      </trkpt>
      <trkpt lat="45.99203" lon="1.1594">
        <ele>330.35</ele>
        <time>2018-05-27T11:00:58Z</time>
      </trkpt>
      <trkpt lat="45.99204" lon="1.15935">
        <ele>330.35</ele>
        <time>2018-05-27T11:00:59Z</time>
      </trkpt>
      <trkpt lat="45.99205" lon="1.1593">
        <ele>329.39</ele>
        <time>2018-05-27T11:01:00Z</time>
      </trkpt>
      <trkpt lat="45.99206" lon="1.15921">
        <ele>328.91</ele>
        <time>2018-05-27T11:01:02Z</time>
      </trkpt>
      <trkpt lat="45.99204" lon="1.15918">
        <ele>328.91</ele>
        <time>2018-05-27T11:01:03Z</time>
      </trkpt>
      <trkpt lat="45.99203" lon="1.15915">
        <ele>329.39</ele>
        <time>2018-05-27T11:01:04Z</time>
      </trkpt>
      <trkpt lat="45.99201" lon="1.15915">
        <ele>329.39</ele>
        <time>2018-05-27T11:01:13Z</time>
      </trkpt>
      <trkpt lat="45.99194" lon="1.15907">
        <ele>328.43</ele>
        <time>2018-05-27T11:01:17Z</time>
      </trkpt>
      <trkpt lat="45.9916" lon="1.15882">
        <ele>326.5</ele>
        <time>2018-05-27T11:01:28Z</time>
      </trkpt>
      <trkpt lat="45.99147" lon="1.15875">
        <ele>325.54</ele>
        <time>2018-05-27T11:01:31Z</time>
      </trkpt>
      <trkpt lat="45.99129" lon="1.15865">
        <ele>324.1</ele>
        <time>2018-05-27T11:01:35Z</time>
      </trkpt>
      <trkpt lat="45.99118" lon="1.15855">
        <ele>323.14</ele>
        <time>2018-05-27T11:01:38Z</time>
      </trkpt>
      <trkpt lat="45.991" lon="1.1582">
        <ele>320.26</ele>
        <time>2018-05-27T11:01:47Z</time>
      </trkpt>
      <trkpt lat="45.99092" lon="1.15813">
        <ele>318.81</ele>
        <time>2018-05-27T11:01:50Z</time>
      </trkpt>
      <trkpt lat="45.99068" lon="1.15791">
        <ele>316.89</ele>
        <time>2018-05-27T11:01:57Z</time>
      </trkpt>
      <trkpt lat="45.99035" lon="1.15766">
        <ele>313.05</ele>
        <time>2018-05-27T11:02:05Z</time>
      </trkpt>
      <trkpt lat="45.99032" lon="1.15763">
        <ele>313.05</ele>
        <time>2018-05-27T11:02:06Z</time>
      </trkpt>
      <trkpt lat="45.99008" lon="1.1575">
        <ele>310.16</ele>
        <time>2018-05-27T11:02:13Z</time>
      </trkpt>
      <trkpt lat="45.98976" lon="1.15734">
        <ele>306.8</ele>
        <time>2018-05-27T11:02:22Z</time>
      </trkpt>
      <trkpt lat="45.98973" lon="1.15731">
        <ele>306.32</ele>
        <time>2018-05-27T11:02:23Z</time>
      </trkpt>
      <trkpt lat="45.98963" lon="1.15723">
        <ele>304.88</ele>
        <time>2018-05-27T11:02:26Z</time>
      </trkpt>
      <trkpt lat="45.9892" lon="1.15704">
        <ele>301.51</ele>
        <time>2018-05-27T11:02:36Z</time>
      </trkpt>
      <trkpt lat="45.98914" lon="1.157">
        <ele>301.03</ele>
        <time>2018-05-27T11:02:37Z</time>
      </trkpt>
      <trkpt lat="45.9888" lon="1.15679">
        <ele>299.11</ele>
        <time>2018-05-27T11:02:43Z</time>
      </trkpt>
      <trkpt lat="45.98815" lon="1.15655">
        <ele>297.18</ele>
        <time>2018-05-27T11:02:56Z</time>
      </trkpt>
      <trkpt lat="45.98775" lon="1.15639">
        <ele>296.22</ele>
        <time>2018-05-27T11:03:05Z</time>
      </trkpt>
      <trkpt lat="45.98742" lon="1.15618">
        <ele>293.34</ele>
        <time>2018-05-27T11:03:17Z</time>
      </trkpt>
      <trkpt lat="45.9874" lon="1.15615">
        <ele>293.34</ele>
        <time>2018-05-27T11:03:19Z</time>
      </trkpt>
      <trkpt lat="45.98738" lon="1.1561">
        <ele>292.86</ele>
        <time>2018-05-27T11:03:21Z</time>
      </trkpt>
      <trkpt lat="45.98743" lon="1.15588">
        <ele>291.42</ele>
        <time>2018-05-27T11:03:28Z</time>
      </trkpt>
      <trkpt lat="45.98745" lon="1.15568">
        <ele>290.46</ele>
        <time>2018-05-27T11:03:40Z</time>
      </trkpt>
      <trkpt lat="45.98746" lon="1.15566">
        <ele>290.94</ele>
        <time>2018-05-27T11:03:46Z</time>
      </trkpt>
      <trkpt lat="45.98747" lon="1.15562">
        <ele>290.46</ele>
        <time>2018-05-27T11:03:51Z</time>
      </trkpt>
      <trkpt lat="45.98734" lon="1.15546">
        <ele>290.94</ele>
        <time>2018-05-27T11:03:58Z</time>
      </trkpt>
      <trkpt lat="45.98706" lon="1.15535">
        <ele>291.9</ele>
        <time>2018-05-27T11:04:05Z</time>
      </trkpt>
      <trkpt lat="45.98688" lon="1.15514">
        <ele>291.9</ele>
        <time>2018-05-27T11:04:11Z</time>
      </trkpt>
      <trkpt lat="45.98688" lon="1.15508">
        <ele>290.94</ele>
        <time>2018-05-27T11:04:12Z</time>
      </trkpt>
      <trkpt lat="45.98689" lon="1.15501">
        <ele>290.94</ele>
        <time>2018-05-27T11:04:13Z</time>
      </trkpt>
      <trkpt lat="45.9869" lon="1.15494">
        <ele>290.46</ele>
        <time>2018-05-27T11:04:14Z</time>
      </trkpt>
      <trkpt lat="45.98692" lon="1.15487">
        <ele>288.53</ele>
        <time>2018-05-27T11:04:15Z</time>
      </trkpt>
      <trkpt lat="45.98693" lon="1.1548">
        <ele>290.46</ele>
        <time>2018-05-27T11:04:16Z</time>
      </trkpt>
      <trkpt lat="45.98693" lon="1.15473">
        <ele>289.49</ele>
        <time>2018-05-27T11:04:17Z</time>
      </trkpt>
      <trkpt lat="45.98692" lon="1.15465">
        <ele>289.49</ele>
        <time>2018-05-27T11:04:18Z</time>
      </trkpt>
      <trkpt lat="45.98691" lon="1.15456">
        <ele>289.01</ele>
        <time>2018-05-27T11:04:19Z</time>
      </trkpt>
      <trkpt lat="45.98681" lon="1.15403">
        <ele>286.61</ele>
        <time>2018-05-27T11:04:28Z</time>
      </trkpt>
      <trkpt lat="45.98679" lon="1.15401">
        <ele>286.61</ele>
        <time>2018-05-27T11:04:29Z</time>
      </trkpt>
      <trkpt lat="45.98676" lon="1.15401">
        <ele>286.61</ele>
        <time>2018-05-27T11:04:30Z</time>
      </trkpt>
      <trkpt lat="45.98673" lon="1.15403">
        <ele>286.61</ele>
        <time>2018-05-27T11:04:31Z</time>
      </trkpt>
      <trkpt lat="45.98669" lon="1.15405">
        <ele>286.13</ele>
        <time>2018-05-27T11:04:32Z</time>
      </trkpt>
      <trkpt lat="45.98666" lon="1.15409">
        <ele>286.61</ele>
        <time>2018-05-27T11:04:33Z</time>
      </trkpt>
      <trkpt lat="45.98662" lon="1.15412">
        <ele>286.61</ele>
        <time>2018-05-27T11:04:34Z</time>
      </trkpt>
      <trkpt lat="45.98658" lon="1.15415">
        <ele>286.13</ele>
        <time>2018-05-27T11:04:35Z</time>
      </trkpt>
      <trkpt lat="45.98647" lon="1.15425">
        <ele>285.65</ele>
        <time>2018-05-27T11:04:38Z</time>
      </trkpt>
      <trkpt lat="45.98609" lon="1.15458">
        <ele>283.73</ele>
        <time>2018-05-27T11:04:47Z</time>
      </trkpt>
      <trkpt lat="45.98587" lon="1.15473">
        <ele>284.21</ele>
        <time>2018-05-27T11:04:53Z</time>
      </trkpt>
      <trkpt lat="45.98583" lon="1.15475">
        <ele>283.73</ele>
        <time>2018-05-27T11:04:54Z</time>
      </trkpt>
      <trkpt lat="45.98556" lon="1.1549">
        <ele>279.88</ele>
        <time>2018-05-27T11:04:59Z</time>
      </trkpt>
      <trkpt lat="45.98551" lon="1.15491">
        <ele>279.88</ele>
        <time>2018-05-27T11:05:00Z</time>
      </trkpt>
      <trkpt lat="45.98545" lon="1.15491">
        <ele>278.44</ele>
        <time>2018-05-27T11:05:01Z</time>
      </trkpt>
      <trkpt lat="45.98538" lon="1.1549">
        <ele>277.96</ele>
        <time>2018-05-27T11:05:02Z</time>
      </trkpt>
      <trkpt lat="45.98532" lon="1.15488">
        <ele>276.04</ele>
        <time>2018-05-27T11:05:03Z</time>
      </trkpt>
      <trkpt lat="45.98525" lon="1.15486">
        <ele>276.04</ele>
        <time>2018-05-27T11:05:04Z</time>
      </trkpt>
      <trkpt lat="45.98511" lon="1.15482">
        <ele>274.11</ele>
        <time>2018-05-27T11:05:06Z</time>
      </trkpt>
      <trkpt lat="45.98506" lon="1.15482">
        <ele>273.15</ele>
        <time>2018-05-27T11:05:07Z</time>
      </trkpt>
      <trkpt lat="45.985" lon="1.15484">
        <ele>272.67</ele>
        <time>2018-05-27T11:05:08Z</time>
      </trkpt>
      <trkpt lat="45.98496" lon="1.15488">
        <ele>272.19</ele>
        <time>2018-05-27T11:05:09Z</time>
      </trkpt>
      <trkpt lat="45.98492" lon="1.15493">
        <ele>272.67</ele>
        <time>2018-05-27T11:05:10Z</time>
      </trkpt>
      <trkpt lat="45.98487" lon="1.155">
        <ele>271.23</ele>
        <time>2018-05-27T11:05:11Z</time>
      </trkpt>
      <trkpt lat="45.98482" lon="1.15509">
        <ele>269.79</ele>
        <time>2018-05-27T11:05:12Z</time>
      </trkpt>
      <trkpt lat="45.9847" lon="1.15532">
        <ele>267.86</ele>
        <time>2018-05-27T11:05:15Z</time>
      </trkpt>
      <trkpt lat="45.98468" lon="1.15538">
        <ele>268.35</ele>
        <time>2018-05-27T11:05:16Z</time>
      </trkpt>
      <trkpt lat="45.98466" lon="1.15542">
        <ele>268.35</ele>
        <time>2018-05-27T11:05:17Z</time>
      </trkpt>
      <trkpt lat="45.98463" lon="1.15545">
        <ele>268.35</ele>
        <time>2018-05-27T11:05:18Z</time>
      </trkpt>
      <trkpt lat="45.9846" lon="1.15547">
        <ele>267.86</ele>
        <time>2018-05-27T11:05:19Z</time>
      </trkpt>
      <trkpt lat="45.98457" lon="1.15549">
        <ele>267.86</ele>
        <time>2018-05-27T11:05:20Z</time>
      </trkpt>
      <trkpt lat="45.98455" lon="1.1555">
        <ele>268.35</ele>
        <time>2018-05-27T11:05:21Z</time>
      </trkpt>
      <trkpt lat="45.98428" lon="1.15555">
        <ele>268.35</ele>
        <time>2018-05-27T11:05:33Z</time>
      </trkpt>
      <trkpt lat="45.98403" lon="1.15559">
        <ele>269.31</ele>
        <time>2018-05-27T11:05:44Z</time>
      </trkpt>
      <trkpt lat="45.98398" lon="1.15559">
        <ele>269.79</ele>
        <time>2018-05-27T11:05:46Z</time>
      </trkpt>
      <trkpt lat="45.98375" lon="1.15548">
        <ele>270.75</ele>
        <time>2018-05-27T11:05:57Z</time>
      </trkpt>
      <trkpt lat="45.98354" lon="1.15529">
        <ele>271.71</ele>
        <time>2018-05-27T11:06:07Z</time>
      </trkpt>
      <trkpt lat="45.98343" lon="1.15522">
        <ele>273.63</ele>
        <time>2018-05-27T11:06:13Z</time>
      </trkpt>
      <trkpt lat="45.98326" lon="1.15502">
        <ele>274.11</ele>
        <time>2018-05-27T11:06:25Z</time>
      </trkpt>
      <trkpt lat="45.98305" lon="1.15482">
        <ele>274.11</ele>
        <time>2018-05-27T11:06:35Z</time>
      </trkpt>
      <trkpt lat="45.98281" lon="1.15461">
        <ele>275.56</ele>
        <time>2018-05-27T11:06:46Z</time>
      </trkpt>
      <trkpt lat="45.98263" lon="1.15464">
        <ele>277</ele>
        <time>2018-05-27T11:06:56Z</time>
      </trkpt>
      <trkpt lat="45.98246" lon="1.15473">
        <ele>279.4</ele>
        <time>2018-05-27T11:07:07Z</time>
      </trkpt>
      <trkpt lat="45.98225" lon="1.15477">
        <ele>281.32</ele>
        <time>2018-05-27T11:07:20Z</time>
      </trkpt>
      <trkpt lat="45.98222" lon="1.15477">
        <ele>281.8</ele>
        <time>2018-05-27T11:07:22Z</time>
      </trkpt>
      <trkpt lat="45.98213" lon="1.15475">
        <ele>282.77</ele>
        <time>2018-05-27T11:07:27Z</time>
      </trkpt>
      <trkpt lat="45.98196" lon="1.15474">
        <ele>283.73</ele>
        <time>2018-05-27T11:07:34Z</time>
      </trkpt>
      <trkpt lat="45.98178" lon="1.15468">
        <ele>284.69</ele>
        <time>2018-05-27T11:07:43Z</time>
      </trkpt>
      <trkpt lat="45.9817" lon="1.15466">
        <ele>285.65</ele>
        <time>2018-05-27T11:07:48Z</time>
      </trkpt>
      <trkpt lat="45.98163" lon="1.15465">
        <ele>285.65</ele>
        <time>2018-05-27T11:08:03Z</time>
      </trkpt>
      <trkpt lat="45.98161" lon="1.15468">
        <ele>282.28</ele>
        <time>2018-05-27T11:08:34Z</time>
      </trkpt>
      <trkpt lat="45.98161" lon="1.15468">
        <ele>286.13</ele>
        <time>2018-05-27T11:08:36Z</time>
      </trkpt>
      <trkpt lat="45.98161" lon="1.15467">
        <ele>285.17</ele>
        <time>2018-05-27T11:08:37Z</time>
      </trkpt>
      <trkpt lat="45.98151" lon="1.15461">
        <ele>285.65</ele>
        <time>2018-05-27T11:08:45Z</time>
      </trkpt>
      <trkpt lat="45.98107" lon="1.15458">
        <ele>286.61</ele>
        <time>2018-05-27T11:08:57Z</time>
      </trkpt>
      <trkpt lat="45.98063" lon="1.15469">
        <ele>287.09</ele>
        <time>2018-05-27T11:09:10Z</time>
      </trkpt>
      <trkpt lat="45.98028" lon="1.15478">
        <ele>286.61</ele>
        <time>2018-05-27T11:09:21Z</time>
      </trkpt>
      <trkpt lat="45.97989" lon="1.15485">
        <ele>289.01</ele>
        <time>2018-05-27T11:09:35Z</time>
      </trkpt>
      <trkpt lat="45.97961" lon="1.15477">
        <ele>291.42</ele>
        <time>2018-05-27T11:09:47Z</time>
      </trkpt>
      <trkpt lat="45.97953" lon="1.15468">
        <ele>292.86</ele>
        <time>2018-05-27T11:09:53Z</time>
      </trkpt>
      <trkpt lat="45.97935" lon="1.15455">
        <ele>295.74</ele>
        <time>2018-05-27T11:10:05Z</time>
      </trkpt>
      <trkpt lat="45.9793" lon="1.15453">
        <ele>296.22</ele>
        <time>2018-05-27T11:10:08Z</time>
      </trkpt>
      <trkpt lat="45.97909" lon="1.15444">
        <ele>300.07</ele>
        <time>2018-05-27T11:10:22Z</time>
      </trkpt>
      <trkpt lat="45.97902" lon="1.15441">
        <ele>301.51</ele>
        <time>2018-05-27T11:10:27Z</time>
      </trkpt>
      <trkpt lat="45.97886" lon="1.15434">
        <ele>304.88</ele>
        <time>2018-05-27T11:10:39Z</time>
      </trkpt>
      <trkpt lat="45.97866" lon="1.15432">
        <ele>307.76</ele>
        <time>2018-05-27T11:10:53Z</time>
      </trkpt>
      <trkpt lat="45.97849" lon="1.15429">
        <ele>310.64</ele>
        <time>2018-05-27T11:11:05Z</time>
      </trkpt>
      <trkpt lat="45.9783" lon="1.15426">
        <ele>314.01</ele>
        <time>2018-05-27T11:11:18Z</time>
      </trkpt>
      <trkpt lat="45.97812" lon="1.15418">
        <ele>315.93</ele>
        <time>2018-05-27T11:11:31Z</time>
      </trkpt>
      <trkpt lat="45.9779" lon="1.15396">
        <ele>318.33</ele>
        <time>2018-05-27T11:11:48Z</time>
      </trkpt>
      <trkpt lat="45.97769" lon="1.15372">
        <ele>320.74</ele>
        <time>2018-05-27T11:12:05Z</time>
      </trkpt>
      <trkpt lat="45.97748" lon="1.15357">
        <ele>324.1</ele>
        <time>2018-05-27T11:12:20Z</time>
      </trkpt>
      <trkpt lat="45.97723" lon="1.15351">
        <ele>326.02</ele>
        <time>2018-05-27T11:12:35Z</time>
      </trkpt>
      <trkpt lat="45.97699" lon="1.15366">
        <ele>328.91</ele>
        <time>2018-05-27T11:12:49Z</time>
      </trkpt>
      <trkpt lat="45.97678" lon="1.15384">
        <ele>331.31</ele>
        <time>2018-05-27T11:13:03Z</time>
      </trkpt>
      <trkpt lat="45.97661" lon="1.15405">
        <ele>334.2</ele>
        <time>2018-05-27T11:13:17Z</time>
      </trkpt>
      <trkpt lat="45.97658" lon="1.15408">
        <ele>334.68</ele>
        <time>2018-05-27T11:13:19Z</time>
      </trkpt>
      <trkpt lat="45.97655" lon="1.15412">
        <ele>335.16</ele>
        <time>2018-05-27T11:13:21Z</time>
      </trkpt>
      <trkpt lat="45.97654" lon="1.15424">
        <ele>336.6</ele>
        <time>2018-05-27T11:13:26Z</time>
      </trkpt>
      <trkpt lat="45.97668" lon="1.15461">
        <ele>337.08</ele>
        <time>2018-05-27T11:13:38Z</time>
      </trkpt>
      <trkpt lat="45.97678" lon="1.15515">
        <ele>338.52</ele>
        <time>2018-05-27T11:13:52Z</time>
      </trkpt>
      <trkpt lat="45.97683" lon="1.15571">
        <ele>340.92</ele>
        <time>2018-05-27T11:14:06Z</time>
      </trkpt>
      <trkpt lat="45.97682" lon="1.15583">
        <ele>340.92</ele>
        <time>2018-05-27T11:14:11Z</time>
      </trkpt>
      <trkpt lat="45.97679" lon="1.15587">
        <ele>341.41</ele>
        <time>2018-05-27T11:14:21Z</time>
      </trkpt>
    </trkseg>
  </trk>
</gpx>